<?xml version="1.0" encoding="UTF-8" standalone="no" ?>
<gpx xmlns="http://www.topografix.com/GPX/1/1" xmlns:xsi="http://www.w3.org/2001/XMLSchema-instance" xsi:schemaLocation="http://www.topografix.com/GPX/1/1 http://www.topografix.com/GPX/1/1/gpx.xsd" version="1.1" creator="VisuGPX - https://www.visugpx.com">
  <metadata>
    <name>Entrainement Simon et Antonin</name>
    <desc><![CDATA[Entrainement Poussin-Benjamin.]]></desc>
  </metadata>
  <trk>
    <name><![CDATA[Entrainement Simon et Antonin_1]]></name>
    <trkseg>
      <trkpt lat="47.80075" lon="2.14251">
        <ele>117</ele>
        <time>2018-03-03T12:42:17.692Z</time>
      </trkpt>
      <trkpt lat="47.80075" lon="2.14251">
        <ele>117</ele>
        <time>2018-03-03T12:42:18.676Z</time>
      </trkpt>
      <trkpt lat="47.8008" lon="2.14255">
        <ele>119</ele>
        <time>2018-03-03T12:42:19.686Z</time>
      </trkpt>
      <trkpt lat="47.8008" lon="2.14255">
        <ele>119</ele>
        <time>2018-03-03T12:42:20.694Z</time>
      </trkpt>
      <trkpt lat="47.80084" lon="2.14254">
        <ele>119</ele>
        <time>2018-03-03T12:42:21.669Z</time>
      </trkpt>
      <trkpt lat="47.80086" lon="2.14254">
        <ele>119</ele>
        <time>2018-03-03T12:42:22.668Z</time>
      </trkpt>
      <trkpt lat="47.80086" lon="2.14254">
        <ele>119</ele>
        <time>2018-03-03T12:42:23.665Z</time>
      </trkpt>
      <trkpt lat="47.80092" lon="2.14253">
        <ele>119</ele>
        <time>2018-03-03T12:42:24.687Z</time>
      </trkpt>
      <trkpt lat="47.80094" lon="2.14252">
        <ele>119</ele>
        <time>2018-03-03T12:42:25.690Z</time>
      </trkpt>
      <trkpt lat="47.80094" lon="2.14252">
        <ele>119</ele>
        <time>2018-03-03T12:42:26.690Z</time>
      </trkpt>
      <trkpt lat="47.801" lon="2.1425">
        <ele>119</ele>
        <time>2018-03-03T12:42:27.691Z</time>
      </trkpt>
      <trkpt lat="47.80103" lon="2.14249">
        <ele>119</ele>
        <time>2018-03-03T12:42:28.695Z</time>
      </trkpt>
      <trkpt lat="47.80103" lon="2.14249">
        <ele>119</ele>
        <time>2018-03-03T12:42:29.688Z</time>
      </trkpt>
      <trkpt lat="47.80109" lon="2.14248">
        <ele>119</ele>
        <time>2018-03-03T12:42:30.688Z</time>
      </trkpt>
      <trkpt lat="47.80112" lon="2.14247">
        <ele>118</ele>
        <time>2018-03-03T12:42:31.702Z</time>
      </trkpt>
      <trkpt lat="47.80112" lon="2.14247">
        <ele>118</ele>
        <time>2018-03-03T12:42:32.697Z</time>
      </trkpt>
      <trkpt lat="47.80117" lon="2.14245">
        <ele>116</ele>
        <time>2018-03-03T12:42:33.694Z</time>
      </trkpt>
      <trkpt lat="47.80117" lon="2.14245">
        <ele>116</ele>
        <time>2018-03-03T12:42:34.692Z</time>
      </trkpt>
      <trkpt lat="47.80124" lon="2.14243">
        <ele>116</ele>
        <time>2018-03-03T12:42:35.696Z</time>
      </trkpt>
      <trkpt lat="47.80124" lon="2.14243">
        <ele>116</ele>
        <time>2018-03-03T12:42:36.687Z</time>
      </trkpt>
      <trkpt lat="47.80132" lon="2.14242">
        <ele>115</ele>
        <time>2018-03-03T12:42:37.692Z</time>
      </trkpt>
      <trkpt lat="47.80132" lon="2.14242">
        <ele>115</ele>
        <time>2018-03-03T12:42:38.697Z</time>
      </trkpt>
      <trkpt lat="47.8014" lon="2.1424">
        <ele>115</ele>
        <time>2018-03-03T12:42:39.693Z</time>
      </trkpt>
      <trkpt lat="47.8014" lon="2.1424">
        <ele>115</ele>
        <time>2018-03-03T12:42:40.686Z</time>
      </trkpt>
      <trkpt lat="47.80148" lon="2.14238">
        <ele>115</ele>
        <time>2018-03-03T12:42:41.686Z</time>
      </trkpt>
      <trkpt lat="47.80148" lon="2.14238">
        <ele>115</ele>
        <time>2018-03-03T12:42:42.679Z</time>
      </trkpt>
      <trkpt lat="47.80156" lon="2.14237">
        <ele>114</ele>
        <time>2018-03-03T12:42:43.671Z</time>
      </trkpt>
      <trkpt lat="47.80156" lon="2.14237">
        <ele>114</ele>
        <time>2018-03-03T12:42:44.666Z</time>
      </trkpt>
      <trkpt lat="47.80164" lon="2.14235">
        <ele>114</ele>
        <time>2018-03-03T12:42:45.669Z</time>
      </trkpt>
      <trkpt lat="47.80167" lon="2.14234">
        <ele>114</ele>
        <time>2018-03-03T12:42:46.698Z</time>
      </trkpt>
      <trkpt lat="47.80167" lon="2.14234">
        <ele>114</ele>
        <time>2018-03-03T12:42:47.696Z</time>
      </trkpt>
      <trkpt lat="47.80173" lon="2.14233">
        <ele>114</ele>
        <time>2018-03-03T12:42:48.669Z</time>
      </trkpt>
      <trkpt lat="47.80176" lon="2.14233">
        <ele>114</ele>
        <time>2018-03-03T12:42:49.698Z</time>
      </trkpt>
      <trkpt lat="47.80177" lon="2.14233">
        <ele>113</ele>
        <time>2018-03-03T12:42:50.690Z</time>
      </trkpt>
      <trkpt lat="47.80177" lon="2.14233">
        <ele>113</ele>
        <time>2018-03-03T12:42:51.697Z</time>
      </trkpt>
      <trkpt lat="47.80179" lon="2.14233">
        <ele>113</ele>
        <time>2018-03-03T12:42:52.704Z</time>
      </trkpt>
      <trkpt lat="47.8018" lon="2.14233">
        <ele>113</ele>
        <time>2018-03-03T12:42:53.670Z</time>
      </trkpt>
      <trkpt lat="47.8018" lon="2.14233">
        <ele>113</ele>
        <time>2018-03-03T12:42:54.666Z</time>
      </trkpt>
      <trkpt lat="47.80183" lon="2.14231">
        <ele>113</ele>
        <time>2018-03-03T12:42:55.697Z</time>
      </trkpt>
      <trkpt lat="47.80183" lon="2.14231">
        <ele>113</ele>
        <time>2018-03-03T12:42:56.696Z</time>
      </trkpt>
      <trkpt lat="47.80185" lon="2.14224">
        <ele>113</ele>
        <time>2018-03-03T12:42:57.695Z</time>
      </trkpt>
      <trkpt lat="47.80185" lon="2.14224">
        <ele>113</ele>
        <time>2018-03-03T12:42:58.693Z</time>
      </trkpt>
      <trkpt lat="47.80186" lon="2.14214">
        <ele>113</ele>
        <time>2018-03-03T12:42:59.686Z</time>
      </trkpt>
      <trkpt lat="47.80185" lon="2.14208">
        <ele>113</ele>
        <time>2018-03-03T12:43:00.703Z</time>
      </trkpt>
      <trkpt lat="47.80185" lon="2.14202">
        <ele>113</ele>
        <time>2018-03-03T12:43:01.701Z</time>
      </trkpt>
      <trkpt lat="47.80185" lon="2.14202">
        <ele>113</ele>
        <time>2018-03-03T12:43:02.690Z</time>
      </trkpt>
      <trkpt lat="47.80183" lon="2.14189">
        <ele>113</ele>
        <time>2018-03-03T12:43:03.687Z</time>
      </trkpt>
      <trkpt lat="47.80183" lon="2.14189">
        <ele>113</ele>
        <time>2018-03-03T12:43:04.679Z</time>
      </trkpt>
      <trkpt lat="47.80182" lon="2.14176">
        <ele>112</ele>
        <time>2018-03-03T12:43:05.676Z</time>
      </trkpt>
      <trkpt lat="47.80182" lon="2.14176">
        <ele>112</ele>
        <time>2018-03-03T12:43:06.667Z</time>
      </trkpt>
      <trkpt lat="47.80181" lon="2.14164">
        <ele>112</ele>
        <time>2018-03-03T12:43:07.698Z</time>
      </trkpt>
      <trkpt lat="47.80181" lon="2.14164">
        <ele>112</ele>
        <time>2018-03-03T12:43:08.692Z</time>
      </trkpt>
      <trkpt lat="47.8018" lon="2.1415">
        <ele>112</ele>
        <time>2018-03-03T12:43:09.683Z</time>
      </trkpt>
      <trkpt lat="47.8018" lon="2.14144">
        <ele>112</ele>
        <time>2018-03-03T12:43:10.681Z</time>
      </trkpt>
      <trkpt lat="47.80179" lon="2.14137">
        <ele>112</ele>
        <time>2018-03-03T12:43:11.672Z</time>
      </trkpt>
      <trkpt lat="47.80179" lon="2.14137">
        <ele>112</ele>
        <time>2018-03-03T12:43:12.673Z</time>
      </trkpt>
      <trkpt lat="47.80178" lon="2.14124">
        <ele>112</ele>
        <time>2018-03-03T12:43:13.704Z</time>
      </trkpt>
      <trkpt lat="47.80178" lon="2.14124">
        <ele>112</ele>
        <time>2018-03-03T12:43:14.700Z</time>
      </trkpt>
      <trkpt lat="47.80177" lon="2.14112">
        <ele>111</ele>
        <time>2018-03-03T12:43:15.695Z</time>
      </trkpt>
      <trkpt lat="47.80177" lon="2.14112">
        <ele>111</ele>
        <time>2018-03-03T12:43:16.686Z</time>
      </trkpt>
      <trkpt lat="47.80176" lon="2.14099">
        <ele>111</ele>
        <time>2018-03-03T12:43:17.696Z</time>
      </trkpt>
      <trkpt lat="47.80176" lon="2.14099">
        <ele>111</ele>
        <time>2018-03-03T12:43:18.694Z</time>
      </trkpt>
      <trkpt lat="47.80174" lon="2.14086">
        <ele>111</ele>
        <time>2018-03-03T12:43:19.688Z</time>
      </trkpt>
      <trkpt lat="47.80174" lon="2.14086">
        <ele>111</ele>
        <time>2018-03-03T12:43:20.679Z</time>
      </trkpt>
      <trkpt lat="47.80171" lon="2.14074">
        <ele>111</ele>
        <time>2018-03-03T12:43:21.669Z</time>
      </trkpt>
      <trkpt lat="47.80171" lon="2.14074">
        <ele>111</ele>
        <time>2018-03-03T12:43:22.699Z</time>
      </trkpt>
      <trkpt lat="47.80168" lon="2.14062">
        <ele>110</ele>
        <time>2018-03-03T12:43:23.688Z</time>
      </trkpt>
      <trkpt lat="47.80167" lon="2.14056">
        <ele>110</ele>
        <time>2018-03-03T12:43:24.685Z</time>
      </trkpt>
      <trkpt lat="47.80166" lon="2.14049">
        <ele>110</ele>
        <time>2018-03-03T12:43:25.685Z</time>
      </trkpt>
      <trkpt lat="47.80166" lon="2.14043">
        <ele>110</ele>
        <time>2018-03-03T12:43:26.680Z</time>
      </trkpt>
      <trkpt lat="47.80166" lon="2.14043">
        <ele>110</ele>
        <time>2018-03-03T12:43:27.686Z</time>
      </trkpt>
      <trkpt lat="47.80166" lon="2.1403">
        <ele>110</ele>
        <time>2018-03-03T12:43:28.693Z</time>
      </trkpt>
      <trkpt lat="47.80166" lon="2.1403">
        <ele>110</ele>
        <time>2018-03-03T12:43:29.699Z</time>
      </trkpt>
      <trkpt lat="47.80162" lon="2.14019">
        <ele>110</ele>
        <time>2018-03-03T12:43:30.665Z</time>
      </trkpt>
      <trkpt lat="47.80159" lon="2.14015">
        <ele>111</ele>
        <time>2018-03-03T12:43:31.695Z</time>
      </trkpt>
      <trkpt lat="47.80159" lon="2.14015">
        <ele>111</ele>
        <time>2018-03-03T12:43:32.665Z</time>
      </trkpt>
      <trkpt lat="47.80151" lon="2.14009">
        <ele>111</ele>
        <time>2018-03-03T12:43:33.698Z</time>
      </trkpt>
      <trkpt lat="47.80148" lon="2.14006">
        <ele>111</ele>
        <time>2018-03-03T12:43:34.690Z</time>
      </trkpt>
      <trkpt lat="47.80148" lon="2.14006">
        <ele>111</ele>
        <time>2018-03-03T12:43:35.687Z</time>
      </trkpt>
      <trkpt lat="47.80141" lon="2.13997">
        <ele>111</ele>
        <time>2018-03-03T12:43:36.680Z</time>
      </trkpt>
      <trkpt lat="47.80138" lon="2.13993">
        <ele>111</ele>
        <time>2018-03-03T12:43:37.673Z</time>
      </trkpt>
      <trkpt lat="47.80138" lon="2.13993">
        <ele>111</ele>
        <time>2018-03-03T12:43:38.693Z</time>
      </trkpt>
      <trkpt lat="47.80132" lon="2.13984">
        <ele>111</ele>
        <time>2018-03-03T12:43:39.687Z</time>
      </trkpt>
      <trkpt lat="47.80128" lon="2.13979">
        <ele>110</ele>
        <time>2018-03-03T12:43:40.686Z</time>
      </trkpt>
      <trkpt lat="47.80128" lon="2.13979">
        <ele>110</ele>
        <time>2018-03-03T12:43:41.686Z</time>
      </trkpt>
      <trkpt lat="47.80122" lon="2.13969">
        <ele>110</ele>
        <time>2018-03-03T12:43:42.686Z</time>
      </trkpt>
      <trkpt lat="47.80118" lon="2.13965">
        <ele>110</ele>
        <time>2018-03-03T12:43:43.675Z</time>
      </trkpt>
      <trkpt lat="47.80118" lon="2.13965">
        <ele>110</ele>
        <time>2018-03-03T12:43:44.677Z</time>
      </trkpt>
      <trkpt lat="47.80111" lon="2.13956">
        <ele>110</ele>
        <time>2018-03-03T12:43:45.672Z</time>
      </trkpt>
      <trkpt lat="47.80111" lon="2.13956">
        <ele>110</ele>
        <time>2018-03-03T12:43:46.675Z</time>
      </trkpt>
      <trkpt lat="47.80104" lon="2.13949">
        <ele>110</ele>
        <time>2018-03-03T12:43:47.704Z</time>
      </trkpt>
      <trkpt lat="47.80104" lon="2.13949">
        <ele>110</ele>
        <time>2018-03-03T12:43:48.696Z</time>
      </trkpt>
      <trkpt lat="47.80097" lon="2.13942">
        <ele>110</ele>
        <time>2018-03-03T12:43:49.689Z</time>
      </trkpt>
      <trkpt lat="47.80097" lon="2.13942">
        <ele>110</ele>
        <time>2018-03-03T12:43:50.680Z</time>
      </trkpt>
      <trkpt lat="47.8009" lon="2.13936">
        <ele>110</ele>
        <time>2018-03-03T12:43:51.672Z</time>
      </trkpt>
      <trkpt lat="47.8009" lon="2.13936">
        <ele>110</ele>
        <time>2018-03-03T12:43:52.701Z</time>
      </trkpt>
      <trkpt lat="47.80084" lon="2.13929">
        <ele>110</ele>
        <time>2018-03-03T12:43:53.695Z</time>
      </trkpt>
      <trkpt lat="47.80084" lon="2.13929">
        <ele>110</ele>
        <time>2018-03-03T12:43:54.696Z</time>
      </trkpt>
      <trkpt lat="47.80079" lon="2.13922">
        <ele>110</ele>
        <time>2018-03-03T12:43:55.688Z</time>
      </trkpt>
      <trkpt lat="47.80079" lon="2.13922">
        <ele>110</ele>
        <time>2018-03-03T12:43:56.682Z</time>
      </trkpt>
      <trkpt lat="47.80074" lon="2.13915">
        <ele>110</ele>
        <time>2018-03-03T12:43:57.681Z</time>
      </trkpt>
      <trkpt lat="47.80074" lon="2.13915">
        <ele>110</ele>
        <time>2018-03-03T12:43:58.675Z</time>
      </trkpt>
      <trkpt lat="47.80071" lon="2.13909">
        <ele>110</ele>
        <time>2018-03-03T12:43:59.668Z</time>
      </trkpt>
      <trkpt lat="47.80071" lon="2.13909">
        <ele>110</ele>
        <time>2018-03-03T12:44:00.698Z</time>
      </trkpt>
      <trkpt lat="47.8007" lon="2.13907">
        <ele>111</ele>
        <time>2018-03-03T12:44:01.692Z</time>
      </trkpt>
      <trkpt lat="47.8007" lon="2.13907">
        <ele>110</ele>
        <time>2018-03-03T12:44:02.665Z</time>
      </trkpt>
      <trkpt lat="47.8007" lon="2.13907">
        <ele>110</ele>
        <time>2018-03-03T12:44:03.704Z</time>
      </trkpt>
      <trkpt lat="47.80064" lon="2.13906">
        <ele>110</ele>
        <time>2018-03-03T12:44:04.674Z</time>
      </trkpt>
      <trkpt lat="47.80064" lon="2.13906">
        <ele>110</ele>
        <time>2018-03-03T12:44:05.700Z</time>
      </trkpt>
      <trkpt lat="47.80059" lon="2.13913">
        <ele>110</ele>
        <time>2018-03-03T12:44:06.684Z</time>
      </trkpt>
      <trkpt lat="47.80057" lon="2.13918">
        <ele>110</ele>
        <time>2018-03-03T12:44:07.691Z</time>
      </trkpt>
      <trkpt lat="47.80056" lon="2.13924">
        <ele>110</ele>
        <time>2018-03-03T12:44:08.698Z</time>
      </trkpt>
      <trkpt lat="47.80056" lon="2.13924">
        <ele>110</ele>
        <time>2018-03-03T12:44:09.671Z</time>
      </trkpt>
      <trkpt lat="47.8005" lon="2.13933">
        <ele>110</ele>
        <time>2018-03-03T12:44:10.672Z</time>
      </trkpt>
      <trkpt lat="47.8005" lon="2.13933">
        <ele>110</ele>
        <time>2018-03-03T12:44:11.682Z</time>
      </trkpt>
      <trkpt lat="47.80042" lon="2.13931">
        <ele>110</ele>
        <time>2018-03-03T12:44:12.680Z</time>
      </trkpt>
      <trkpt lat="47.8004" lon="2.13927">
        <ele>110</ele>
        <time>2018-03-03T12:44:13.676Z</time>
      </trkpt>
      <trkpt lat="47.8004" lon="2.13927">
        <ele>110</ele>
        <time>2018-03-03T12:44:14.671Z</time>
      </trkpt>
      <trkpt lat="47.80039" lon="2.13914">
        <ele>110</ele>
        <time>2018-03-03T12:44:15.702Z</time>
      </trkpt>
      <trkpt lat="47.80039" lon="2.13914">
        <ele>110</ele>
        <time>2018-03-03T12:44:16.693Z</time>
      </trkpt>
      <trkpt lat="47.80037" lon="2.13902">
        <ele>110</ele>
        <time>2018-03-03T12:44:17.672Z</time>
      </trkpt>
      <trkpt lat="47.80037" lon="2.13902">
        <ele>110</ele>
        <time>2018-03-03T12:44:18.670Z</time>
      </trkpt>
      <trkpt lat="47.80031" lon="2.13893">
        <ele>110</ele>
        <time>2018-03-03T12:44:19.670Z</time>
      </trkpt>
      <trkpt lat="47.80027" lon="2.1389">
        <ele>110</ele>
        <time>2018-03-03T12:44:20.671Z</time>
      </trkpt>
      <trkpt lat="47.80027" lon="2.1389">
        <ele>110</ele>
        <time>2018-03-03T12:44:21.671Z</time>
      </trkpt>
      <trkpt lat="47.80019" lon="2.13884">
        <ele>110</ele>
        <time>2018-03-03T12:44:22.675Z</time>
      </trkpt>
      <trkpt lat="47.80019" lon="2.13884">
        <ele>110</ele>
        <time>2018-03-03T12:44:23.702Z</time>
      </trkpt>
      <trkpt lat="47.8001" lon="2.13878">
        <ele>110</ele>
        <time>2018-03-03T12:44:24.704Z</time>
      </trkpt>
      <trkpt lat="47.80006" lon="2.13876">
        <ele>109</ele>
        <time>2018-03-03T12:44:25.692Z</time>
      </trkpt>
      <trkpt lat="47.80006" lon="2.13876">
        <ele>109</ele>
        <time>2018-03-03T12:44:26.688Z</time>
      </trkpt>
      <trkpt lat="47.79998" lon="2.13871">
        <ele>109</ele>
        <time>2018-03-03T12:44:27.694Z</time>
      </trkpt>
      <trkpt lat="47.79998" lon="2.13871">
        <ele>109</ele>
        <time>2018-03-03T12:44:28.684Z</time>
      </trkpt>
      <trkpt lat="47.7999" lon="2.13866">
        <ele>109</ele>
        <time>2018-03-03T12:44:29.674Z</time>
      </trkpt>
      <trkpt lat="47.79986" lon="2.13863">
        <ele>109</ele>
        <time>2018-03-03T12:44:30.673Z</time>
      </trkpt>
      <trkpt lat="47.79986" lon="2.13863">
        <ele>109</ele>
        <time>2018-03-03T12:44:31.677Z</time>
      </trkpt>
      <trkpt lat="47.79977" lon="2.13858">
        <ele>109</ele>
        <time>2018-03-03T12:44:32.683Z</time>
      </trkpt>
      <trkpt lat="47.79977" lon="2.13858">
        <ele>109</ele>
        <time>2018-03-03T12:44:33.671Z</time>
      </trkpt>
      <trkpt lat="47.79969" lon="2.13852">
        <ele>109</ele>
        <time>2018-03-03T12:44:34.672Z</time>
      </trkpt>
      <trkpt lat="47.79969" lon="2.13852">
        <ele>109</ele>
        <time>2018-03-03T12:44:35.670Z</time>
      </trkpt>
      <trkpt lat="47.79962" lon="2.13845">
        <ele>109</ele>
        <time>2018-03-03T12:44:36.674Z</time>
      </trkpt>
      <trkpt lat="47.79962" lon="2.13845">
        <ele>109</ele>
        <time>2018-03-03T12:44:37.670Z</time>
      </trkpt>
      <trkpt lat="47.79954" lon="2.13838">
        <ele>109</ele>
        <time>2018-03-03T12:44:38.672Z</time>
      </trkpt>
      <trkpt lat="47.7995" lon="2.13834">
        <ele>109</ele>
        <time>2018-03-03T12:44:39.672Z</time>
      </trkpt>
      <trkpt lat="47.7995" lon="2.13834">
        <ele>109</ele>
        <time>2018-03-03T12:44:40.700Z</time>
      </trkpt>
      <trkpt lat="47.79943" lon="2.13827">
        <ele>109</ele>
        <time>2018-03-03T12:44:41.665Z</time>
      </trkpt>
      <trkpt lat="47.79939" lon="2.13823">
        <ele>109</ele>
        <time>2018-03-03T12:44:42.678Z</time>
      </trkpt>
      <trkpt lat="47.79939" lon="2.13823">
        <ele>109</ele>
        <time>2018-03-03T12:44:43.671Z</time>
      </trkpt>
      <trkpt lat="47.79932" lon="2.13816">
        <ele>109</ele>
        <time>2018-03-03T12:44:44.673Z</time>
      </trkpt>
      <trkpt lat="47.79928" lon="2.13813">
        <ele>110</ele>
        <time>2018-03-03T12:44:45.674Z</time>
      </trkpt>
      <trkpt lat="47.79928" lon="2.13813">
        <ele>110</ele>
        <time>2018-03-03T12:44:46.703Z</time>
      </trkpt>
      <trkpt lat="47.79921" lon="2.13805">
        <ele>110</ele>
        <time>2018-03-03T12:44:47.670Z</time>
      </trkpt>
      <trkpt lat="47.79917" lon="2.13802">
        <ele>110</ele>
        <time>2018-03-03T12:44:48.670Z</time>
      </trkpt>
      <trkpt lat="47.79917" lon="2.13802">
        <ele>110</ele>
        <time>2018-03-03T12:44:49.671Z</time>
      </trkpt>
      <trkpt lat="47.7991" lon="2.13794">
        <ele>110</ele>
        <time>2018-03-03T12:44:50.673Z</time>
      </trkpt>
      <trkpt lat="47.7991" lon="2.13794">
        <ele>110</ele>
        <time>2018-03-03T12:44:51.701Z</time>
      </trkpt>
      <trkpt lat="47.79902" lon="2.13787">
        <ele>110</ele>
        <time>2018-03-03T12:44:52.698Z</time>
      </trkpt>
      <trkpt lat="47.79898" lon="2.13783">
        <ele>111</ele>
        <time>2018-03-03T12:44:53.681Z</time>
      </trkpt>
      <trkpt lat="47.79898" lon="2.13783">
        <ele>111</ele>
        <time>2018-03-03T12:44:54.683Z</time>
      </trkpt>
      <trkpt lat="47.79891" lon="2.13776">
        <ele>111</ele>
        <time>2018-03-03T12:44:55.675Z</time>
      </trkpt>
      <trkpt lat="47.79887" lon="2.13772">
        <ele>111</ele>
        <time>2018-03-03T12:44:56.692Z</time>
      </trkpt>
      <trkpt lat="47.79887" lon="2.13772">
        <ele>111</ele>
        <time>2018-03-03T12:44:57.698Z</time>
      </trkpt>
      <trkpt lat="47.79879" lon="2.13765">
        <ele>111</ele>
        <time>2018-03-03T12:44:58.666Z</time>
      </trkpt>
      <trkpt lat="47.79879" lon="2.13765">
        <ele>111</ele>
        <time>2018-03-03T12:44:59.672Z</time>
      </trkpt>
      <trkpt lat="47.79872" lon="2.13757">
        <ele>111</ele>
        <time>2018-03-03T12:45:00.676Z</time>
      </trkpt>
      <trkpt lat="47.79868" lon="2.13753">
        <ele>111</ele>
        <time>2018-03-03T12:45:01.676Z</time>
      </trkpt>
      <trkpt lat="47.79868" lon="2.13753">
        <ele>111</ele>
        <time>2018-03-03T12:45:02.678Z</time>
      </trkpt>
      <trkpt lat="47.79861" lon="2.13746">
        <ele>112</ele>
        <time>2018-03-03T12:45:03.700Z</time>
      </trkpt>
      <trkpt lat="47.79861" lon="2.13746">
        <ele>112</ele>
        <time>2018-03-03T12:45:04.691Z</time>
      </trkpt>
      <trkpt lat="47.79854" lon="2.13738">
        <ele>112</ele>
        <time>2018-03-03T12:45:05.682Z</time>
      </trkpt>
      <trkpt lat="47.79854" lon="2.13738">
        <ele>112</ele>
        <time>2018-03-03T12:45:06.670Z</time>
      </trkpt>
      <trkpt lat="47.79847" lon="2.13731">
        <ele>113</ele>
        <time>2018-03-03T12:45:07.672Z</time>
      </trkpt>
      <trkpt lat="47.79847" lon="2.13731">
        <ele>113</ele>
        <time>2018-03-03T12:45:08.671Z</time>
      </trkpt>
      <trkpt lat="47.79841" lon="2.13723">
        <ele>113</ele>
        <time>2018-03-03T12:45:09.702Z</time>
      </trkpt>
      <trkpt lat="47.79841" lon="2.13723">
        <ele>113</ele>
        <time>2018-03-03T12:45:10.696Z</time>
      </trkpt>
      <trkpt lat="47.79834" lon="2.13714">
        <ele>113</ele>
        <time>2018-03-03T12:45:11.690Z</time>
      </trkpt>
      <trkpt lat="47.79834" lon="2.13714">
        <ele>113</ele>
        <time>2018-03-03T12:45:12.689Z</time>
      </trkpt>
      <trkpt lat="47.79826" lon="2.13706">
        <ele>113</ele>
        <time>2018-03-03T12:45:13.679Z</time>
      </trkpt>
      <trkpt lat="47.79823" lon="2.13703">
        <ele>114</ele>
        <time>2018-03-03T12:45:14.702Z</time>
      </trkpt>
      <trkpt lat="47.79823" lon="2.13703">
        <ele>114</ele>
        <time>2018-03-03T12:45:15.669Z</time>
      </trkpt>
      <trkpt lat="47.79816" lon="2.13695">
        <ele>114</ele>
        <time>2018-03-03T12:45:16.675Z</time>
      </trkpt>
      <trkpt lat="47.79816" lon="2.13695">
        <ele>114</ele>
        <time>2018-03-03T12:45:17.695Z</time>
      </trkpt>
      <trkpt lat="47.7981" lon="2.13688">
        <ele>114</ele>
        <time>2018-03-03T12:45:18.692Z</time>
      </trkpt>
      <trkpt lat="47.79807" lon="2.13685">
        <ele>114</ele>
        <time>2018-03-03T12:45:19.681Z</time>
      </trkpt>
      <trkpt lat="47.79807" lon="2.13685">
        <ele>114</ele>
        <time>2018-03-03T12:45:20.670Z</time>
      </trkpt>
      <trkpt lat="47.79799" lon="2.13678">
        <ele>114</ele>
        <time>2018-03-03T12:45:21.676Z</time>
      </trkpt>
      <trkpt lat="47.79799" lon="2.13678">
        <ele>114</ele>
        <time>2018-03-03T12:45:22.677Z</time>
      </trkpt>
      <trkpt lat="47.79792" lon="2.13671">
        <ele>115</ele>
        <time>2018-03-03T12:45:23.671Z</time>
      </trkpt>
      <trkpt lat="47.79789" lon="2.13668">
        <ele>115</ele>
        <time>2018-03-03T12:45:24.687Z</time>
      </trkpt>
      <trkpt lat="47.79789" lon="2.13668">
        <ele>115</ele>
        <time>2018-03-03T12:45:25.675Z</time>
      </trkpt>
      <trkpt lat="47.79782" lon="2.13662">
        <ele>115</ele>
        <time>2018-03-03T12:45:26.672Z</time>
      </trkpt>
      <trkpt lat="47.79782" lon="2.13662">
        <ele>115</ele>
        <time>2018-03-03T12:45:27.665Z</time>
      </trkpt>
      <trkpt lat="47.79776" lon="2.13656">
        <ele>116</ele>
        <time>2018-03-03T12:45:28.700Z</time>
      </trkpt>
      <trkpt lat="47.79773" lon="2.13653">
        <ele>116</ele>
        <time>2018-03-03T12:45:29.670Z</time>
      </trkpt>
      <trkpt lat="47.79773" lon="2.13653">
        <ele>116</ele>
        <time>2018-03-03T12:45:30.701Z</time>
      </trkpt>
      <trkpt lat="47.79766" lon="2.13647">
        <ele>116</ele>
        <time>2018-03-03T12:45:31.696Z</time>
      </trkpt>
      <trkpt lat="47.79766" lon="2.13647">
        <ele>116</ele>
        <time>2018-03-03T12:45:32.695Z</time>
      </trkpt>
      <trkpt lat="47.79761" lon="2.13639">
        <ele>116</ele>
        <time>2018-03-03T12:45:33.679Z</time>
      </trkpt>
      <trkpt lat="47.79761" lon="2.13639">
        <ele>116</ele>
        <time>2018-03-03T12:45:34.670Z</time>
      </trkpt>
      <trkpt lat="47.79757" lon="2.13629">
        <ele>116</ele>
        <time>2018-03-03T12:45:35.670Z</time>
      </trkpt>
      <trkpt lat="47.79757" lon="2.13629">
        <ele>116</ele>
        <time>2018-03-03T12:45:36.670Z</time>
      </trkpt>
      <trkpt lat="47.79756" lon="2.13619">
        <ele>117</ele>
        <time>2018-03-03T12:45:37.670Z</time>
      </trkpt>
      <trkpt lat="47.79756" lon="2.13619">
        <ele>117</ele>
        <time>2018-03-03T12:45:38.670Z</time>
      </trkpt>
      <trkpt lat="47.79758" lon="2.13609">
        <ele>117</ele>
        <time>2018-03-03T12:45:39.671Z</time>
      </trkpt>
      <trkpt lat="47.79758" lon="2.13609">
        <ele>117</ele>
        <time>2018-03-03T12:45:40.670Z</time>
      </trkpt>
      <trkpt lat="47.79759" lon="2.13598">
        <ele>117</ele>
        <time>2018-03-03T12:45:41.672Z</time>
      </trkpt>
      <trkpt lat="47.79759" lon="2.13598">
        <ele>117</ele>
        <time>2018-03-03T12:45:42.677Z</time>
      </trkpt>
      <trkpt lat="47.79761" lon="2.13589">
        <ele>118</ele>
        <time>2018-03-03T12:45:43.674Z</time>
      </trkpt>
      <trkpt lat="47.79761" lon="2.13589">
        <ele>118</ele>
        <time>2018-03-03T12:45:44.670Z</time>
      </trkpt>
      <trkpt lat="47.79764" lon="2.1358">
        <ele>118</ele>
        <time>2018-03-03T12:45:45.671Z</time>
      </trkpt>
      <trkpt lat="47.79764" lon="2.1358">
        <ele>118</ele>
        <time>2018-03-03T12:45:46.702Z</time>
      </trkpt>
      <trkpt lat="47.79766" lon="2.13573">
        <ele>119</ele>
        <time>2018-03-03T12:45:47.676Z</time>
      </trkpt>
      <trkpt lat="47.79766" lon="2.13573">
        <ele>119</ele>
        <time>2018-03-03T12:45:48.670Z</time>
      </trkpt>
      <trkpt lat="47.79768" lon="2.13565">
        <ele>119</ele>
        <time>2018-03-03T12:45:49.670Z</time>
      </trkpt>
      <trkpt lat="47.79768" lon="2.13565">
        <ele>119</ele>
        <time>2018-03-03T12:45:50.704Z</time>
      </trkpt>
      <trkpt lat="47.79768" lon="2.13558">
        <ele>119</ele>
        <time>2018-03-03T12:45:51.703Z</time>
      </trkpt>
      <trkpt lat="47.79768" lon="2.13558">
        <ele>119</ele>
        <time>2018-03-03T12:45:52.701Z</time>
      </trkpt>
      <trkpt lat="47.79769" lon="2.13552">
        <ele>119</ele>
        <time>2018-03-03T12:45:53.701Z</time>
      </trkpt>
      <trkpt lat="47.79769" lon="2.13552">
        <ele>119</ele>
        <time>2018-03-03T12:45:54.683Z</time>
      </trkpt>
      <trkpt lat="47.79766" lon="2.13545">
        <ele>120</ele>
        <time>2018-03-03T12:45:55.688Z</time>
      </trkpt>
      <trkpt lat="47.79766" lon="2.13545">
        <ele>120</ele>
        <time>2018-03-03T12:45:56.676Z</time>
      </trkpt>
      <trkpt lat="47.79761" lon="2.13541">
        <ele>120</ele>
        <time>2018-03-03T12:45:57.671Z</time>
      </trkpt>
      <trkpt lat="47.79761" lon="2.13541">
        <ele>120</ele>
        <time>2018-03-03T12:45:58.701Z</time>
      </trkpt>
      <trkpt lat="47.79755" lon="2.13538">
        <ele>120</ele>
        <time>2018-03-03T12:45:59.688Z</time>
      </trkpt>
      <trkpt lat="47.79755" lon="2.13538">
        <ele>120</ele>
        <time>2018-03-03T12:46:00.679Z</time>
      </trkpt>
      <trkpt lat="47.79749" lon="2.13534">
        <ele>121</ele>
        <time>2018-03-03T12:46:01.687Z</time>
      </trkpt>
      <trkpt lat="47.79746" lon="2.13532">
        <ele>121</ele>
        <time>2018-03-03T12:46:02.677Z</time>
      </trkpt>
      <trkpt lat="47.79746" lon="2.13532">
        <ele>121</ele>
        <time>2018-03-03T12:46:03.671Z</time>
      </trkpt>
      <trkpt lat="47.7974" lon="2.13528">
        <ele>121</ele>
        <time>2018-03-03T12:46:04.692Z</time>
      </trkpt>
      <trkpt lat="47.79737" lon="2.13526">
        <ele>121</ele>
        <time>2018-03-03T12:46:05.681Z</time>
      </trkpt>
      <trkpt lat="47.79733" lon="2.13524">
        <ele>121</ele>
        <time>2018-03-03T12:46:06.673Z</time>
      </trkpt>
      <trkpt lat="47.79733" lon="2.13524">
        <ele>121</ele>
        <time>2018-03-03T12:46:07.704Z</time>
      </trkpt>
      <trkpt lat="47.79727" lon="2.1352">
        <ele>121</ele>
        <time>2018-03-03T12:46:08.697Z</time>
      </trkpt>
      <trkpt lat="47.79727" lon="2.1352">
        <ele>121</ele>
        <time>2018-03-03T12:46:09.686Z</time>
      </trkpt>
      <trkpt lat="47.7972" lon="2.13516">
        <ele>121</ele>
        <time>2018-03-03T12:46:10.678Z</time>
      </trkpt>
      <trkpt lat="47.7972" lon="2.13516">
        <ele>121</ele>
        <time>2018-03-03T12:46:11.670Z</time>
      </trkpt>
      <trkpt lat="47.79713" lon="2.13512">
        <ele>121</ele>
        <time>2018-03-03T12:46:12.681Z</time>
      </trkpt>
      <trkpt lat="47.7971" lon="2.1351">
        <ele>121</ele>
        <time>2018-03-03T12:46:13.671Z</time>
      </trkpt>
      <trkpt lat="47.7971" lon="2.1351">
        <ele>121</ele>
        <time>2018-03-03T12:46:14.670Z</time>
      </trkpt>
      <trkpt lat="47.79703" lon="2.13507">
        <ele>122</ele>
        <time>2018-03-03T12:46:15.665Z</time>
      </trkpt>
      <trkpt lat="47.79703" lon="2.13507">
        <ele>122</ele>
        <time>2018-03-03T12:46:16.698Z</time>
      </trkpt>
      <trkpt lat="47.79696" lon="2.13503">
        <ele>122</ele>
        <time>2018-03-03T12:46:17.690Z</time>
      </trkpt>
      <trkpt lat="47.7969" lon="2.135">
        <ele>123</ele>
        <time>2018-03-03T12:46:18.679Z</time>
      </trkpt>
      <trkpt lat="47.7969" lon="2.135">
        <ele>123</ele>
        <time>2018-03-03T12:46:19.694Z</time>
      </trkpt>
      <trkpt lat="47.79686" lon="2.13498">
        <ele>123</ele>
        <time>2018-03-03T12:46:20.686Z</time>
      </trkpt>
      <trkpt lat="47.79686" lon="2.13498">
        <ele>123</ele>
        <time>2018-03-03T12:46:21.676Z</time>
      </trkpt>
      <trkpt lat="47.7968" lon="2.13494">
        <ele>123</ele>
        <time>2018-03-03T12:46:22.690Z</time>
      </trkpt>
      <trkpt lat="47.7968" lon="2.13494">
        <ele>123</ele>
        <time>2018-03-03T12:46:23.700Z</time>
      </trkpt>
      <trkpt lat="47.79675" lon="2.13491">
        <ele>123</ele>
        <time>2018-03-03T12:46:24.696Z</time>
      </trkpt>
      <trkpt lat="47.79671" lon="2.13489">
        <ele>123</ele>
        <time>2018-03-03T12:46:25.687Z</time>
      </trkpt>
      <trkpt lat="47.79671" lon="2.13489">
        <ele>123</ele>
        <time>2018-03-03T12:46:26.675Z</time>
      </trkpt>
      <trkpt lat="47.79665" lon="2.13486">
        <ele>124</ele>
        <time>2018-03-03T12:46:27.675Z</time>
      </trkpt>
      <trkpt lat="47.79665" lon="2.13486">
        <ele>124</ele>
        <time>2018-03-03T12:46:28.665Z</time>
      </trkpt>
      <trkpt lat="47.7966" lon="2.13483">
        <ele>124</ele>
        <time>2018-03-03T12:46:29.670Z</time>
      </trkpt>
      <trkpt lat="47.7966" lon="2.13483">
        <ele>124</ele>
        <time>2018-03-03T12:46:30.700Z</time>
      </trkpt>
      <trkpt lat="47.79654" lon="2.1348">
        <ele>124</ele>
        <time>2018-03-03T12:46:31.689Z</time>
      </trkpt>
      <trkpt lat="47.79654" lon="2.1348">
        <ele>124</ele>
        <time>2018-03-03T12:46:32.689Z</time>
      </trkpt>
      <trkpt lat="47.79647" lon="2.13477">
        <ele>124</ele>
        <time>2018-03-03T12:46:33.679Z</time>
      </trkpt>
      <trkpt lat="47.79644" lon="2.13475">
        <ele>125</ele>
        <time>2018-03-03T12:46:34.673Z</time>
      </trkpt>
      <trkpt lat="47.79644" lon="2.13475">
        <ele>125</ele>
        <time>2018-03-03T12:46:35.670Z</time>
      </trkpt>
      <trkpt lat="47.79638" lon="2.13472">
        <ele>125</ele>
        <time>2018-03-03T12:46:36.672Z</time>
      </trkpt>
      <trkpt lat="47.79634" lon="2.13471">
        <ele>125</ele>
        <time>2018-03-03T12:46:37.675Z</time>
      </trkpt>
      <trkpt lat="47.79634" lon="2.13471">
        <ele>125</ele>
        <time>2018-03-03T12:46:38.704Z</time>
      </trkpt>
      <trkpt lat="47.79627" lon="2.13467">
        <ele>125</ele>
        <time>2018-03-03T12:46:39.665Z</time>
      </trkpt>
      <trkpt lat="47.79627" lon="2.13467">
        <ele>125</ele>
        <time>2018-03-03T12:46:40.670Z</time>
      </trkpt>
      <trkpt lat="47.79621" lon="2.13464">
        <ele>125</ele>
        <time>2018-03-03T12:46:41.671Z</time>
      </trkpt>
      <trkpt lat="47.79621" lon="2.13464">
        <ele>125</ele>
        <time>2018-03-03T12:46:42.669Z</time>
      </trkpt>
      <trkpt lat="47.79614" lon="2.1346">
        <ele>125</ele>
        <time>2018-03-03T12:46:43.670Z</time>
      </trkpt>
      <trkpt lat="47.79612" lon="2.13459">
        <ele>125</ele>
        <time>2018-03-03T12:46:44.671Z</time>
      </trkpt>
      <trkpt lat="47.79609" lon="2.13457">
        <ele>125</ele>
        <time>2018-03-03T12:46:45.671Z</time>
      </trkpt>
      <trkpt lat="47.79609" lon="2.13457">
        <ele>125</ele>
        <time>2018-03-03T12:46:46.670Z</time>
      </trkpt>
      <trkpt lat="47.79602" lon="2.13453">
        <ele>125</ele>
        <time>2018-03-03T12:46:47.691Z</time>
      </trkpt>
      <trkpt lat="47.79602" lon="2.13453">
        <ele>125</ele>
        <time>2018-03-03T12:46:48.680Z</time>
      </trkpt>
      <trkpt lat="47.79595" lon="2.1345">
        <ele>125</ele>
        <time>2018-03-03T12:46:49.675Z</time>
      </trkpt>
      <trkpt lat="47.79592" lon="2.13448">
        <ele>125</ele>
        <time>2018-03-03T12:46:50.670Z</time>
      </trkpt>
      <trkpt lat="47.79592" lon="2.13448">
        <ele>125</ele>
        <time>2018-03-03T12:46:51.703Z</time>
      </trkpt>
      <trkpt lat="47.79585" lon="2.13445">
        <ele>125</ele>
        <time>2018-03-03T12:46:52.698Z</time>
      </trkpt>
      <trkpt lat="47.79582" lon="2.13443">
        <ele>125</ele>
        <time>2018-03-03T12:46:53.688Z</time>
      </trkpt>
      <trkpt lat="47.79582" lon="2.13443">
        <ele>125</ele>
        <time>2018-03-03T12:46:54.684Z</time>
      </trkpt>
      <trkpt lat="47.79576" lon="2.1344">
        <ele>125</ele>
        <time>2018-03-03T12:46:55.691Z</time>
      </trkpt>
      <trkpt lat="47.79576" lon="2.1344">
        <ele>125</ele>
        <time>2018-03-03T12:46:56.679Z</time>
      </trkpt>
      <trkpt lat="47.79569" lon="2.13436">
        <ele>125</ele>
        <time>2018-03-03T12:46:57.671Z</time>
      </trkpt>
      <trkpt lat="47.79566" lon="2.13435">
        <ele>125</ele>
        <time>2018-03-03T12:46:58.670Z</time>
      </trkpt>
      <trkpt lat="47.79566" lon="2.13435">
        <ele>125</ele>
        <time>2018-03-03T12:46:59.670Z</time>
      </trkpt>
      <trkpt lat="47.79559" lon="2.13434">
        <ele>125</ele>
        <time>2018-03-03T12:47:00.670Z</time>
      </trkpt>
      <trkpt lat="47.79555" lon="2.13432">
        <ele>125</ele>
        <time>2018-03-03T12:47:01.700Z</time>
      </trkpt>
      <trkpt lat="47.79555" lon="2.13432">
        <ele>125</ele>
        <time>2018-03-03T12:47:02.669Z</time>
      </trkpt>
      <trkpt lat="47.79548" lon="2.13428">
        <ele>125</ele>
        <time>2018-03-03T12:47:03.701Z</time>
      </trkpt>
      <trkpt lat="47.79545" lon="2.13426">
        <ele>125</ele>
        <time>2018-03-03T12:47:04.689Z</time>
      </trkpt>
      <trkpt lat="47.79545" lon="2.13426">
        <ele>125</ele>
        <time>2018-03-03T12:47:05.677Z</time>
      </trkpt>
      <trkpt lat="47.79537" lon="2.13421">
        <ele>125</ele>
        <time>2018-03-03T12:47:06.670Z</time>
      </trkpt>
      <trkpt lat="47.79533" lon="2.13419">
        <ele>125</ele>
        <time>2018-03-03T12:47:07.670Z</time>
      </trkpt>
      <trkpt lat="47.79533" lon="2.13419">
        <ele>125</ele>
        <time>2018-03-03T12:47:08.665Z</time>
      </trkpt>
      <trkpt lat="47.79526" lon="2.13415">
        <ele>125</ele>
        <time>2018-03-03T12:47:09.682Z</time>
      </trkpt>
      <trkpt lat="47.79526" lon="2.13415">
        <ele>125</ele>
        <time>2018-03-03T12:47:10.671Z</time>
      </trkpt>
      <trkpt lat="47.79519" lon="2.13411">
        <ele>125</ele>
        <time>2018-03-03T12:47:11.671Z</time>
      </trkpt>
      <trkpt lat="47.79519" lon="2.13411">
        <ele>125</ele>
        <time>2018-03-03T12:47:12.669Z</time>
      </trkpt>
      <trkpt lat="47.79511" lon="2.13407">
        <ele>125</ele>
        <time>2018-03-03T12:47:13.674Z</time>
      </trkpt>
      <trkpt lat="47.79508" lon="2.13405">
        <ele>125</ele>
        <time>2018-03-03T12:47:14.670Z</time>
      </trkpt>
      <trkpt lat="47.79508" lon="2.13405">
        <ele>125</ele>
        <time>2018-03-03T12:47:15.676Z</time>
      </trkpt>
      <trkpt lat="47.795" lon="2.13401">
        <ele>125</ele>
        <time>2018-03-03T12:47:16.683Z</time>
      </trkpt>
      <trkpt lat="47.79496" lon="2.13399">
        <ele>125</ele>
        <time>2018-03-03T12:47:17.704Z</time>
      </trkpt>
      <trkpt lat="47.79496" lon="2.13399">
        <ele>125</ele>
        <time>2018-03-03T12:47:18.698Z</time>
      </trkpt>
      <trkpt lat="47.79488" lon="2.13395">
        <ele>125</ele>
        <time>2018-03-03T12:47:19.687Z</time>
      </trkpt>
      <trkpt lat="47.79488" lon="2.13395">
        <ele>125</ele>
        <time>2018-03-03T12:47:20.674Z</time>
      </trkpt>
      <trkpt lat="47.7948" lon="2.13391">
        <ele>125</ele>
        <time>2018-03-03T12:47:21.671Z</time>
      </trkpt>
      <trkpt lat="47.7948" lon="2.13391">
        <ele>125</ele>
        <time>2018-03-03T12:47:22.689Z</time>
      </trkpt>
      <trkpt lat="47.79472" lon="2.13388">
        <ele>125</ele>
        <time>2018-03-03T12:47:23.671Z</time>
      </trkpt>
      <trkpt lat="47.79472" lon="2.13388">
        <ele>125</ele>
        <time>2018-03-03T12:47:24.670Z</time>
      </trkpt>
      <trkpt lat="47.79463" lon="2.13383">
        <ele>125</ele>
        <time>2018-03-03T12:47:25.679Z</time>
      </trkpt>
      <trkpt lat="47.79463" lon="2.13383">
        <ele>125</ele>
        <time>2018-03-03T12:47:26.670Z</time>
      </trkpt>
      <trkpt lat="47.79455" lon="2.13379">
        <ele>125</ele>
        <time>2018-03-03T12:47:27.671Z</time>
      </trkpt>
      <trkpt lat="47.79451" lon="2.13376">
        <ele>125</ele>
        <time>2018-03-03T12:47:28.678Z</time>
      </trkpt>
      <trkpt lat="47.79451" lon="2.13376">
        <ele>125</ele>
        <time>2018-03-03T12:47:29.670Z</time>
      </trkpt>
      <trkpt lat="47.79442" lon="2.13372">
        <ele>125</ele>
        <time>2018-03-03T12:47:30.671Z</time>
      </trkpt>
      <trkpt lat="47.79438" lon="2.1337">
        <ele>125</ele>
        <time>2018-03-03T12:47:31.670Z</time>
      </trkpt>
      <trkpt lat="47.79438" lon="2.1337">
        <ele>125</ele>
        <time>2018-03-03T12:47:32.701Z</time>
      </trkpt>
      <trkpt lat="47.79429" lon="2.13365">
        <ele>125</ele>
        <time>2018-03-03T12:47:33.700Z</time>
      </trkpt>
      <trkpt lat="47.79425" lon="2.13363">
        <ele>125</ele>
        <time>2018-03-03T12:47:34.689Z</time>
      </trkpt>
      <trkpt lat="47.79425" lon="2.13363">
        <ele>125</ele>
        <time>2018-03-03T12:47:35.677Z</time>
      </trkpt>
      <trkpt lat="47.79416" lon="2.13358">
        <ele>126</ele>
        <time>2018-03-03T12:47:36.670Z</time>
      </trkpt>
      <trkpt lat="47.79412" lon="2.13355">
        <ele>126</ele>
        <time>2018-03-03T12:47:37.670Z</time>
      </trkpt>
      <trkpt lat="47.79412" lon="2.13355">
        <ele>126</ele>
        <time>2018-03-03T12:47:38.665Z</time>
      </trkpt>
      <trkpt lat="47.79404" lon="2.13351">
        <ele>126</ele>
        <time>2018-03-03T12:47:39.671Z</time>
      </trkpt>
      <trkpt lat="47.79404" lon="2.13351">
        <ele>126</ele>
        <time>2018-03-03T12:47:40.665Z</time>
      </trkpt>
      <trkpt lat="47.79395" lon="2.13347">
        <ele>126</ele>
        <time>2018-03-03T12:47:41.670Z</time>
      </trkpt>
      <trkpt lat="47.79395" lon="2.13347">
        <ele>126</ele>
        <time>2018-03-03T12:47:42.669Z</time>
      </trkpt>
      <trkpt lat="47.79387" lon="2.13345">
        <ele>127</ele>
        <time>2018-03-03T12:47:43.676Z</time>
      </trkpt>
      <trkpt lat="47.79387" lon="2.13345">
        <ele>127</ele>
        <time>2018-03-03T12:47:44.670Z</time>
      </trkpt>
      <trkpt lat="47.7938" lon="2.13341">
        <ele>128</ele>
        <time>2018-03-03T12:47:45.671Z</time>
      </trkpt>
      <trkpt lat="47.79376" lon="2.13339">
        <ele>128</ele>
        <time>2018-03-03T12:47:46.670Z</time>
      </trkpt>
      <trkpt lat="47.79376" lon="2.13339">
        <ele>128</ele>
        <time>2018-03-03T12:47:47.702Z</time>
      </trkpt>
      <trkpt lat="47.79368" lon="2.13335">
        <ele>128</ele>
        <time>2018-03-03T12:47:48.693Z</time>
      </trkpt>
      <trkpt lat="47.79363" lon="2.13333">
        <ele>129</ele>
        <time>2018-03-03T12:47:49.685Z</time>
      </trkpt>
      <trkpt lat="47.79363" lon="2.13333">
        <ele>129</ele>
        <time>2018-03-03T12:47:50.672Z</time>
      </trkpt>
      <trkpt lat="47.79354" lon="2.13328">
        <ele>129</ele>
        <time>2018-03-03T12:47:51.671Z</time>
      </trkpt>
      <trkpt lat="47.7935" lon="2.13325">
        <ele>129</ele>
        <time>2018-03-03T12:47:52.688Z</time>
      </trkpt>
      <trkpt lat="47.7935" lon="2.13325">
        <ele>129</ele>
        <time>2018-03-03T12:47:53.680Z</time>
      </trkpt>
      <trkpt lat="47.7934" lon="2.1332">
        <ele>129</ele>
        <time>2018-03-03T12:47:54.683Z</time>
      </trkpt>
      <trkpt lat="47.79336" lon="2.13318">
        <ele>129</ele>
        <time>2018-03-03T12:47:55.672Z</time>
      </trkpt>
      <trkpt lat="47.79331" lon="2.13316">
        <ele>129</ele>
        <time>2018-03-03T12:47:56.685Z</time>
      </trkpt>
      <trkpt lat="47.79331" lon="2.13316">
        <ele>129</ele>
        <time>2018-03-03T12:47:57.673Z</time>
      </trkpt>
      <trkpt lat="47.79321" lon="2.13312">
        <ele>129</ele>
        <time>2018-03-03T12:47:58.670Z</time>
      </trkpt>
      <trkpt lat="47.79316" lon="2.1331">
        <ele>129</ele>
        <time>2018-03-03T12:47:59.673Z</time>
      </trkpt>
      <trkpt lat="47.79316" lon="2.1331">
        <ele>129</ele>
        <time>2018-03-03T12:48:00.670Z</time>
      </trkpt>
      <trkpt lat="47.79308" lon="2.13305">
        <ele>129</ele>
        <time>2018-03-03T12:48:01.674Z</time>
      </trkpt>
      <trkpt lat="47.79308" lon="2.13305">
        <ele>129</ele>
        <time>2018-03-03T12:48:02.703Z</time>
      </trkpt>
      <trkpt lat="47.79299" lon="2.133">
        <ele>129</ele>
        <time>2018-03-03T12:48:03.697Z</time>
      </trkpt>
      <trkpt lat="47.79299" lon="2.133">
        <ele>129</ele>
        <time>2018-03-03T12:48:04.687Z</time>
      </trkpt>
      <trkpt lat="47.7929" lon="2.13296">
        <ele>129</ele>
        <time>2018-03-03T12:48:05.675Z</time>
      </trkpt>
      <trkpt lat="47.7929" lon="2.13296">
        <ele>129</ele>
        <time>2018-03-03T12:48:06.704Z</time>
      </trkpt>
      <trkpt lat="47.79281" lon="2.13291">
        <ele>129</ele>
        <time>2018-03-03T12:48:07.698Z</time>
      </trkpt>
      <trkpt lat="47.79281" lon="2.13291">
        <ele>129</ele>
        <time>2018-03-03T12:48:08.685Z</time>
      </trkpt>
      <trkpt lat="47.79271" lon="2.13287">
        <ele>129</ele>
        <time>2018-03-03T12:48:09.674Z</time>
      </trkpt>
      <trkpt lat="47.79267" lon="2.13285">
        <ele>129</ele>
        <time>2018-03-03T12:48:10.670Z</time>
      </trkpt>
      <trkpt lat="47.79267" lon="2.13285">
        <ele>129</ele>
        <time>2018-03-03T12:48:11.670Z</time>
      </trkpt>
      <trkpt lat="47.79257" lon="2.13281">
        <ele>129</ele>
        <time>2018-03-03T12:48:12.669Z</time>
      </trkpt>
      <trkpt lat="47.79253" lon="2.13279">
        <ele>129</ele>
        <time>2018-03-03T12:48:13.675Z</time>
      </trkpt>
      <trkpt lat="47.79253" lon="2.13279">
        <ele>129</ele>
        <time>2018-03-03T12:48:14.670Z</time>
      </trkpt>
      <trkpt lat="47.79243" lon="2.13275">
        <ele>129</ele>
        <time>2018-03-03T12:48:15.671Z</time>
      </trkpt>
      <trkpt lat="47.79239" lon="2.13274">
        <ele>129</ele>
        <time>2018-03-03T12:48:16.671Z</time>
      </trkpt>
      <trkpt lat="47.79239" lon="2.13274">
        <ele>129</ele>
        <time>2018-03-03T12:48:17.693Z</time>
      </trkpt>
      <trkpt lat="47.7923" lon="2.13271">
        <ele>129</ele>
        <time>2018-03-03T12:48:18.683Z</time>
      </trkpt>
      <trkpt lat="47.79225" lon="2.1327">
        <ele>128</ele>
        <time>2018-03-03T12:48:19.675Z</time>
      </trkpt>
      <trkpt lat="47.79225" lon="2.1327">
        <ele>128</ele>
        <time>2018-03-03T12:48:20.670Z</time>
      </trkpt>
      <trkpt lat="47.79216" lon="2.13267">
        <ele>128</ele>
        <time>2018-03-03T12:48:21.671Z</time>
      </trkpt>
      <trkpt lat="47.79216" lon="2.13267">
        <ele>128</ele>
        <time>2018-03-03T12:48:22.675Z</time>
      </trkpt>
      <trkpt lat="47.79207" lon="2.13264">
        <ele>128</ele>
        <time>2018-03-03T12:48:23.678Z</time>
      </trkpt>
      <trkpt lat="47.79207" lon="2.13264">
        <ele>128</ele>
        <time>2018-03-03T12:48:24.670Z</time>
      </trkpt>
      <trkpt lat="47.79198" lon="2.13263">
        <ele>128</ele>
        <time>2018-03-03T12:48:25.676Z</time>
      </trkpt>
      <trkpt lat="47.79198" lon="2.13263">
        <ele>128</ele>
        <time>2018-03-03T12:48:26.704Z</time>
      </trkpt>
      <trkpt lat="47.79188" lon="2.13261">
        <ele>128</ele>
        <time>2018-03-03T12:48:27.694Z</time>
      </trkpt>
      <trkpt lat="47.79188" lon="2.13261">
        <ele>128</ele>
        <time>2018-03-03T12:48:28.687Z</time>
      </trkpt>
      <trkpt lat="47.79179" lon="2.13259">
        <ele>128</ele>
        <time>2018-03-03T12:48:29.676Z</time>
      </trkpt>
      <trkpt lat="47.79179" lon="2.13259">
        <ele>128</ele>
        <time>2018-03-03T12:48:30.665Z</time>
      </trkpt>
      <trkpt lat="47.7917" lon="2.13257">
        <ele>128</ele>
        <time>2018-03-03T12:48:31.675Z</time>
      </trkpt>
      <trkpt lat="47.7917" lon="2.13257">
        <ele>128</ele>
        <time>2018-03-03T12:48:32.678Z</time>
      </trkpt>
      <trkpt lat="47.79161" lon="2.13256">
        <ele>128</ele>
        <time>2018-03-03T12:48:33.672Z</time>
      </trkpt>
      <trkpt lat="47.79156" lon="2.13256">
        <ele>127</ele>
        <time>2018-03-03T12:48:34.670Z</time>
      </trkpt>
      <trkpt lat="47.79156" lon="2.13256">
        <ele>127</ele>
        <time>2018-03-03T12:48:35.670Z</time>
      </trkpt>
      <trkpt lat="47.79148" lon="2.13255">
        <ele>127</ele>
        <time>2018-03-03T12:48:36.670Z</time>
      </trkpt>
      <trkpt lat="47.79144" lon="2.13255">
        <ele>127</ele>
        <time>2018-03-03T12:48:37.676Z</time>
      </trkpt>
      <trkpt lat="47.79144" lon="2.13255">
        <ele>127</ele>
        <time>2018-03-03T12:48:38.670Z</time>
      </trkpt>
      <trkpt lat="47.79134" lon="2.13254">
        <ele>127</ele>
        <time>2018-03-03T12:48:39.672Z</time>
      </trkpt>
      <trkpt lat="47.7913" lon="2.13254">
        <ele>127</ele>
        <time>2018-03-03T12:48:40.671Z</time>
      </trkpt>
      <trkpt lat="47.7913" lon="2.13254">
        <ele>127</ele>
        <time>2018-03-03T12:48:41.702Z</time>
      </trkpt>
      <trkpt lat="47.79121" lon="2.13253">
        <ele>127</ele>
        <time>2018-03-03T12:48:42.693Z</time>
      </trkpt>
      <trkpt lat="47.79116" lon="2.13253">
        <ele>127</ele>
        <time>2018-03-03T12:48:43.686Z</time>
      </trkpt>
      <trkpt lat="47.79116" lon="2.13253">
        <ele>127</ele>
        <time>2018-03-03T12:48:44.674Z</time>
      </trkpt>
      <trkpt lat="47.79107" lon="2.13254">
        <ele>126</ele>
        <time>2018-03-03T12:48:45.671Z</time>
      </trkpt>
      <trkpt lat="47.79102" lon="2.13253">
        <ele>126</ele>
        <time>2018-03-03T12:48:46.670Z</time>
      </trkpt>
      <trkpt lat="47.79098" lon="2.13253">
        <ele>126</ele>
        <time>2018-03-03T12:48:47.670Z</time>
      </trkpt>
      <trkpt lat="47.79098" lon="2.13253">
        <ele>126</ele>
        <time>2018-03-03T12:48:48.703Z</time>
      </trkpt>
      <trkpt lat="47.79088" lon="2.13254">
        <ele>126</ele>
        <time>2018-03-03T12:48:49.671Z</time>
      </trkpt>
      <trkpt lat="47.79084" lon="2.13254">
        <ele>126</ele>
        <time>2018-03-03T12:48:50.670Z</time>
      </trkpt>
      <trkpt lat="47.79084" lon="2.13254">
        <ele>126</ele>
        <time>2018-03-03T12:48:51.703Z</time>
      </trkpt>
      <trkpt lat="47.79075" lon="2.13254">
        <ele>126</ele>
        <time>2018-03-03T12:48:52.696Z</time>
      </trkpt>
      <trkpt lat="47.79075" lon="2.13254">
        <ele>126</ele>
        <time>2018-03-03T12:48:53.685Z</time>
      </trkpt>
      <trkpt lat="47.79065" lon="2.13254">
        <ele>125</ele>
        <time>2018-03-03T12:48:54.689Z</time>
      </trkpt>
      <trkpt lat="47.79065" lon="2.13254">
        <ele>125</ele>
        <time>2018-03-03T12:48:55.676Z</time>
      </trkpt>
      <trkpt lat="47.79056" lon="2.13253">
        <ele>125</ele>
        <time>2018-03-03T12:48:56.670Z</time>
      </trkpt>
      <trkpt lat="47.79056" lon="2.13253">
        <ele>125</ele>
        <time>2018-03-03T12:48:57.671Z</time>
      </trkpt>
      <trkpt lat="47.79046" lon="2.13248">
        <ele>125</ele>
        <time>2018-03-03T12:48:58.670Z</time>
      </trkpt>
      <trkpt lat="47.79042" lon="2.13244">
        <ele>125</ele>
        <time>2018-03-03T12:48:59.673Z</time>
      </trkpt>
      <trkpt lat="47.79042" lon="2.13244">
        <ele>125</ele>
        <time>2018-03-03T12:49:00.670Z</time>
      </trkpt>
      <trkpt lat="47.79034" lon="2.13234">
        <ele>124</ele>
        <time>2018-03-03T12:49:01.671Z</time>
      </trkpt>
      <trkpt lat="47.79034" lon="2.13234">
        <ele>124</ele>
        <time>2018-03-03T12:49:02.669Z</time>
      </trkpt>
      <trkpt lat="47.79027" lon="2.13223">
        <ele>124</ele>
        <time>2018-03-03T12:49:03.672Z</time>
      </trkpt>
      <trkpt lat="47.79027" lon="2.13223">
        <ele>124</ele>
        <time>2018-03-03T12:49:04.675Z</time>
      </trkpt>
      <trkpt lat="47.79021" lon="2.1321">
        <ele>124</ele>
        <time>2018-03-03T12:49:05.670Z</time>
      </trkpt>
      <trkpt lat="47.79017" lon="2.13204">
        <ele>124</ele>
        <time>2018-03-03T12:49:06.671Z</time>
      </trkpt>
      <trkpt lat="47.79014" lon="2.13198">
        <ele>124</ele>
        <time>2018-03-03T12:49:07.675Z</time>
      </trkpt>
      <trkpt lat="47.79014" lon="2.13198">
        <ele>124</ele>
        <time>2018-03-03T12:49:08.670Z</time>
      </trkpt>
      <trkpt lat="47.79008" lon="2.13185">
        <ele>125</ele>
        <time>2018-03-03T12:49:09.701Z</time>
      </trkpt>
      <trkpt lat="47.79005" lon="2.13179">
        <ele>125</ele>
        <time>2018-03-03T12:49:10.688Z</time>
      </trkpt>
      <trkpt lat="47.79005" lon="2.13179">
        <ele>125</ele>
        <time>2018-03-03T12:49:11.677Z</time>
      </trkpt>
      <trkpt lat="47.78998" lon="2.13167">
        <ele>125</ele>
        <time>2018-03-03T12:49:12.669Z</time>
      </trkpt>
      <trkpt lat="47.78995" lon="2.1316">
        <ele>124</ele>
        <time>2018-03-03T12:49:13.675Z</time>
      </trkpt>
      <trkpt lat="47.78995" lon="2.1316">
        <ele>124</ele>
        <time>2018-03-03T12:49:14.703Z</time>
      </trkpt>
      <trkpt lat="47.78989" lon="2.13148">
        <ele>124</ele>
        <time>2018-03-03T12:49:15.697Z</time>
      </trkpt>
      <trkpt lat="47.78989" lon="2.13148">
        <ele>124</ele>
        <time>2018-03-03T12:49:16.685Z</time>
      </trkpt>
      <trkpt lat="47.78983" lon="2.13136">
        <ele>124</ele>
        <time>2018-03-03T12:49:17.690Z</time>
      </trkpt>
      <trkpt lat="47.78983" lon="2.13136">
        <ele>124</ele>
        <time>2018-03-03T12:49:18.675Z</time>
      </trkpt>
      <trkpt lat="47.78977" lon="2.13124">
        <ele>124</ele>
        <time>2018-03-03T12:49:19.674Z</time>
      </trkpt>
      <trkpt lat="47.78977" lon="2.13124">
        <ele>124</ele>
        <time>2018-03-03T12:49:20.703Z</time>
      </trkpt>
      <trkpt lat="47.78971" lon="2.13113">
        <ele>124</ele>
        <time>2018-03-03T12:49:21.665Z</time>
      </trkpt>
      <trkpt lat="47.78971" lon="2.13113">
        <ele>124</ele>
        <time>2018-03-03T12:49:22.666Z</time>
      </trkpt>
      <trkpt lat="47.78965" lon="2.13102">
        <ele>123</ele>
        <time>2018-03-03T12:49:23.671Z</time>
      </trkpt>
      <trkpt lat="47.78965" lon="2.13102">
        <ele>123</ele>
        <time>2018-03-03T12:49:24.671Z</time>
      </trkpt>
      <trkpt lat="47.7896" lon="2.13092">
        <ele>124</ele>
        <time>2018-03-03T12:49:25.671Z</time>
      </trkpt>
      <trkpt lat="47.7896" lon="2.13092">
        <ele>124</ele>
        <time>2018-03-03T12:49:26.704Z</time>
      </trkpt>
      <trkpt lat="47.78954" lon="2.13081">
        <ele>124</ele>
        <time>2018-03-03T12:49:27.672Z</time>
      </trkpt>
      <trkpt lat="47.78954" lon="2.13081">
        <ele>124</ele>
        <time>2018-03-03T12:49:28.670Z</time>
      </trkpt>
      <trkpt lat="47.78948" lon="2.13071">
        <ele>123</ele>
        <time>2018-03-03T12:49:29.670Z</time>
      </trkpt>
      <trkpt lat="47.78944" lon="2.13065">
        <ele>123</ele>
        <time>2018-03-03T12:49:30.665Z</time>
      </trkpt>
      <trkpt lat="47.78941" lon="2.1306">
        <ele>123</ele>
        <time>2018-03-03T12:49:31.670Z</time>
      </trkpt>
      <trkpt lat="47.78941" lon="2.1306">
        <ele>123</ele>
        <time>2018-03-03T12:49:32.701Z</time>
      </trkpt>
      <trkpt lat="47.78934" lon="2.13049">
        <ele>123</ele>
        <time>2018-03-03T12:49:33.689Z</time>
      </trkpt>
      <trkpt lat="47.78931" lon="2.13043">
        <ele>123</ele>
        <time>2018-03-03T12:49:34.679Z</time>
      </trkpt>
      <trkpt lat="47.78931" lon="2.13043">
        <ele>123</ele>
        <time>2018-03-03T12:49:35.670Z</time>
      </trkpt>
      <trkpt lat="47.78924" lon="2.13033">
        <ele>123</ele>
        <time>2018-03-03T12:49:36.671Z</time>
      </trkpt>
      <trkpt lat="47.78921" lon="2.13027">
        <ele>123</ele>
        <time>2018-03-03T12:49:37.672Z</time>
      </trkpt>
      <trkpt lat="47.78921" lon="2.13027">
        <ele>123</ele>
        <time>2018-03-03T12:49:38.670Z</time>
      </trkpt>
      <trkpt lat="47.78915" lon="2.13017">
        <ele>123</ele>
        <time>2018-03-03T12:49:39.672Z</time>
      </trkpt>
      <trkpt lat="47.78915" lon="2.13017">
        <ele>123</ele>
        <time>2018-03-03T12:49:40.703Z</time>
      </trkpt>
      <trkpt lat="47.78908" lon="2.13007">
        <ele>124</ele>
        <time>2018-03-03T12:49:41.666Z</time>
      </trkpt>
      <trkpt lat="47.78908" lon="2.13007">
        <ele>124</ele>
        <time>2018-03-03T12:49:42.682Z</time>
      </trkpt>
      <trkpt lat="47.78901" lon="2.12996">
        <ele>124</ele>
        <time>2018-03-03T12:49:43.674Z</time>
      </trkpt>
      <trkpt lat="47.78897" lon="2.1299">
        <ele>124</ele>
        <time>2018-03-03T12:49:44.669Z</time>
      </trkpt>
      <trkpt lat="47.78897" lon="2.1299">
        <ele>124</ele>
        <time>2018-03-03T12:49:45.703Z</time>
      </trkpt>
      <trkpt lat="47.7889" lon="2.12979">
        <ele>123</ele>
        <time>2018-03-03T12:49:46.686Z</time>
      </trkpt>
      <trkpt lat="47.78887" lon="2.12974">
        <ele>123</ele>
        <time>2018-03-03T12:49:47.676Z</time>
      </trkpt>
      <trkpt lat="47.78887" lon="2.12974">
        <ele>123</ele>
        <time>2018-03-03T12:49:48.665Z</time>
      </trkpt>
      <trkpt lat="47.7888" lon="2.12963">
        <ele>123</ele>
        <time>2018-03-03T12:49:49.671Z</time>
      </trkpt>
      <trkpt lat="47.7888" lon="2.12963">
        <ele>123</ele>
        <time>2018-03-03T12:49:50.665Z</time>
      </trkpt>
      <trkpt lat="47.78873" lon="2.12952">
        <ele>123</ele>
        <time>2018-03-03T12:49:51.672Z</time>
      </trkpt>
      <trkpt lat="47.78873" lon="2.12952">
        <ele>123</ele>
        <time>2018-03-03T12:49:52.675Z</time>
      </trkpt>
      <trkpt lat="47.78866" lon="2.12942">
        <ele>123</ele>
        <time>2018-03-03T12:49:53.670Z</time>
      </trkpt>
      <trkpt lat="47.78866" lon="2.12942">
        <ele>123</ele>
        <time>2018-03-03T12:49:54.687Z</time>
      </trkpt>
      <trkpt lat="47.78859" lon="2.12931">
        <ele>123</ele>
        <time>2018-03-03T12:49:55.678Z</time>
      </trkpt>
      <trkpt lat="47.78859" lon="2.12931">
        <ele>123</ele>
        <time>2018-03-03T12:49:56.670Z</time>
      </trkpt>
      <trkpt lat="47.78852" lon="2.1292">
        <ele>123</ele>
        <time>2018-03-03T12:49:57.673Z</time>
      </trkpt>
      <trkpt lat="47.78852" lon="2.1292">
        <ele>123</ele>
        <time>2018-03-03T12:49:58.670Z</time>
      </trkpt>
      <trkpt lat="47.78845" lon="2.1291">
        <ele>123</ele>
        <time>2018-03-03T12:49:59.673Z</time>
      </trkpt>
      <trkpt lat="47.78845" lon="2.1291">
        <ele>123</ele>
        <time>2018-03-03T12:50:00.670Z</time>
      </trkpt>
      <trkpt lat="47.78838" lon="2.129">
        <ele>123</ele>
        <time>2018-03-03T12:50:01.670Z</time>
      </trkpt>
      <trkpt lat="47.78838" lon="2.129">
        <ele>123</ele>
        <time>2018-03-03T12:50:02.703Z</time>
      </trkpt>
      <trkpt lat="47.7883" lon="2.12891">
        <ele>123</ele>
        <time>2018-03-03T12:50:03.693Z</time>
      </trkpt>
      <trkpt lat="47.78827" lon="2.12886">
        <ele>123</ele>
        <time>2018-03-03T12:50:04.682Z</time>
      </trkpt>
      <trkpt lat="47.78827" lon="2.12886">
        <ele>123</ele>
        <time>2018-03-03T12:50:05.670Z</time>
      </trkpt>
      <trkpt lat="47.78819" lon="2.12877">
        <ele>123</ele>
        <time>2018-03-03T12:50:06.665Z</time>
      </trkpt>
      <trkpt lat="47.78815" lon="2.12872">
        <ele>123</ele>
        <time>2018-03-03T12:50:07.670Z</time>
      </trkpt>
      <trkpt lat="47.78815" lon="2.12872">
        <ele>123</ele>
        <time>2018-03-03T12:50:08.665Z</time>
      </trkpt>
      <trkpt lat="47.78808" lon="2.12863">
        <ele>123</ele>
        <time>2018-03-03T12:50:09.693Z</time>
      </trkpt>
      <trkpt lat="47.78808" lon="2.12863">
        <ele>123</ele>
        <time>2018-03-03T12:50:10.681Z</time>
      </trkpt>
      <trkpt lat="47.788" lon="2.12854">
        <ele>123</ele>
        <time>2018-03-03T12:50:11.674Z</time>
      </trkpt>
      <trkpt lat="47.788" lon="2.12854">
        <ele>123</ele>
        <time>2018-03-03T12:50:12.669Z</time>
      </trkpt>
      <trkpt lat="47.78793" lon="2.12846">
        <ele>123</ele>
        <time>2018-03-03T12:50:13.671Z</time>
      </trkpt>
      <trkpt lat="47.78793" lon="2.12846">
        <ele>123</ele>
        <time>2018-03-03T12:50:14.704Z</time>
      </trkpt>
      <trkpt lat="47.78786" lon="2.12838">
        <ele>123</ele>
        <time>2018-03-03T12:50:15.693Z</time>
      </trkpt>
      <trkpt lat="47.78782" lon="2.12833">
        <ele>123</ele>
        <time>2018-03-03T12:50:16.684Z</time>
      </trkpt>
      <trkpt lat="47.78782" lon="2.12833">
        <ele>123</ele>
        <time>2018-03-03T12:50:17.671Z</time>
      </trkpt>
      <trkpt lat="47.78774" lon="2.12824">
        <ele>123</ele>
        <time>2018-03-03T12:50:18.671Z</time>
      </trkpt>
      <trkpt lat="47.7877" lon="2.12819">
        <ele>123</ele>
        <time>2018-03-03T12:50:19.675Z</time>
      </trkpt>
      <trkpt lat="47.7877" lon="2.12819">
        <ele>123</ele>
        <time>2018-03-03T12:50:20.666Z</time>
      </trkpt>
      <trkpt lat="47.78762" lon="2.1281">
        <ele>123</ele>
        <time>2018-03-03T12:50:21.671Z</time>
      </trkpt>
      <trkpt lat="47.78758" lon="2.12805">
        <ele>123</ele>
        <time>2018-03-03T12:50:22.675Z</time>
      </trkpt>
      <trkpt lat="47.78758" lon="2.12805">
        <ele>123</ele>
        <time>2018-03-03T12:50:23.670Z</time>
      </trkpt>
      <trkpt lat="47.7875" lon="2.12796">
        <ele>123</ele>
        <time>2018-03-03T12:50:24.669Z</time>
      </trkpt>
      <trkpt lat="47.78747" lon="2.12791">
        <ele>123</ele>
        <time>2018-03-03T12:50:25.703Z</time>
      </trkpt>
      <trkpt lat="47.78743" lon="2.12787">
        <ele>123</ele>
        <time>2018-03-03T12:50:26.697Z</time>
      </trkpt>
      <trkpt lat="47.78743" lon="2.12787">
        <ele>123</ele>
        <time>2018-03-03T12:50:27.692Z</time>
      </trkpt>
      <trkpt lat="47.78735" lon="2.12777">
        <ele>123</ele>
        <time>2018-03-03T12:50:28.683Z</time>
      </trkpt>
      <trkpt lat="47.78735" lon="2.12777">
        <ele>123</ele>
        <time>2018-03-03T12:50:29.673Z</time>
      </trkpt>
      <trkpt lat="47.78727" lon="2.12767">
        <ele>123</ele>
        <time>2018-03-03T12:50:30.667Z</time>
      </trkpt>
      <trkpt lat="47.78723" lon="2.12762">
        <ele>123</ele>
        <time>2018-03-03T12:50:31.675Z</time>
      </trkpt>
      <trkpt lat="47.78723" lon="2.12762">
        <ele>123</ele>
        <time>2018-03-03T12:50:32.668Z</time>
      </trkpt>
      <trkpt lat="47.78716" lon="2.12753">
        <ele>123</ele>
        <time>2018-03-03T12:50:33.701Z</time>
      </trkpt>
      <trkpt lat="47.78712" lon="2.12749">
        <ele>123</ele>
        <time>2018-03-03T12:50:34.692Z</time>
      </trkpt>
      <trkpt lat="47.78712" lon="2.12749">
        <ele>123</ele>
        <time>2018-03-03T12:50:35.678Z</time>
      </trkpt>
      <trkpt lat="47.78704" lon="2.12739">
        <ele>123</ele>
        <time>2018-03-03T12:50:36.674Z</time>
      </trkpt>
      <trkpt lat="47.787" lon="2.12735">
        <ele>123</ele>
        <time>2018-03-03T12:50:37.675Z</time>
      </trkpt>
      <trkpt lat="47.787" lon="2.12735">
        <ele>123</ele>
        <time>2018-03-03T12:50:38.671Z</time>
      </trkpt>
      <trkpt lat="47.78692" lon="2.12727">
        <ele>123</ele>
        <time>2018-03-03T12:50:39.674Z</time>
      </trkpt>
      <trkpt lat="47.78692" lon="2.12727">
        <ele>123</ele>
        <time>2018-03-03T12:50:40.701Z</time>
      </trkpt>
      <trkpt lat="47.78684" lon="2.12719">
        <ele>124</ele>
        <time>2018-03-03T12:50:41.689Z</time>
      </trkpt>
      <trkpt lat="47.78684" lon="2.12719">
        <ele>124</ele>
        <time>2018-03-03T12:50:42.678Z</time>
      </trkpt>
      <trkpt lat="47.78675" lon="2.12712">
        <ele>124</ele>
        <time>2018-03-03T12:50:43.673Z</time>
      </trkpt>
      <trkpt lat="47.78675" lon="2.12712">
        <ele>124</ele>
        <time>2018-03-03T12:50:44.671Z</time>
      </trkpt>
      <trkpt lat="47.78666" lon="2.12706">
        <ele>124</ele>
        <time>2018-03-03T12:50:45.671Z</time>
      </trkpt>
      <trkpt lat="47.78661" lon="2.12703">
        <ele>124</ele>
        <time>2018-03-03T12:50:46.671Z</time>
      </trkpt>
      <trkpt lat="47.78661" lon="2.12703">
        <ele>124</ele>
        <time>2018-03-03T12:50:47.671Z</time>
      </trkpt>
      <trkpt lat="47.78652" lon="2.12698">
        <ele>124</ele>
        <time>2018-03-03T12:50:48.672Z</time>
      </trkpt>
      <trkpt lat="47.78647" lon="2.12695">
        <ele>124</ele>
        <time>2018-03-03T12:50:49.704Z</time>
      </trkpt>
      <trkpt lat="47.78647" lon="2.12695">
        <ele>124</ele>
        <time>2018-03-03T12:50:50.671Z</time>
      </trkpt>
      <trkpt lat="47.78638" lon="2.1269">
        <ele>124</ele>
        <time>2018-03-03T12:50:51.672Z</time>
      </trkpt>
      <trkpt lat="47.78634" lon="2.12688">
        <ele>124</ele>
        <time>2018-03-03T12:50:52.688Z</time>
      </trkpt>
      <trkpt lat="47.78634" lon="2.12688">
        <ele>124</ele>
        <time>2018-03-03T12:50:53.677Z</time>
      </trkpt>
      <trkpt lat="47.78625" lon="2.12683">
        <ele>124</ele>
        <time>2018-03-03T12:50:54.689Z</time>
      </trkpt>
      <trkpt lat="47.78621" lon="2.1268">
        <ele>125</ele>
        <time>2018-03-03T12:50:55.698Z</time>
      </trkpt>
      <trkpt lat="47.78617" lon="2.12677">
        <ele>125</ele>
        <time>2018-03-03T12:50:56.680Z</time>
      </trkpt>
      <trkpt lat="47.78617" lon="2.12677">
        <ele>125</ele>
        <time>2018-03-03T12:50:57.687Z</time>
      </trkpt>
      <trkpt lat="47.78609" lon="2.12673">
        <ele>125</ele>
        <time>2018-03-03T12:50:58.693Z</time>
      </trkpt>
      <trkpt lat="47.78604" lon="2.1267">
        <ele>125</ele>
        <time>2018-03-03T12:50:59.699Z</time>
      </trkpt>
      <trkpt lat="47.786" lon="2.12668">
        <ele>125</ele>
        <time>2018-03-03T12:51:00.688Z</time>
      </trkpt>
      <trkpt lat="47.786" lon="2.12668">
        <ele>125</ele>
        <time>2018-03-03T12:51:01.677Z</time>
      </trkpt>
      <trkpt lat="47.78592" lon="2.12663">
        <ele>125</ele>
        <time>2018-03-03T12:51:02.670Z</time>
      </trkpt>
      <trkpt lat="47.78588" lon="2.12661">
        <ele>125</ele>
        <time>2018-03-03T12:51:03.673Z</time>
      </trkpt>
      <trkpt lat="47.78588" lon="2.12661">
        <ele>125</ele>
        <time>2018-03-03T12:51:04.665Z</time>
      </trkpt>
      <trkpt lat="47.7858" lon="2.12656">
        <ele>125</ele>
        <time>2018-03-03T12:51:05.666Z</time>
      </trkpt>
      <trkpt lat="47.78577" lon="2.12654">
        <ele>125</ele>
        <time>2018-03-03T12:51:06.671Z</time>
      </trkpt>
      <trkpt lat="47.78573" lon="2.12653">
        <ele>125</ele>
        <time>2018-03-03T12:51:07.674Z</time>
      </trkpt>
      <trkpt lat="47.78573" lon="2.12653">
        <ele>125</ele>
        <time>2018-03-03T12:51:08.704Z</time>
      </trkpt>
      <trkpt lat="47.78566" lon="2.12648">
        <ele>125</ele>
        <time>2018-03-03T12:51:09.698Z</time>
      </trkpt>
      <trkpt lat="47.78566" lon="2.12648">
        <ele>125</ele>
        <time>2018-03-03T12:51:10.687Z</time>
      </trkpt>
      <trkpt lat="47.78558" lon="2.12643">
        <ele>125</ele>
        <time>2018-03-03T12:51:11.679Z</time>
      </trkpt>
      <trkpt lat="47.78558" lon="2.12643">
        <ele>125</ele>
        <time>2018-03-03T12:51:12.676Z</time>
      </trkpt>
      <trkpt lat="47.7855" lon="2.12639">
        <ele>125</ele>
        <time>2018-03-03T12:51:13.688Z</time>
      </trkpt>
      <trkpt lat="47.7855" lon="2.12639">
        <ele>125</ele>
        <time>2018-03-03T12:51:14.677Z</time>
      </trkpt>
      <trkpt lat="47.78542" lon="2.12634">
        <ele>125</ele>
        <time>2018-03-03T12:51:15.680Z</time>
      </trkpt>
      <trkpt lat="47.78542" lon="2.12634">
        <ele>125</ele>
        <time>2018-03-03T12:51:16.671Z</time>
      </trkpt>
      <trkpt lat="47.78535" lon="2.1263">
        <ele>125</ele>
        <time>2018-03-03T12:51:17.691Z</time>
      </trkpt>
      <trkpt lat="47.78535" lon="2.1263">
        <ele>125</ele>
        <time>2018-03-03T12:51:18.680Z</time>
      </trkpt>
      <trkpt lat="47.78528" lon="2.12626">
        <ele>125</ele>
        <time>2018-03-03T12:51:19.675Z</time>
      </trkpt>
      <trkpt lat="47.78528" lon="2.12626">
        <ele>125</ele>
        <time>2018-03-03T12:51:20.670Z</time>
      </trkpt>
      <trkpt lat="47.78521" lon="2.12622">
        <ele>125</ele>
        <time>2018-03-03T12:51:21.672Z</time>
      </trkpt>
      <trkpt lat="47.78521" lon="2.12622">
        <ele>125</ele>
        <time>2018-03-03T12:51:22.666Z</time>
      </trkpt>
      <trkpt lat="47.78514" lon="2.12617">
        <ele>125</ele>
        <time>2018-03-03T12:51:23.674Z</time>
      </trkpt>
      <trkpt lat="47.7851" lon="2.12615">
        <ele>125</ele>
        <time>2018-03-03T12:51:24.666Z</time>
      </trkpt>
      <trkpt lat="47.7851" lon="2.12615">
        <ele>125</ele>
        <time>2018-03-03T12:51:25.702Z</time>
      </trkpt>
      <trkpt lat="47.78502" lon="2.1261">
        <ele>125</ele>
        <time>2018-03-03T12:51:26.690Z</time>
      </trkpt>
      <trkpt lat="47.78498" lon="2.12608">
        <ele>125</ele>
        <time>2018-03-03T12:51:27.679Z</time>
      </trkpt>
      <trkpt lat="47.78498" lon="2.12608">
        <ele>125</ele>
        <time>2018-03-03T12:51:28.671Z</time>
      </trkpt>
      <trkpt lat="47.7849" lon="2.12603">
        <ele>125</ele>
        <time>2018-03-03T12:51:29.672Z</time>
      </trkpt>
      <trkpt lat="47.78487" lon="2.12601">
        <ele>125</ele>
        <time>2018-03-03T12:51:30.673Z</time>
      </trkpt>
      <trkpt lat="47.78487" lon="2.12601">
        <ele>125</ele>
        <time>2018-03-03T12:51:31.680Z</time>
      </trkpt>
      <trkpt lat="47.78479" lon="2.12597">
        <ele>125</ele>
        <time>2018-03-03T12:51:32.677Z</time>
      </trkpt>
      <trkpt lat="47.78479" lon="2.12597">
        <ele>125</ele>
        <time>2018-03-03T12:51:33.702Z</time>
      </trkpt>
      <trkpt lat="47.7847" lon="2.12593">
        <ele>125</ele>
        <time>2018-03-03T12:51:34.694Z</time>
      </trkpt>
      <trkpt lat="47.7847" lon="2.12593">
        <ele>125</ele>
        <time>2018-03-03T12:51:35.691Z</time>
      </trkpt>
      <trkpt lat="47.78462" lon="2.12588">
        <ele>126</ele>
        <time>2018-03-03T12:51:36.680Z</time>
      </trkpt>
      <trkpt lat="47.78458" lon="2.12586">
        <ele>126</ele>
        <time>2018-03-03T12:51:37.673Z</time>
      </trkpt>
      <trkpt lat="47.78458" lon="2.12586">
        <ele>126</ele>
        <time>2018-03-03T12:51:38.671Z</time>
      </trkpt>
      <trkpt lat="47.7845" lon="2.12581">
        <ele>126</ele>
        <time>2018-03-03T12:51:39.674Z</time>
      </trkpt>
      <trkpt lat="47.78446" lon="2.12579">
        <ele>126</ele>
        <time>2018-03-03T12:51:40.671Z</time>
      </trkpt>
      <trkpt lat="47.78446" lon="2.12579">
        <ele>126</ele>
        <time>2018-03-03T12:51:41.671Z</time>
      </trkpt>
      <trkpt lat="47.78439" lon="2.12575">
        <ele>126</ele>
        <time>2018-03-03T12:51:42.670Z</time>
      </trkpt>
      <trkpt lat="47.78439" lon="2.12575">
        <ele>126</ele>
        <time>2018-03-03T12:51:43.672Z</time>
      </trkpt>
      <trkpt lat="47.78431" lon="2.1257">
        <ele>126</ele>
        <time>2018-03-03T12:51:44.671Z</time>
      </trkpt>
      <trkpt lat="47.78427" lon="2.12568">
        <ele>126</ele>
        <time>2018-03-03T12:51:45.672Z</time>
      </trkpt>
      <trkpt lat="47.78427" lon="2.12568">
        <ele>126</ele>
        <time>2018-03-03T12:51:46.702Z</time>
      </trkpt>
      <trkpt lat="47.7842" lon="2.12563">
        <ele>126</ele>
        <time>2018-03-03T12:51:47.690Z</time>
      </trkpt>
      <trkpt lat="47.78416" lon="2.12561">
        <ele>126</ele>
        <time>2018-03-03T12:51:48.680Z</time>
      </trkpt>
      <trkpt lat="47.78412" lon="2.12559">
        <ele>126</ele>
        <time>2018-03-03T12:51:49.671Z</time>
      </trkpt>
      <trkpt lat="47.78412" lon="2.12559">
        <ele>126</ele>
        <time>2018-03-03T12:51:50.671Z</time>
      </trkpt>
      <trkpt lat="47.78407" lon="2.12552">
        <ele>127</ele>
        <time>2018-03-03T12:51:51.672Z</time>
      </trkpt>
      <trkpt lat="47.78407" lon="2.12552">
        <ele>127</ele>
        <time>2018-03-03T12:51:52.700Z</time>
      </trkpt>
      <trkpt lat="47.78404" lon="2.1254">
        <ele>128</ele>
        <time>2018-03-03T12:51:53.689Z</time>
      </trkpt>
      <trkpt lat="47.78405" lon="2.12534">
        <ele>128</ele>
        <time>2018-03-03T12:51:54.685Z</time>
      </trkpt>
      <trkpt lat="47.78405" lon="2.12534">
        <ele>128</ele>
        <time>2018-03-03T12:51:55.675Z</time>
      </trkpt>
      <trkpt lat="47.78408" lon="2.12521">
        <ele>130</ele>
        <time>2018-03-03T12:51:56.671Z</time>
      </trkpt>
      <trkpt lat="47.78408" lon="2.12521">
        <ele>130</ele>
        <time>2018-03-03T12:51:57.672Z</time>
      </trkpt>
      <trkpt lat="47.78412" lon="2.12507">
        <ele>130</ele>
        <time>2018-03-03T12:51:58.671Z</time>
      </trkpt>
      <trkpt lat="47.78412" lon="2.12507">
        <ele>130</ele>
        <time>2018-03-03T12:51:59.671Z</time>
      </trkpt>
      <trkpt lat="47.78416" lon="2.12494">
        <ele>131</ele>
        <time>2018-03-03T12:52:00.671Z</time>
      </trkpt>
      <trkpt lat="47.78418" lon="2.12488">
        <ele>131</ele>
        <time>2018-03-03T12:52:01.674Z</time>
      </trkpt>
      <trkpt lat="47.78418" lon="2.12488">
        <ele>131</ele>
        <time>2018-03-03T12:52:02.703Z</time>
      </trkpt>
      <trkpt lat="47.78422" lon="2.12475">
        <ele>132</ele>
        <time>2018-03-03T12:52:03.691Z</time>
      </trkpt>
      <trkpt lat="47.78422" lon="2.12475">
        <ele>132</ele>
        <time>2018-03-03T12:52:04.680Z</time>
      </trkpt>
      <trkpt lat="47.78426" lon="2.12461">
        <ele>132</ele>
        <time>2018-03-03T12:52:05.674Z</time>
      </trkpt>
      <trkpt lat="47.78426" lon="2.12461">
        <ele>132</ele>
        <time>2018-03-03T12:52:06.702Z</time>
      </trkpt>
      <trkpt lat="47.78429" lon="2.12449">
        <ele>132</ele>
        <time>2018-03-03T12:52:07.691Z</time>
      </trkpt>
      <trkpt lat="47.78429" lon="2.12449">
        <ele>132</ele>
        <time>2018-03-03T12:52:08.679Z</time>
      </trkpt>
      <trkpt lat="47.78433" lon="2.12436">
        <ele>132</ele>
        <time>2018-03-03T12:52:09.672Z</time>
      </trkpt>
      <trkpt lat="47.78434" lon="2.1243">
        <ele>132</ele>
        <time>2018-03-03T12:52:10.672Z</time>
      </trkpt>
      <trkpt lat="47.78434" lon="2.1243">
        <ele>132</ele>
        <time>2018-03-03T12:52:11.702Z</time>
      </trkpt>
      <trkpt lat="47.78438" lon="2.12416">
        <ele>132</ele>
        <time>2018-03-03T12:52:12.693Z</time>
      </trkpt>
      <trkpt lat="47.78438" lon="2.12416">
        <ele>132</ele>
        <time>2018-03-03T12:52:13.673Z</time>
      </trkpt>
      <trkpt lat="47.78441" lon="2.12402">
        <ele>132</ele>
        <time>2018-03-03T12:52:14.671Z</time>
      </trkpt>
      <trkpt lat="47.78443" lon="2.12396">
        <ele>132</ele>
        <time>2018-03-03T12:52:15.680Z</time>
      </trkpt>
      <trkpt lat="47.78443" lon="2.12396">
        <ele>132</ele>
        <time>2018-03-03T12:52:16.701Z</time>
      </trkpt>
      <trkpt lat="47.78446" lon="2.12382">
        <ele>132</ele>
        <time>2018-03-03T12:52:17.667Z</time>
      </trkpt>
      <trkpt lat="47.78446" lon="2.12382">
        <ele>132</ele>
        <time>2018-03-03T12:52:18.699Z</time>
      </trkpt>
      <trkpt lat="47.7845" lon="2.12368">
        <ele>132</ele>
        <time>2018-03-03T12:52:19.687Z</time>
      </trkpt>
      <trkpt lat="47.7845" lon="2.12368">
        <ele>132</ele>
        <time>2018-03-03T12:52:20.676Z</time>
      </trkpt>
      <trkpt lat="47.78454" lon="2.12354">
        <ele>132</ele>
        <time>2018-03-03T12:52:21.672Z</time>
      </trkpt>
      <trkpt lat="47.78455" lon="2.12347">
        <ele>132</ele>
        <time>2018-03-03T12:52:22.680Z</time>
      </trkpt>
      <trkpt lat="47.78455" lon="2.12347">
        <ele>132</ele>
        <time>2018-03-03T12:52:23.671Z</time>
      </trkpt>
      <trkpt lat="47.7846" lon="2.12333">
        <ele>132</ele>
        <time>2018-03-03T12:52:24.671Z</time>
      </trkpt>
      <trkpt lat="47.78462" lon="2.12326">
        <ele>132</ele>
        <time>2018-03-03T12:52:25.676Z</time>
      </trkpt>
      <trkpt lat="47.78462" lon="2.12326">
        <ele>132</ele>
        <time>2018-03-03T12:52:26.693Z</time>
      </trkpt>
      <trkpt lat="47.78466" lon="2.12312">
        <ele>133</ele>
        <time>2018-03-03T12:52:27.682Z</time>
      </trkpt>
      <trkpt lat="47.78466" lon="2.12312">
        <ele>133</ele>
        <time>2018-03-03T12:52:28.671Z</time>
      </trkpt>
      <trkpt lat="47.78471" lon="2.12299">
        <ele>133</ele>
        <time>2018-03-03T12:52:29.671Z</time>
      </trkpt>
      <trkpt lat="47.78473" lon="2.12292">
        <ele>133</ele>
        <time>2018-03-03T12:52:30.671Z</time>
      </trkpt>
      <trkpt lat="47.78473" lon="2.12292">
        <ele>133</ele>
        <time>2018-03-03T12:52:31.671Z</time>
      </trkpt>
      <trkpt lat="47.78478" lon="2.12279">
        <ele>133</ele>
        <time>2018-03-03T12:52:32.670Z</time>
      </trkpt>
      <trkpt lat="47.78479" lon="2.12273">
        <ele>133</ele>
        <time>2018-03-03T12:52:33.674Z</time>
      </trkpt>
      <trkpt lat="47.78479" lon="2.12273">
        <ele>133</ele>
        <time>2018-03-03T12:52:34.680Z</time>
      </trkpt>
      <trkpt lat="47.78484" lon="2.1226">
        <ele>134</ele>
        <time>2018-03-03T12:52:35.703Z</time>
      </trkpt>
      <trkpt lat="47.78487" lon="2.12254">
        <ele>134</ele>
        <time>2018-03-03T12:52:36.698Z</time>
      </trkpt>
      <trkpt lat="47.78489" lon="2.12247">
        <ele>134</ele>
        <time>2018-03-03T12:52:37.687Z</time>
      </trkpt>
      <trkpt lat="47.78489" lon="2.12247">
        <ele>134</ele>
        <time>2018-03-03T12:52:38.676Z</time>
      </trkpt>
      <trkpt lat="47.78494" lon="2.12232">
        <ele>134</ele>
        <time>2018-03-03T12:52:39.676Z</time>
      </trkpt>
      <trkpt lat="47.78494" lon="2.12232">
        <ele>134</ele>
        <time>2018-03-03T12:52:40.666Z</time>
      </trkpt>
      <trkpt lat="47.78498" lon="2.12218">
        <ele>134</ele>
        <time>2018-03-03T12:52:41.671Z</time>
      </trkpt>
      <trkpt lat="47.78498" lon="2.12218">
        <ele>134</ele>
        <time>2018-03-03T12:52:42.677Z</time>
      </trkpt>
      <trkpt lat="47.78501" lon="2.12204">
        <ele>135</ele>
        <time>2018-03-03T12:52:43.675Z</time>
      </trkpt>
      <trkpt lat="47.78501" lon="2.12204">
        <ele>135</ele>
        <time>2018-03-03T12:52:44.671Z</time>
      </trkpt>
      <trkpt lat="47.78505" lon="2.1219">
        <ele>134</ele>
        <time>2018-03-03T12:52:45.674Z</time>
      </trkpt>
      <trkpt lat="47.78505" lon="2.1219">
        <ele>134</ele>
        <time>2018-03-03T12:52:46.665Z</time>
      </trkpt>
      <trkpt lat="47.78509" lon="2.12176">
        <ele>134</ele>
        <time>2018-03-03T12:52:47.671Z</time>
      </trkpt>
      <trkpt lat="47.78509" lon="2.12176">
        <ele>134</ele>
        <time>2018-03-03T12:52:48.704Z</time>
      </trkpt>
      <trkpt lat="47.78514" lon="2.12162">
        <ele>133</ele>
        <time>2018-03-03T12:52:49.693Z</time>
      </trkpt>
      <trkpt lat="47.78514" lon="2.12162">
        <ele>133</ele>
        <time>2018-03-03T12:52:50.681Z</time>
      </trkpt>
      <trkpt lat="47.78518" lon="2.12149">
        <ele>133</ele>
        <time>2018-03-03T12:52:51.675Z</time>
      </trkpt>
      <trkpt lat="47.78518" lon="2.12149">
        <ele>133</ele>
        <time>2018-03-03T12:52:52.670Z</time>
      </trkpt>
      <trkpt lat="47.78522" lon="2.12135">
        <ele>133</ele>
        <time>2018-03-03T12:52:53.675Z</time>
      </trkpt>
      <trkpt lat="47.78524" lon="2.12128">
        <ele>133</ele>
        <time>2018-03-03T12:52:54.684Z</time>
      </trkpt>
      <trkpt lat="47.78526" lon="2.12121">
        <ele>133</ele>
        <time>2018-03-03T12:52:55.676Z</time>
      </trkpt>
      <trkpt lat="47.78526" lon="2.12121">
        <ele>133</ele>
        <time>2018-03-03T12:52:56.665Z</time>
      </trkpt>
      <trkpt lat="47.78531" lon="2.12108">
        <ele>132</ele>
        <time>2018-03-03T12:52:57.699Z</time>
      </trkpt>
      <trkpt lat="47.78532" lon="2.12101">
        <ele>132</ele>
        <time>2018-03-03T12:52:58.688Z</time>
      </trkpt>
      <trkpt lat="47.78532" lon="2.12101">
        <ele>132</ele>
        <time>2018-03-03T12:52:59.684Z</time>
      </trkpt>
      <trkpt lat="47.78536" lon="2.12088">
        <ele>132</ele>
        <time>2018-03-03T12:53:00.675Z</time>
      </trkpt>
      <trkpt lat="47.78536" lon="2.12088">
        <ele>132</ele>
        <time>2018-03-03T12:53:01.704Z</time>
      </trkpt>
      <trkpt lat="47.7854" lon="2.12074">
        <ele>132</ele>
        <time>2018-03-03T12:53:02.700Z</time>
      </trkpt>
      <trkpt lat="47.78542" lon="2.12067">
        <ele>132</ele>
        <time>2018-03-03T12:53:03.693Z</time>
      </trkpt>
      <trkpt lat="47.78542" lon="2.12067">
        <ele>132</ele>
        <time>2018-03-03T12:53:04.682Z</time>
      </trkpt>
      <trkpt lat="47.78547" lon="2.12052">
        <ele>132</ele>
        <time>2018-03-03T12:53:05.671Z</time>
      </trkpt>
      <trkpt lat="47.78547" lon="2.12052">
        <ele>132</ele>
        <time>2018-03-03T12:53:06.702Z</time>
      </trkpt>
      <trkpt lat="47.78551" lon="2.12038">
        <ele>131</ele>
        <time>2018-03-03T12:53:07.690Z</time>
      </trkpt>
      <trkpt lat="47.78551" lon="2.12038">
        <ele>131</ele>
        <time>2018-03-03T12:53:08.678Z</time>
      </trkpt>
      <trkpt lat="47.78556" lon="2.12024">
        <ele>131</ele>
        <time>2018-03-03T12:53:09.672Z</time>
      </trkpt>
      <trkpt lat="47.78556" lon="2.12024">
        <ele>131</ele>
        <time>2018-03-03T12:53:10.703Z</time>
      </trkpt>
      <trkpt lat="47.7856" lon="2.12009">
        <ele>131</ele>
        <time>2018-03-03T12:53:11.691Z</time>
      </trkpt>
      <trkpt lat="47.7856" lon="2.12009">
        <ele>131</ele>
        <time>2018-03-03T12:53:12.678Z</time>
      </trkpt>
      <trkpt lat="47.78564" lon="2.11995">
        <ele>130</ele>
        <time>2018-03-03T12:53:13.692Z</time>
      </trkpt>
      <trkpt lat="47.78564" lon="2.11995">
        <ele>130</ele>
        <time>2018-03-03T12:53:14.689Z</time>
      </trkpt>
      <trkpt lat="47.78569" lon="2.1198">
        <ele>130</ele>
        <time>2018-03-03T12:53:15.677Z</time>
      </trkpt>
      <trkpt lat="47.78571" lon="2.11973">
        <ele>130</ele>
        <time>2018-03-03T12:53:16.671Z</time>
      </trkpt>
      <trkpt lat="47.78571" lon="2.11973">
        <ele>130</ele>
        <time>2018-03-03T12:53:17.700Z</time>
      </trkpt>
      <trkpt lat="47.78575" lon="2.11959">
        <ele>130</ele>
        <time>2018-03-03T12:53:18.689Z</time>
      </trkpt>
      <trkpt lat="47.78575" lon="2.11959">
        <ele>130</ele>
        <time>2018-03-03T12:53:19.678Z</time>
      </trkpt>
      <trkpt lat="47.78579" lon="2.11946">
        <ele>130</ele>
        <time>2018-03-03T12:53:20.693Z</time>
      </trkpt>
      <trkpt lat="47.78579" lon="2.11946">
        <ele>130</ele>
        <time>2018-03-03T12:53:21.681Z</time>
      </trkpt>
      <trkpt lat="47.78584" lon="2.11932">
        <ele>130</ele>
        <time>2018-03-03T12:53:22.680Z</time>
      </trkpt>
      <trkpt lat="47.78586" lon="2.11925">
        <ele>130</ele>
        <time>2018-03-03T12:53:23.674Z</time>
      </trkpt>
      <trkpt lat="47.78586" lon="2.11925">
        <ele>130</ele>
        <time>2018-03-03T12:53:24.703Z</time>
      </trkpt>
      <trkpt lat="47.78591" lon="2.11912">
        <ele>130</ele>
        <time>2018-03-03T12:53:25.691Z</time>
      </trkpt>
      <trkpt lat="47.78591" lon="2.11912">
        <ele>130</ele>
        <time>2018-03-03T12:53:26.679Z</time>
      </trkpt>
      <trkpt lat="47.78596" lon="2.11899">
        <ele>130</ele>
        <time>2018-03-03T12:53:27.672Z</time>
      </trkpt>
      <trkpt lat="47.78598" lon="2.11893">
        <ele>130</ele>
        <time>2018-03-03T12:53:28.671Z</time>
      </trkpt>
      <trkpt lat="47.78601" lon="2.11887">
        <ele>130</ele>
        <time>2018-03-03T12:53:29.671Z</time>
      </trkpt>
      <trkpt lat="47.78601" lon="2.11887">
        <ele>130</ele>
        <time>2018-03-03T12:53:30.704Z</time>
      </trkpt>
      <trkpt lat="47.78605" lon="2.11875">
        <ele>130</ele>
        <time>2018-03-03T12:53:31.673Z</time>
      </trkpt>
      <trkpt lat="47.78605" lon="2.11875">
        <ele>130</ele>
        <time>2018-03-03T12:53:32.689Z</time>
      </trkpt>
      <trkpt lat="47.7861" lon="2.11863">
        <ele>130</ele>
        <time>2018-03-03T12:53:33.677Z</time>
      </trkpt>
      <trkpt lat="47.7861" lon="2.11863">
        <ele>130</ele>
        <time>2018-03-03T12:53:34.666Z</time>
      </trkpt>
      <trkpt lat="47.78616" lon="2.11851">
        <ele>129</ele>
        <time>2018-03-03T12:53:35.671Z</time>
      </trkpt>
      <trkpt lat="47.78619" lon="2.11844">
        <ele>129</ele>
        <time>2018-03-03T12:53:36.667Z</time>
      </trkpt>
      <trkpt lat="47.78621" lon="2.11838">
        <ele>129</ele>
        <time>2018-03-03T12:53:37.702Z</time>
      </trkpt>
      <trkpt lat="47.78621" lon="2.11838">
        <ele>129</ele>
        <time>2018-03-03T12:53:38.673Z</time>
      </trkpt>
      <trkpt lat="47.78627" lon="2.11826">
        <ele>129</ele>
        <time>2018-03-03T12:53:39.673Z</time>
      </trkpt>
      <trkpt lat="47.78627" lon="2.11826">
        <ele>129</ele>
        <time>2018-03-03T12:53:40.704Z</time>
      </trkpt>
      <trkpt lat="47.78632" lon="2.11813">
        <ele>129</ele>
        <time>2018-03-03T12:53:41.698Z</time>
      </trkpt>
      <trkpt lat="47.78632" lon="2.11813">
        <ele>129</ele>
        <time>2018-03-03T12:53:42.688Z</time>
      </trkpt>
      <trkpt lat="47.78636" lon="2.11802">
        <ele>129</ele>
        <time>2018-03-03T12:53:43.676Z</time>
      </trkpt>
      <trkpt lat="47.78636" lon="2.11802">
        <ele>129</ele>
        <time>2018-03-03T12:53:44.671Z</time>
      </trkpt>
      <trkpt lat="47.78641" lon="2.11791">
        <ele>129</ele>
        <time>2018-03-03T12:53:45.672Z</time>
      </trkpt>
      <trkpt lat="47.78643" lon="2.11786">
        <ele>129</ele>
        <time>2018-03-03T12:53:46.675Z</time>
      </trkpt>
      <trkpt lat="47.78643" lon="2.11786">
        <ele>129</ele>
        <time>2018-03-03T12:53:47.701Z</time>
      </trkpt>
      <trkpt lat="47.78648" lon="2.11776">
        <ele>129</ele>
        <time>2018-03-03T12:53:48.692Z</time>
      </trkpt>
      <trkpt lat="47.78651" lon="2.1177">
        <ele>129</ele>
        <time>2018-03-03T12:53:49.683Z</time>
      </trkpt>
      <trkpt lat="47.78651" lon="2.1177">
        <ele>129</ele>
        <time>2018-03-03T12:53:50.678Z</time>
      </trkpt>
      <trkpt lat="47.78656" lon="2.11759">
        <ele>129</ele>
        <time>2018-03-03T12:53:51.671Z</time>
      </trkpt>
      <trkpt lat="47.78659" lon="2.11753">
        <ele>129</ele>
        <time>2018-03-03T12:53:52.670Z</time>
      </trkpt>
      <trkpt lat="47.78662" lon="2.11747">
        <ele>129</ele>
        <time>2018-03-03T12:53:53.671Z</time>
      </trkpt>
      <trkpt lat="47.78662" lon="2.11747">
        <ele>129</ele>
        <time>2018-03-03T12:53:54.687Z</time>
      </trkpt>
      <trkpt lat="47.78667" lon="2.11735">
        <ele>128</ele>
        <time>2018-03-03T12:53:55.674Z</time>
      </trkpt>
      <trkpt lat="47.78667" lon="2.11735">
        <ele>128</ele>
        <time>2018-03-03T12:53:56.703Z</time>
      </trkpt>
      <trkpt lat="47.78673" lon="2.11722">
        <ele>128</ele>
        <time>2018-03-03T12:53:57.672Z</time>
      </trkpt>
      <trkpt lat="47.78675" lon="2.11716">
        <ele>128</ele>
        <time>2018-03-03T12:53:58.671Z</time>
      </trkpt>
      <trkpt lat="47.78675" lon="2.11716">
        <ele>128</ele>
        <time>2018-03-03T12:53:59.704Z</time>
      </trkpt>
      <trkpt lat="47.78681" lon="2.11703">
        <ele>128</ele>
        <time>2018-03-03T12:54:00.671Z</time>
      </trkpt>
      <trkpt lat="47.78681" lon="2.11703">
        <ele>128</ele>
        <time>2018-03-03T12:54:01.666Z</time>
      </trkpt>
      <trkpt lat="47.78686" lon="2.11691">
        <ele>128</ele>
        <time>2018-03-03T12:54:02.688Z</time>
      </trkpt>
      <trkpt lat="47.78689" lon="2.11685">
        <ele>128</ele>
        <time>2018-03-03T12:54:03.678Z</time>
      </trkpt>
      <trkpt lat="47.78689" lon="2.11685">
        <ele>128</ele>
        <time>2018-03-03T12:54:04.671Z</time>
      </trkpt>
      <trkpt lat="47.78695" lon="2.11673">
        <ele>128</ele>
        <time>2018-03-03T12:54:05.672Z</time>
      </trkpt>
      <trkpt lat="47.78695" lon="2.11673">
        <ele>128</ele>
        <time>2018-03-03T12:54:06.704Z</time>
      </trkpt>
      <trkpt lat="47.787" lon="2.1166">
        <ele>128</ele>
        <time>2018-03-03T12:54:07.674Z</time>
      </trkpt>
      <trkpt lat="47.787" lon="2.1166">
        <ele>128</ele>
        <time>2018-03-03T12:54:08.672Z</time>
      </trkpt>
      <trkpt lat="47.78706" lon="2.11648">
        <ele>128</ele>
        <time>2018-03-03T12:54:09.674Z</time>
      </trkpt>
      <trkpt lat="47.78706" lon="2.11648">
        <ele>128</ele>
        <time>2018-03-03T12:54:10.671Z</time>
      </trkpt>
      <trkpt lat="47.78711" lon="2.11635">
        <ele>128</ele>
        <time>2018-03-03T12:54:11.671Z</time>
      </trkpt>
      <trkpt lat="47.78714" lon="2.11628">
        <ele>128</ele>
        <time>2018-03-03T12:54:12.680Z</time>
      </trkpt>
      <trkpt lat="47.78714" lon="2.11628">
        <ele>128</ele>
        <time>2018-03-03T12:54:13.666Z</time>
      </trkpt>
      <trkpt lat="47.78721" lon="2.11614">
        <ele>127</ele>
        <time>2018-03-03T12:54:14.671Z</time>
      </trkpt>
      <trkpt lat="47.78721" lon="2.11614">
        <ele>127</ele>
        <time>2018-03-03T12:54:15.700Z</time>
      </trkpt>
      <trkpt lat="47.78728" lon="2.116">
        <ele>127</ele>
        <time>2018-03-03T12:54:16.688Z</time>
      </trkpt>
      <trkpt lat="47.78731" lon="2.11593">
        <ele>127</ele>
        <time>2018-03-03T12:54:17.686Z</time>
      </trkpt>
      <trkpt lat="47.78731" lon="2.11593">
        <ele>127</ele>
        <time>2018-03-03T12:54:18.674Z</time>
      </trkpt>
      <trkpt lat="47.78737" lon="2.11578">
        <ele>127</ele>
        <time>2018-03-03T12:54:19.691Z</time>
      </trkpt>
      <trkpt lat="47.78737" lon="2.11578">
        <ele>127</ele>
        <time>2018-03-03T12:54:20.681Z</time>
      </trkpt>
      <trkpt lat="47.78744" lon="2.11564">
        <ele>127</ele>
        <time>2018-03-03T12:54:21.673Z</time>
      </trkpt>
      <trkpt lat="47.78747" lon="2.11557">
        <ele>127</ele>
        <time>2018-03-03T12:54:22.670Z</time>
      </trkpt>
      <trkpt lat="47.78747" lon="2.11557">
        <ele>127</ele>
        <time>2018-03-03T12:54:23.671Z</time>
      </trkpt>
      <trkpt lat="47.78753" lon="2.11543">
        <ele>127</ele>
        <time>2018-03-03T12:54:24.671Z</time>
      </trkpt>
      <trkpt lat="47.78757" lon="2.11536">
        <ele>127</ele>
        <time>2018-03-03T12:54:25.704Z</time>
      </trkpt>
      <trkpt lat="47.78757" lon="2.11536">
        <ele>127</ele>
        <time>2018-03-03T12:54:26.694Z</time>
      </trkpt>
      <trkpt lat="47.78764" lon="2.11523">
        <ele>127</ele>
        <time>2018-03-03T12:54:27.686Z</time>
      </trkpt>
      <trkpt lat="47.78764" lon="2.11523">
        <ele>127</ele>
        <time>2018-03-03T12:54:28.674Z</time>
      </trkpt>
      <trkpt lat="47.78774" lon="2.11512">
        <ele>127</ele>
        <time>2018-03-03T12:54:29.671Z</time>
      </trkpt>
      <trkpt lat="47.78774" lon="2.11512">
        <ele>127</ele>
        <time>2018-03-03T12:54:30.703Z</time>
      </trkpt>
      <trkpt lat="47.78785" lon="2.11503">
        <ele>127</ele>
        <time>2018-03-03T12:54:31.692Z</time>
      </trkpt>
      <trkpt lat="47.78785" lon="2.11503">
        <ele>127</ele>
        <time>2018-03-03T12:54:32.679Z</time>
      </trkpt>
      <trkpt lat="47.78797" lon="2.11497">
        <ele>127</ele>
        <time>2018-03-03T12:54:33.672Z</time>
      </trkpt>
      <trkpt lat="47.78797" lon="2.11497">
        <ele>127</ele>
        <time>2018-03-03T12:54:34.704Z</time>
      </trkpt>
      <trkpt lat="47.7881" lon="2.11492">
        <ele>126</ele>
        <time>2018-03-03T12:54:35.695Z</time>
      </trkpt>
      <trkpt lat="47.78816" lon="2.1149">
        <ele>126</ele>
        <time>2018-03-03T12:54:36.690Z</time>
      </trkpt>
      <trkpt lat="47.78816" lon="2.1149">
        <ele>126</ele>
        <time>2018-03-03T12:54:37.678Z</time>
      </trkpt>
      <trkpt lat="47.78829" lon="2.11487">
        <ele>126</ele>
        <time>2018-03-03T12:54:38.668Z</time>
      </trkpt>
      <trkpt lat="47.78836" lon="2.11485">
        <ele>126</ele>
        <time>2018-03-03T12:54:39.675Z</time>
      </trkpt>
      <trkpt lat="47.78836" lon="2.11485">
        <ele>126</ele>
        <time>2018-03-03T12:54:40.671Z</time>
      </trkpt>
      <trkpt lat="47.78849" lon="2.11481">
        <ele>126</ele>
        <time>2018-03-03T12:54:41.671Z</time>
      </trkpt>
      <trkpt lat="47.78849" lon="2.11481">
        <ele>126</ele>
        <time>2018-03-03T12:54:42.680Z</time>
      </trkpt>
      <trkpt lat="47.78862" lon="2.11476">
        <ele>125</ele>
        <time>2018-03-03T12:54:43.703Z</time>
      </trkpt>
      <trkpt lat="47.78862" lon="2.11476">
        <ele>125</ele>
        <time>2018-03-03T12:54:44.665Z</time>
      </trkpt>
      <trkpt lat="47.78876" lon="2.11472">
        <ele>125</ele>
        <time>2018-03-03T12:54:45.702Z</time>
      </trkpt>
      <trkpt lat="47.78876" lon="2.11472">
        <ele>125</ele>
        <time>2018-03-03T12:54:46.690Z</time>
      </trkpt>
      <trkpt lat="47.78889" lon="2.11468">
        <ele>125</ele>
        <time>2018-03-03T12:54:47.679Z</time>
      </trkpt>
      <trkpt lat="47.78896" lon="2.11466">
        <ele>125</ele>
        <time>2018-03-03T12:54:48.676Z</time>
      </trkpt>
      <trkpt lat="47.78903" lon="2.11463">
        <ele>124</ele>
        <time>2018-03-03T12:54:49.674Z</time>
      </trkpt>
      <trkpt lat="47.78903" lon="2.11463">
        <ele>124</ele>
        <time>2018-03-03T12:54:50.665Z</time>
      </trkpt>
      <trkpt lat="47.78917" lon="2.11459">
        <ele>124</ele>
        <time>2018-03-03T12:54:51.674Z</time>
      </trkpt>
      <trkpt lat="47.78917" lon="2.11459">
        <ele>124</ele>
        <time>2018-03-03T12:54:52.675Z</time>
      </trkpt>
      <trkpt lat="47.78931" lon="2.11455">
        <ele>123</ele>
        <time>2018-03-03T12:54:53.672Z</time>
      </trkpt>
      <trkpt lat="47.78931" lon="2.11455">
        <ele>123</ele>
        <time>2018-03-03T12:54:54.680Z</time>
      </trkpt>
      <trkpt lat="47.78945" lon="2.11451">
        <ele>123</ele>
        <time>2018-03-03T12:54:55.673Z</time>
      </trkpt>
      <trkpt lat="47.78945" lon="2.11451">
        <ele>123</ele>
        <time>2018-03-03T12:54:56.672Z</time>
      </trkpt>
      <trkpt lat="47.78959" lon="2.11447">
        <ele>123</ele>
        <time>2018-03-03T12:54:57.701Z</time>
      </trkpt>
      <trkpt lat="47.78959" lon="2.11447">
        <ele>123</ele>
        <time>2018-03-03T12:54:58.690Z</time>
      </trkpt>
      <trkpt lat="47.78972" lon="2.11444">
        <ele>123</ele>
        <time>2018-03-03T12:54:59.687Z</time>
      </trkpt>
      <trkpt lat="47.78972" lon="2.11444">
        <ele>123</ele>
        <time>2018-03-03T12:55:00.675Z</time>
      </trkpt>
      <trkpt lat="47.78985" lon="2.1144">
        <ele>123</ele>
        <time>2018-03-03T12:55:01.665Z</time>
      </trkpt>
      <trkpt lat="47.78985" lon="2.1144">
        <ele>123</ele>
        <time>2018-03-03T12:55:02.671Z</time>
      </trkpt>
      <trkpt lat="47.78996" lon="2.11431">
        <ele>124</ele>
        <time>2018-03-03T12:55:03.674Z</time>
      </trkpt>
      <trkpt lat="47.78996" lon="2.11431">
        <ele>124</ele>
        <time>2018-03-03T12:55:04.672Z</time>
      </trkpt>
      <trkpt lat="47.79006" lon="2.11423">
        <ele>124</ele>
        <time>2018-03-03T12:55:05.674Z</time>
      </trkpt>
      <trkpt lat="47.79006" lon="2.11423">
        <ele>124</ele>
        <time>2018-03-03T12:55:06.672Z</time>
      </trkpt>
      <trkpt lat="47.79017" lon="2.11414">
        <ele>124</ele>
        <time>2018-03-03T12:55:07.704Z</time>
      </trkpt>
      <trkpt lat="47.79017" lon="2.11414">
        <ele>124</ele>
        <time>2018-03-03T12:55:08.695Z</time>
      </trkpt>
      <trkpt lat="47.79029" lon="2.11405">
        <ele>125</ele>
        <time>2018-03-03T12:55:09.686Z</time>
      </trkpt>
      <trkpt lat="47.79029" lon="2.11405">
        <ele>125</ele>
        <time>2018-03-03T12:55:10.674Z</time>
      </trkpt>
      <trkpt lat="47.79041" lon="2.11394">
        <ele>125</ele>
        <time>2018-03-03T12:55:11.679Z</time>
      </trkpt>
      <trkpt lat="47.79041" lon="2.11394">
        <ele>125</ele>
        <time>2018-03-03T12:55:12.670Z</time>
      </trkpt>
      <trkpt lat="47.79053" lon="2.11384">
        <ele>126</ele>
        <time>2018-03-03T12:55:13.677Z</time>
      </trkpt>
      <trkpt lat="47.79053" lon="2.11384">
        <ele>126</ele>
        <time>2018-03-03T12:55:14.672Z</time>
      </trkpt>
      <trkpt lat="47.79063" lon="2.11376">
        <ele>126</ele>
        <time>2018-03-03T12:55:15.703Z</time>
      </trkpt>
      <trkpt lat="47.79063" lon="2.11376">
        <ele>126</ele>
        <time>2018-03-03T12:55:16.691Z</time>
      </trkpt>
      <trkpt lat="47.79071" lon="2.11369">
        <ele>126</ele>
        <time>2018-03-03T12:55:17.672Z</time>
      </trkpt>
      <trkpt lat="47.79071" lon="2.11369">
        <ele>126</ele>
        <time>2018-03-03T12:55:18.665Z</time>
      </trkpt>
      <trkpt lat="47.7908" lon="2.11361">
        <ele>126</ele>
        <time>2018-03-03T12:55:19.704Z</time>
      </trkpt>
      <trkpt lat="47.7908" lon="2.11361">
        <ele>126</ele>
        <time>2018-03-03T12:55:20.665Z</time>
      </trkpt>
      <trkpt lat="47.79087" lon="2.11354">
        <ele>126</ele>
        <time>2018-03-03T12:55:21.667Z</time>
      </trkpt>
      <trkpt lat="47.79091" lon="2.1135">
        <ele>126</ele>
        <time>2018-03-03T12:55:22.679Z</time>
      </trkpt>
      <trkpt lat="47.79091" lon="2.1135">
        <ele>126</ele>
        <time>2018-03-03T12:55:23.665Z</time>
      </trkpt>
      <trkpt lat="47.791" lon="2.11345">
        <ele>126</ele>
        <time>2018-03-03T12:55:24.673Z</time>
      </trkpt>
      <trkpt lat="47.79104" lon="2.11341">
        <ele>126</ele>
        <time>2018-03-03T12:55:25.665Z</time>
      </trkpt>
      <trkpt lat="47.79104" lon="2.11341">
        <ele>126</ele>
        <time>2018-03-03T12:55:26.704Z</time>
      </trkpt>
      <trkpt lat="47.79113" lon="2.11334">
        <ele>126</ele>
        <time>2018-03-03T12:55:27.698Z</time>
      </trkpt>
      <trkpt lat="47.79113" lon="2.11334">
        <ele>126</ele>
        <time>2018-03-03T12:55:28.679Z</time>
      </trkpt>
      <trkpt lat="47.7912" lon="2.11327">
        <ele>126</ele>
        <time>2018-03-03T12:55:29.681Z</time>
      </trkpt>
      <trkpt lat="47.7912" lon="2.11327">
        <ele>126</ele>
        <time>2018-03-03T12:55:30.670Z</time>
      </trkpt>
      <trkpt lat="47.79129" lon="2.11322">
        <ele>126</ele>
        <time>2018-03-03T12:55:31.676Z</time>
      </trkpt>
      <trkpt lat="47.79129" lon="2.11322">
        <ele>126</ele>
        <time>2018-03-03T12:55:32.704Z</time>
      </trkpt>
      <trkpt lat="47.79137" lon="2.11316">
        <ele>126</ele>
        <time>2018-03-03T12:55:33.694Z</time>
      </trkpt>
      <trkpt lat="47.79142" lon="2.11312">
        <ele>126</ele>
        <time>2018-03-03T12:55:34.700Z</time>
      </trkpt>
      <trkpt lat="47.79147" lon="2.11309">
        <ele>126</ele>
        <time>2018-03-03T12:55:35.691Z</time>
      </trkpt>
      <trkpt lat="47.79147" lon="2.11309">
        <ele>126</ele>
        <time>2018-03-03T12:55:36.686Z</time>
      </trkpt>
      <trkpt lat="47.79155" lon="2.11303">
        <ele>126</ele>
        <time>2018-03-03T12:55:37.677Z</time>
      </trkpt>
      <trkpt lat="47.7916" lon="2.11301">
        <ele>126</ele>
        <time>2018-03-03T12:55:38.702Z</time>
      </trkpt>
      <trkpt lat="47.7916" lon="2.11301">
        <ele>126</ele>
        <time>2018-03-03T12:55:39.669Z</time>
      </trkpt>
      <trkpt lat="47.79168" lon="2.11303">
        <ele>126</ele>
        <time>2018-03-03T12:55:40.675Z</time>
      </trkpt>
      <trkpt lat="47.79168" lon="2.11303">
        <ele>126</ele>
        <time>2018-03-03T12:55:41.672Z</time>
      </trkpt>
      <trkpt lat="47.79174" lon="2.11315">
        <ele>125</ele>
        <time>2018-03-03T12:55:42.693Z</time>
      </trkpt>
      <trkpt lat="47.79175" lon="2.11323">
        <ele>125</ele>
        <time>2018-03-03T12:55:43.675Z</time>
      </trkpt>
      <trkpt lat="47.79175" lon="2.11323">
        <ele>125</ele>
        <time>2018-03-03T12:55:44.666Z</time>
      </trkpt>
      <trkpt lat="47.7918" lon="2.11337">
        <ele>125</ele>
        <time>2018-03-03T12:55:45.674Z</time>
      </trkpt>
      <trkpt lat="47.7918" lon="2.11337">
        <ele>125</ele>
        <time>2018-03-03T12:55:46.665Z</time>
      </trkpt>
      <trkpt lat="47.79185" lon="2.11353">
        <ele>125</ele>
        <time>2018-03-03T12:55:47.676Z</time>
      </trkpt>
      <trkpt lat="47.79185" lon="2.11353">
        <ele>125</ele>
        <time>2018-03-03T12:55:48.666Z</time>
      </trkpt>
      <trkpt lat="47.7919" lon="2.11369">
        <ele>125</ele>
        <time>2018-03-03T12:55:49.675Z</time>
      </trkpt>
      <trkpt lat="47.7919" lon="2.11369">
        <ele>125</ele>
        <time>2018-03-03T12:55:50.704Z</time>
      </trkpt>
      <trkpt lat="47.79196" lon="2.11387">
        <ele>124</ele>
        <time>2018-03-03T12:55:51.694Z</time>
      </trkpt>
      <trkpt lat="47.79199" lon="2.11396">
        <ele>124</ele>
        <time>2018-03-03T12:55:52.688Z</time>
      </trkpt>
      <trkpt lat="47.79199" lon="2.11396">
        <ele>124</ele>
        <time>2018-03-03T12:55:53.671Z</time>
      </trkpt>
      <trkpt lat="47.79206" lon="2.11413">
        <ele>124</ele>
        <time>2018-03-03T12:55:54.687Z</time>
      </trkpt>
      <trkpt lat="47.79209" lon="2.11423">
        <ele>124</ele>
        <time>2018-03-03T12:55:55.677Z</time>
      </trkpt>
      <trkpt lat="47.79209" lon="2.11423">
        <ele>124</ele>
        <time>2018-03-03T12:55:56.666Z</time>
      </trkpt>
      <trkpt lat="47.79216" lon="2.11442">
        <ele>123</ele>
        <time>2018-03-03T12:55:57.673Z</time>
      </trkpt>
      <trkpt lat="47.7922" lon="2.11452">
        <ele>123</ele>
        <time>2018-03-03T12:55:58.666Z</time>
      </trkpt>
      <trkpt lat="47.79224" lon="2.11463">
        <ele>123</ele>
        <time>2018-03-03T12:55:59.667Z</time>
      </trkpt>
      <trkpt lat="47.79224" lon="2.11463">
        <ele>123</ele>
        <time>2018-03-03T12:56:00.667Z</time>
      </trkpt>
      <trkpt lat="47.79233" lon="2.11484">
        <ele>122</ele>
        <time>2018-03-03T12:56:01.665Z</time>
      </trkpt>
      <trkpt lat="47.79233" lon="2.11484">
        <ele>122</ele>
        <time>2018-03-03T12:56:02.688Z</time>
      </trkpt>
      <trkpt lat="47.79241" lon="2.11506">
        <ele>122</ele>
        <time>2018-03-03T12:56:03.677Z</time>
      </trkpt>
      <trkpt lat="47.79241" lon="2.11506">
        <ele>122</ele>
        <time>2018-03-03T12:56:04.667Z</time>
      </trkpt>
      <trkpt lat="47.79249" lon="2.11527">
        <ele>121</ele>
        <time>2018-03-03T12:56:05.672Z</time>
      </trkpt>
      <trkpt lat="47.79249" lon="2.11527">
        <ele>121</ele>
        <time>2018-03-03T12:56:06.672Z</time>
      </trkpt>
      <trkpt lat="47.79255" lon="2.11548">
        <ele>121</ele>
        <time>2018-03-03T12:56:07.675Z</time>
      </trkpt>
      <trkpt lat="47.79255" lon="2.11548">
        <ele>121</ele>
        <time>2018-03-03T12:56:08.667Z</time>
      </trkpt>
      <trkpt lat="47.79261" lon="2.11568">
        <ele>120</ele>
        <time>2018-03-03T12:56:09.683Z</time>
      </trkpt>
      <trkpt lat="47.79261" lon="2.11568">
        <ele>120</ele>
        <time>2018-03-03T12:56:10.672Z</time>
      </trkpt>
      <trkpt lat="47.79268" lon="2.11587">
        <ele>119</ele>
        <time>2018-03-03T12:56:11.675Z</time>
      </trkpt>
      <trkpt lat="47.79268" lon="2.11587">
        <ele>119</ele>
        <time>2018-03-03T12:56:12.688Z</time>
      </trkpt>
      <trkpt lat="47.79276" lon="2.11608">
        <ele>118</ele>
        <time>2018-03-03T12:56:13.677Z</time>
      </trkpt>
      <trkpt lat="47.79276" lon="2.11608">
        <ele>118</ele>
        <time>2018-03-03T12:56:14.672Z</time>
      </trkpt>
      <trkpt lat="47.79282" lon="2.11628">
        <ele>118</ele>
        <time>2018-03-03T12:56:15.675Z</time>
      </trkpt>
      <trkpt lat="47.79282" lon="2.11628">
        <ele>118</ele>
        <time>2018-03-03T12:56:16.704Z</time>
      </trkpt>
      <trkpt lat="47.79288" lon="2.11647">
        <ele>117</ele>
        <time>2018-03-03T12:56:17.682Z</time>
      </trkpt>
      <trkpt lat="47.79288" lon="2.11647">
        <ele>117</ele>
        <time>2018-03-03T12:56:18.673Z</time>
      </trkpt>
      <trkpt lat="47.79295" lon="2.11666">
        <ele>117</ele>
        <time>2018-03-03T12:56:19.672Z</time>
      </trkpt>
      <trkpt lat="47.79295" lon="2.11666">
        <ele>117</ele>
        <time>2018-03-03T12:56:20.689Z</time>
      </trkpt>
      <trkpt lat="47.79302" lon="2.11682">
        <ele>116</ele>
        <time>2018-03-03T12:56:21.679Z</time>
      </trkpt>
      <trkpt lat="47.79302" lon="2.11682">
        <ele>116</ele>
        <time>2018-03-03T12:56:22.668Z</time>
      </trkpt>
      <trkpt lat="47.79309" lon="2.11698">
        <ele>116</ele>
        <time>2018-03-03T12:56:23.670Z</time>
      </trkpt>
      <trkpt lat="47.79309" lon="2.11698">
        <ele>116</ele>
        <time>2018-03-03T12:56:24.668Z</time>
      </trkpt>
      <trkpt lat="47.79316" lon="2.11716">
        <ele>115</ele>
        <time>2018-03-03T12:56:25.676Z</time>
      </trkpt>
      <trkpt lat="47.79316" lon="2.11716">
        <ele>115</ele>
        <time>2018-03-03T12:56:26.665Z</time>
      </trkpt>
      <trkpt lat="47.79323" lon="2.11735">
        <ele>115</ele>
        <time>2018-03-03T12:56:27.704Z</time>
      </trkpt>
      <trkpt lat="47.79327" lon="2.11744">
        <ele>115</ele>
        <time>2018-03-03T12:56:28.692Z</time>
      </trkpt>
      <trkpt lat="47.79327" lon="2.11744">
        <ele>115</ele>
        <time>2018-03-03T12:56:29.681Z</time>
      </trkpt>
      <trkpt lat="47.79334" lon="2.11764">
        <ele>114</ele>
        <time>2018-03-03T12:56:30.674Z</time>
      </trkpt>
      <trkpt lat="47.79339" lon="2.11775">
        <ele>114</ele>
        <time>2018-03-03T12:56:31.672Z</time>
      </trkpt>
      <trkpt lat="47.79339" lon="2.11775">
        <ele>114</ele>
        <time>2018-03-03T12:56:32.671Z</time>
      </trkpt>
      <trkpt lat="47.79347" lon="2.11794">
        <ele>113</ele>
        <time>2018-03-03T12:56:33.676Z</time>
      </trkpt>
      <trkpt lat="47.79347" lon="2.11794">
        <ele>113</ele>
        <time>2018-03-03T12:56:34.667Z</time>
      </trkpt>
      <trkpt lat="47.79353" lon="2.11813">
        <ele>112</ele>
        <time>2018-03-03T12:56:35.676Z</time>
      </trkpt>
      <trkpt lat="47.79353" lon="2.11813">
        <ele>112</ele>
        <time>2018-03-03T12:56:36.665Z</time>
      </trkpt>
      <trkpt lat="47.79361" lon="2.11834">
        <ele>112</ele>
        <time>2018-03-03T12:56:37.675Z</time>
      </trkpt>
      <trkpt lat="47.79361" lon="2.11834">
        <ele>112</ele>
        <time>2018-03-03T12:56:38.704Z</time>
      </trkpt>
      <trkpt lat="47.79368" lon="2.11855">
        <ele>112</ele>
        <time>2018-03-03T12:56:39.678Z</time>
      </trkpt>
      <trkpt lat="47.79368" lon="2.11855">
        <ele>112</ele>
        <time>2018-03-03T12:56:40.666Z</time>
      </trkpt>
      <trkpt lat="47.79378" lon="2.11877">
        <ele>113</ele>
        <time>2018-03-03T12:56:41.667Z</time>
      </trkpt>
      <trkpt lat="47.79378" lon="2.11877">
        <ele>113</ele>
        <time>2018-03-03T12:56:42.704Z</time>
      </trkpt>
      <trkpt lat="47.79388" lon="2.11901">
        <ele>113</ele>
        <time>2018-03-03T12:56:43.691Z</time>
      </trkpt>
      <trkpt lat="47.79388" lon="2.11901">
        <ele>113</ele>
        <time>2018-03-03T12:56:44.700Z</time>
      </trkpt>
      <trkpt lat="47.79397" lon="2.11923">
        <ele>113</ele>
        <time>2018-03-03T12:56:45.689Z</time>
      </trkpt>
      <trkpt lat="47.79397" lon="2.11923">
        <ele>113</ele>
        <time>2018-03-03T12:56:46.678Z</time>
      </trkpt>
      <trkpt lat="47.79405" lon="2.11943">
        <ele>112</ele>
        <time>2018-03-03T12:56:47.674Z</time>
      </trkpt>
      <trkpt lat="47.79405" lon="2.11943">
        <ele>112</ele>
        <time>2018-03-03T12:56:48.668Z</time>
      </trkpt>
      <trkpt lat="47.79414" lon="2.11961">
        <ele>113</ele>
        <time>2018-03-03T12:56:49.674Z</time>
      </trkpt>
      <trkpt lat="47.79414" lon="2.11961">
        <ele>113</ele>
        <time>2018-03-03T12:56:50.667Z</time>
      </trkpt>
      <trkpt lat="47.79422" lon="2.11981">
        <ele>113</ele>
        <time>2018-03-03T12:56:51.673Z</time>
      </trkpt>
      <trkpt lat="47.79422" lon="2.11981">
        <ele>113</ele>
        <time>2018-03-03T12:56:52.677Z</time>
      </trkpt>
      <trkpt lat="47.7943" lon="2.11999">
        <ele>113</ele>
        <time>2018-03-03T12:56:53.667Z</time>
      </trkpt>
      <trkpt lat="47.79433" lon="2.12008">
        <ele>113</ele>
        <time>2018-03-03T12:56:54.685Z</time>
      </trkpt>
      <trkpt lat="47.79437" lon="2.12017">
        <ele>113</ele>
        <time>2018-03-03T12:56:55.674Z</time>
      </trkpt>
      <trkpt lat="47.79437" lon="2.12017">
        <ele>113</ele>
        <time>2018-03-03T12:56:56.667Z</time>
      </trkpt>
      <trkpt lat="47.79444" lon="2.12034">
        <ele>113</ele>
        <time>2018-03-03T12:56:57.673Z</time>
      </trkpt>
      <trkpt lat="47.79446" lon="2.12043">
        <ele>113</ele>
        <time>2018-03-03T12:56:58.673Z</time>
      </trkpt>
      <trkpt lat="47.79446" lon="2.12043">
        <ele>113</ele>
        <time>2018-03-03T12:56:59.676Z</time>
      </trkpt>
      <trkpt lat="47.79452" lon="2.1206">
        <ele>114</ele>
        <time>2018-03-03T12:57:00.667Z</time>
      </trkpt>
      <trkpt lat="47.79454" lon="2.1207">
        <ele>114</ele>
        <time>2018-03-03T12:57:01.676Z</time>
      </trkpt>
      <trkpt lat="47.79454" lon="2.1207">
        <ele>114</ele>
        <time>2018-03-03T12:57:02.666Z</time>
      </trkpt>
      <trkpt lat="47.79459" lon="2.12088">
        <ele>114</ele>
        <time>2018-03-03T12:57:03.674Z</time>
      </trkpt>
      <trkpt lat="47.79459" lon="2.12088">
        <ele>114</ele>
        <time>2018-03-03T12:57:04.667Z</time>
      </trkpt>
      <trkpt lat="47.79463" lon="2.12104">
        <ele>115</ele>
        <time>2018-03-03T12:57:05.672Z</time>
      </trkpt>
      <trkpt lat="47.79463" lon="2.12104">
        <ele>115</ele>
        <time>2018-03-03T12:57:06.667Z</time>
      </trkpt>
      <trkpt lat="47.79468" lon="2.12122">
        <ele>115</ele>
        <time>2018-03-03T12:57:07.675Z</time>
      </trkpt>
      <trkpt lat="47.79468" lon="2.12122">
        <ele>115</ele>
        <time>2018-03-03T12:57:08.674Z</time>
      </trkpt>
      <trkpt lat="47.79474" lon="2.12141">
        <ele>116</ele>
        <time>2018-03-03T12:57:09.691Z</time>
      </trkpt>
      <trkpt lat="47.79474" lon="2.12141">
        <ele>116</ele>
        <time>2018-03-03T12:57:10.680Z</time>
      </trkpt>
      <trkpt lat="47.79478" lon="2.1216">
        <ele>116</ele>
        <time>2018-03-03T12:57:11.672Z</time>
      </trkpt>
      <trkpt lat="47.79478" lon="2.1216">
        <ele>116</ele>
        <time>2018-03-03T12:57:12.667Z</time>
      </trkpt>
      <trkpt lat="47.79486" lon="2.12181">
        <ele>116</ele>
        <time>2018-03-03T12:57:13.683Z</time>
      </trkpt>
      <trkpt lat="47.79486" lon="2.12181">
        <ele>116</ele>
        <time>2018-03-03T12:57:14.672Z</time>
      </trkpt>
      <trkpt lat="47.7949" lon="2.122">
        <ele>117</ele>
        <time>2018-03-03T12:57:15.673Z</time>
      </trkpt>
      <trkpt lat="47.7949" lon="2.122">
        <ele>117</ele>
        <time>2018-03-03T12:57:16.667Z</time>
      </trkpt>
      <trkpt lat="47.79496" lon="2.12218">
        <ele>117</ele>
        <time>2018-03-03T12:57:17.683Z</time>
      </trkpt>
      <trkpt lat="47.79496" lon="2.12218">
        <ele>117</ele>
        <time>2018-03-03T12:57:18.681Z</time>
      </trkpt>
      <trkpt lat="47.79501" lon="2.12235">
        <ele>117</ele>
        <time>2018-03-03T12:57:19.673Z</time>
      </trkpt>
      <trkpt lat="47.79501" lon="2.12235">
        <ele>117</ele>
        <time>2018-03-03T12:57:20.667Z</time>
      </trkpt>
      <trkpt lat="47.79506" lon="2.12251">
        <ele>117</ele>
        <time>2018-03-03T12:57:21.674Z</time>
      </trkpt>
      <trkpt lat="47.79506" lon="2.12251">
        <ele>117</ele>
        <time>2018-03-03T12:57:22.667Z</time>
      </trkpt>
      <trkpt lat="47.79511" lon="2.12265">
        <ele>118</ele>
        <time>2018-03-03T12:57:23.667Z</time>
      </trkpt>
      <trkpt lat="47.79511" lon="2.12265">
        <ele>118</ele>
        <time>2018-03-03T12:57:24.666Z</time>
      </trkpt>
      <trkpt lat="47.79514" lon="2.1228">
        <ele>118</ele>
        <time>2018-03-03T12:57:25.672Z</time>
      </trkpt>
      <trkpt lat="47.79514" lon="2.1228">
        <ele>118</ele>
        <time>2018-03-03T12:57:26.689Z</time>
      </trkpt>
      <trkpt lat="47.79519" lon="2.12295">
        <ele>119</ele>
        <time>2018-03-03T12:57:27.679Z</time>
      </trkpt>
      <trkpt lat="47.79519" lon="2.12295">
        <ele>119</ele>
        <time>2018-03-03T12:57:28.672Z</time>
      </trkpt>
      <trkpt lat="47.79523" lon="2.1231">
        <ele>120</ele>
        <time>2018-03-03T12:57:29.674Z</time>
      </trkpt>
      <trkpt lat="47.79523" lon="2.1231">
        <ele>120</ele>
        <time>2018-03-03T12:57:30.667Z</time>
      </trkpt>
      <trkpt lat="47.79528" lon="2.12325">
        <ele>119</ele>
        <time>2018-03-03T12:57:31.676Z</time>
      </trkpt>
      <trkpt lat="47.79528" lon="2.12325">
        <ele>119</ele>
        <time>2018-03-03T12:57:32.677Z</time>
      </trkpt>
      <trkpt lat="47.79532" lon="2.12341">
        <ele>119</ele>
        <time>2018-03-03T12:57:33.674Z</time>
      </trkpt>
      <trkpt lat="47.79532" lon="2.12341">
        <ele>119</ele>
        <time>2018-03-03T12:57:34.667Z</time>
      </trkpt>
      <trkpt lat="47.79536" lon="2.12358">
        <ele>120</ele>
        <time>2018-03-03T12:57:35.672Z</time>
      </trkpt>
      <trkpt lat="47.79536" lon="2.12358">
        <ele>120</ele>
        <time>2018-03-03T12:57:36.703Z</time>
      </trkpt>
      <trkpt lat="47.79541" lon="2.12373">
        <ele>120</ele>
        <time>2018-03-03T12:57:37.691Z</time>
      </trkpt>
      <trkpt lat="47.79541" lon="2.12373">
        <ele>120</ele>
        <time>2018-03-03T12:57:38.679Z</time>
      </trkpt>
      <trkpt lat="47.79546" lon="2.12389">
        <ele>120</ele>
        <time>2018-03-03T12:57:39.667Z</time>
      </trkpt>
      <trkpt lat="47.79546" lon="2.12389">
        <ele>120</ele>
        <time>2018-03-03T12:57:40.704Z</time>
      </trkpt>
      <trkpt lat="47.7955" lon="2.12404">
        <ele>120</ele>
        <time>2018-03-03T12:57:41.667Z</time>
      </trkpt>
      <trkpt lat="47.7955" lon="2.12404">
        <ele>120</ele>
        <time>2018-03-03T12:57:42.666Z</time>
      </trkpt>
      <trkpt lat="47.79555" lon="2.12418">
        <ele>119</ele>
        <time>2018-03-03T12:57:43.677Z</time>
      </trkpt>
      <trkpt lat="47.79555" lon="2.12418">
        <ele>119</ele>
        <time>2018-03-03T12:57:44.666Z</time>
      </trkpt>
      <trkpt lat="47.7956" lon="2.12433">
        <ele>119</ele>
        <time>2018-03-03T12:57:45.674Z</time>
      </trkpt>
      <trkpt lat="47.7956" lon="2.12433">
        <ele>119</ele>
        <time>2018-03-03T12:57:46.667Z</time>
      </trkpt>
      <trkpt lat="47.79564" lon="2.12447">
        <ele>119</ele>
        <time>2018-03-03T12:57:47.698Z</time>
      </trkpt>
      <trkpt lat="47.79566" lon="2.12455">
        <ele>119</ele>
        <time>2018-03-03T12:57:48.687Z</time>
      </trkpt>
      <trkpt lat="47.79568" lon="2.12463">
        <ele>119</ele>
        <time>2018-03-03T12:57:49.677Z</time>
      </trkpt>
      <trkpt lat="47.79568" lon="2.12463">
        <ele>119</ele>
        <time>2018-03-03T12:57:50.677Z</time>
      </trkpt>
      <trkpt lat="47.79573" lon="2.12478">
        <ele>119</ele>
        <time>2018-03-03T12:57:51.665Z</time>
      </trkpt>
      <trkpt lat="47.79575" lon="2.12485">
        <ele>119</ele>
        <time>2018-03-03T12:57:52.672Z</time>
      </trkpt>
      <trkpt lat="47.79577" lon="2.12492">
        <ele>119</ele>
        <time>2018-03-03T12:57:53.678Z</time>
      </trkpt>
      <trkpt lat="47.79577" lon="2.12492">
        <ele>119</ele>
        <time>2018-03-03T12:57:54.685Z</time>
      </trkpt>
      <trkpt lat="47.79582" lon="2.12507">
        <ele>120</ele>
        <time>2018-03-03T12:57:55.676Z</time>
      </trkpt>
      <trkpt lat="47.79582" lon="2.12507">
        <ele>120</ele>
        <time>2018-03-03T12:57:56.666Z</time>
      </trkpt>
      <trkpt lat="47.79587" lon="2.12521">
        <ele>120</ele>
        <time>2018-03-03T12:57:57.688Z</time>
      </trkpt>
      <trkpt lat="47.79587" lon="2.12521">
        <ele>120</ele>
        <time>2018-03-03T12:57:58.676Z</time>
      </trkpt>
      <trkpt lat="47.79592" lon="2.12535">
        <ele>120</ele>
        <time>2018-03-03T12:57:59.672Z</time>
      </trkpt>
      <trkpt lat="47.79592" lon="2.12535">
        <ele>120</ele>
        <time>2018-03-03T12:58:00.667Z</time>
      </trkpt>
      <trkpt lat="47.79598" lon="2.12548">
        <ele>120</ele>
        <time>2018-03-03T12:58:01.672Z</time>
      </trkpt>
      <trkpt lat="47.79598" lon="2.12548">
        <ele>120</ele>
        <time>2018-03-03T12:58:02.671Z</time>
      </trkpt>
      <trkpt lat="47.79605" lon="2.12562">
        <ele>120</ele>
        <time>2018-03-03T12:58:03.674Z</time>
      </trkpt>
      <trkpt lat="47.79605" lon="2.12562">
        <ele>120</ele>
        <time>2018-03-03T12:58:04.666Z</time>
      </trkpt>
      <trkpt lat="47.79612" lon="2.12576">
        <ele>119</ele>
        <time>2018-03-03T12:58:05.702Z</time>
      </trkpt>
      <trkpt lat="47.79612" lon="2.12576">
        <ele>119</ele>
        <time>2018-03-03T12:58:06.693Z</time>
      </trkpt>
      <trkpt lat="47.79618" lon="2.1259">
        <ele>119</ele>
        <time>2018-03-03T12:58:07.682Z</time>
      </trkpt>
      <trkpt lat="47.79618" lon="2.1259">
        <ele>119</ele>
        <time>2018-03-03T12:58:08.669Z</time>
      </trkpt>
      <trkpt lat="47.79625" lon="2.12604">
        <ele>119</ele>
        <time>2018-03-03T12:58:09.701Z</time>
      </trkpt>
      <trkpt lat="47.79628" lon="2.12611">
        <ele>119</ele>
        <time>2018-03-03T12:58:10.689Z</time>
      </trkpt>
      <trkpt lat="47.79628" lon="2.12611">
        <ele>119</ele>
        <time>2018-03-03T12:58:11.677Z</time>
      </trkpt>
      <trkpt lat="47.79635" lon="2.12624">
        <ele>119</ele>
        <time>2018-03-03T12:58:12.678Z</time>
      </trkpt>
      <trkpt lat="47.79638" lon="2.12631">
        <ele>119</ele>
        <time>2018-03-03T12:58:13.704Z</time>
      </trkpt>
      <trkpt lat="47.79638" lon="2.12631">
        <ele>119</ele>
        <time>2018-03-03T12:58:14.694Z</time>
      </trkpt>
      <trkpt lat="47.79645" lon="2.12645">
        <ele>119</ele>
        <time>2018-03-03T12:58:15.686Z</time>
      </trkpt>
      <trkpt lat="47.79649" lon="2.12653">
        <ele>119</ele>
        <time>2018-03-03T12:58:16.667Z</time>
      </trkpt>
      <trkpt lat="47.79649" lon="2.12653">
        <ele>119</ele>
        <time>2018-03-03T12:58:17.677Z</time>
      </trkpt>
      <trkpt lat="47.79656" lon="2.12668">
        <ele>119</ele>
        <time>2018-03-03T12:58:18.676Z</time>
      </trkpt>
      <trkpt lat="47.79659" lon="2.12675">
        <ele>120</ele>
        <time>2018-03-03T12:58:19.677Z</time>
      </trkpt>
      <trkpt lat="47.79659" lon="2.12675">
        <ele>120</ele>
        <time>2018-03-03T12:58:20.665Z</time>
      </trkpt>
      <trkpt lat="47.79667" lon="2.12689">
        <ele>119</ele>
        <time>2018-03-03T12:58:21.703Z</time>
      </trkpt>
      <trkpt lat="47.79667" lon="2.12689">
        <ele>119</ele>
        <time>2018-03-03T12:58:22.704Z</time>
      </trkpt>
      <trkpt lat="47.79674" lon="2.12703">
        <ele>120</ele>
        <time>2018-03-03T12:58:23.691Z</time>
      </trkpt>
      <trkpt lat="47.79674" lon="2.12703">
        <ele>120</ele>
        <time>2018-03-03T12:58:24.679Z</time>
      </trkpt>
      <trkpt lat="47.79681" lon="2.12718">
        <ele>120</ele>
        <time>2018-03-03T12:58:25.672Z</time>
      </trkpt>
      <trkpt lat="47.79681" lon="2.12718">
        <ele>120</ele>
        <time>2018-03-03T12:58:26.667Z</time>
      </trkpt>
      <trkpt lat="47.79688" lon="2.12732">
        <ele>120</ele>
        <time>2018-03-03T12:58:27.675Z</time>
      </trkpt>
      <trkpt lat="47.79688" lon="2.12732">
        <ele>120</ele>
        <time>2018-03-03T12:58:28.667Z</time>
      </trkpt>
      <trkpt lat="47.79696" lon="2.12746">
        <ele>120</ele>
        <time>2018-03-03T12:58:29.673Z</time>
      </trkpt>
      <trkpt lat="47.79696" lon="2.12746">
        <ele>120</ele>
        <time>2018-03-03T12:58:30.700Z</time>
      </trkpt>
      <trkpt lat="47.79702" lon="2.12761">
        <ele>120</ele>
        <time>2018-03-03T12:58:31.688Z</time>
      </trkpt>
      <trkpt lat="47.79702" lon="2.12761">
        <ele>120</ele>
        <time>2018-03-03T12:58:32.678Z</time>
      </trkpt>
      <trkpt lat="47.79709" lon="2.12776">
        <ele>120</ele>
        <time>2018-03-03T12:58:33.696Z</time>
      </trkpt>
      <trkpt lat="47.79709" lon="2.12776">
        <ele>120</ele>
        <time>2018-03-03T12:58:34.687Z</time>
      </trkpt>
      <trkpt lat="47.79716" lon="2.1279">
        <ele>120</ele>
        <time>2018-03-03T12:58:35.675Z</time>
      </trkpt>
      <trkpt lat="47.79716" lon="2.1279">
        <ele>120</ele>
        <time>2018-03-03T12:58:36.666Z</time>
      </trkpt>
      <trkpt lat="47.79722" lon="2.12804">
        <ele>119</ele>
        <time>2018-03-03T12:58:37.675Z</time>
      </trkpt>
      <trkpt lat="47.79722" lon="2.12804">
        <ele>119</ele>
        <time>2018-03-03T12:58:38.703Z</time>
      </trkpt>
      <trkpt lat="47.79729" lon="2.12818">
        <ele>119</ele>
        <time>2018-03-03T12:58:39.691Z</time>
      </trkpt>
      <trkpt lat="47.79732" lon="2.12825">
        <ele>119</ele>
        <time>2018-03-03T12:58:40.691Z</time>
      </trkpt>
      <trkpt lat="47.79732" lon="2.12825">
        <ele>119</ele>
        <time>2018-03-03T12:58:41.679Z</time>
      </trkpt>
      <trkpt lat="47.79738" lon="2.12839">
        <ele>120</ele>
        <time>2018-03-03T12:58:42.668Z</time>
      </trkpt>
      <trkpt lat="47.79741" lon="2.12846">
        <ele>120</ele>
        <time>2018-03-03T12:58:43.672Z</time>
      </trkpt>
      <trkpt lat="47.79741" lon="2.12846">
        <ele>120</ele>
        <time>2018-03-03T12:58:44.667Z</time>
      </trkpt>
      <trkpt lat="47.79748" lon="2.12859">
        <ele>120</ele>
        <time>2018-03-03T12:58:45.674Z</time>
      </trkpt>
      <trkpt lat="47.79748" lon="2.12859">
        <ele>120</ele>
        <time>2018-03-03T12:58:46.667Z</time>
      </trkpt>
      <trkpt lat="47.79755" lon="2.12872">
        <ele>120</ele>
        <time>2018-03-03T12:58:47.675Z</time>
      </trkpt>
      <trkpt lat="47.79755" lon="2.12872">
        <ele>120</ele>
        <time>2018-03-03T12:58:48.667Z</time>
      </trkpt>
      <trkpt lat="47.79761" lon="2.12884">
        <ele>120</ele>
        <time>2018-03-03T12:58:49.676Z</time>
      </trkpt>
      <trkpt lat="47.79761" lon="2.12884">
        <ele>120</ele>
        <time>2018-03-03T12:58:50.703Z</time>
      </trkpt>
      <trkpt lat="47.79768" lon="2.12897">
        <ele>120</ele>
        <time>2018-03-03T12:58:51.696Z</time>
      </trkpt>
      <trkpt lat="47.79768" lon="2.12897">
        <ele>120</ele>
        <time>2018-03-03T12:58:52.684Z</time>
      </trkpt>
      <trkpt lat="47.79774" lon="2.1291">
        <ele>121</ele>
        <time>2018-03-03T12:58:53.667Z</time>
      </trkpt>
      <trkpt lat="47.79774" lon="2.1291">
        <ele>121</ele>
        <time>2018-03-03T12:58:54.667Z</time>
      </trkpt>
      <trkpt lat="47.79781" lon="2.12922">
        <ele>121</ele>
        <time>2018-03-03T12:58:55.674Z</time>
      </trkpt>
      <trkpt lat="47.79784" lon="2.12929">
        <ele>121</ele>
        <time>2018-03-03T12:58:56.674Z</time>
      </trkpt>
      <trkpt lat="47.79784" lon="2.12929">
        <ele>121</ele>
        <time>2018-03-03T12:58:57.665Z</time>
      </trkpt>
      <trkpt lat="47.7979" lon="2.12942">
        <ele>121</ele>
        <time>2018-03-03T12:58:58.670Z</time>
      </trkpt>
      <trkpt lat="47.79793" lon="2.12948">
        <ele>121</ele>
        <time>2018-03-03T12:58:59.668Z</time>
      </trkpt>
      <trkpt lat="47.79793" lon="2.12948">
        <ele>121</ele>
        <time>2018-03-03T12:59:00.703Z</time>
      </trkpt>
      <trkpt lat="47.79799" lon="2.12962">
        <ele>121</ele>
        <time>2018-03-03T12:59:01.692Z</time>
      </trkpt>
      <trkpt lat="47.79799" lon="2.12962">
        <ele>121</ele>
        <time>2018-03-03T12:59:02.680Z</time>
      </trkpt>
      <trkpt lat="47.79806" lon="2.12974">
        <ele>122</ele>
        <time>2018-03-03T12:59:03.675Z</time>
      </trkpt>
      <trkpt lat="47.79809" lon="2.1298">
        <ele>122</ele>
        <time>2018-03-03T12:59:04.673Z</time>
      </trkpt>
      <trkpt lat="47.79809" lon="2.1298">
        <ele>122</ele>
        <time>2018-03-03T12:59:05.667Z</time>
      </trkpt>
      <trkpt lat="47.79814" lon="2.12993">
        <ele>122</ele>
        <time>2018-03-03T12:59:06.672Z</time>
      </trkpt>
      <trkpt lat="47.79817" lon="2.13">
        <ele>122</ele>
        <time>2018-03-03T12:59:07.676Z</time>
      </trkpt>
      <trkpt lat="47.79817" lon="2.13">
        <ele>122</ele>
        <time>2018-03-03T12:59:08.666Z</time>
      </trkpt>
      <trkpt lat="47.79822" lon="2.13012">
        <ele>122</ele>
        <time>2018-03-03T12:59:09.675Z</time>
      </trkpt>
      <trkpt lat="47.79822" lon="2.13012">
        <ele>122</ele>
        <time>2018-03-03T12:59:10.704Z</time>
      </trkpt>
      <trkpt lat="47.79825" lon="2.13026">
        <ele>122</ele>
        <time>2018-03-03T12:59:11.691Z</time>
      </trkpt>
      <trkpt lat="47.79825" lon="2.13026">
        <ele>122</ele>
        <time>2018-03-03T12:59:12.689Z</time>
      </trkpt>
      <trkpt lat="47.79824" lon="2.13041">
        <ele>123</ele>
        <time>2018-03-03T12:59:13.676Z</time>
      </trkpt>
      <trkpt lat="47.79824" lon="2.13041">
        <ele>123</ele>
        <time>2018-03-03T12:59:14.666Z</time>
      </trkpt>
      <trkpt lat="47.79823" lon="2.13056">
        <ele>123</ele>
        <time>2018-03-03T12:59:15.674Z</time>
      </trkpt>
      <trkpt lat="47.79823" lon="2.13064">
        <ele>123</ele>
        <time>2018-03-03T12:59:16.667Z</time>
      </trkpt>
      <trkpt lat="47.79822" lon="2.13071">
        <ele>123</ele>
        <time>2018-03-03T12:59:17.690Z</time>
      </trkpt>
      <trkpt lat="47.79822" lon="2.13071">
        <ele>123</ele>
        <time>2018-03-03T12:59:18.697Z</time>
      </trkpt>
      <trkpt lat="47.7982" lon="2.13087">
        <ele>123</ele>
        <time>2018-03-03T12:59:19.704Z</time>
      </trkpt>
      <trkpt lat="47.7982" lon="2.13087">
        <ele>123</ele>
        <time>2018-03-03T12:59:20.673Z</time>
      </trkpt>
      <trkpt lat="47.79817" lon="2.13102">
        <ele>123</ele>
        <time>2018-03-03T12:59:21.674Z</time>
      </trkpt>
      <trkpt lat="47.79817" lon="2.13102">
        <ele>123</ele>
        <time>2018-03-03T12:59:22.685Z</time>
      </trkpt>
      <trkpt lat="47.79814" lon="2.13116">
        <ele>123</ele>
        <time>2018-03-03T12:59:23.667Z</time>
      </trkpt>
      <trkpt lat="47.79814" lon="2.13116">
        <ele>123</ele>
        <time>2018-03-03T12:59:24.667Z</time>
      </trkpt>
      <trkpt lat="47.79811" lon="2.1313">
        <ele>123</ele>
        <time>2018-03-03T12:59:25.704Z</time>
      </trkpt>
      <trkpt lat="47.79809" lon="2.13137">
        <ele>123</ele>
        <time>2018-03-03T12:59:26.701Z</time>
      </trkpt>
      <trkpt lat="47.79809" lon="2.13137">
        <ele>123</ele>
        <time>2018-03-03T12:59:27.689Z</time>
      </trkpt>
      <trkpt lat="47.79805" lon="2.13152">
        <ele>122</ele>
        <time>2018-03-03T12:59:28.680Z</time>
      </trkpt>
      <trkpt lat="47.79805" lon="2.13152">
        <ele>122</ele>
        <time>2018-03-03T12:59:29.673Z</time>
      </trkpt>
      <trkpt lat="47.79801" lon="2.13166">
        <ele>122</ele>
        <time>2018-03-03T12:59:30.675Z</time>
      </trkpt>
      <trkpt lat="47.79799" lon="2.13173">
        <ele>122</ele>
        <time>2018-03-03T12:59:31.675Z</time>
      </trkpt>
      <trkpt lat="47.79799" lon="2.13173">
        <ele>122</ele>
        <time>2018-03-03T12:59:32.704Z</time>
      </trkpt>
      <trkpt lat="47.79793" lon="2.13188">
        <ele>122</ele>
        <time>2018-03-03T12:59:33.695Z</time>
      </trkpt>
      <trkpt lat="47.7979" lon="2.13195">
        <ele>122</ele>
        <time>2018-03-03T12:59:34.683Z</time>
      </trkpt>
      <trkpt lat="47.7979" lon="2.13195">
        <ele>122</ele>
        <time>2018-03-03T12:59:35.673Z</time>
      </trkpt>
      <trkpt lat="47.79784" lon="2.13208">
        <ele>122</ele>
        <time>2018-03-03T12:59:36.667Z</time>
      </trkpt>
      <trkpt lat="47.79781" lon="2.13214">
        <ele>122</ele>
        <time>2018-03-03T12:59:37.675Z</time>
      </trkpt>
      <trkpt lat="47.79781" lon="2.13214">
        <ele>122</ele>
        <time>2018-03-03T12:59:38.673Z</time>
      </trkpt>
      <trkpt lat="47.79775" lon="2.13226">
        <ele>122</ele>
        <time>2018-03-03T12:59:39.674Z</time>
      </trkpt>
      <trkpt lat="47.79775" lon="2.13226">
        <ele>122</ele>
        <time>2018-03-03T12:59:40.668Z</time>
      </trkpt>
      <trkpt lat="47.79769" lon="2.13237">
        <ele>123</ele>
        <time>2018-03-03T12:59:41.675Z</time>
      </trkpt>
      <trkpt lat="47.79769" lon="2.13237">
        <ele>123</ele>
        <time>2018-03-03T12:59:42.667Z</time>
      </trkpt>
      <trkpt lat="47.79763" lon="2.1325">
        <ele>124</ele>
        <time>2018-03-03T12:59:43.677Z</time>
      </trkpt>
      <trkpt lat="47.79763" lon="2.1325">
        <ele>124</ele>
        <time>2018-03-03T12:59:44.667Z</time>
      </trkpt>
      <trkpt lat="47.79756" lon="2.13262">
        <ele>124</ele>
        <time>2018-03-03T12:59:45.675Z</time>
      </trkpt>
      <trkpt lat="47.79756" lon="2.13262">
        <ele>124</ele>
        <time>2018-03-03T12:59:46.666Z</time>
      </trkpt>
      <trkpt lat="47.7975" lon="2.13274">
        <ele>124</ele>
        <time>2018-03-03T12:59:47.667Z</time>
      </trkpt>
      <trkpt lat="47.7975" lon="2.13274">
        <ele>124</ele>
        <time>2018-03-03T12:59:48.703Z</time>
      </trkpt>
      <trkpt lat="47.79743" lon="2.13286">
        <ele>124</ele>
        <time>2018-03-03T12:59:49.691Z</time>
      </trkpt>
      <trkpt lat="47.79743" lon="2.13286">
        <ele>124</ele>
        <time>2018-03-03T12:59:50.689Z</time>
      </trkpt>
      <trkpt lat="47.79737" lon="2.13299">
        <ele>124</ele>
        <time>2018-03-03T12:59:51.677Z</time>
      </trkpt>
      <trkpt lat="47.79737" lon="2.13299">
        <ele>124</ele>
        <time>2018-03-03T12:59:52.685Z</time>
      </trkpt>
      <trkpt lat="47.79732" lon="2.13312">
        <ele>125</ele>
        <time>2018-03-03T12:59:53.668Z</time>
      </trkpt>
      <trkpt lat="47.79732" lon="2.13312">
        <ele>125</ele>
        <time>2018-03-03T12:59:54.692Z</time>
      </trkpt>
      <trkpt lat="47.79727" lon="2.13324">
        <ele>125</ele>
        <time>2018-03-03T12:59:55.679Z</time>
      </trkpt>
      <trkpt lat="47.79727" lon="2.13324">
        <ele>125</ele>
        <time>2018-03-03T12:59:56.673Z</time>
      </trkpt>
      <trkpt lat="47.79722" lon="2.13336">
        <ele>125</ele>
        <time>2018-03-03T12:59:57.674Z</time>
      </trkpt>
      <trkpt lat="47.79719" lon="2.13342">
        <ele>125</ele>
        <time>2018-03-03T12:59:58.667Z</time>
      </trkpt>
      <trkpt lat="47.79719" lon="2.13342">
        <ele>125</ele>
        <time>2018-03-03T12:59:59.704Z</time>
      </trkpt>
      <trkpt lat="47.79714" lon="2.13354">
        <ele>125</ele>
        <time>2018-03-03T13:00:00.693Z</time>
      </trkpt>
      <trkpt lat="47.79712" lon="2.1336">
        <ele>125</ele>
        <time>2018-03-03T13:00:01.675Z</time>
      </trkpt>
      <trkpt lat="47.79712" lon="2.1336">
        <ele>125</ele>
        <time>2018-03-03T13:00:02.703Z</time>
      </trkpt>
      <trkpt lat="47.79707" lon="2.13373">
        <ele>125</ele>
        <time>2018-03-03T13:00:03.693Z</time>
      </trkpt>
      <trkpt lat="47.79707" lon="2.13373">
        <ele>125</ele>
        <time>2018-03-03T13:00:04.681Z</time>
      </trkpt>
      <trkpt lat="47.79702" lon="2.13385">
        <ele>125</ele>
        <time>2018-03-03T13:00:05.677Z</time>
      </trkpt>
      <trkpt lat="47.79702" lon="2.13385">
        <ele>125</ele>
        <time>2018-03-03T13:00:06.667Z</time>
      </trkpt>
      <trkpt lat="47.797" lon="2.13397">
        <ele>124</ele>
        <time>2018-03-03T13:00:07.673Z</time>
      </trkpt>
      <trkpt lat="47.797" lon="2.13397">
        <ele>124</ele>
        <time>2018-03-03T13:00:08.665Z</time>
      </trkpt>
      <trkpt lat="47.79703" lon="2.13408">
        <ele>124</ele>
        <time>2018-03-03T13:00:09.675Z</time>
      </trkpt>
      <trkpt lat="47.79703" lon="2.13408">
        <ele>124</ele>
        <time>2018-03-03T13:00:10.665Z</time>
      </trkpt>
      <trkpt lat="47.79713" lon="2.13413">
        <ele>122</ele>
        <time>2018-03-03T13:00:11.673Z</time>
      </trkpt>
      <trkpt lat="47.79713" lon="2.13413">
        <ele>122</ele>
        <time>2018-03-03T13:00:12.704Z</time>
      </trkpt>
      <trkpt lat="47.79724" lon="2.13416">
        <ele>122</ele>
        <time>2018-03-03T13:00:13.695Z</time>
      </trkpt>
      <trkpt lat="47.79724" lon="2.13416">
        <ele>122</ele>
        <time>2018-03-03T13:00:14.698Z</time>
      </trkpt>
      <trkpt lat="47.79735" lon="2.1342">
        <ele>122</ele>
        <time>2018-03-03T13:00:15.686Z</time>
      </trkpt>
      <trkpt lat="47.79741" lon="2.13421">
        <ele>122</ele>
        <time>2018-03-03T13:00:16.676Z</time>
      </trkpt>
      <trkpt lat="47.79746" lon="2.13423">
        <ele>122</ele>
        <time>2018-03-03T13:00:17.691Z</time>
      </trkpt>
      <trkpt lat="47.79746" lon="2.13423">
        <ele>122</ele>
        <time>2018-03-03T13:00:18.680Z</time>
      </trkpt>
      <trkpt lat="47.79758" lon="2.13426">
        <ele>121</ele>
        <time>2018-03-03T13:00:19.698Z</time>
      </trkpt>
      <trkpt lat="47.79758" lon="2.13426">
        <ele>121</ele>
        <time>2018-03-03T13:00:20.688Z</time>
      </trkpt>
      <trkpt lat="47.7977" lon="2.1343">
        <ele>121</ele>
        <time>2018-03-03T13:00:21.683Z</time>
      </trkpt>
      <trkpt lat="47.79776" lon="2.13432">
        <ele>121</ele>
        <time>2018-03-03T13:00:22.684Z</time>
      </trkpt>
      <trkpt lat="47.79776" lon="2.13432">
        <ele>121</ele>
        <time>2018-03-03T13:00:23.673Z</time>
      </trkpt>
      <trkpt lat="47.79789" lon="2.13438">
        <ele>120</ele>
        <time>2018-03-03T13:00:24.675Z</time>
      </trkpt>
      <trkpt lat="47.79796" lon="2.13442">
        <ele>120</ele>
        <time>2018-03-03T13:00:25.676Z</time>
      </trkpt>
      <trkpt lat="47.79796" lon="2.13442">
        <ele>120</ele>
        <time>2018-03-03T13:00:26.667Z</time>
      </trkpt>
      <trkpt lat="47.79811" lon="2.1345">
        <ele>119</ele>
        <time>2018-03-03T13:00:27.675Z</time>
      </trkpt>
      <trkpt lat="47.79811" lon="2.1345">
        <ele>119</ele>
        <time>2018-03-03T13:00:28.667Z</time>
      </trkpt>
      <trkpt lat="47.79827" lon="2.1346">
        <ele>117</ele>
        <time>2018-03-03T13:00:29.667Z</time>
      </trkpt>
      <trkpt lat="47.79827" lon="2.1346">
        <ele>117</ele>
        <time>2018-03-03T13:00:30.704Z</time>
      </trkpt>
      <trkpt lat="47.79843" lon="2.13471">
        <ele>115</ele>
        <time>2018-03-03T13:00:31.689Z</time>
      </trkpt>
      <trkpt lat="47.79843" lon="2.13471">
        <ele>115</ele>
        <time>2018-03-03T13:00:32.701Z</time>
      </trkpt>
      <trkpt lat="47.79858" lon="2.13484">
        <ele>114</ele>
        <time>2018-03-03T13:00:33.668Z</time>
      </trkpt>
      <trkpt lat="47.79865" lon="2.1349">
        <ele>113</ele>
        <time>2018-03-03T13:00:34.674Z</time>
      </trkpt>
      <trkpt lat="47.79865" lon="2.1349">
        <ele>113</ele>
        <time>2018-03-03T13:00:35.672Z</time>
      </trkpt>
      <trkpt lat="47.79878" lon="2.13501">
        <ele>112</ele>
        <time>2018-03-03T13:00:36.679Z</time>
      </trkpt>
      <trkpt lat="47.79884" lon="2.13506">
        <ele>111</ele>
        <time>2018-03-03T13:00:37.685Z</time>
      </trkpt>
      <trkpt lat="47.79884" lon="2.13506">
        <ele>111</ele>
        <time>2018-03-03T13:00:38.691Z</time>
      </trkpt>
      <trkpt lat="47.79892" lon="2.13514">
        <ele>110</ele>
        <time>2018-03-03T13:00:39.679Z</time>
      </trkpt>
      <trkpt lat="47.79895" lon="2.13518">
        <ele>110</ele>
        <time>2018-03-03T13:00:40.673Z</time>
      </trkpt>
      <trkpt lat="47.79895" lon="2.13518">
        <ele>110</ele>
        <time>2018-03-03T13:00:41.704Z</time>
      </trkpt>
      <trkpt lat="47.79895" lon="2.13529">
        <ele>110</ele>
        <time>2018-03-03T13:00:42.689Z</time>
      </trkpt>
      <trkpt lat="47.79895" lon="2.13529">
        <ele>110</ele>
        <time>2018-03-03T13:00:43.677Z</time>
      </trkpt>
      <trkpt lat="47.79889" lon="2.13537">
        <ele>110</ele>
        <time>2018-03-03T13:00:44.667Z</time>
      </trkpt>
      <trkpt lat="47.79889" lon="2.13537">
        <ele>110</ele>
        <time>2018-03-03T13:00:45.700Z</time>
      </trkpt>
      <trkpt lat="47.79881" lon="2.13542">
        <ele>110</ele>
        <time>2018-03-03T13:00:46.689Z</time>
      </trkpt>
      <trkpt lat="47.79881" lon="2.13542">
        <ele>110</ele>
        <time>2018-03-03T13:00:47.677Z</time>
      </trkpt>
      <trkpt lat="47.79872" lon="2.13546">
        <ele>110</ele>
        <time>2018-03-03T13:00:48.673Z</time>
      </trkpt>
      <trkpt lat="47.79868" lon="2.13549">
        <ele>110</ele>
        <time>2018-03-03T13:00:49.676Z</time>
      </trkpt>
      <trkpt lat="47.79868" lon="2.13549">
        <ele>110</ele>
        <time>2018-03-03T13:00:50.673Z</time>
      </trkpt>
      <trkpt lat="47.7986" lon="2.13554">
        <ele>111</ele>
        <time>2018-03-03T13:00:51.674Z</time>
      </trkpt>
      <trkpt lat="47.7986" lon="2.13554">
        <ele>111</ele>
        <time>2018-03-03T13:00:52.667Z</time>
      </trkpt>
      <trkpt lat="47.79851" lon="2.1356">
        <ele>111</ele>
        <time>2018-03-03T13:00:53.667Z</time>
      </trkpt>
      <trkpt lat="47.79851" lon="2.1356">
        <ele>111</ele>
        <time>2018-03-03T13:00:54.699Z</time>
      </trkpt>
      <trkpt lat="47.79841" lon="2.13566">
        <ele>112</ele>
        <time>2018-03-03T13:00:55.687Z</time>
      </trkpt>
      <trkpt lat="47.79841" lon="2.13566">
        <ele>112</ele>
        <time>2018-03-03T13:00:56.674Z</time>
      </trkpt>
      <trkpt lat="47.79828" lon="2.13571">
        <ele>112</ele>
        <time>2018-03-03T13:00:57.675Z</time>
      </trkpt>
      <trkpt lat="47.79828" lon="2.13571">
        <ele>112</ele>
        <time>2018-03-03T13:00:58.673Z</time>
      </trkpt>
      <trkpt lat="47.79815" lon="2.13571">
        <ele>112</ele>
        <time>2018-03-03T13:00:59.700Z</time>
      </trkpt>
      <trkpt lat="47.79815" lon="2.13571">
        <ele>112</ele>
        <time>2018-03-03T13:01:00.689Z</time>
      </trkpt>
      <trkpt lat="47.79803" lon="2.13568">
        <ele>113</ele>
        <time>2018-03-03T13:01:01.679Z</time>
      </trkpt>
      <trkpt lat="47.79803" lon="2.13568">
        <ele>113</ele>
        <time>2018-03-03T13:01:02.668Z</time>
      </trkpt>
      <trkpt lat="47.79792" lon="2.13564">
        <ele>113</ele>
        <time>2018-03-03T13:01:03.675Z</time>
      </trkpt>
      <trkpt lat="47.79792" lon="2.13564">
        <ele>113</ele>
        <time>2018-03-03T13:01:04.704Z</time>
      </trkpt>
      <trkpt lat="47.79782" lon="2.13557">
        <ele>113</ele>
        <time>2018-03-03T13:01:05.698Z</time>
      </trkpt>
      <trkpt lat="47.79782" lon="2.13557">
        <ele>113</ele>
        <time>2018-03-03T13:01:06.686Z</time>
      </trkpt>
      <trkpt lat="47.79772" lon="2.1355">
        <ele>115</ele>
        <time>2018-03-03T13:01:07.677Z</time>
      </trkpt>
      <trkpt lat="47.79772" lon="2.1355">
        <ele>115</ele>
        <time>2018-03-03T13:01:08.667Z</time>
      </trkpt>
      <trkpt lat="47.79763" lon="2.13543">
        <ele>116</ele>
        <time>2018-03-03T13:01:09.668Z</time>
      </trkpt>
      <trkpt lat="47.79763" lon="2.13543">
        <ele>116</ele>
        <time>2018-03-03T13:01:10.704Z</time>
      </trkpt>
      <trkpt lat="47.79753" lon="2.13537">
        <ele>117</ele>
        <time>2018-03-03T13:01:11.698Z</time>
      </trkpt>
      <trkpt lat="47.79749" lon="2.13534">
        <ele>117</ele>
        <time>2018-03-03T13:01:12.684Z</time>
      </trkpt>
      <trkpt lat="47.79749" lon="2.13534">
        <ele>117</ele>
        <time>2018-03-03T13:01:13.673Z</time>
      </trkpt>
      <trkpt lat="47.79739" lon="2.13529">
        <ele>117</ele>
        <time>2018-03-03T13:01:14.667Z</time>
      </trkpt>
      <trkpt lat="47.79735" lon="2.13527">
        <ele>118</ele>
        <time>2018-03-03T13:01:15.674Z</time>
      </trkpt>
      <trkpt lat="47.79735" lon="2.13527">
        <ele>118</ele>
        <time>2018-03-03T13:01:16.667Z</time>
      </trkpt>
      <trkpt lat="47.79726" lon="2.13522">
        <ele>118</ele>
        <time>2018-03-03T13:01:17.683Z</time>
      </trkpt>
      <trkpt lat="47.79726" lon="2.13522">
        <ele>118</ele>
        <time>2018-03-03T13:01:18.684Z</time>
      </trkpt>
      <trkpt lat="47.79717" lon="2.13517">
        <ele>118</ele>
        <time>2018-03-03T13:01:19.679Z</time>
      </trkpt>
      <trkpt lat="47.79717" lon="2.13517">
        <ele>118</ele>
        <time>2018-03-03T13:01:20.673Z</time>
      </trkpt>
      <trkpt lat="47.79708" lon="2.13512">
        <ele>119</ele>
        <time>2018-03-03T13:01:21.703Z</time>
      </trkpt>
      <trkpt lat="47.79704" lon="2.13509">
        <ele>119</ele>
        <time>2018-03-03T13:01:22.691Z</time>
      </trkpt>
      <trkpt lat="47.79704" lon="2.13509">
        <ele>119</ele>
        <time>2018-03-03T13:01:23.684Z</time>
      </trkpt>
      <trkpt lat="47.79695" lon="2.13504">
        <ele>119</ele>
        <time>2018-03-03T13:01:24.675Z</time>
      </trkpt>
      <trkpt lat="47.79691" lon="2.13502">
        <ele>119</ele>
        <time>2018-03-03T13:01:25.677Z</time>
      </trkpt>
      <trkpt lat="47.79691" lon="2.13502">
        <ele>119</ele>
        <time>2018-03-03T13:01:26.667Z</time>
      </trkpt>
      <trkpt lat="47.79682" lon="2.13497">
        <ele>119</ele>
        <time>2018-03-03T13:01:27.674Z</time>
      </trkpt>
      <trkpt lat="47.79682" lon="2.13497">
        <ele>119</ele>
        <time>2018-03-03T13:01:28.665Z</time>
      </trkpt>
      <trkpt lat="47.79675" lon="2.13492">
        <ele>120</ele>
        <time>2018-03-03T13:01:29.667Z</time>
      </trkpt>
      <trkpt lat="47.79671" lon="2.13489">
        <ele>120</ele>
        <time>2018-03-03T13:01:30.674Z</time>
      </trkpt>
      <trkpt lat="47.79667" lon="2.13488">
        <ele>120</ele>
        <time>2018-03-03T13:01:31.676Z</time>
      </trkpt>
      <trkpt lat="47.79667" lon="2.13488">
        <ele>120</ele>
        <time>2018-03-03T13:01:32.673Z</time>
      </trkpt>
      <trkpt lat="47.79659" lon="2.13484">
        <ele>121</ele>
        <time>2018-03-03T13:01:33.674Z</time>
      </trkpt>
      <trkpt lat="47.79654" lon="2.13482">
        <ele>121</ele>
        <time>2018-03-03T13:01:34.668Z</time>
      </trkpt>
      <trkpt lat="47.79654" lon="2.13482">
        <ele>121</ele>
        <time>2018-03-03T13:01:35.704Z</time>
      </trkpt>
      <trkpt lat="47.79646" lon="2.13477">
        <ele>121</ele>
        <time>2018-03-03T13:01:36.691Z</time>
      </trkpt>
      <trkpt lat="47.79641" lon="2.13475">
        <ele>121</ele>
        <time>2018-03-03T13:01:37.679Z</time>
      </trkpt>
      <trkpt lat="47.79641" lon="2.13475">
        <ele>121</ele>
        <time>2018-03-03T13:01:38.668Z</time>
      </trkpt>
      <trkpt lat="47.79633" lon="2.1347">
        <ele>121</ele>
        <time>2018-03-03T13:01:39.668Z</time>
      </trkpt>
      <trkpt lat="47.79633" lon="2.1347">
        <ele>121</ele>
        <time>2018-03-03T13:01:40.703Z</time>
      </trkpt>
      <trkpt lat="47.79624" lon="2.13466">
        <ele>122</ele>
        <time>2018-03-03T13:01:41.686Z</time>
      </trkpt>
      <trkpt lat="47.7962" lon="2.13464">
        <ele>122</ele>
        <time>2018-03-03T13:01:42.689Z</time>
      </trkpt>
      <trkpt lat="47.79616" lon="2.13461">
        <ele>122</ele>
        <time>2018-03-03T13:01:43.679Z</time>
      </trkpt>
      <trkpt lat="47.79616" lon="2.13461">
        <ele>122</ele>
        <time>2018-03-03T13:01:44.673Z</time>
      </trkpt>
      <trkpt lat="47.79608" lon="2.13457">
        <ele>122</ele>
        <time>2018-03-03T13:01:45.675Z</time>
      </trkpt>
      <trkpt lat="47.79608" lon="2.13457">
        <ele>122</ele>
        <time>2018-03-03T13:01:46.673Z</time>
      </trkpt>
      <trkpt lat="47.796" lon="2.13454">
        <ele>122</ele>
        <time>2018-03-03T13:01:47.673Z</time>
      </trkpt>
      <trkpt lat="47.79596" lon="2.13452">
        <ele>122</ele>
        <time>2018-03-03T13:01:48.675Z</time>
      </trkpt>
      <trkpt lat="47.79592" lon="2.1345">
        <ele>122</ele>
        <time>2018-03-03T13:01:49.677Z</time>
      </trkpt>
      <trkpt lat="47.79592" lon="2.1345">
        <ele>122</ele>
        <time>2018-03-03T13:01:50.668Z</time>
      </trkpt>
      <trkpt lat="47.79584" lon="2.13445">
        <ele>122</ele>
        <time>2018-03-03T13:01:51.676Z</time>
      </trkpt>
      <trkpt lat="47.79584" lon="2.13445">
        <ele>122</ele>
        <time>2018-03-03T13:01:52.673Z</time>
      </trkpt>
      <trkpt lat="47.79576" lon="2.13442">
        <ele>122</ele>
        <time>2018-03-03T13:01:53.665Z</time>
      </trkpt>
      <trkpt lat="47.79576" lon="2.13442">
        <ele>122</ele>
        <time>2018-03-03T13:01:54.689Z</time>
      </trkpt>
      <trkpt lat="47.79568" lon="2.13439">
        <ele>122</ele>
        <time>2018-03-03T13:01:55.677Z</time>
      </trkpt>
      <trkpt lat="47.79568" lon="2.13439">
        <ele>122</ele>
        <time>2018-03-03T13:01:56.669Z</time>
      </trkpt>
      <trkpt lat="47.79561" lon="2.13435">
        <ele>122</ele>
        <time>2018-03-03T13:01:57.676Z</time>
      </trkpt>
      <trkpt lat="47.79561" lon="2.13435">
        <ele>122</ele>
        <time>2018-03-03T13:01:58.665Z</time>
      </trkpt>
      <trkpt lat="47.79554" lon="2.1343">
        <ele>122</ele>
        <time>2018-03-03T13:01:59.667Z</time>
      </trkpt>
      <trkpt lat="47.79554" lon="2.1343">
        <ele>122</ele>
        <time>2018-03-03T13:02:00.704Z</time>
      </trkpt>
      <trkpt lat="47.79546" lon="2.13427">
        <ele>122</ele>
        <time>2018-03-03T13:02:01.692Z</time>
      </trkpt>
      <trkpt lat="47.79546" lon="2.13427">
        <ele>122</ele>
        <time>2018-03-03T13:02:02.689Z</time>
      </trkpt>
      <trkpt lat="47.79539" lon="2.13423">
        <ele>122</ele>
        <time>2018-03-03T13:02:03.677Z</time>
      </trkpt>
      <trkpt lat="47.79535" lon="2.13421">
        <ele>122</ele>
        <time>2018-03-03T13:02:04.668Z</time>
      </trkpt>
      <trkpt lat="47.79535" lon="2.13421">
        <ele>122</ele>
        <time>2018-03-03T13:02:05.665Z</time>
      </trkpt>
      <trkpt lat="47.79528" lon="2.13418">
        <ele>122</ele>
        <time>2018-03-03T13:02:06.667Z</time>
      </trkpt>
      <trkpt lat="47.79524" lon="2.13415">
        <ele>122</ele>
        <time>2018-03-03T13:02:07.678Z</time>
      </trkpt>
      <trkpt lat="47.79524" lon="2.13415">
        <ele>122</ele>
        <time>2018-03-03T13:02:08.667Z</time>
      </trkpt>
      <trkpt lat="47.79517" lon="2.13411">
        <ele>122</ele>
        <time>2018-03-03T13:02:09.704Z</time>
      </trkpt>
      <trkpt lat="47.79513" lon="2.13409">
        <ele>122</ele>
        <time>2018-03-03T13:02:10.692Z</time>
      </trkpt>
      <trkpt lat="47.79509" lon="2.13407">
        <ele>122</ele>
        <time>2018-03-03T13:02:11.680Z</time>
      </trkpt>
      <trkpt lat="47.79509" lon="2.13407">
        <ele>122</ele>
        <time>2018-03-03T13:02:12.673Z</time>
      </trkpt>
      <trkpt lat="47.79502" lon="2.13404">
        <ele>122</ele>
        <time>2018-03-03T13:02:13.670Z</time>
      </trkpt>
      <trkpt lat="47.79502" lon="2.13404">
        <ele>122</ele>
        <time>2018-03-03T13:02:14.665Z</time>
      </trkpt>
      <trkpt lat="47.79494" lon="2.13402">
        <ele>122</ele>
        <time>2018-03-03T13:02:15.676Z</time>
      </trkpt>
      <trkpt lat="47.79494" lon="2.13402">
        <ele>122</ele>
        <time>2018-03-03T13:02:16.704Z</time>
      </trkpt>
      <trkpt lat="47.79487" lon="2.13398">
        <ele>123</ele>
        <time>2018-03-03T13:02:17.693Z</time>
      </trkpt>
      <trkpt lat="47.79487" lon="2.13398">
        <ele>123</ele>
        <time>2018-03-03T13:02:18.681Z</time>
      </trkpt>
      <trkpt lat="47.7948" lon="2.13393">
        <ele>123</ele>
        <time>2018-03-03T13:02:19.678Z</time>
      </trkpt>
      <trkpt lat="47.7948" lon="2.13393">
        <ele>123</ele>
        <time>2018-03-03T13:02:20.673Z</time>
      </trkpt>
      <trkpt lat="47.79473" lon="2.1339">
        <ele>123</ele>
        <time>2018-03-03T13:02:21.674Z</time>
      </trkpt>
      <trkpt lat="47.7947" lon="2.13389">
        <ele>122</ele>
        <time>2018-03-03T13:02:22.679Z</time>
      </trkpt>
      <trkpt lat="47.7947" lon="2.13389">
        <ele>122</ele>
        <time>2018-03-03T13:02:23.668Z</time>
      </trkpt>
      <trkpt lat="47.79463" lon="2.13385">
        <ele>122</ele>
        <time>2018-03-03T13:02:24.675Z</time>
      </trkpt>
      <trkpt lat="47.79459" lon="2.13384">
        <ele>122</ele>
        <time>2018-03-03T13:02:25.676Z</time>
      </trkpt>
      <trkpt lat="47.79459" lon="2.13384">
        <ele>122</ele>
        <time>2018-03-03T13:02:26.673Z</time>
      </trkpt>
      <trkpt lat="47.79453" lon="2.13381">
        <ele>123</ele>
        <time>2018-03-03T13:02:27.675Z</time>
      </trkpt>
      <trkpt lat="47.79453" lon="2.13381">
        <ele>123</ele>
        <time>2018-03-03T13:02:28.665Z</time>
      </trkpt>
      <trkpt lat="47.79447" lon="2.13377">
        <ele>123</ele>
        <time>2018-03-03T13:02:29.668Z</time>
      </trkpt>
      <trkpt lat="47.79447" lon="2.13377">
        <ele>123</ele>
        <time>2018-03-03T13:02:30.704Z</time>
      </trkpt>
      <trkpt lat="47.7944" lon="2.13373">
        <ele>123</ele>
        <time>2018-03-03T13:02:31.693Z</time>
      </trkpt>
      <trkpt lat="47.7944" lon="2.13373">
        <ele>123</ele>
        <time>2018-03-03T13:02:32.688Z</time>
      </trkpt>
      <trkpt lat="47.79434" lon="2.13371">
        <ele>123</ele>
        <time>2018-03-03T13:02:33.674Z</time>
      </trkpt>
      <trkpt lat="47.7943" lon="2.1337">
        <ele>123</ele>
        <time>2018-03-03T13:02:34.673Z</time>
      </trkpt>
      <trkpt lat="47.79428" lon="2.13369">
        <ele>123</ele>
        <time>2018-03-03T13:02:35.675Z</time>
      </trkpt>
      <trkpt lat="47.79428" lon="2.13369">
        <ele>123</ele>
        <time>2018-03-03T13:02:36.705Z</time>
      </trkpt>
      <trkpt lat="47.79421" lon="2.13365">
        <ele>123</ele>
        <time>2018-03-03T13:02:37.693Z</time>
      </trkpt>
      <trkpt lat="47.79421" lon="2.13365">
        <ele>123</ele>
        <time>2018-03-03T13:02:38.690Z</time>
      </trkpt>
      <trkpt lat="47.79416" lon="2.13362">
        <ele>123</ele>
        <time>2018-03-03T13:02:39.679Z</time>
      </trkpt>
      <trkpt lat="47.79416" lon="2.13362">
        <ele>123</ele>
        <time>2018-03-03T13:02:40.673Z</time>
      </trkpt>
      <trkpt lat="47.7941" lon="2.13359">
        <ele>123</ele>
        <time>2018-03-03T13:02:41.682Z</time>
      </trkpt>
      <trkpt lat="47.79407" lon="2.13357">
        <ele>123</ele>
        <time>2018-03-03T13:02:42.678Z</time>
      </trkpt>
      <trkpt lat="47.79405" lon="2.13355">
        <ele>123</ele>
        <time>2018-03-03T13:02:43.677Z</time>
      </trkpt>
      <trkpt lat="47.79405" lon="2.13355">
        <ele>123</ele>
        <time>2018-03-03T13:02:44.666Z</time>
      </trkpt>
      <trkpt lat="47.79399" lon="2.13353">
        <ele>123</ele>
        <time>2018-03-03T13:02:45.676Z</time>
      </trkpt>
      <trkpt lat="47.79399" lon="2.13353">
        <ele>123</ele>
        <time>2018-03-03T13:02:46.669Z</time>
      </trkpt>
      <trkpt lat="47.79393" lon="2.1335">
        <ele>123</ele>
        <time>2018-03-03T13:02:47.676Z</time>
      </trkpt>
      <trkpt lat="47.79393" lon="2.1335">
        <ele>123</ele>
        <time>2018-03-03T13:02:48.704Z</time>
      </trkpt>
      <trkpt lat="47.79388" lon="2.13348">
        <ele>123</ele>
        <time>2018-03-03T13:02:49.692Z</time>
      </trkpt>
      <trkpt lat="47.79385" lon="2.13346">
        <ele>123</ele>
        <time>2018-03-03T13:02:50.700Z</time>
      </trkpt>
      <trkpt lat="47.79382" lon="2.13345">
        <ele>123</ele>
        <time>2018-03-03T13:02:51.689Z</time>
      </trkpt>
      <trkpt lat="47.79382" lon="2.13345">
        <ele>123</ele>
        <time>2018-03-03T13:02:52.689Z</time>
      </trkpt>
      <trkpt lat="47.79375" lon="2.13341">
        <ele>124</ele>
        <time>2018-03-03T13:02:53.675Z</time>
      </trkpt>
      <trkpt lat="47.79375" lon="2.13341">
        <ele>124</ele>
        <time>2018-03-03T13:02:54.666Z</time>
      </trkpt>
      <trkpt lat="47.79369" lon="2.13337">
        <ele>124</ele>
        <time>2018-03-03T13:02:55.677Z</time>
      </trkpt>
      <trkpt lat="47.79369" lon="2.13337">
        <ele>124</ele>
        <time>2018-03-03T13:02:56.665Z</time>
      </trkpt>
      <trkpt lat="47.79363" lon="2.13335">
        <ele>124</ele>
        <time>2018-03-03T13:02:57.676Z</time>
      </trkpt>
      <trkpt lat="47.79363" lon="2.13335">
        <ele>124</ele>
        <time>2018-03-03T13:02:58.667Z</time>
      </trkpt>
      <trkpt lat="47.79357" lon="2.13332">
        <ele>125</ele>
        <time>2018-03-03T13:02:59.668Z</time>
      </trkpt>
      <trkpt lat="47.79357" lon="2.13332">
        <ele>125</ele>
        <time>2018-03-03T13:03:00.704Z</time>
      </trkpt>
      <trkpt lat="47.7935" lon="2.13328">
        <ele>125</ele>
        <time>2018-03-03T13:03:01.694Z</time>
      </trkpt>
      <trkpt lat="47.7935" lon="2.13328">
        <ele>125</ele>
        <time>2018-03-03T13:03:02.691Z</time>
      </trkpt>
      <trkpt lat="47.79343" lon="2.13324">
        <ele>125</ele>
        <time>2018-03-03T13:03:03.674Z</time>
      </trkpt>
      <trkpt lat="47.79339" lon="2.13322">
        <ele>125</ele>
        <time>2018-03-03T13:03:04.685Z</time>
      </trkpt>
      <trkpt lat="47.79339" lon="2.13322">
        <ele>125</ele>
        <time>2018-03-03T13:03:05.674Z</time>
      </trkpt>
      <trkpt lat="47.79331" lon="2.13318">
        <ele>125</ele>
        <time>2018-03-03T13:03:06.668Z</time>
      </trkpt>
      <trkpt lat="47.79328" lon="2.13316">
        <ele>125</ele>
        <time>2018-03-03T13:03:07.673Z</time>
      </trkpt>
      <trkpt lat="47.79328" lon="2.13316">
        <ele>125</ele>
        <time>2018-03-03T13:03:08.665Z</time>
      </trkpt>
      <trkpt lat="47.7932" lon="2.13312">
        <ele>125</ele>
        <time>2018-03-03T13:03:09.677Z</time>
      </trkpt>
      <trkpt lat="47.7932" lon="2.13312">
        <ele>125</ele>
        <time>2018-03-03T13:03:10.669Z</time>
      </trkpt>
      <trkpt lat="47.79312" lon="2.13309">
        <ele>125</ele>
        <time>2018-03-03T13:03:11.676Z</time>
      </trkpt>
      <trkpt lat="47.79312" lon="2.13309">
        <ele>125</ele>
        <time>2018-03-03T13:03:12.686Z</time>
      </trkpt>
      <trkpt lat="47.79305" lon="2.13305">
        <ele>125</ele>
        <time>2018-03-03T13:03:13.684Z</time>
      </trkpt>
      <trkpt lat="47.79301" lon="2.13303">
        <ele>125</ele>
        <time>2018-03-03T13:03:14.694Z</time>
      </trkpt>
      <trkpt lat="47.79301" lon="2.13303">
        <ele>125</ele>
        <time>2018-03-03T13:03:15.681Z</time>
      </trkpt>
      <trkpt lat="47.79293" lon="2.13299">
        <ele>125</ele>
        <time>2018-03-03T13:03:16.680Z</time>
      </trkpt>
      <trkpt lat="47.79293" lon="2.13299">
        <ele>125</ele>
        <time>2018-03-03T13:03:17.673Z</time>
      </trkpt>
      <trkpt lat="47.79285" lon="2.13295">
        <ele>125</ele>
        <time>2018-03-03T13:03:18.667Z</time>
      </trkpt>
      <trkpt lat="47.7928" lon="2.13293">
        <ele>125</ele>
        <time>2018-03-03T13:03:19.676Z</time>
      </trkpt>
      <trkpt lat="47.7928" lon="2.13293">
        <ele>125</ele>
        <time>2018-03-03T13:03:20.665Z</time>
      </trkpt>
      <trkpt lat="47.79272" lon="2.13289">
        <ele>125</ele>
        <time>2018-03-03T13:03:21.675Z</time>
      </trkpt>
      <trkpt lat="47.79272" lon="2.13289">
        <ele>125</ele>
        <time>2018-03-03T13:03:22.695Z</time>
      </trkpt>
      <trkpt lat="47.79264" lon="2.13285">
        <ele>125</ele>
        <time>2018-03-03T13:03:23.684Z</time>
      </trkpt>
      <trkpt lat="47.79259" lon="2.13284">
        <ele>125</ele>
        <time>2018-03-03T13:03:24.674Z</time>
      </trkpt>
      <trkpt lat="47.79255" lon="2.13282">
        <ele>125</ele>
        <time>2018-03-03T13:03:25.675Z</time>
      </trkpt>
      <trkpt lat="47.79255" lon="2.13282">
        <ele>125</ele>
        <time>2018-03-03T13:03:26.673Z</time>
      </trkpt>
      <trkpt lat="47.79247" lon="2.13278">
        <ele>125</ele>
        <time>2018-03-03T13:03:27.677Z</time>
      </trkpt>
      <trkpt lat="47.79247" lon="2.13278">
        <ele>125</ele>
        <time>2018-03-03T13:03:28.666Z</time>
      </trkpt>
      <trkpt lat="47.79238" lon="2.13275">
        <ele>125</ele>
        <time>2018-03-03T13:03:29.667Z</time>
      </trkpt>
      <trkpt lat="47.79238" lon="2.13275">
        <ele>125</ele>
        <time>2018-03-03T13:03:30.665Z</time>
      </trkpt>
      <trkpt lat="47.79229" lon="2.13272">
        <ele>125</ele>
        <time>2018-03-03T13:03:31.693Z</time>
      </trkpt>
      <trkpt lat="47.79229" lon="2.13272">
        <ele>125</ele>
        <time>2018-03-03T13:03:32.686Z</time>
      </trkpt>
      <trkpt lat="47.7922" lon="2.13269">
        <ele>124</ele>
        <time>2018-03-03T13:03:33.676Z</time>
      </trkpt>
      <trkpt lat="47.79215" lon="2.13267">
        <ele>125</ele>
        <time>2018-03-03T13:03:34.673Z</time>
      </trkpt>
      <trkpt lat="47.79215" lon="2.13267">
        <ele>125</ele>
        <time>2018-03-03T13:03:35.666Z</time>
      </trkpt>
      <trkpt lat="47.79206" lon="2.13264">
        <ele>125</ele>
        <time>2018-03-03T13:03:36.667Z</time>
      </trkpt>
      <trkpt lat="47.79201" lon="2.13263">
        <ele>124</ele>
        <time>2018-03-03T13:03:37.676Z</time>
      </trkpt>
      <trkpt lat="47.79201" lon="2.13263">
        <ele>124</ele>
        <time>2018-03-03T13:03:38.665Z</time>
      </trkpt>
      <trkpt lat="47.79192" lon="2.13261">
        <ele>124</ele>
        <time>2018-03-03T13:03:39.677Z</time>
      </trkpt>
      <trkpt lat="47.79192" lon="2.13261">
        <ele>124</ele>
        <time>2018-03-03T13:03:40.666Z</time>
      </trkpt>
      <trkpt lat="47.79183" lon="2.13259">
        <ele>124</ele>
        <time>2018-03-03T13:03:41.668Z</time>
      </trkpt>
      <trkpt lat="47.79183" lon="2.13259">
        <ele>124</ele>
        <time>2018-03-03T13:03:42.665Z</time>
      </trkpt>
      <trkpt lat="47.79174" lon="2.13258">
        <ele>124</ele>
        <time>2018-03-03T13:03:43.694Z</time>
      </trkpt>
      <trkpt lat="47.79174" lon="2.13258">
        <ele>124</ele>
        <time>2018-03-03T13:03:44.689Z</time>
      </trkpt>
      <trkpt lat="47.79166" lon="2.13257">
        <ele>124</ele>
        <time>2018-03-03T13:03:45.677Z</time>
      </trkpt>
      <trkpt lat="47.79161" lon="2.13256">
        <ele>124</ele>
        <time>2018-03-03T13:03:46.699Z</time>
      </trkpt>
      <trkpt lat="47.79157" lon="2.13256">
        <ele>124</ele>
        <time>2018-03-03T13:03:47.688Z</time>
      </trkpt>
      <trkpt lat="47.79157" lon="2.13256">
        <ele>124</ele>
        <time>2018-03-03T13:03:48.677Z</time>
      </trkpt>
      <trkpt lat="47.79148" lon="2.13255">
        <ele>124</ele>
        <time>2018-03-03T13:03:49.675Z</time>
      </trkpt>
      <trkpt lat="47.79148" lon="2.13255">
        <ele>124</ele>
        <time>2018-03-03T13:03:50.704Z</time>
      </trkpt>
      <trkpt lat="47.79139" lon="2.13255">
        <ele>124</ele>
        <time>2018-03-03T13:03:51.699Z</time>
      </trkpt>
      <trkpt lat="47.79139" lon="2.13255">
        <ele>124</ele>
        <time>2018-03-03T13:03:52.688Z</time>
      </trkpt>
      <trkpt lat="47.79129" lon="2.13254">
        <ele>124</ele>
        <time>2018-03-03T13:03:53.673Z</time>
      </trkpt>
      <trkpt lat="47.79129" lon="2.13254">
        <ele>124</ele>
        <time>2018-03-03T13:03:54.689Z</time>
      </trkpt>
      <trkpt lat="47.79119" lon="2.13254">
        <ele>124</ele>
        <time>2018-03-03T13:03:55.700Z</time>
      </trkpt>
      <trkpt lat="47.79119" lon="2.13254">
        <ele>124</ele>
        <time>2018-03-03T13:03:56.692Z</time>
      </trkpt>
      <trkpt lat="47.7911" lon="2.13254">
        <ele>124</ele>
        <time>2018-03-03T13:03:57.680Z</time>
      </trkpt>
      <trkpt lat="47.79104" lon="2.13254">
        <ele>124</ele>
        <time>2018-03-03T13:03:58.676Z</time>
      </trkpt>
      <trkpt lat="47.79104" lon="2.13254">
        <ele>124</ele>
        <time>2018-03-03T13:03:59.684Z</time>
      </trkpt>
      <trkpt lat="47.79094" lon="2.13254">
        <ele>124</ele>
        <time>2018-03-03T13:04:00.690Z</time>
      </trkpt>
      <trkpt lat="47.79089" lon="2.13254">
        <ele>123</ele>
        <time>2018-03-03T13:04:01.696Z</time>
      </trkpt>
      <trkpt lat="47.79089" lon="2.13254">
        <ele>123</ele>
        <time>2018-03-03T13:04:02.668Z</time>
      </trkpt>
      <trkpt lat="47.79078" lon="2.13254">
        <ele>123</ele>
        <time>2018-03-03T13:04:03.676Z</time>
      </trkpt>
      <trkpt lat="47.79078" lon="2.13254">
        <ele>123</ele>
        <time>2018-03-03T13:04:04.668Z</time>
      </trkpt>
      <trkpt lat="47.79067" lon="2.13254">
        <ele>123</ele>
        <time>2018-03-03T13:04:05.674Z</time>
      </trkpt>
      <trkpt lat="47.79061" lon="2.13254">
        <ele>123</ele>
        <time>2018-03-03T13:04:06.676Z</time>
      </trkpt>
      <trkpt lat="47.79061" lon="2.13254">
        <ele>123</ele>
        <time>2018-03-03T13:04:07.673Z</time>
      </trkpt>
      <trkpt lat="47.7905" lon="2.13252">
        <ele>122</ele>
        <time>2018-03-03T13:04:08.666Z</time>
      </trkpt>
      <trkpt lat="47.7905" lon="2.13252">
        <ele>122</ele>
        <time>2018-03-03T13:04:09.696Z</time>
      </trkpt>
      <trkpt lat="47.79041" lon="2.13244">
        <ele>122</ele>
        <time>2018-03-03T13:04:10.684Z</time>
      </trkpt>
      <trkpt lat="47.79041" lon="2.13244">
        <ele>122</ele>
        <time>2018-03-03T13:04:11.673Z</time>
      </trkpt>
      <trkpt lat="47.79034" lon="2.13233">
        <ele>122</ele>
        <time>2018-03-03T13:04:12.666Z</time>
      </trkpt>
      <trkpt lat="47.7903" lon="2.13227">
        <ele>122</ele>
        <time>2018-03-03T13:04:13.694Z</time>
      </trkpt>
      <trkpt lat="47.7903" lon="2.13227">
        <ele>122</ele>
        <time>2018-03-03T13:04:14.682Z</time>
      </trkpt>
      <trkpt lat="47.79023" lon="2.13214">
        <ele>122</ele>
        <time>2018-03-03T13:04:15.677Z</time>
      </trkpt>
      <trkpt lat="47.79023" lon="2.13214">
        <ele>122</ele>
        <time>2018-03-03T13:04:16.666Z</time>
      </trkpt>
      <trkpt lat="47.79017" lon="2.13202">
        <ele>122</ele>
        <time>2018-03-03T13:04:17.682Z</time>
      </trkpt>
      <trkpt lat="47.79017" lon="2.13202">
        <ele>122</ele>
        <time>2018-03-03T13:04:18.686Z</time>
      </trkpt>
      <trkpt lat="47.7901" lon="2.13189">
        <ele>122</ele>
        <time>2018-03-03T13:04:19.678Z</time>
      </trkpt>
      <trkpt lat="47.7901" lon="2.13189">
        <ele>122</ele>
        <time>2018-03-03T13:04:20.677Z</time>
      </trkpt>
      <trkpt lat="47.79004" lon="2.13177">
        <ele>122</ele>
        <time>2018-03-03T13:04:21.677Z</time>
      </trkpt>
      <trkpt lat="47.79004" lon="2.13177">
        <ele>122</ele>
        <time>2018-03-03T13:04:22.666Z</time>
      </trkpt>
      <trkpt lat="47.78999" lon="2.13165">
        <ele>122</ele>
        <time>2018-03-03T13:04:23.666Z</time>
      </trkpt>
      <trkpt lat="47.78999" lon="2.13165">
        <ele>122</ele>
        <time>2018-03-03T13:04:24.704Z</time>
      </trkpt>
      <trkpt lat="47.78993" lon="2.13154">
        <ele>122</ele>
        <time>2018-03-03T13:04:25.692Z</time>
      </trkpt>
      <trkpt lat="47.78993" lon="2.13154">
        <ele>122</ele>
        <time>2018-03-03T13:04:26.694Z</time>
      </trkpt>
      <trkpt lat="47.78987" lon="2.13143">
        <ele>122</ele>
        <time>2018-03-03T13:04:27.682Z</time>
      </trkpt>
      <trkpt lat="47.78983" lon="2.13137">
        <ele>122</ele>
        <time>2018-03-03T13:04:28.675Z</time>
      </trkpt>
      <trkpt lat="47.78983" lon="2.13137">
        <ele>122</ele>
        <time>2018-03-03T13:04:29.704Z</time>
      </trkpt>
      <trkpt lat="47.78977" lon="2.13126">
        <ele>122</ele>
        <time>2018-03-03T13:04:30.700Z</time>
      </trkpt>
      <trkpt lat="47.78974" lon="2.1312">
        <ele>122</ele>
        <time>2018-03-03T13:04:31.688Z</time>
      </trkpt>
      <trkpt lat="47.78974" lon="2.1312">
        <ele>122</ele>
        <time>2018-03-03T13:04:32.688Z</time>
      </trkpt>
      <trkpt lat="47.78968" lon="2.13109">
        <ele>122</ele>
        <time>2018-03-03T13:04:33.676Z</time>
      </trkpt>
      <trkpt lat="47.78965" lon="2.13103">
        <ele>122</ele>
        <time>2018-03-03T13:04:34.676Z</time>
      </trkpt>
      <trkpt lat="47.78962" lon="2.13097">
        <ele>122</ele>
        <time>2018-03-03T13:04:35.677Z</time>
      </trkpt>
      <trkpt lat="47.78962" lon="2.13097">
        <ele>122</ele>
        <time>2018-03-03T13:04:36.705Z</time>
      </trkpt>
      <trkpt lat="47.78955" lon="2.13086">
        <ele>122</ele>
        <time>2018-03-03T13:04:37.694Z</time>
      </trkpt>
      <trkpt lat="47.78955" lon="2.13086">
        <ele>122</ele>
        <time>2018-03-03T13:04:38.684Z</time>
      </trkpt>
      <trkpt lat="47.78949" lon="2.13075">
        <ele>122</ele>
        <time>2018-03-03T13:04:39.674Z</time>
      </trkpt>
      <trkpt lat="47.78946" lon="2.1307">
        <ele>122</ele>
        <time>2018-03-03T13:04:40.676Z</time>
      </trkpt>
      <trkpt lat="47.78946" lon="2.1307">
        <ele>122</ele>
        <time>2018-03-03T13:04:41.675Z</time>
      </trkpt>
      <trkpt lat="47.7894" lon="2.1306">
        <ele>122</ele>
        <time>2018-03-03T13:04:42.665Z</time>
      </trkpt>
      <trkpt lat="47.7894" lon="2.1306">
        <ele>122</ele>
        <time>2018-03-03T13:04:43.694Z</time>
      </trkpt>
      <trkpt lat="47.78934" lon="2.13051">
        <ele>121</ele>
        <time>2018-03-03T13:04:44.690Z</time>
      </trkpt>
      <trkpt lat="47.78934" lon="2.13051">
        <ele>121</ele>
        <time>2018-03-03T13:04:45.678Z</time>
      </trkpt>
      <trkpt lat="47.78928" lon="2.13041">
        <ele>121</ele>
        <time>2018-03-03T13:04:46.676Z</time>
      </trkpt>
      <trkpt lat="47.78928" lon="2.13041">
        <ele>121</ele>
        <time>2018-03-03T13:04:47.665Z</time>
      </trkpt>
      <trkpt lat="47.78922" lon="2.13032">
        <ele>121</ele>
        <time>2018-03-03T13:04:48.673Z</time>
      </trkpt>
      <trkpt lat="47.78919" lon="2.13027">
        <ele>121</ele>
        <time>2018-03-03T13:04:49.675Z</time>
      </trkpt>
      <trkpt lat="47.78916" lon="2.13022">
        <ele>121</ele>
        <time>2018-03-03T13:04:50.677Z</time>
      </trkpt>
      <trkpt lat="47.78916" lon="2.13022">
        <ele>121</ele>
        <time>2018-03-03T13:04:51.666Z</time>
      </trkpt>
      <trkpt lat="47.7891" lon="2.13012">
        <ele>121</ele>
        <time>2018-03-03T13:04:52.685Z</time>
      </trkpt>
      <trkpt lat="47.7891" lon="2.13012">
        <ele>121</ele>
        <time>2018-03-03T13:04:53.666Z</time>
      </trkpt>
      <trkpt lat="47.78904" lon="2.13003">
        <ele>121</ele>
        <time>2018-03-03T13:04:54.696Z</time>
      </trkpt>
      <trkpt lat="47.78901" lon="2.12998">
        <ele>121</ele>
        <time>2018-03-03T13:04:55.687Z</time>
      </trkpt>
      <trkpt lat="47.78901" lon="2.12998">
        <ele>121</ele>
        <time>2018-03-03T13:04:56.675Z</time>
      </trkpt>
      <trkpt lat="47.78895" lon="2.12988">
        <ele>121</ele>
        <time>2018-03-03T13:04:57.676Z</time>
      </trkpt>
      <trkpt lat="47.78895" lon="2.12988">
        <ele>121</ele>
        <time>2018-03-03T13:04:58.704Z</time>
      </trkpt>
      <trkpt lat="47.7889" lon="2.12978">
        <ele>121</ele>
        <time>2018-03-03T13:04:59.695Z</time>
      </trkpt>
      <trkpt lat="47.7889" lon="2.12978">
        <ele>121</ele>
        <time>2018-03-03T13:05:00.683Z</time>
      </trkpt>
      <trkpt lat="47.78884" lon="2.12969">
        <ele>121</ele>
        <time>2018-03-03T13:05:01.675Z</time>
      </trkpt>
      <trkpt lat="47.78884" lon="2.12969">
        <ele>121</ele>
        <time>2018-03-03T13:05:02.667Z</time>
      </trkpt>
      <trkpt lat="47.78877" lon="2.12959">
        <ele>121</ele>
        <time>2018-03-03T13:05:03.677Z</time>
      </trkpt>
      <trkpt lat="47.78874" lon="2.12954">
        <ele>121</ele>
        <time>2018-03-03T13:05:04.689Z</time>
      </trkpt>
      <trkpt lat="47.78874" lon="2.12954">
        <ele>121</ele>
        <time>2018-03-03T13:05:05.677Z</time>
      </trkpt>
      <trkpt lat="47.78868" lon="2.12944">
        <ele>121</ele>
        <time>2018-03-03T13:05:06.674Z</time>
      </trkpt>
      <trkpt lat="47.78865" lon="2.12939">
        <ele>121</ele>
        <time>2018-03-03T13:05:07.674Z</time>
      </trkpt>
      <trkpt lat="47.78865" lon="2.12939">
        <ele>121</ele>
        <time>2018-03-03T13:05:08.704Z</time>
      </trkpt>
      <trkpt lat="47.78858" lon="2.12929">
        <ele>121</ele>
        <time>2018-03-03T13:05:09.700Z</time>
      </trkpt>
      <trkpt lat="47.78858" lon="2.12929">
        <ele>121</ele>
        <time>2018-03-03T13:05:10.689Z</time>
      </trkpt>
      <trkpt lat="47.78851" lon="2.12919">
        <ele>121</ele>
        <time>2018-03-03T13:05:11.681Z</time>
      </trkpt>
      <trkpt lat="47.78851" lon="2.12919">
        <ele>121</ele>
        <time>2018-03-03T13:05:12.674Z</time>
      </trkpt>
      <trkpt lat="47.78844" lon="2.12909">
        <ele>120</ele>
        <time>2018-03-03T13:05:13.675Z</time>
      </trkpt>
      <trkpt lat="47.78844" lon="2.12909">
        <ele>120</ele>
        <time>2018-03-03T13:05:14.705Z</time>
      </trkpt>
      <trkpt lat="47.78837" lon="2.12899">
        <ele>120</ele>
        <time>2018-03-03T13:05:15.697Z</time>
      </trkpt>
      <trkpt lat="47.78837" lon="2.12899">
        <ele>120</ele>
        <time>2018-03-03T13:05:16.686Z</time>
      </trkpt>
      <trkpt lat="47.78829" lon="2.1289">
        <ele>120</ele>
        <time>2018-03-03T13:05:17.674Z</time>
      </trkpt>
      <trkpt lat="47.78829" lon="2.1289">
        <ele>120</ele>
        <time>2018-03-03T13:05:18.665Z</time>
      </trkpt>
      <trkpt lat="47.78821" lon="2.1288">
        <ele>120</ele>
        <time>2018-03-03T13:05:19.693Z</time>
      </trkpt>
      <trkpt lat="47.78821" lon="2.1288">
        <ele>120</ele>
        <time>2018-03-03T13:05:20.679Z</time>
      </trkpt>
      <trkpt lat="47.78814" lon="2.12871">
        <ele>120</ele>
        <time>2018-03-03T13:05:21.675Z</time>
      </trkpt>
      <trkpt lat="47.78814" lon="2.12871">
        <ele>120</ele>
        <time>2018-03-03T13:05:22.686Z</time>
      </trkpt>
      <trkpt lat="47.78807" lon="2.12863">
        <ele>120</ele>
        <time>2018-03-03T13:05:23.693Z</time>
      </trkpt>
      <trkpt lat="47.78803" lon="2.12858">
        <ele>120</ele>
        <time>2018-03-03T13:05:24.703Z</time>
      </trkpt>
      <trkpt lat="47.788" lon="2.12854">
        <ele>120</ele>
        <time>2018-03-03T13:05:25.676Z</time>
      </trkpt>
      <trkpt lat="47.788" lon="2.12854">
        <ele>120</ele>
        <time>2018-03-03T13:05:26.675Z</time>
      </trkpt>
      <trkpt lat="47.78793" lon="2.12845">
        <ele>120</ele>
        <time>2018-03-03T13:05:27.681Z</time>
      </trkpt>
      <trkpt lat="47.78793" lon="2.12845">
        <ele>120</ele>
        <time>2018-03-03T13:05:28.680Z</time>
      </trkpt>
      <trkpt lat="47.78785" lon="2.12837">
        <ele>120</ele>
        <time>2018-03-03T13:05:29.681Z</time>
      </trkpt>
      <trkpt lat="47.78785" lon="2.12837">
        <ele>120</ele>
        <time>2018-03-03T13:05:30.680Z</time>
      </trkpt>
      <trkpt lat="47.78778" lon="2.12829">
        <ele>120</ele>
        <time>2018-03-03T13:05:31.681Z</time>
      </trkpt>
      <trkpt lat="47.78778" lon="2.12829">
        <ele>120</ele>
        <time>2018-03-03T13:05:32.698Z</time>
      </trkpt>
      <trkpt lat="47.78771" lon="2.1282">
        <ele>120</ele>
        <time>2018-03-03T13:05:33.701Z</time>
      </trkpt>
      <trkpt lat="47.78771" lon="2.1282">
        <ele>120</ele>
        <time>2018-03-03T13:05:34.700Z</time>
      </trkpt>
      <trkpt lat="47.78764" lon="2.12812">
        <ele>120</ele>
        <time>2018-03-03T13:05:35.676Z</time>
      </trkpt>
      <trkpt lat="47.78764" lon="2.12812">
        <ele>120</ele>
        <time>2018-03-03T13:05:36.676Z</time>
      </trkpt>
      <trkpt lat="47.78757" lon="2.12804">
        <ele>120</ele>
        <time>2018-03-03T13:05:37.678Z</time>
      </trkpt>
      <trkpt lat="47.78757" lon="2.12804">
        <ele>120</ele>
        <time>2018-03-03T13:05:38.676Z</time>
      </trkpt>
      <trkpt lat="47.7875" lon="2.12795">
        <ele>120</ele>
        <time>2018-03-03T13:05:39.676Z</time>
      </trkpt>
      <trkpt lat="47.78746" lon="2.12791">
        <ele>120</ele>
        <time>2018-03-03T13:05:40.677Z</time>
      </trkpt>
      <trkpt lat="47.78743" lon="2.12787">
        <ele>120</ele>
        <time>2018-03-03T13:05:41.676Z</time>
      </trkpt>
      <trkpt lat="47.78743" lon="2.12787">
        <ele>120</ele>
        <time>2018-03-03T13:05:42.690Z</time>
      </trkpt>
      <trkpt lat="47.78737" lon="2.12781">
        <ele>120</ele>
        <time>2018-03-03T13:05:43.677Z</time>
      </trkpt>
      <trkpt lat="47.78737" lon="2.12781">
        <ele>120</ele>
        <time>2018-03-03T13:05:44.683Z</time>
      </trkpt>
      <trkpt lat="47.78732" lon="2.12775">
        <ele>120</ele>
        <time>2018-03-03T13:05:45.680Z</time>
      </trkpt>
      <trkpt lat="47.78732" lon="2.12775">
        <ele>120</ele>
        <time>2018-03-03T13:05:46.675Z</time>
      </trkpt>
      <trkpt lat="47.78727" lon="2.12769">
        <ele>120</ele>
        <time>2018-03-03T13:05:47.693Z</time>
      </trkpt>
      <trkpt lat="47.78725" lon="2.12767">
        <ele>120</ele>
        <time>2018-03-03T13:05:48.688Z</time>
      </trkpt>
      <trkpt lat="47.78723" lon="2.12765">
        <ele>120</ele>
        <time>2018-03-03T13:05:49.682Z</time>
      </trkpt>
      <trkpt lat="47.78723" lon="2.12765">
        <ele>120</ele>
        <time>2018-03-03T13:05:50.678Z</time>
      </trkpt>
      <trkpt lat="47.78719" lon="2.1276">
        <ele>120</ele>
        <time>2018-03-03T13:05:51.679Z</time>
      </trkpt>
      <trkpt lat="47.78719" lon="2.1276">
        <ele>120</ele>
        <time>2018-03-03T13:05:52.685Z</time>
      </trkpt>
      <trkpt lat="47.78715" lon="2.12755">
        <ele>120</ele>
        <time>2018-03-03T13:05:53.679Z</time>
      </trkpt>
      <trkpt lat="47.78713" lon="2.12752">
        <ele>120</ele>
        <time>2018-03-03T13:05:54.686Z</time>
      </trkpt>
      <trkpt lat="47.7871" lon="2.12749">
        <ele>120</ele>
        <time>2018-03-03T13:05:55.682Z</time>
      </trkpt>
      <trkpt lat="47.7871" lon="2.12749">
        <ele>120</ele>
        <time>2018-03-03T13:05:56.675Z</time>
      </trkpt>
      <trkpt lat="47.78706" lon="2.12744">
        <ele>120</ele>
        <time>2018-03-03T13:05:57.676Z</time>
      </trkpt>
      <trkpt lat="47.78703" lon="2.12741">
        <ele>120</ele>
        <time>2018-03-03T13:05:58.676Z</time>
      </trkpt>
      <trkpt lat="47.78703" lon="2.12741">
        <ele>120</ele>
        <time>2018-03-03T13:05:59.669Z</time>
      </trkpt>
      <trkpt lat="47.78698" lon="2.12736">
        <ele>120</ele>
        <time>2018-03-03T13:06:00.675Z</time>
      </trkpt>
      <trkpt lat="47.78696" lon="2.12733">
        <ele>120</ele>
        <time>2018-03-03T13:06:01.678Z</time>
      </trkpt>
      <trkpt lat="47.78696" lon="2.12733">
        <ele>120</ele>
        <time>2018-03-03T13:06:02.675Z</time>
      </trkpt>
      <trkpt lat="47.78691" lon="2.12727">
        <ele>120</ele>
        <time>2018-03-03T13:06:03.676Z</time>
      </trkpt>
      <trkpt lat="47.78688" lon="2.12725">
        <ele>120</ele>
        <time>2018-03-03T13:06:04.674Z</time>
      </trkpt>
      <trkpt lat="47.78688" lon="2.12725">
        <ele>120</ele>
        <time>2018-03-03T13:06:05.666Z</time>
      </trkpt>
      <trkpt lat="47.78683" lon="2.1272">
        <ele>120</ele>
        <time>2018-03-03T13:06:06.704Z</time>
      </trkpt>
      <trkpt lat="47.7868" lon="2.12718">
        <ele>120</ele>
        <time>2018-03-03T13:06:07.693Z</time>
      </trkpt>
      <trkpt lat="47.7868" lon="2.12718">
        <ele>120</ele>
        <time>2018-03-03T13:06:08.696Z</time>
      </trkpt>
      <trkpt lat="47.78674" lon="2.12713">
        <ele>120</ele>
        <time>2018-03-03T13:06:09.684Z</time>
      </trkpt>
      <trkpt lat="47.7867" lon="2.12711">
        <ele>120</ele>
        <time>2018-03-03T13:06:10.677Z</time>
      </trkpt>
      <trkpt lat="47.7867" lon="2.12711">
        <ele>120</ele>
        <time>2018-03-03T13:06:11.678Z</time>
      </trkpt>
      <trkpt lat="47.78663" lon="2.12707">
        <ele>120</ele>
        <time>2018-03-03T13:06:12.700Z</time>
      </trkpt>
      <trkpt lat="47.7866" lon="2.12704">
        <ele>120</ele>
        <time>2018-03-03T13:06:13.691Z</time>
      </trkpt>
      <trkpt lat="47.7866" lon="2.12704">
        <ele>120</ele>
        <time>2018-03-03T13:06:14.686Z</time>
      </trkpt>
      <trkpt lat="47.78653" lon="2.127">
        <ele>120</ele>
        <time>2018-03-03T13:06:15.677Z</time>
      </trkpt>
      <trkpt lat="47.78653" lon="2.127">
        <ele>120</ele>
        <time>2018-03-03T13:06:16.675Z</time>
      </trkpt>
      <trkpt lat="47.78646" lon="2.12696">
        <ele>120</ele>
        <time>2018-03-03T13:06:17.665Z</time>
      </trkpt>
      <trkpt lat="47.78642" lon="2.12694">
        <ele>120</ele>
        <time>2018-03-03T13:06:18.677Z</time>
      </trkpt>
      <trkpt lat="47.78642" lon="2.12694">
        <ele>120</ele>
        <time>2018-03-03T13:06:19.669Z</time>
      </trkpt>
      <trkpt lat="47.78635" lon="2.1269">
        <ele>120</ele>
        <time>2018-03-03T13:06:20.676Z</time>
      </trkpt>
      <trkpt lat="47.78632" lon="2.12688">
        <ele>120</ele>
        <time>2018-03-03T13:06:21.678Z</time>
      </trkpt>
      <trkpt lat="47.78632" lon="2.12688">
        <ele>120</ele>
        <time>2018-03-03T13:06:22.671Z</time>
      </trkpt>
      <trkpt lat="47.78625" lon="2.12684">
        <ele>120</ele>
        <time>2018-03-03T13:06:23.678Z</time>
      </trkpt>
      <trkpt lat="47.78625" lon="2.12684">
        <ele>120</ele>
        <time>2018-03-03T13:06:24.668Z</time>
      </trkpt>
      <trkpt lat="47.78618" lon="2.1268">
        <ele>120</ele>
        <time>2018-03-03T13:06:25.688Z</time>
      </trkpt>
      <trkpt lat="47.78615" lon="2.12678">
        <ele>120</ele>
        <time>2018-03-03T13:06:26.678Z</time>
      </trkpt>
      <trkpt lat="47.78612" lon="2.12676">
        <ele>120</ele>
        <time>2018-03-03T13:06:27.676Z</time>
      </trkpt>
      <trkpt lat="47.78612" lon="2.12676">
        <ele>120</ele>
        <time>2018-03-03T13:06:28.697Z</time>
      </trkpt>
      <trkpt lat="47.78604" lon="2.12672">
        <ele>120</ele>
        <time>2018-03-03T13:06:29.680Z</time>
      </trkpt>
      <trkpt lat="47.78604" lon="2.12672">
        <ele>120</ele>
        <time>2018-03-03T13:06:30.675Z</time>
      </trkpt>
      <trkpt lat="47.78596" lon="2.12667">
        <ele>120</ele>
        <time>2018-03-03T13:06:31.676Z</time>
      </trkpt>
      <trkpt lat="47.78593" lon="2.12665">
        <ele>120</ele>
        <time>2018-03-03T13:06:32.684Z</time>
      </trkpt>
      <trkpt lat="47.78593" lon="2.12665">
        <ele>120</ele>
        <time>2018-03-03T13:06:33.678Z</time>
      </trkpt>
      <trkpt lat="47.78585" lon="2.12661">
        <ele>120</ele>
        <time>2018-03-03T13:06:34.675Z</time>
      </trkpt>
      <trkpt lat="47.78585" lon="2.12661">
        <ele>120</ele>
        <time>2018-03-03T13:06:35.670Z</time>
      </trkpt>
      <trkpt lat="47.78577" lon="2.12656">
        <ele>120</ele>
        <time>2018-03-03T13:06:36.677Z</time>
      </trkpt>
      <trkpt lat="47.78577" lon="2.12656">
        <ele>120</ele>
        <time>2018-03-03T13:06:37.675Z</time>
      </trkpt>
      <trkpt lat="47.78569" lon="2.12652">
        <ele>120</ele>
        <time>2018-03-03T13:06:38.704Z</time>
      </trkpt>
      <trkpt lat="47.78569" lon="2.12652">
        <ele>120</ele>
        <time>2018-03-03T13:06:39.698Z</time>
      </trkpt>
      <trkpt lat="47.78562" lon="2.12647">
        <ele>120</ele>
        <time>2018-03-03T13:06:40.689Z</time>
      </trkpt>
      <trkpt lat="47.78562" lon="2.12647">
        <ele>120</ele>
        <time>2018-03-03T13:06:41.678Z</time>
      </trkpt>
      <trkpt lat="47.78554" lon="2.12643">
        <ele>121</ele>
        <time>2018-03-03T13:06:42.688Z</time>
      </trkpt>
      <trkpt lat="47.78554" lon="2.12643">
        <ele>121</ele>
        <time>2018-03-03T13:06:43.676Z</time>
      </trkpt>
      <trkpt lat="47.78546" lon="2.12638">
        <ele>121</ele>
        <time>2018-03-03T13:06:44.669Z</time>
      </trkpt>
      <trkpt lat="47.78546" lon="2.12638">
        <ele>121</ele>
        <time>2018-03-03T13:06:45.703Z</time>
      </trkpt>
      <trkpt lat="47.78538" lon="2.12633">
        <ele>121</ele>
        <time>2018-03-03T13:06:46.693Z</time>
      </trkpt>
      <trkpt lat="47.78538" lon="2.12633">
        <ele>121</ele>
        <time>2018-03-03T13:06:47.681Z</time>
      </trkpt>
      <trkpt lat="47.7853" lon="2.12628">
        <ele>121</ele>
        <time>2018-03-03T13:06:48.678Z</time>
      </trkpt>
      <trkpt lat="47.7853" lon="2.12628">
        <ele>121</ele>
        <time>2018-03-03T13:06:49.666Z</time>
      </trkpt>
      <trkpt lat="47.78521" lon="2.12623">
        <ele>121</ele>
        <time>2018-03-03T13:06:50.675Z</time>
      </trkpt>
      <trkpt lat="47.78517" lon="2.12621">
        <ele>121</ele>
        <time>2018-03-03T13:06:51.676Z</time>
      </trkpt>
      <trkpt lat="47.78517" lon="2.12621">
        <ele>121</ele>
        <time>2018-03-03T13:06:52.686Z</time>
      </trkpt>
      <trkpt lat="47.78509" lon="2.12615">
        <ele>121</ele>
        <time>2018-03-03T13:06:53.676Z</time>
      </trkpt>
      <trkpt lat="47.78505" lon="2.12613">
        <ele>121</ele>
        <time>2018-03-03T13:06:54.686Z</time>
      </trkpt>
      <trkpt lat="47.78505" lon="2.12613">
        <ele>121</ele>
        <time>2018-03-03T13:06:55.677Z</time>
      </trkpt>
      <trkpt lat="47.78496" lon="2.12608">
        <ele>121</ele>
        <time>2018-03-03T13:06:56.678Z</time>
      </trkpt>
      <trkpt lat="47.78496" lon="2.12608">
        <ele>121</ele>
        <time>2018-03-03T13:06:57.680Z</time>
      </trkpt>
      <trkpt lat="47.78489" lon="2.12604">
        <ele>121</ele>
        <time>2018-03-03T13:06:58.677Z</time>
      </trkpt>
      <trkpt lat="47.78485" lon="2.12601">
        <ele>121</ele>
        <time>2018-03-03T13:06:59.678Z</time>
      </trkpt>
      <trkpt lat="47.78485" lon="2.12601">
        <ele>121</ele>
        <time>2018-03-03T13:07:00.667Z</time>
      </trkpt>
      <trkpt lat="47.78477" lon="2.12597">
        <ele>122</ele>
        <time>2018-03-03T13:07:01.675Z</time>
      </trkpt>
      <trkpt lat="47.78477" lon="2.12597">
        <ele>122</ele>
        <time>2018-03-03T13:07:02.675Z</time>
      </trkpt>
      <trkpt lat="47.78469" lon="2.12592">
        <ele>122</ele>
        <time>2018-03-03T13:07:03.667Z</time>
      </trkpt>
      <trkpt lat="47.78465" lon="2.1259">
        <ele>122</ele>
        <time>2018-03-03T13:07:04.675Z</time>
      </trkpt>
      <trkpt lat="47.78462" lon="2.12588">
        <ele>122</ele>
        <time>2018-03-03T13:07:05.677Z</time>
      </trkpt>
      <trkpt lat="47.78462" lon="2.12588">
        <ele>122</ele>
        <time>2018-03-03T13:07:06.678Z</time>
      </trkpt>
      <trkpt lat="47.78454" lon="2.12583">
        <ele>122</ele>
        <time>2018-03-03T13:07:07.675Z</time>
      </trkpt>
      <trkpt lat="47.7845" lon="2.12581">
        <ele>122</ele>
        <time>2018-03-03T13:07:08.676Z</time>
      </trkpt>
      <trkpt lat="47.7845" lon="2.12581">
        <ele>122</ele>
        <time>2018-03-03T13:07:09.674Z</time>
      </trkpt>
      <trkpt lat="47.78442" lon="2.12576">
        <ele>122</ele>
        <time>2018-03-03T13:07:10.678Z</time>
      </trkpt>
      <trkpt lat="47.78442" lon="2.12576">
        <ele>122</ele>
        <time>2018-03-03T13:07:11.673Z</time>
      </trkpt>
      <trkpt lat="47.78434" lon="2.12572">
        <ele>122</ele>
        <time>2018-03-03T13:07:12.686Z</time>
      </trkpt>
      <trkpt lat="47.78434" lon="2.12572">
        <ele>122</ele>
        <time>2018-03-03T13:07:13.675Z</time>
      </trkpt>
      <trkpt lat="47.78427" lon="2.12567">
        <ele>122</ele>
        <time>2018-03-03T13:07:14.700Z</time>
      </trkpt>
      <trkpt lat="47.78427" lon="2.12567">
        <ele>122</ele>
        <time>2018-03-03T13:07:15.687Z</time>
      </trkpt>
      <trkpt lat="47.7842" lon="2.12563">
        <ele>123</ele>
        <time>2018-03-03T13:07:16.702Z</time>
      </trkpt>
      <trkpt lat="47.7842" lon="2.12563">
        <ele>123</ele>
        <time>2018-03-03T13:07:17.690Z</time>
      </trkpt>
      <trkpt lat="47.78412" lon="2.12558">
        <ele>123</ele>
        <time>2018-03-03T13:07:18.684Z</time>
      </trkpt>
      <trkpt lat="47.78408" lon="2.12555">
        <ele>123</ele>
        <time>2018-03-03T13:07:19.699Z</time>
      </trkpt>
      <trkpt lat="47.78408" lon="2.12555">
        <ele>123</ele>
        <time>2018-03-03T13:07:20.688Z</time>
      </trkpt>
      <trkpt lat="47.78405" lon="2.12545">
        <ele>124</ele>
        <time>2018-03-03T13:07:21.676Z</time>
      </trkpt>
      <trkpt lat="47.78405" lon="2.12539">
        <ele>124</ele>
        <time>2018-03-03T13:07:22.682Z</time>
      </trkpt>
      <trkpt lat="47.78406" lon="2.12534">
        <ele>124</ele>
        <time>2018-03-03T13:07:23.679Z</time>
      </trkpt>
      <trkpt lat="47.78406" lon="2.12534">
        <ele>124</ele>
        <time>2018-03-03T13:07:24.675Z</time>
      </trkpt>
      <trkpt lat="47.7841" lon="2.12522">
        <ele>124</ele>
        <time>2018-03-03T13:07:25.693Z</time>
      </trkpt>
      <trkpt lat="47.78411" lon="2.12516">
        <ele>124</ele>
        <time>2018-03-03T13:07:26.671Z</time>
      </trkpt>
      <trkpt lat="47.78411" lon="2.12516">
        <ele>124</ele>
        <time>2018-03-03T13:07:27.678Z</time>
      </trkpt>
      <trkpt lat="47.78415" lon="2.12504">
        <ele>124</ele>
        <time>2018-03-03T13:07:28.686Z</time>
      </trkpt>
      <trkpt lat="47.78417" lon="2.12497">
        <ele>124</ele>
        <time>2018-03-03T13:07:29.676Z</time>
      </trkpt>
      <trkpt lat="47.78418" lon="2.12491">
        <ele>124</ele>
        <time>2018-03-03T13:07:30.678Z</time>
      </trkpt>
      <trkpt lat="47.78418" lon="2.12491">
        <ele>124</ele>
        <time>2018-03-03T13:07:31.675Z</time>
      </trkpt>
      <trkpt lat="47.78422" lon="2.12478">
        <ele>124</ele>
        <time>2018-03-03T13:07:32.690Z</time>
      </trkpt>
      <trkpt lat="47.78424" lon="2.12471">
        <ele>124</ele>
        <time>2018-03-03T13:07:33.678Z</time>
      </trkpt>
      <trkpt lat="47.78424" lon="2.12471">
        <ele>124</ele>
        <time>2018-03-03T13:07:34.676Z</time>
      </trkpt>
      <trkpt lat="47.78427" lon="2.12457">
        <ele>124</ele>
        <time>2018-03-03T13:07:35.677Z</time>
      </trkpt>
      <trkpt lat="47.78427" lon="2.12457">
        <ele>124</ele>
        <time>2018-03-03T13:07:36.674Z</time>
      </trkpt>
      <trkpt lat="47.78431" lon="2.12444">
        <ele>124</ele>
        <time>2018-03-03T13:07:37.674Z</time>
      </trkpt>
      <trkpt lat="47.78433" lon="2.12437">
        <ele>124</ele>
        <time>2018-03-03T13:07:38.679Z</time>
      </trkpt>
      <trkpt lat="47.78435" lon="2.1243">
        <ele>124</ele>
        <time>2018-03-03T13:07:39.677Z</time>
      </trkpt>
      <trkpt lat="47.78435" lon="2.1243">
        <ele>124</ele>
        <time>2018-03-03T13:07:40.675Z</time>
      </trkpt>
      <trkpt lat="47.78438" lon="2.12416">
        <ele>125</ele>
        <time>2018-03-03T13:07:41.675Z</time>
      </trkpt>
      <trkpt lat="47.7844" lon="2.12409">
        <ele>125</ele>
        <time>2018-03-03T13:07:42.684Z</time>
      </trkpt>
      <trkpt lat="47.7844" lon="2.12409">
        <ele>125</ele>
        <time>2018-03-03T13:07:43.675Z</time>
      </trkpt>
      <trkpt lat="47.78444" lon="2.12395">
        <ele>125</ele>
        <time>2018-03-03T13:07:44.675Z</time>
      </trkpt>
      <trkpt lat="47.78446" lon="2.12387">
        <ele>125</ele>
        <time>2018-03-03T13:07:45.676Z</time>
      </trkpt>
      <trkpt lat="47.78446" lon="2.12387">
        <ele>125</ele>
        <time>2018-03-03T13:07:46.674Z</time>
      </trkpt>
      <trkpt lat="47.78449" lon="2.12373">
        <ele>125</ele>
        <time>2018-03-03T13:07:47.674Z</time>
      </trkpt>
      <trkpt lat="47.78449" lon="2.12373">
        <ele>125</ele>
        <time>2018-03-03T13:07:48.666Z</time>
      </trkpt>
      <trkpt lat="47.78453" lon="2.12359">
        <ele>126</ele>
        <time>2018-03-03T13:07:49.669Z</time>
      </trkpt>
      <trkpt lat="47.78453" lon="2.12359">
        <ele>126</ele>
        <time>2018-03-03T13:07:50.675Z</time>
      </trkpt>
      <trkpt lat="47.78457" lon="2.12345">
        <ele>126</ele>
        <time>2018-03-03T13:07:51.676Z</time>
      </trkpt>
      <trkpt lat="47.78459" lon="2.12338">
        <ele>126</ele>
        <time>2018-03-03T13:07:52.689Z</time>
      </trkpt>
      <trkpt lat="47.78459" lon="2.12338">
        <ele>126</ele>
        <time>2018-03-03T13:07:53.681Z</time>
      </trkpt>
      <trkpt lat="47.78463" lon="2.12323">
        <ele>126</ele>
        <time>2018-03-03T13:07:54.681Z</time>
      </trkpt>
      <trkpt lat="47.78465" lon="2.12316">
        <ele>126</ele>
        <time>2018-03-03T13:07:55.678Z</time>
      </trkpt>
      <trkpt lat="47.78465" lon="2.12316">
        <ele>126</ele>
        <time>2018-03-03T13:07:56.704Z</time>
      </trkpt>
      <trkpt lat="47.78469" lon="2.12302">
        <ele>125</ele>
        <time>2018-03-03T13:07:57.697Z</time>
      </trkpt>
      <trkpt lat="47.78471" lon="2.12295">
        <ele>125</ele>
        <time>2018-03-03T13:07:58.689Z</time>
      </trkpt>
      <trkpt lat="47.78473" lon="2.12288">
        <ele>126</ele>
        <time>2018-03-03T13:07:59.681Z</time>
      </trkpt>
      <trkpt lat="47.78473" lon="2.12288">
        <ele>126</ele>
        <time>2018-03-03T13:08:00.674Z</time>
      </trkpt>
      <trkpt lat="47.78478" lon="2.12275">
        <ele>126</ele>
        <time>2018-03-03T13:08:01.677Z</time>
      </trkpt>
      <trkpt lat="47.78478" lon="2.12275">
        <ele>126</ele>
        <time>2018-03-03T13:08:02.675Z</time>
      </trkpt>
      <trkpt lat="47.78483" lon="2.12263">
        <ele>126</ele>
        <time>2018-03-03T13:08:03.690Z</time>
      </trkpt>
      <trkpt lat="47.78483" lon="2.12263">
        <ele>126</ele>
        <time>2018-03-03T13:08:04.678Z</time>
      </trkpt>
      <trkpt lat="47.78487" lon="2.1225">
        <ele>127</ele>
        <time>2018-03-03T13:08:05.678Z</time>
      </trkpt>
      <trkpt lat="47.78487" lon="2.1225">
        <ele>127</ele>
        <time>2018-03-03T13:08:06.691Z</time>
      </trkpt>
      <trkpt lat="47.78492" lon="2.12236">
        <ele>127</ele>
        <time>2018-03-03T13:08:07.680Z</time>
      </trkpt>
      <trkpt lat="47.78492" lon="2.12236">
        <ele>127</ele>
        <time>2018-03-03T13:08:08.683Z</time>
      </trkpt>
      <trkpt lat="47.78496" lon="2.12221">
        <ele>128</ele>
        <time>2018-03-03T13:08:09.679Z</time>
      </trkpt>
      <trkpt lat="47.78496" lon="2.12221">
        <ele>128</ele>
        <time>2018-03-03T13:08:10.675Z</time>
      </trkpt>
      <trkpt lat="47.785" lon="2.12206">
        <ele>128</ele>
        <time>2018-03-03T13:08:11.675Z</time>
      </trkpt>
      <trkpt lat="47.78502" lon="2.12199">
        <ele>128</ele>
        <time>2018-03-03T13:08:12.674Z</time>
      </trkpt>
      <trkpt lat="47.78502" lon="2.12199">
        <ele>128</ele>
        <time>2018-03-03T13:08:13.666Z</time>
      </trkpt>
      <trkpt lat="47.78507" lon="2.12184">
        <ele>127</ele>
        <time>2018-03-03T13:08:14.679Z</time>
      </trkpt>
      <trkpt lat="47.78508" lon="2.12177">
        <ele>128</ele>
        <time>2018-03-03T13:08:15.676Z</time>
      </trkpt>
      <trkpt lat="47.78508" lon="2.12177">
        <ele>128</ele>
        <time>2018-03-03T13:08:16.668Z</time>
      </trkpt>
      <trkpt lat="47.78513" lon="2.12162">
        <ele>128</ele>
        <time>2018-03-03T13:08:17.690Z</time>
      </trkpt>
      <trkpt lat="47.78513" lon="2.12162">
        <ele>128</ele>
        <time>2018-03-03T13:08:18.679Z</time>
      </trkpt>
      <trkpt lat="47.78517" lon="2.12148">
        <ele>128</ele>
        <time>2018-03-03T13:08:19.676Z</time>
      </trkpt>
      <trkpt lat="47.78519" lon="2.12141">
        <ele>129</ele>
        <time>2018-03-03T13:08:20.675Z</time>
      </trkpt>
      <trkpt lat="47.78521" lon="2.12134">
        <ele>129</ele>
        <time>2018-03-03T13:08:21.678Z</time>
      </trkpt>
      <trkpt lat="47.78521" lon="2.12134">
        <ele>129</ele>
        <time>2018-03-03T13:08:22.688Z</time>
      </trkpt>
      <trkpt lat="47.78526" lon="2.1212">
        <ele>129</ele>
        <time>2018-03-03T13:08:23.676Z</time>
      </trkpt>
      <trkpt lat="47.78526" lon="2.1212">
        <ele>129</ele>
        <time>2018-03-03T13:08:24.670Z</time>
      </trkpt>
      <trkpt lat="47.7853" lon="2.12106">
        <ele>129</ele>
        <time>2018-03-03T13:08:25.679Z</time>
      </trkpt>
      <trkpt lat="47.7853" lon="2.12106">
        <ele>129</ele>
        <time>2018-03-03T13:08:26.674Z</time>
      </trkpt>
      <trkpt lat="47.78534" lon="2.12092">
        <ele>129</ele>
        <time>2018-03-03T13:08:27.667Z</time>
      </trkpt>
      <trkpt lat="47.78537" lon="2.12085">
        <ele>128</ele>
        <time>2018-03-03T13:08:28.668Z</time>
      </trkpt>
      <trkpt lat="47.78539" lon="2.12078">
        <ele>128</ele>
        <time>2018-03-03T13:08:29.678Z</time>
      </trkpt>
      <trkpt lat="47.78539" lon="2.12078">
        <ele>128</ele>
        <time>2018-03-03T13:08:30.677Z</time>
      </trkpt>
      <trkpt lat="47.78543" lon="2.12063">
        <ele>129</ele>
        <time>2018-03-03T13:08:31.677Z</time>
      </trkpt>
      <trkpt lat="47.78545" lon="2.12056">
        <ele>129</ele>
        <time>2018-03-03T13:08:32.674Z</time>
      </trkpt>
      <trkpt lat="47.78548" lon="2.12048">
        <ele>129</ele>
        <time>2018-03-03T13:08:33.678Z</time>
      </trkpt>
      <trkpt lat="47.78548" lon="2.12048">
        <ele>129</ele>
        <time>2018-03-03T13:08:34.667Z</time>
      </trkpt>
      <trkpt lat="47.78552" lon="2.12033">
        <ele>129</ele>
        <time>2018-03-03T13:08:35.677Z</time>
      </trkpt>
      <trkpt lat="47.78552" lon="2.12033">
        <ele>129</ele>
        <time>2018-03-03T13:08:36.676Z</time>
      </trkpt>
      <trkpt lat="47.78557" lon="2.12018">
        <ele>128</ele>
        <time>2018-03-03T13:08:37.675Z</time>
      </trkpt>
      <trkpt lat="47.78559" lon="2.1201">
        <ele>128</ele>
        <time>2018-03-03T13:08:38.678Z</time>
      </trkpt>
      <trkpt lat="47.78559" lon="2.1201">
        <ele>128</ele>
        <time>2018-03-03T13:08:39.669Z</time>
      </trkpt>
      <trkpt lat="47.78563" lon="2.11995">
        <ele>128</ele>
        <time>2018-03-03T13:08:40.675Z</time>
      </trkpt>
      <trkpt lat="47.78566" lon="2.11987">
        <ele>128</ele>
        <time>2018-03-03T13:08:41.688Z</time>
      </trkpt>
      <trkpt lat="47.78566" lon="2.11987">
        <ele>128</ele>
        <time>2018-03-03T13:08:42.689Z</time>
      </trkpt>
      <trkpt lat="47.7857" lon="2.11972">
        <ele>128</ele>
        <time>2018-03-03T13:08:43.676Z</time>
      </trkpt>
      <trkpt lat="47.78573" lon="2.11965">
        <ele>128</ele>
        <time>2018-03-03T13:08:44.678Z</time>
      </trkpt>
      <trkpt lat="47.78573" lon="2.11965">
        <ele>128</ele>
        <time>2018-03-03T13:08:45.667Z</time>
      </trkpt>
      <trkpt lat="47.78577" lon="2.1195">
        <ele>128</ele>
        <time>2018-03-03T13:08:46.692Z</time>
      </trkpt>
      <trkpt lat="47.78577" lon="2.1195">
        <ele>128</ele>
        <time>2018-03-03T13:08:47.680Z</time>
      </trkpt>
      <trkpt lat="47.78582" lon="2.11935">
        <ele>128</ele>
        <time>2018-03-03T13:08:48.670Z</time>
      </trkpt>
      <trkpt lat="47.78585" lon="2.11927">
        <ele>128</ele>
        <time>2018-03-03T13:08:49.677Z</time>
      </trkpt>
      <trkpt lat="47.78585" lon="2.11927">
        <ele>128</ele>
        <time>2018-03-03T13:08:50.670Z</time>
      </trkpt>
      <trkpt lat="47.7859" lon="2.11913">
        <ele>128</ele>
        <time>2018-03-03T13:08:51.678Z</time>
      </trkpt>
      <trkpt lat="47.7859" lon="2.11913">
        <ele>128</ele>
        <time>2018-03-03T13:08:52.688Z</time>
      </trkpt>
      <trkpt lat="47.78595" lon="2.11898">
        <ele>128</ele>
        <time>2018-03-03T13:08:53.677Z</time>
      </trkpt>
      <trkpt lat="47.78595" lon="2.11898">
        <ele>128</ele>
        <time>2018-03-03T13:08:54.681Z</time>
      </trkpt>
      <trkpt lat="47.78601" lon="2.11884">
        <ele>128</ele>
        <time>2018-03-03T13:08:55.679Z</time>
      </trkpt>
      <trkpt lat="47.78601" lon="2.11884">
        <ele>128</ele>
        <time>2018-03-03T13:08:56.675Z</time>
      </trkpt>
      <trkpt lat="47.78607" lon="2.1187">
        <ele>128</ele>
        <time>2018-03-03T13:08:57.678Z</time>
      </trkpt>
      <trkpt lat="47.78607" lon="2.1187">
        <ele>128</ele>
        <time>2018-03-03T13:08:58.675Z</time>
      </trkpt>
      <trkpt lat="47.78613" lon="2.11856">
        <ele>127</ele>
        <time>2018-03-03T13:08:59.683Z</time>
      </trkpt>
      <trkpt lat="47.78616" lon="2.11849">
        <ele>127</ele>
        <time>2018-03-03T13:09:00.677Z</time>
      </trkpt>
      <trkpt lat="47.78616" lon="2.11849">
        <ele>127</ele>
        <time>2018-03-03T13:09:01.675Z</time>
      </trkpt>
      <trkpt lat="47.78623" lon="2.11835">
        <ele>128</ele>
        <time>2018-03-03T13:09:02.689Z</time>
      </trkpt>
      <trkpt lat="47.78623" lon="2.11835">
        <ele>128</ele>
        <time>2018-03-03T13:09:03.677Z</time>
      </trkpt>
      <trkpt lat="47.78629" lon="2.1182">
        <ele>128</ele>
        <time>2018-03-03T13:09:04.667Z</time>
      </trkpt>
      <trkpt lat="47.78632" lon="2.11813">
        <ele>128</ele>
        <time>2018-03-03T13:09:05.682Z</time>
      </trkpt>
      <trkpt lat="47.78636" lon="2.11806">
        <ele>128</ele>
        <time>2018-03-03T13:09:06.680Z</time>
      </trkpt>
      <trkpt lat="47.78636" lon="2.11806">
        <ele>128</ele>
        <time>2018-03-03T13:09:07.675Z</time>
      </trkpt>
      <trkpt lat="47.78642" lon="2.11792">
        <ele>128</ele>
        <time>2018-03-03T13:09:08.675Z</time>
      </trkpt>
      <trkpt lat="47.78645" lon="2.11786">
        <ele>127</ele>
        <time>2018-03-03T13:09:09.679Z</time>
      </trkpt>
      <trkpt lat="47.78648" lon="2.11779">
        <ele>127</ele>
        <time>2018-03-03T13:09:10.684Z</time>
      </trkpt>
      <trkpt lat="47.78648" lon="2.11779">
        <ele>127</ele>
        <time>2018-03-03T13:09:11.675Z</time>
      </trkpt>
      <trkpt lat="47.78655" lon="2.11765">
        <ele>127</ele>
        <time>2018-03-03T13:09:12.675Z</time>
      </trkpt>
      <trkpt lat="47.78657" lon="2.11758">
        <ele>127</ele>
        <time>2018-03-03T13:09:13.677Z</time>
      </trkpt>
      <trkpt lat="47.78657" lon="2.11758">
        <ele>127</ele>
        <time>2018-03-03T13:09:14.675Z</time>
      </trkpt>
      <trkpt lat="47.78663" lon="2.11745">
        <ele>127</ele>
        <time>2018-03-03T13:09:15.676Z</time>
      </trkpt>
      <trkpt lat="47.78663" lon="2.11745">
        <ele>127</ele>
        <time>2018-03-03T13:09:16.674Z</time>
      </trkpt>
      <trkpt lat="47.78669" lon="2.11731">
        <ele>127</ele>
        <time>2018-03-03T13:09:17.693Z</time>
      </trkpt>
      <trkpt lat="47.78669" lon="2.11731">
        <ele>127</ele>
        <time>2018-03-03T13:09:18.683Z</time>
      </trkpt>
      <trkpt lat="47.78675" lon="2.11717">
        <ele>127</ele>
        <time>2018-03-03T13:09:19.677Z</time>
      </trkpt>
      <trkpt lat="47.78675" lon="2.11717">
        <ele>127</ele>
        <time>2018-03-03T13:09:20.666Z</time>
      </trkpt>
      <trkpt lat="47.78681" lon="2.11704">
        <ele>127</ele>
        <time>2018-03-03T13:09:21.676Z</time>
      </trkpt>
      <trkpt lat="47.78684" lon="2.11697">
        <ele>127</ele>
        <time>2018-03-03T13:09:22.682Z</time>
      </trkpt>
      <trkpt lat="47.78684" lon="2.11697">
        <ele>127</ele>
        <time>2018-03-03T13:09:23.676Z</time>
      </trkpt>
      <trkpt lat="47.7869" lon="2.11683">
        <ele>127</ele>
        <time>2018-03-03T13:09:24.678Z</time>
      </trkpt>
      <trkpt lat="47.78693" lon="2.11677">
        <ele>127</ele>
        <time>2018-03-03T13:09:25.677Z</time>
      </trkpt>
      <trkpt lat="47.78693" lon="2.11677">
        <ele>127</ele>
        <time>2018-03-03T13:09:26.667Z</time>
      </trkpt>
      <trkpt lat="47.787" lon="2.11663">
        <ele>127</ele>
        <time>2018-03-03T13:09:27.688Z</time>
      </trkpt>
      <trkpt lat="47.78703" lon="2.11656">
        <ele>127</ele>
        <time>2018-03-03T13:09:28.678Z</time>
      </trkpt>
      <trkpt lat="47.78703" lon="2.11656">
        <ele>127</ele>
        <time>2018-03-03T13:09:29.670Z</time>
      </trkpt>
      <trkpt lat="47.78709" lon="2.11642">
        <ele>127</ele>
        <time>2018-03-03T13:09:30.678Z</time>
      </trkpt>
      <trkpt lat="47.78709" lon="2.11642">
        <ele>127</ele>
        <time>2018-03-03T13:09:31.675Z</time>
      </trkpt>
      <trkpt lat="47.78715" lon="2.11628">
        <ele>127</ele>
        <time>2018-03-03T13:09:32.690Z</time>
      </trkpt>
      <trkpt lat="47.78715" lon="2.11628">
        <ele>127</ele>
        <time>2018-03-03T13:09:33.676Z</time>
      </trkpt>
      <trkpt lat="47.78722" lon="2.11615">
        <ele>127</ele>
        <time>2018-03-03T13:09:34.680Z</time>
      </trkpt>
      <trkpt lat="47.78722" lon="2.11615">
        <ele>127</ele>
        <time>2018-03-03T13:09:35.675Z</time>
      </trkpt>
      <trkpt lat="47.78728" lon="2.11601">
        <ele>127</ele>
        <time>2018-03-03T13:09:36.678Z</time>
      </trkpt>
      <trkpt lat="47.78728" lon="2.11601">
        <ele>127</ele>
        <time>2018-03-03T13:09:37.676Z</time>
      </trkpt>
      <trkpt lat="47.78734" lon="2.11587">
        <ele>127</ele>
        <time>2018-03-03T13:09:38.677Z</time>
      </trkpt>
      <trkpt lat="47.78737" lon="2.11581">
        <ele>127</ele>
        <time>2018-03-03T13:09:39.677Z</time>
      </trkpt>
      <trkpt lat="47.78737" lon="2.11581">
        <ele>127</ele>
        <time>2018-03-03T13:09:40.679Z</time>
      </trkpt>
      <trkpt lat="47.78743" lon="2.11567">
        <ele>127</ele>
        <time>2018-03-03T13:09:41.675Z</time>
      </trkpt>
      <trkpt lat="47.78743" lon="2.11567">
        <ele>127</ele>
        <time>2018-03-03T13:09:42.675Z</time>
      </trkpt>
      <trkpt lat="47.78749" lon="2.11554">
        <ele>127</ele>
        <time>2018-03-03T13:09:43.680Z</time>
      </trkpt>
      <trkpt lat="47.78749" lon="2.11554">
        <ele>127</ele>
        <time>2018-03-03T13:09:44.669Z</time>
      </trkpt>
      <trkpt lat="47.78755" lon="2.11541">
        <ele>127</ele>
        <time>2018-03-03T13:09:45.679Z</time>
      </trkpt>
      <trkpt lat="47.78755" lon="2.11541">
        <ele>127</ele>
        <time>2018-03-03T13:09:46.683Z</time>
      </trkpt>
      <trkpt lat="47.78762" lon="2.11528">
        <ele>127</ele>
        <time>2018-03-03T13:09:47.676Z</time>
      </trkpt>
      <trkpt lat="47.78766" lon="2.11522">
        <ele>127</ele>
        <time>2018-03-03T13:09:48.679Z</time>
      </trkpt>
      <trkpt lat="47.78766" lon="2.11522">
        <ele>127</ele>
        <time>2018-03-03T13:09:49.676Z</time>
      </trkpt>
      <trkpt lat="47.78774" lon="2.11512">
        <ele>126</ele>
        <time>2018-03-03T13:09:50.678Z</time>
      </trkpt>
      <trkpt lat="47.78779" lon="2.11508">
        <ele>126</ele>
        <time>2018-03-03T13:09:51.679Z</time>
      </trkpt>
      <trkpt lat="47.78779" lon="2.11508">
        <ele>126</ele>
        <time>2018-03-03T13:09:52.667Z</time>
      </trkpt>
      <trkpt lat="47.78789" lon="2.11501">
        <ele>126</ele>
        <time>2018-03-03T13:09:53.677Z</time>
      </trkpt>
      <trkpt lat="47.78795" lon="2.11498">
        <ele>126</ele>
        <time>2018-03-03T13:09:54.678Z</time>
      </trkpt>
      <trkpt lat="47.788" lon="2.11496">
        <ele>126</ele>
        <time>2018-03-03T13:09:55.676Z</time>
      </trkpt>
      <trkpt lat="47.788" lon="2.11496">
        <ele>126</ele>
        <time>2018-03-03T13:09:56.704Z</time>
      </trkpt>
      <trkpt lat="47.78812" lon="2.11492">
        <ele>126</ele>
        <time>2018-03-03T13:09:57.693Z</time>
      </trkpt>
      <trkpt lat="47.78812" lon="2.11492">
        <ele>126</ele>
        <time>2018-03-03T13:09:58.693Z</time>
      </trkpt>
      <trkpt lat="47.78824" lon="2.11489">
        <ele>125</ele>
        <time>2018-03-03T13:09:59.683Z</time>
      </trkpt>
      <trkpt lat="47.7883" lon="2.11487">
        <ele>125</ele>
        <time>2018-03-03T13:10:00.676Z</time>
      </trkpt>
      <trkpt lat="47.78836" lon="2.11485">
        <ele>125</ele>
        <time>2018-03-03T13:10:01.676Z</time>
      </trkpt>
      <trkpt lat="47.78836" lon="2.11485">
        <ele>125</ele>
        <time>2018-03-03T13:10:02.702Z</time>
      </trkpt>
      <trkpt lat="47.78848" lon="2.11481">
        <ele>125</ele>
        <time>2018-03-03T13:10:03.690Z</time>
      </trkpt>
      <trkpt lat="47.78848" lon="2.11481">
        <ele>125</ele>
        <time>2018-03-03T13:10:04.697Z</time>
      </trkpt>
      <trkpt lat="47.78859" lon="2.11478">
        <ele>124</ele>
        <time>2018-03-03T13:10:05.685Z</time>
      </trkpt>
      <trkpt lat="47.78859" lon="2.11478">
        <ele>124</ele>
        <time>2018-03-03T13:10:06.676Z</time>
      </trkpt>
      <trkpt lat="47.78871" lon="2.11474">
        <ele>124</ele>
        <time>2018-03-03T13:10:07.678Z</time>
      </trkpt>
      <trkpt lat="47.78871" lon="2.11474">
        <ele>124</ele>
        <time>2018-03-03T13:10:08.700Z</time>
      </trkpt>
      <trkpt lat="47.78882" lon="2.1147">
        <ele>124</ele>
        <time>2018-03-03T13:10:09.691Z</time>
      </trkpt>
      <trkpt lat="47.78882" lon="2.1147">
        <ele>124</ele>
        <time>2018-03-03T13:10:10.686Z</time>
      </trkpt>
      <trkpt lat="47.78894" lon="2.11467">
        <ele>123</ele>
        <time>2018-03-03T13:10:11.677Z</time>
      </trkpt>
      <trkpt lat="47.78894" lon="2.11467">
        <ele>123</ele>
        <time>2018-03-03T13:10:12.695Z</time>
      </trkpt>
      <trkpt lat="47.78906" lon="2.11463">
        <ele>123</ele>
        <time>2018-03-03T13:10:13.703Z</time>
      </trkpt>
      <trkpt lat="47.78906" lon="2.11463">
        <ele>123</ele>
        <time>2018-03-03T13:10:14.669Z</time>
      </trkpt>
      <trkpt lat="47.78918" lon="2.11459">
        <ele>123</ele>
        <time>2018-03-03T13:10:15.668Z</time>
      </trkpt>
      <trkpt lat="47.78925" lon="2.11457">
        <ele>122</ele>
        <time>2018-03-03T13:10:16.678Z</time>
      </trkpt>
      <trkpt lat="47.78925" lon="2.11457">
        <ele>122</ele>
        <time>2018-03-03T13:10:17.692Z</time>
      </trkpt>
      <trkpt lat="47.78937" lon="2.11454">
        <ele>122</ele>
        <time>2018-03-03T13:10:18.691Z</time>
      </trkpt>
      <trkpt lat="47.78944" lon="2.11452">
        <ele>122</ele>
        <time>2018-03-03T13:10:19.683Z</time>
      </trkpt>
      <trkpt lat="47.78944" lon="2.11452">
        <ele>122</ele>
        <time>2018-03-03T13:10:20.675Z</time>
      </trkpt>
      <trkpt lat="47.78956" lon="2.11449">
        <ele>122</ele>
        <time>2018-03-03T13:10:21.676Z</time>
      </trkpt>
      <trkpt lat="47.78962" lon="2.11447">
        <ele>122</ele>
        <time>2018-03-03T13:10:22.684Z</time>
      </trkpt>
      <trkpt lat="47.78962" lon="2.11447">
        <ele>122</ele>
        <time>2018-03-03T13:10:23.675Z</time>
      </trkpt>
      <trkpt lat="47.78974" lon="2.11443">
        <ele>122</ele>
        <time>2018-03-03T13:10:24.670Z</time>
      </trkpt>
      <trkpt lat="47.7898" lon="2.11441">
        <ele>122</ele>
        <time>2018-03-03T13:10:25.680Z</time>
      </trkpt>
      <trkpt lat="47.7898" lon="2.11441">
        <ele>122</ele>
        <time>2018-03-03T13:10:26.672Z</time>
      </trkpt>
      <trkpt lat="47.78992" lon="2.11436">
        <ele>122</ele>
        <time>2018-03-03T13:10:27.677Z</time>
      </trkpt>
      <trkpt lat="47.78998" lon="2.11432">
        <ele>122</ele>
        <time>2018-03-03T13:10:28.671Z</time>
      </trkpt>
      <trkpt lat="47.78998" lon="2.11432">
        <ele>122</ele>
        <time>2018-03-03T13:10:29.675Z</time>
      </trkpt>
      <trkpt lat="47.79008" lon="2.11424">
        <ele>121</ele>
        <time>2018-03-03T13:10:30.676Z</time>
      </trkpt>
      <trkpt lat="47.79008" lon="2.11424">
        <ele>121</ele>
        <time>2018-03-03T13:10:31.676Z</time>
      </trkpt>
      <trkpt lat="47.79019" lon="2.11416">
        <ele>121</ele>
        <time>2018-03-03T13:10:32.690Z</time>
      </trkpt>
      <trkpt lat="47.79024" lon="2.11411">
        <ele>122</ele>
        <time>2018-03-03T13:10:33.679Z</time>
      </trkpt>
      <trkpt lat="47.79024" lon="2.11411">
        <ele>122</ele>
        <time>2018-03-03T13:10:34.675Z</time>
      </trkpt>
      <trkpt lat="47.79035" lon="2.11403">
        <ele>122</ele>
        <time>2018-03-03T13:10:35.671Z</time>
      </trkpt>
      <trkpt lat="47.7904" lon="2.11398">
        <ele>122</ele>
        <time>2018-03-03T13:10:36.677Z</time>
      </trkpt>
      <trkpt lat="47.7904" lon="2.11398">
        <ele>122</ele>
        <time>2018-03-03T13:10:37.670Z</time>
      </trkpt>
      <trkpt lat="47.7905" lon="2.11388">
        <ele>123</ele>
        <time>2018-03-03T13:10:38.677Z</time>
      </trkpt>
      <trkpt lat="47.79055" lon="2.11383">
        <ele>123</ele>
        <time>2018-03-03T13:10:39.676Z</time>
      </trkpt>
      <trkpt lat="47.7906" lon="2.11379">
        <ele>123</ele>
        <time>2018-03-03T13:10:40.680Z</time>
      </trkpt>
      <trkpt lat="47.7906" lon="2.11379">
        <ele>123</ele>
        <time>2018-03-03T13:10:41.675Z</time>
      </trkpt>
      <trkpt lat="47.79071" lon="2.1137">
        <ele>123</ele>
        <time>2018-03-03T13:10:42.675Z</time>
      </trkpt>
      <trkpt lat="47.79071" lon="2.1137">
        <ele>123</ele>
        <time>2018-03-03T13:10:43.681Z</time>
      </trkpt>
      <trkpt lat="47.79082" lon="2.11361">
        <ele>123</ele>
        <time>2018-03-03T13:10:44.675Z</time>
      </trkpt>
      <trkpt lat="47.79088" lon="2.11356">
        <ele>123</ele>
        <time>2018-03-03T13:10:45.676Z</time>
      </trkpt>
      <trkpt lat="47.79088" lon="2.11356">
        <ele>123</ele>
        <time>2018-03-03T13:10:46.670Z</time>
      </trkpt>
      <trkpt lat="47.79098" lon="2.11347">
        <ele>123</ele>
        <time>2018-03-03T13:10:47.676Z</time>
      </trkpt>
      <trkpt lat="47.79098" lon="2.11347">
        <ele>123</ele>
        <time>2018-03-03T13:10:48.675Z</time>
      </trkpt>
      <trkpt lat="47.79109" lon="2.11338">
        <ele>123</ele>
        <time>2018-03-03T13:10:49.695Z</time>
      </trkpt>
      <trkpt lat="47.79109" lon="2.11338">
        <ele>123</ele>
        <time>2018-03-03T13:10:50.684Z</time>
      </trkpt>
      <trkpt lat="47.79119" lon="2.1133">
        <ele>123</ele>
        <time>2018-03-03T13:10:51.679Z</time>
      </trkpt>
      <trkpt lat="47.79119" lon="2.1133">
        <ele>123</ele>
        <time>2018-03-03T13:10:52.669Z</time>
      </trkpt>
      <trkpt lat="47.79129" lon="2.11322">
        <ele>123</ele>
        <time>2018-03-03T13:10:53.670Z</time>
      </trkpt>
      <trkpt lat="47.79129" lon="2.11322">
        <ele>123</ele>
        <time>2018-03-03T13:10:54.676Z</time>
      </trkpt>
      <trkpt lat="47.79139" lon="2.11315">
        <ele>123</ele>
        <time>2018-03-03T13:10:55.678Z</time>
      </trkpt>
      <trkpt lat="47.79139" lon="2.11315">
        <ele>123</ele>
        <time>2018-03-03T13:10:56.670Z</time>
      </trkpt>
      <trkpt lat="47.79149" lon="2.11308">
        <ele>123</ele>
        <time>2018-03-03T13:10:57.678Z</time>
      </trkpt>
      <trkpt lat="47.79149" lon="2.11308">
        <ele>123</ele>
        <time>2018-03-03T13:10:58.686Z</time>
      </trkpt>
      <trkpt lat="47.79158" lon="2.11302">
        <ele>123</ele>
        <time>2018-03-03T13:10:59.684Z</time>
      </trkpt>
      <trkpt lat="47.79158" lon="2.11302">
        <ele>123</ele>
        <time>2018-03-03T13:11:00.675Z</time>
      </trkpt>
      <trkpt lat="47.79168" lon="2.11302">
        <ele>123</ele>
        <time>2018-03-03T13:11:01.677Z</time>
      </trkpt>
      <trkpt lat="47.79168" lon="2.11302">
        <ele>123</ele>
        <time>2018-03-03T13:11:02.686Z</time>
      </trkpt>
      <trkpt lat="47.79174" lon="2.11314">
        <ele>123</ele>
        <time>2018-03-03T13:11:03.679Z</time>
      </trkpt>
      <trkpt lat="47.79174" lon="2.11314">
        <ele>123</ele>
        <time>2018-03-03T13:11:04.678Z</time>
      </trkpt>
      <trkpt lat="47.79178" lon="2.11331">
        <ele>123</ele>
        <time>2018-03-03T13:11:05.678Z</time>
      </trkpt>
      <trkpt lat="47.79178" lon="2.11331">
        <ele>123</ele>
        <time>2018-03-03T13:11:06.670Z</time>
      </trkpt>
      <trkpt lat="47.79184" lon="2.1135">
        <ele>123</ele>
        <time>2018-03-03T13:11:07.680Z</time>
      </trkpt>
      <trkpt lat="47.79184" lon="2.1135">
        <ele>123</ele>
        <time>2018-03-03T13:11:08.675Z</time>
      </trkpt>
      <trkpt lat="47.7919" lon="2.11369">
        <ele>122</ele>
        <time>2018-03-03T13:11:09.676Z</time>
      </trkpt>
      <trkpt lat="47.79193" lon="2.11379">
        <ele>122</ele>
        <time>2018-03-03T13:11:10.675Z</time>
      </trkpt>
      <trkpt lat="47.79197" lon="2.11389">
        <ele>121</ele>
        <time>2018-03-03T13:11:11.678Z</time>
      </trkpt>
      <trkpt lat="47.79197" lon="2.11389">
        <ele>121</ele>
        <time>2018-03-03T13:11:12.670Z</time>
      </trkpt>
      <trkpt lat="47.79205" lon="2.11411">
        <ele>121</ele>
        <time>2018-03-03T13:11:13.695Z</time>
      </trkpt>
      <trkpt lat="47.79205" lon="2.11411">
        <ele>121</ele>
        <time>2018-03-03T13:11:14.683Z</time>
      </trkpt>
      <trkpt lat="47.79213" lon="2.11433">
        <ele>120</ele>
        <time>2018-03-03T13:11:15.676Z</time>
      </trkpt>
      <trkpt lat="47.79217" lon="2.11445">
        <ele>120</ele>
        <time>2018-03-03T13:11:16.676Z</time>
      </trkpt>
      <trkpt lat="47.79217" lon="2.11445">
        <ele>120</ele>
        <time>2018-03-03T13:11:17.700Z</time>
      </trkpt>
      <trkpt lat="47.79225" lon="2.11468">
        <ele>119</ele>
        <time>2018-03-03T13:11:18.682Z</time>
      </trkpt>
      <trkpt lat="47.79225" lon="2.11468">
        <ele>119</ele>
        <time>2018-03-03T13:11:19.672Z</time>
      </trkpt>
      <trkpt lat="47.79234" lon="2.11492">
        <ele>119</ele>
        <time>2018-03-03T13:11:20.678Z</time>
      </trkpt>
      <trkpt lat="47.79234" lon="2.11492">
        <ele>119</ele>
        <time>2018-03-03T13:11:21.667Z</time>
      </trkpt>
      <trkpt lat="47.79242" lon="2.11515">
        <ele>118</ele>
        <time>2018-03-03T13:11:22.682Z</time>
      </trkpt>
      <trkpt lat="47.79242" lon="2.11515">
        <ele>118</ele>
        <time>2018-03-03T13:11:23.679Z</time>
      </trkpt>
      <trkpt lat="47.79251" lon="2.11537">
        <ele>118</ele>
        <time>2018-03-03T13:11:24.675Z</time>
      </trkpt>
      <trkpt lat="47.79255" lon="2.11547">
        <ele>118</ele>
        <time>2018-03-03T13:11:25.677Z</time>
      </trkpt>
      <trkpt lat="47.79255" lon="2.11547">
        <ele>118</ele>
        <time>2018-03-03T13:11:26.675Z</time>
      </trkpt>
      <trkpt lat="47.79262" lon="2.1157">
        <ele>117</ele>
        <time>2018-03-03T13:11:27.670Z</time>
      </trkpt>
      <trkpt lat="47.79266" lon="2.11581">
        <ele>117</ele>
        <time>2018-03-03T13:11:28.679Z</time>
      </trkpt>
      <trkpt lat="47.79266" lon="2.11581">
        <ele>117</ele>
        <time>2018-03-03T13:11:29.667Z</time>
      </trkpt>
      <trkpt lat="47.79274" lon="2.11604">
        <ele>117</ele>
        <time>2018-03-03T13:11:30.678Z</time>
      </trkpt>
      <trkpt lat="47.79278" lon="2.11616">
        <ele>116</ele>
        <time>2018-03-03T13:11:31.680Z</time>
      </trkpt>
      <trkpt lat="47.79278" lon="2.11616">
        <ele>116</ele>
        <time>2018-03-03T13:11:32.668Z</time>
      </trkpt>
      <trkpt lat="47.79286" lon="2.11639">
        <ele>116</ele>
        <time>2018-03-03T13:11:33.678Z</time>
      </trkpt>
      <trkpt lat="47.79286" lon="2.11639">
        <ele>116</ele>
        <time>2018-03-03T13:11:34.670Z</time>
      </trkpt>
      <trkpt lat="47.79296" lon="2.11661">
        <ele>115</ele>
        <time>2018-03-03T13:11:35.677Z</time>
      </trkpt>
      <trkpt lat="47.79296" lon="2.11661">
        <ele>115</ele>
        <time>2018-03-03T13:11:36.667Z</time>
      </trkpt>
      <trkpt lat="47.79305" lon="2.11683">
        <ele>115</ele>
        <time>2018-03-03T13:11:37.695Z</time>
      </trkpt>
      <trkpt lat="47.79305" lon="2.11683">
        <ele>115</ele>
        <time>2018-03-03T13:11:38.683Z</time>
      </trkpt>
      <trkpt lat="47.79313" lon="2.11703">
        <ele>114</ele>
        <time>2018-03-03T13:11:39.677Z</time>
      </trkpt>
      <trkpt lat="47.79313" lon="2.11703">
        <ele>114</ele>
        <time>2018-03-03T13:11:40.679Z</time>
      </trkpt>
      <trkpt lat="47.79322" lon="2.11724">
        <ele>114</ele>
        <time>2018-03-03T13:11:41.677Z</time>
      </trkpt>
      <trkpt lat="47.79326" lon="2.11735">
        <ele>114</ele>
        <time>2018-03-03T13:11:42.687Z</time>
      </trkpt>
      <trkpt lat="47.7933" lon="2.11746">
        <ele>114</ele>
        <time>2018-03-03T13:11:43.678Z</time>
      </trkpt>
      <trkpt lat="47.7933" lon="2.11746">
        <ele>114</ele>
        <time>2018-03-03T13:11:44.670Z</time>
      </trkpt>
      <trkpt lat="47.79339" lon="2.11768">
        <ele>113</ele>
        <time>2018-03-03T13:11:45.677Z</time>
      </trkpt>
      <trkpt lat="47.79339" lon="2.11768">
        <ele>113</ele>
        <time>2018-03-03T13:11:46.669Z</time>
      </trkpt>
      <trkpt lat="47.79347" lon="2.11791">
        <ele>112</ele>
        <time>2018-03-03T13:11:47.669Z</time>
      </trkpt>
      <trkpt lat="47.79352" lon="2.11803">
        <ele>112</ele>
        <time>2018-03-03T13:11:48.678Z</time>
      </trkpt>
      <trkpt lat="47.79352" lon="2.11803">
        <ele>112</ele>
        <time>2018-03-03T13:11:49.675Z</time>
      </trkpt>
      <trkpt lat="47.79362" lon="2.11825">
        <ele>112</ele>
        <time>2018-03-03T13:11:50.676Z</time>
      </trkpt>
      <trkpt lat="47.79367" lon="2.11838">
        <ele>112</ele>
        <time>2018-03-03T13:11:51.679Z</time>
      </trkpt>
      <trkpt lat="47.79367" lon="2.11838">
        <ele>112</ele>
        <time>2018-03-03T13:11:52.667Z</time>
      </trkpt>
      <trkpt lat="47.79377" lon="2.11861">
        <ele>111</ele>
        <time>2018-03-03T13:11:53.677Z</time>
      </trkpt>
      <trkpt lat="47.7938" lon="2.11872">
        <ele>111</ele>
        <time>2018-03-03T13:11:54.680Z</time>
      </trkpt>
      <trkpt lat="47.79385" lon="2.11883">
        <ele>111</ele>
        <time>2018-03-03T13:11:55.679Z</time>
      </trkpt>
      <trkpt lat="47.79385" lon="2.11883">
        <ele>111</ele>
        <time>2018-03-03T13:11:56.675Z</time>
      </trkpt>
      <trkpt lat="47.79392" lon="2.11903">
        <ele>110</ele>
        <time>2018-03-03T13:11:57.677Z</time>
      </trkpt>
      <trkpt lat="47.79392" lon="2.11903">
        <ele>110</ele>
        <time>2018-03-03T13:11:58.667Z</time>
      </trkpt>
      <trkpt lat="47.79399" lon="2.11924">
        <ele>110</ele>
        <time>2018-03-03T13:11:59.677Z</time>
      </trkpt>
      <trkpt lat="47.79399" lon="2.11924">
        <ele>110</ele>
        <time>2018-03-03T13:12:00.675Z</time>
      </trkpt>
      <trkpt lat="47.79409" lon="2.11946">
        <ele>110</ele>
        <time>2018-03-03T13:12:01.681Z</time>
      </trkpt>
      <trkpt lat="47.79409" lon="2.11946">
        <ele>110</ele>
        <time>2018-03-03T13:12:02.670Z</time>
      </trkpt>
      <trkpt lat="47.79418" lon="2.11966">
        <ele>110</ele>
        <time>2018-03-03T13:12:03.692Z</time>
      </trkpt>
      <trkpt lat="47.79418" lon="2.11966">
        <ele>110</ele>
        <time>2018-03-03T13:12:04.700Z</time>
      </trkpt>
      <trkpt lat="47.79426" lon="2.11988">
        <ele>111</ele>
        <time>2018-03-03T13:12:05.690Z</time>
      </trkpt>
      <trkpt lat="47.79426" lon="2.11988">
        <ele>111</ele>
        <time>2018-03-03T13:12:06.680Z</time>
      </trkpt>
      <trkpt lat="47.79433" lon="2.12008">
        <ele>111</ele>
        <time>2018-03-03T13:12:07.678Z</time>
      </trkpt>
      <trkpt lat="47.79433" lon="2.12008">
        <ele>111</ele>
        <time>2018-03-03T13:12:08.676Z</time>
      </trkpt>
      <trkpt lat="47.79441" lon="2.1203">
        <ele>111</ele>
        <time>2018-03-03T13:12:09.685Z</time>
      </trkpt>
      <trkpt lat="47.79441" lon="2.1203">
        <ele>111</ele>
        <time>2018-03-03T13:12:10.681Z</time>
      </trkpt>
      <trkpt lat="47.79448" lon="2.12052">
        <ele>112</ele>
        <time>2018-03-03T13:12:11.675Z</time>
      </trkpt>
      <trkpt lat="47.79452" lon="2.12063">
        <ele>112</ele>
        <time>2018-03-03T13:12:12.687Z</time>
      </trkpt>
      <trkpt lat="47.79455" lon="2.12074">
        <ele>112</ele>
        <time>2018-03-03T13:12:13.678Z</time>
      </trkpt>
      <trkpt lat="47.79455" lon="2.12074">
        <ele>112</ele>
        <time>2018-03-03T13:12:14.676Z</time>
      </trkpt>
      <trkpt lat="47.79462" lon="2.12094">
        <ele>112</ele>
        <time>2018-03-03T13:12:15.698Z</time>
      </trkpt>
      <trkpt lat="47.79464" lon="2.12103">
        <ele>113</ele>
        <time>2018-03-03T13:12:16.694Z</time>
      </trkpt>
      <trkpt lat="47.79467" lon="2.12112">
        <ele>113</ele>
        <time>2018-03-03T13:12:17.698Z</time>
      </trkpt>
      <trkpt lat="47.79467" lon="2.12112">
        <ele>113</ele>
        <time>2018-03-03T13:12:18.682Z</time>
      </trkpt>
      <trkpt lat="47.79473" lon="2.1213">
        <ele>113</ele>
        <time>2018-03-03T13:12:19.679Z</time>
      </trkpt>
      <trkpt lat="47.79473" lon="2.1213">
        <ele>113</ele>
        <time>2018-03-03T13:12:20.670Z</time>
      </trkpt>
      <trkpt lat="47.79478" lon="2.12144">
        <ele>114</ele>
        <time>2018-03-03T13:12:21.694Z</time>
      </trkpt>
      <trkpt lat="47.79478" lon="2.12144">
        <ele>114</ele>
        <time>2018-03-03T13:12:22.684Z</time>
      </trkpt>
      <trkpt lat="47.79482" lon="2.12159">
        <ele>114</ele>
        <time>2018-03-03T13:12:23.677Z</time>
      </trkpt>
      <trkpt lat="47.79484" lon="2.12166">
        <ele>115</ele>
        <time>2018-03-03T13:12:24.679Z</time>
      </trkpt>
      <trkpt lat="47.79484" lon="2.12166">
        <ele>115</ele>
        <time>2018-03-03T13:12:25.675Z</time>
      </trkpt>
      <trkpt lat="47.79488" lon="2.12181">
        <ele>115</ele>
        <time>2018-03-03T13:12:26.676Z</time>
      </trkpt>
      <trkpt lat="47.7949" lon="2.12188">
        <ele>115</ele>
        <time>2018-03-03T13:12:27.677Z</time>
      </trkpt>
      <trkpt lat="47.7949" lon="2.12188">
        <ele>115</ele>
        <time>2018-03-03T13:12:28.667Z</time>
      </trkpt>
      <trkpt lat="47.79494" lon="2.12202">
        <ele>116</ele>
        <time>2018-03-03T13:12:29.677Z</time>
      </trkpt>
      <trkpt lat="47.79496" lon="2.1221">
        <ele>116</ele>
        <time>2018-03-03T13:12:30.676Z</time>
      </trkpt>
      <trkpt lat="47.79496" lon="2.1221">
        <ele>116</ele>
        <time>2018-03-03T13:12:31.675Z</time>
      </trkpt>
      <trkpt lat="47.795" lon="2.12224">
        <ele>116</ele>
        <time>2018-03-03T13:12:32.688Z</time>
      </trkpt>
      <trkpt lat="47.79503" lon="2.12231">
        <ele>116</ele>
        <time>2018-03-03T13:12:33.679Z</time>
      </trkpt>
      <trkpt lat="47.79503" lon="2.12231">
        <ele>116</ele>
        <time>2018-03-03T13:12:34.676Z</time>
      </trkpt>
      <trkpt lat="47.79506" lon="2.12246">
        <ele>116</ele>
        <time>2018-03-03T13:12:35.671Z</time>
      </trkpt>
      <trkpt lat="47.79506" lon="2.12246">
        <ele>116</ele>
        <time>2018-03-03T13:12:36.675Z</time>
      </trkpt>
      <trkpt lat="47.79511" lon="2.12261">
        <ele>116</ele>
        <time>2018-03-03T13:12:37.676Z</time>
      </trkpt>
      <trkpt lat="47.79511" lon="2.12261">
        <ele>116</ele>
        <time>2018-03-03T13:12:38.674Z</time>
      </trkpt>
      <trkpt lat="47.79515" lon="2.12276">
        <ele>116</ele>
        <time>2018-03-03T13:12:39.679Z</time>
      </trkpt>
      <trkpt lat="47.79515" lon="2.12276">
        <ele>116</ele>
        <time>2018-03-03T13:12:40.683Z</time>
      </trkpt>
      <trkpt lat="47.79519" lon="2.12291">
        <ele>116</ele>
        <time>2018-03-03T13:12:41.678Z</time>
      </trkpt>
      <trkpt lat="47.79521" lon="2.12301">
        <ele>117</ele>
        <time>2018-03-03T13:12:42.684Z</time>
      </trkpt>
      <trkpt lat="47.79521" lon="2.12301">
        <ele>117</ele>
        <time>2018-03-03T13:12:43.676Z</time>
      </trkpt>
      <trkpt lat="47.79526" lon="2.12318">
        <ele>117</ele>
        <time>2018-03-03T13:12:44.679Z</time>
      </trkpt>
      <trkpt lat="47.79526" lon="2.12318">
        <ele>117</ele>
        <time>2018-03-03T13:12:45.668Z</time>
      </trkpt>
      <trkpt lat="47.79531" lon="2.12334">
        <ele>117</ele>
        <time>2018-03-03T13:12:46.676Z</time>
      </trkpt>
      <trkpt lat="47.79531" lon="2.12334">
        <ele>117</ele>
        <time>2018-03-03T13:12:47.676Z</time>
      </trkpt>
      <trkpt lat="47.79536" lon="2.1235">
        <ele>118</ele>
        <time>2018-03-03T13:12:48.679Z</time>
      </trkpt>
      <trkpt lat="47.79539" lon="2.12358">
        <ele>118</ele>
        <time>2018-03-03T13:12:49.679Z</time>
      </trkpt>
      <trkpt lat="47.79539" lon="2.12358">
        <ele>118</ele>
        <time>2018-03-03T13:12:50.676Z</time>
      </trkpt>
      <trkpt lat="47.79543" lon="2.12375">
        <ele>118</ele>
        <time>2018-03-03T13:12:51.677Z</time>
      </trkpt>
      <trkpt lat="47.79543" lon="2.12375">
        <ele>118</ele>
        <time>2018-03-03T13:12:52.690Z</time>
      </trkpt>
      <trkpt lat="47.79547" lon="2.12391">
        <ele>119</ele>
        <time>2018-03-03T13:12:53.680Z</time>
      </trkpt>
      <trkpt lat="47.79547" lon="2.12391">
        <ele>119</ele>
        <time>2018-03-03T13:12:54.687Z</time>
      </trkpt>
      <trkpt lat="47.79552" lon="2.12407">
        <ele>118</ele>
        <time>2018-03-03T13:12:55.697Z</time>
      </trkpt>
      <trkpt lat="47.79552" lon="2.12407">
        <ele>118</ele>
        <time>2018-03-03T13:12:56.697Z</time>
      </trkpt>
      <trkpt lat="47.79557" lon="2.12422">
        <ele>118</ele>
        <time>2018-03-03T13:12:57.685Z</time>
      </trkpt>
      <trkpt lat="47.79557" lon="2.12422">
        <ele>118</ele>
        <time>2018-03-03T13:12:58.676Z</time>
      </trkpt>
      <trkpt lat="47.79561" lon="2.12437">
        <ele>118</ele>
        <time>2018-03-03T13:12:59.678Z</time>
      </trkpt>
      <trkpt lat="47.79563" lon="2.12445">
        <ele>118</ele>
        <time>2018-03-03T13:13:00.677Z</time>
      </trkpt>
      <trkpt lat="47.79565" lon="2.12452">
        <ele>118</ele>
        <time>2018-03-03T13:13:01.676Z</time>
      </trkpt>
      <trkpt lat="47.79565" lon="2.12452">
        <ele>118</ele>
        <time>2018-03-03T13:13:02.668Z</time>
      </trkpt>
      <trkpt lat="47.79569" lon="2.12468">
        <ele>118</ele>
        <time>2018-03-03T13:13:03.692Z</time>
      </trkpt>
      <trkpt lat="47.79571" lon="2.12475">
        <ele>118</ele>
        <time>2018-03-03T13:13:04.676Z</time>
      </trkpt>
      <trkpt lat="47.79571" lon="2.12475">
        <ele>118</ele>
        <time>2018-03-03T13:13:05.676Z</time>
      </trkpt>
      <trkpt lat="47.79576" lon="2.1249">
        <ele>118</ele>
        <time>2018-03-03T13:13:06.679Z</time>
      </trkpt>
      <trkpt lat="47.79578" lon="2.12497">
        <ele>118</ele>
        <time>2018-03-03T13:13:07.679Z</time>
      </trkpt>
      <trkpt lat="47.79578" lon="2.12497">
        <ele>118</ele>
        <time>2018-03-03T13:13:08.676Z</time>
      </trkpt>
      <trkpt lat="47.79582" lon="2.12511">
        <ele>118</ele>
        <time>2018-03-03T13:13:09.684Z</time>
      </trkpt>
      <trkpt lat="47.79585" lon="2.12518">
        <ele>118</ele>
        <time>2018-03-03T13:13:10.677Z</time>
      </trkpt>
      <trkpt lat="47.79587" lon="2.12525">
        <ele>118</ele>
        <time>2018-03-03T13:13:11.677Z</time>
      </trkpt>
      <trkpt lat="47.7959" lon="2.12532">
        <ele>118</ele>
        <time>2018-03-03T13:13:12.687Z</time>
      </trkpt>
      <trkpt lat="47.7959" lon="2.12532">
        <ele>118</ele>
        <time>2018-03-03T13:13:13.669Z</time>
      </trkpt>
      <trkpt lat="47.79595" lon="2.12546">
        <ele>117</ele>
        <time>2018-03-03T13:13:14.676Z</time>
      </trkpt>
      <trkpt lat="47.79595" lon="2.12546">
        <ele>117</ele>
        <time>2018-03-03T13:13:15.665Z</time>
      </trkpt>
      <trkpt lat="47.79602" lon="2.1256">
        <ele>117</ele>
        <time>2018-03-03T13:13:16.695Z</time>
      </trkpt>
      <trkpt lat="47.79606" lon="2.12567">
        <ele>117</ele>
        <time>2018-03-03T13:13:17.679Z</time>
      </trkpt>
      <trkpt lat="47.79606" lon="2.12567">
        <ele>117</ele>
        <time>2018-03-03T13:13:18.669Z</time>
      </trkpt>
      <trkpt lat="47.79613" lon="2.12582">
        <ele>116</ele>
        <time>2018-03-03T13:13:19.679Z</time>
      </trkpt>
      <trkpt lat="47.79613" lon="2.12582">
        <ele>116</ele>
        <time>2018-03-03T13:13:20.676Z</time>
      </trkpt>
      <trkpt lat="47.79621" lon="2.12596">
        <ele>116</ele>
        <time>2018-03-03T13:13:21.679Z</time>
      </trkpt>
      <trkpt lat="47.79621" lon="2.12596">
        <ele>116</ele>
        <time>2018-03-03T13:13:22.676Z</time>
      </trkpt>
      <trkpt lat="47.79627" lon="2.1261">
        <ele>115</ele>
        <time>2018-03-03T13:13:23.677Z</time>
      </trkpt>
      <trkpt lat="47.79627" lon="2.1261">
        <ele>115</ele>
        <time>2018-03-03T13:13:24.669Z</time>
      </trkpt>
      <trkpt lat="47.79634" lon="2.12624">
        <ele>115</ele>
        <time>2018-03-03T13:13:25.680Z</time>
      </trkpt>
      <trkpt lat="47.79634" lon="2.12624">
        <ele>115</ele>
        <time>2018-03-03T13:13:26.669Z</time>
      </trkpt>
      <trkpt lat="47.79641" lon="2.12638">
        <ele>115</ele>
        <time>2018-03-03T13:13:27.679Z</time>
      </trkpt>
      <trkpt lat="47.79641" lon="2.12638">
        <ele>115</ele>
        <time>2018-03-03T13:13:28.676Z</time>
      </trkpt>
      <trkpt lat="47.79648" lon="2.12652">
        <ele>115</ele>
        <time>2018-03-03T13:13:29.677Z</time>
      </trkpt>
      <trkpt lat="47.79648" lon="2.12652">
        <ele>115</ele>
        <time>2018-03-03T13:13:30.671Z</time>
      </trkpt>
      <trkpt lat="47.79656" lon="2.12667">
        <ele>115</ele>
        <time>2018-03-03T13:13:31.679Z</time>
      </trkpt>
      <trkpt lat="47.79656" lon="2.12667">
        <ele>115</ele>
        <time>2018-03-03T13:13:32.684Z</time>
      </trkpt>
      <trkpt lat="47.79663" lon="2.12683">
        <ele>115</ele>
        <time>2018-03-03T13:13:33.678Z</time>
      </trkpt>
      <trkpt lat="47.79663" lon="2.12683">
        <ele>115</ele>
        <time>2018-03-03T13:13:34.670Z</time>
      </trkpt>
      <trkpt lat="47.79671" lon="2.12698">
        <ele>115</ele>
        <time>2018-03-03T13:13:35.679Z</time>
      </trkpt>
      <trkpt lat="47.79671" lon="2.12698">
        <ele>115</ele>
        <time>2018-03-03T13:13:36.676Z</time>
      </trkpt>
      <trkpt lat="47.79679" lon="2.12714">
        <ele>115</ele>
        <time>2018-03-03T13:13:37.680Z</time>
      </trkpt>
      <trkpt lat="47.79679" lon="2.12714">
        <ele>115</ele>
        <time>2018-03-03T13:13:38.672Z</time>
      </trkpt>
      <trkpt lat="47.79686" lon="2.1273">
        <ele>115</ele>
        <time>2018-03-03T13:13:39.680Z</time>
      </trkpt>
      <trkpt lat="47.79686" lon="2.1273">
        <ele>115</ele>
        <time>2018-03-03T13:13:40.676Z</time>
      </trkpt>
      <trkpt lat="47.79694" lon="2.12744">
        <ele>115</ele>
        <time>2018-03-03T13:13:41.676Z</time>
      </trkpt>
      <trkpt lat="47.79694" lon="2.12744">
        <ele>115</ele>
        <time>2018-03-03T13:13:42.668Z</time>
      </trkpt>
      <trkpt lat="47.79701" lon="2.12759">
        <ele>115</ele>
        <time>2018-03-03T13:13:43.692Z</time>
      </trkpt>
      <trkpt lat="47.79701" lon="2.12759">
        <ele>115</ele>
        <time>2018-03-03T13:13:44.679Z</time>
      </trkpt>
      <trkpt lat="47.79708" lon="2.12774">
        <ele>115</ele>
        <time>2018-03-03T13:13:45.678Z</time>
      </trkpt>
      <trkpt lat="47.79708" lon="2.12774">
        <ele>115</ele>
        <time>2018-03-03T13:13:46.667Z</time>
      </trkpt>
      <trkpt lat="47.79715" lon="2.12788">
        <ele>115</ele>
        <time>2018-03-03T13:13:47.698Z</time>
      </trkpt>
      <trkpt lat="47.79718" lon="2.12796">
        <ele>115</ele>
        <time>2018-03-03T13:13:48.687Z</time>
      </trkpt>
      <trkpt lat="47.79721" lon="2.12803">
        <ele>115</ele>
        <time>2018-03-03T13:13:49.680Z</time>
      </trkpt>
      <trkpt lat="47.79721" lon="2.12803">
        <ele>115</ele>
        <time>2018-03-03T13:13:50.670Z</time>
      </trkpt>
      <trkpt lat="47.79728" lon="2.12816">
        <ele>115</ele>
        <time>2018-03-03T13:13:51.679Z</time>
      </trkpt>
      <trkpt lat="47.79728" lon="2.12816">
        <ele>115</ele>
        <time>2018-03-03T13:13:52.683Z</time>
      </trkpt>
      <trkpt lat="47.79734" lon="2.1283">
        <ele>115</ele>
        <time>2018-03-03T13:13:53.667Z</time>
      </trkpt>
      <trkpt lat="47.79734" lon="2.1283">
        <ele>115</ele>
        <time>2018-03-03T13:13:54.704Z</time>
      </trkpt>
      <trkpt lat="47.7974" lon="2.12843">
        <ele>115</ele>
        <time>2018-03-03T13:13:55.693Z</time>
      </trkpt>
      <trkpt lat="47.7974" lon="2.12843">
        <ele>115</ele>
        <time>2018-03-03T13:13:56.690Z</time>
      </trkpt>
      <trkpt lat="47.79746" lon="2.12854">
        <ele>115</ele>
        <time>2018-03-03T13:13:57.677Z</time>
      </trkpt>
      <trkpt lat="47.79748" lon="2.1286">
        <ele>116</ele>
        <time>2018-03-03T13:13:58.678Z</time>
      </trkpt>
      <trkpt lat="47.79751" lon="2.12865">
        <ele>116</ele>
        <time>2018-03-03T13:13:59.671Z</time>
      </trkpt>
      <trkpt lat="47.79751" lon="2.12865">
        <ele>116</ele>
        <time>2018-03-03T13:14:00.671Z</time>
      </trkpt>
      <trkpt lat="47.79756" lon="2.12875">
        <ele>116</ele>
        <time>2018-03-03T13:14:01.680Z</time>
      </trkpt>
      <trkpt lat="47.79756" lon="2.12875">
        <ele>116</ele>
        <time>2018-03-03T13:14:02.676Z</time>
      </trkpt>
      <trkpt lat="47.7976" lon="2.12885">
        <ele>116</ele>
        <time>2018-03-03T13:14:03.679Z</time>
      </trkpt>
      <trkpt lat="47.7976" lon="2.12885">
        <ele>116</ele>
        <time>2018-03-03T13:14:04.671Z</time>
      </trkpt>
      <trkpt lat="47.79765" lon="2.12894">
        <ele>116</ele>
        <time>2018-03-03T13:14:05.679Z</time>
      </trkpt>
      <trkpt lat="47.79765" lon="2.12894">
        <ele>116</ele>
        <time>2018-03-03T13:14:06.676Z</time>
      </trkpt>
      <trkpt lat="47.79769" lon="2.12903">
        <ele>116</ele>
        <time>2018-03-03T13:14:07.676Z</time>
      </trkpt>
      <trkpt lat="47.79772" lon="2.12907">
        <ele>116</ele>
        <time>2018-03-03T13:14:08.680Z</time>
      </trkpt>
      <trkpt lat="47.79772" lon="2.12907">
        <ele>116</ele>
        <time>2018-03-03T13:14:09.677Z</time>
      </trkpt>
      <trkpt lat="47.79776" lon="2.12916">
        <ele>116</ele>
        <time>2018-03-03T13:14:10.685Z</time>
      </trkpt>
      <trkpt lat="47.79778" lon="2.12921">
        <ele>116</ele>
        <time>2018-03-03T13:14:11.676Z</time>
      </trkpt>
      <trkpt lat="47.79778" lon="2.12921">
        <ele>116</ele>
        <time>2018-03-03T13:14:12.683Z</time>
      </trkpt>
      <trkpt lat="47.79782" lon="2.12929">
        <ele>116</ele>
        <time>2018-03-03T13:14:13.680Z</time>
      </trkpt>
      <trkpt lat="47.79782" lon="2.12929">
        <ele>116</ele>
        <time>2018-03-03T13:14:14.676Z</time>
      </trkpt>
      <trkpt lat="47.79786" lon="2.12937">
        <ele>117</ele>
        <time>2018-03-03T13:14:15.683Z</time>
      </trkpt>
      <trkpt lat="47.79786" lon="2.12937">
        <ele>117</ele>
        <time>2018-03-03T13:14:16.676Z</time>
      </trkpt>
      <trkpt lat="47.7979" lon="2.12945">
        <ele>117</ele>
        <time>2018-03-03T13:14:17.697Z</time>
      </trkpt>
      <trkpt lat="47.7979" lon="2.12945">
        <ele>117</ele>
        <time>2018-03-03T13:14:18.686Z</time>
      </trkpt>
      <trkpt lat="47.79793" lon="2.12951">
        <ele>117</ele>
        <time>2018-03-03T13:14:19.675Z</time>
      </trkpt>
      <trkpt lat="47.79793" lon="2.12951">
        <ele>117</ele>
        <time>2018-03-03T13:14:20.676Z</time>
      </trkpt>
      <trkpt lat="47.79795" lon="2.12954">
        <ele>117</ele>
        <time>2018-03-03T13:14:21.681Z</time>
      </trkpt>
      <trkpt lat="47.79795" lon="2.12954">
        <ele>117</ele>
        <time>2018-03-03T13:14:22.683Z</time>
      </trkpt>
      <trkpt lat="47.79795" lon="2.12954">
        <ele>117</ele>
        <time>2018-03-03T13:14:23.677Z</time>
      </trkpt>
      <trkpt lat="47.79795" lon="2.12954">
        <ele>117</ele>
        <time>2018-03-03T13:14:24.678Z</time>
      </trkpt>
      <trkpt lat="47.79798" lon="2.12957">
        <ele>118</ele>
        <time>2018-03-03T13:14:25.691Z</time>
      </trkpt>
      <trkpt lat="47.79798" lon="2.12957">
        <ele>118</ele>
        <time>2018-03-03T13:14:26.692Z</time>
      </trkpt>
      <trkpt lat="47.79801" lon="2.12962">
        <ele>118</ele>
        <time>2018-03-03T13:14:27.683Z</time>
      </trkpt>
      <trkpt lat="47.79802" lon="2.12965">
        <ele>118</ele>
        <time>2018-03-03T13:14:28.682Z</time>
      </trkpt>
      <trkpt lat="47.79802" lon="2.12965">
        <ele>118</ele>
        <time>2018-03-03T13:14:29.677Z</time>
      </trkpt>
      <trkpt lat="47.79806" lon="2.12972">
        <ele>117</ele>
        <time>2018-03-03T13:14:30.682Z</time>
      </trkpt>
      <trkpt lat="47.79806" lon="2.12972">
        <ele>117</ele>
        <time>2018-03-03T13:14:31.680Z</time>
      </trkpt>
      <trkpt lat="47.79809" lon="2.12981">
        <ele>117</ele>
        <time>2018-03-03T13:14:32.682Z</time>
      </trkpt>
      <trkpt lat="47.79809" lon="2.12981">
        <ele>117</ele>
        <time>2018-03-03T13:14:33.677Z</time>
      </trkpt>
      <trkpt lat="47.79814" lon="2.12991">
        <ele>118</ele>
        <time>2018-03-03T13:14:34.680Z</time>
      </trkpt>
      <trkpt lat="47.79814" lon="2.12991">
        <ele>118</ele>
        <time>2018-03-03T13:14:35.702Z</time>
      </trkpt>
      <trkpt lat="47.79818" lon="2.13001">
        <ele>118</ele>
        <time>2018-03-03T13:14:36.691Z</time>
      </trkpt>
      <trkpt lat="47.79818" lon="2.13001">
        <ele>118</ele>
        <time>2018-03-03T13:14:37.682Z</time>
      </trkpt>
      <trkpt lat="47.79822" lon="2.13011">
        <ele>118</ele>
        <time>2018-03-03T13:14:38.681Z</time>
      </trkpt>
      <trkpt lat="47.79822" lon="2.13011">
        <ele>118</ele>
        <time>2018-03-03T13:14:39.679Z</time>
      </trkpt>
      <trkpt lat="47.79824" lon="2.13023">
        <ele>118</ele>
        <time>2018-03-03T13:14:40.680Z</time>
      </trkpt>
      <trkpt lat="47.79824" lon="2.13023">
        <ele>118</ele>
        <time>2018-03-03T13:14:41.679Z</time>
      </trkpt>
      <trkpt lat="47.79824" lon="2.13036">
        <ele>118</ele>
        <time>2018-03-03T13:14:42.680Z</time>
      </trkpt>
      <trkpt lat="47.79824" lon="2.13042">
        <ele>118</ele>
        <time>2018-03-03T13:14:43.682Z</time>
      </trkpt>
      <trkpt lat="47.79824" lon="2.13042">
        <ele>118</ele>
        <time>2018-03-03T13:14:44.678Z</time>
      </trkpt>
      <trkpt lat="47.79824" lon="2.13056">
        <ele>118</ele>
        <time>2018-03-03T13:14:45.682Z</time>
      </trkpt>
      <trkpt lat="47.79823" lon="2.13062">
        <ele>119</ele>
        <time>2018-03-03T13:14:46.683Z</time>
      </trkpt>
      <trkpt lat="47.79823" lon="2.13062">
        <ele>119</ele>
        <time>2018-03-03T13:14:47.680Z</time>
      </trkpt>
      <trkpt lat="47.79821" lon="2.13075">
        <ele>119</ele>
        <time>2018-03-03T13:14:48.682Z</time>
      </trkpt>
      <trkpt lat="47.79821" lon="2.13075">
        <ele>119</ele>
        <time>2018-03-03T13:14:49.677Z</time>
      </trkpt>
      <trkpt lat="47.79819" lon="2.13089">
        <ele>119</ele>
        <time>2018-03-03T13:14:50.684Z</time>
      </trkpt>
      <trkpt lat="47.79819" lon="2.13089">
        <ele>119</ele>
        <time>2018-03-03T13:14:51.679Z</time>
      </trkpt>
      <trkpt lat="47.79816" lon="2.13102">
        <ele>118</ele>
        <time>2018-03-03T13:14:52.680Z</time>
      </trkpt>
      <trkpt lat="47.79815" lon="2.13109">
        <ele>118</ele>
        <time>2018-03-03T13:14:53.682Z</time>
      </trkpt>
      <trkpt lat="47.79815" lon="2.13109">
        <ele>118</ele>
        <time>2018-03-03T13:14:54.676Z</time>
      </trkpt>
      <trkpt lat="47.79813" lon="2.13122">
        <ele>118</ele>
        <time>2018-03-03T13:14:55.684Z</time>
      </trkpt>
      <trkpt lat="47.79812" lon="2.13129">
        <ele>118</ele>
        <time>2018-03-03T13:14:56.684Z</time>
      </trkpt>
      <trkpt lat="47.79812" lon="2.13129">
        <ele>118</ele>
        <time>2018-03-03T13:14:57.680Z</time>
      </trkpt>
      <trkpt lat="47.79809" lon="2.13142">
        <ele>118</ele>
        <time>2018-03-03T13:14:58.683Z</time>
      </trkpt>
      <trkpt lat="47.79809" lon="2.13142">
        <ele>118</ele>
        <time>2018-03-03T13:14:59.679Z</time>
      </trkpt>
      <trkpt lat="47.79805" lon="2.13156">
        <ele>118</ele>
        <time>2018-03-03T13:15:00.683Z</time>
      </trkpt>
      <trkpt lat="47.79803" lon="2.13162">
        <ele>118</ele>
        <time>2018-03-03T13:15:01.682Z</time>
      </trkpt>
      <trkpt lat="47.79803" lon="2.13162">
        <ele>118</ele>
        <time>2018-03-03T13:15:02.678Z</time>
      </trkpt>
      <trkpt lat="47.79798" lon="2.13176">
        <ele>118</ele>
        <time>2018-03-03T13:15:03.682Z</time>
      </trkpt>
      <trkpt lat="47.79795" lon="2.13183">
        <ele>118</ele>
        <time>2018-03-03T13:15:04.680Z</time>
      </trkpt>
      <trkpt lat="47.79795" lon="2.13183">
        <ele>118</ele>
        <time>2018-03-03T13:15:05.680Z</time>
      </trkpt>
      <trkpt lat="47.7979" lon="2.13196">
        <ele>117</ele>
        <time>2018-03-03T13:15:06.682Z</time>
      </trkpt>
      <trkpt lat="47.7979" lon="2.13196">
        <ele>117</ele>
        <time>2018-03-03T13:15:07.679Z</time>
      </trkpt>
      <trkpt lat="47.79783" lon="2.13209">
        <ele>118</ele>
        <time>2018-03-03T13:15:08.686Z</time>
      </trkpt>
      <trkpt lat="47.79783" lon="2.13209">
        <ele>118</ele>
        <time>2018-03-03T13:15:09.681Z</time>
      </trkpt>
      <trkpt lat="47.79777" lon="2.13221">
        <ele>118</ele>
        <time>2018-03-03T13:15:10.685Z</time>
      </trkpt>
      <trkpt lat="47.79777" lon="2.13221">
        <ele>118</ele>
        <time>2018-03-03T13:15:11.687Z</time>
      </trkpt>
      <trkpt lat="47.79771" lon="2.13232">
        <ele>118</ele>
        <time>2018-03-03T13:15:12.682Z</time>
      </trkpt>
      <trkpt lat="47.79771" lon="2.13232">
        <ele>118</ele>
        <time>2018-03-03T13:15:13.680Z</time>
      </trkpt>
      <trkpt lat="47.79765" lon="2.13242">
        <ele>118</ele>
        <time>2018-03-03T13:15:14.684Z</time>
      </trkpt>
      <trkpt lat="47.79765" lon="2.13242">
        <ele>118</ele>
        <time>2018-03-03T13:15:15.677Z</time>
      </trkpt>
      <trkpt lat="47.79759" lon="2.13253">
        <ele>119</ele>
        <time>2018-03-03T13:15:16.684Z</time>
      </trkpt>
      <trkpt lat="47.79759" lon="2.13253">
        <ele>119</ele>
        <time>2018-03-03T13:15:17.703Z</time>
      </trkpt>
      <trkpt lat="47.79753" lon="2.13265">
        <ele>119</ele>
        <time>2018-03-03T13:15:18.683Z</time>
      </trkpt>
      <trkpt lat="47.79753" lon="2.13265">
        <ele>119</ele>
        <time>2018-03-03T13:15:19.677Z</time>
      </trkpt>
      <trkpt lat="47.79747" lon="2.13276">
        <ele>119</ele>
        <time>2018-03-03T13:15:20.683Z</time>
      </trkpt>
      <trkpt lat="47.79747" lon="2.13276">
        <ele>119</ele>
        <time>2018-03-03T13:15:21.680Z</time>
      </trkpt>
      <trkpt lat="47.79741" lon="2.13289">
        <ele>119</ele>
        <time>2018-03-03T13:15:22.684Z</time>
      </trkpt>
      <trkpt lat="47.79741" lon="2.13289">
        <ele>119</ele>
        <time>2018-03-03T13:15:23.677Z</time>
      </trkpt>
      <trkpt lat="47.79735" lon="2.13301">
        <ele>120</ele>
        <time>2018-03-03T13:15:24.681Z</time>
      </trkpt>
      <trkpt lat="47.79735" lon="2.13301">
        <ele>120</ele>
        <time>2018-03-03T13:15:25.681Z</time>
      </trkpt>
      <trkpt lat="47.79729" lon="2.13313">
        <ele>120</ele>
        <time>2018-03-03T13:15:26.683Z</time>
      </trkpt>
      <trkpt lat="47.79729" lon="2.13313">
        <ele>120</ele>
        <time>2018-03-03T13:15:27.680Z</time>
      </trkpt>
      <trkpt lat="47.79725" lon="2.13325">
        <ele>120</ele>
        <time>2018-03-03T13:15:28.683Z</time>
      </trkpt>
      <trkpt lat="47.79725" lon="2.13325">
        <ele>120</ele>
        <time>2018-03-03T13:15:29.679Z</time>
      </trkpt>
      <trkpt lat="47.79721" lon="2.13337">
        <ele>120</ele>
        <time>2018-03-03T13:15:30.679Z</time>
      </trkpt>
      <trkpt lat="47.79721" lon="2.13337">
        <ele>120</ele>
        <time>2018-03-03T13:15:31.680Z</time>
      </trkpt>
      <trkpt lat="47.79717" lon="2.13349">
        <ele>120</ele>
        <time>2018-03-03T13:15:32.683Z</time>
      </trkpt>
      <trkpt lat="47.79717" lon="2.13349">
        <ele>120</ele>
        <time>2018-03-03T13:15:33.680Z</time>
      </trkpt>
      <trkpt lat="47.79711" lon="2.1336">
        <ele>121</ele>
        <time>2018-03-03T13:15:34.683Z</time>
      </trkpt>
      <trkpt lat="47.79711" lon="2.1336">
        <ele>121</ele>
        <time>2018-03-03T13:15:35.674Z</time>
      </trkpt>
      <trkpt lat="47.79707" lon="2.13372">
        <ele>121</ele>
        <time>2018-03-03T13:15:36.682Z</time>
      </trkpt>
      <trkpt lat="47.79707" lon="2.13372">
        <ele>121</ele>
        <time>2018-03-03T13:15:37.680Z</time>
      </trkpt>
      <trkpt lat="47.79702" lon="2.13384">
        <ele>121</ele>
        <time>2018-03-03T13:15:38.683Z</time>
      </trkpt>
      <trkpt lat="47.79702" lon="2.13384">
        <ele>121</ele>
        <time>2018-03-03T13:15:39.678Z</time>
      </trkpt>
      <trkpt lat="47.79699" lon="2.13396">
        <ele>122</ele>
        <time>2018-03-03T13:15:40.683Z</time>
      </trkpt>
      <trkpt lat="47.79699" lon="2.13396">
        <ele>122</ele>
        <time>2018-03-03T13:15:41.669Z</time>
      </trkpt>
      <trkpt lat="47.79702" lon="2.13406">
        <ele>122</ele>
        <time>2018-03-03T13:15:42.698Z</time>
      </trkpt>
      <trkpt lat="47.79702" lon="2.13406">
        <ele>122</ele>
        <time>2018-03-03T13:15:43.683Z</time>
      </trkpt>
      <trkpt lat="47.7971" lon="2.13412">
        <ele>123</ele>
        <time>2018-03-03T13:15:44.684Z</time>
      </trkpt>
      <trkpt lat="47.7971" lon="2.13412">
        <ele>123</ele>
        <time>2018-03-03T13:15:45.681Z</time>
      </trkpt>
      <trkpt lat="47.7972" lon="2.13415">
        <ele>123</ele>
        <time>2018-03-03T13:15:46.693Z</time>
      </trkpt>
      <trkpt lat="47.7972" lon="2.13415">
        <ele>123</ele>
        <time>2018-03-03T13:15:47.684Z</time>
      </trkpt>
      <trkpt lat="47.79731" lon="2.13419">
        <ele>122</ele>
        <time>2018-03-03T13:15:48.683Z</time>
      </trkpt>
      <trkpt lat="47.79731" lon="2.13419">
        <ele>122</ele>
        <time>2018-03-03T13:15:49.680Z</time>
      </trkpt>
      <trkpt lat="47.79741" lon="2.13422">
        <ele>122</ele>
        <time>2018-03-03T13:15:50.683Z</time>
      </trkpt>
      <trkpt lat="47.79741" lon="2.13422">
        <ele>122</ele>
        <time>2018-03-03T13:15:51.679Z</time>
      </trkpt>
      <trkpt lat="47.79751" lon="2.13426">
        <ele>122</ele>
        <time>2018-03-03T13:15:52.683Z</time>
      </trkpt>
      <trkpt lat="47.79751" lon="2.13426">
        <ele>122</ele>
        <time>2018-03-03T13:15:53.684Z</time>
      </trkpt>
      <trkpt lat="47.79762" lon="2.13429">
        <ele>122</ele>
        <time>2018-03-03T13:15:54.682Z</time>
      </trkpt>
      <trkpt lat="47.79762" lon="2.13429">
        <ele>122</ele>
        <time>2018-03-03T13:15:55.685Z</time>
      </trkpt>
      <trkpt lat="47.79774" lon="2.13433">
        <ele>122</ele>
        <time>2018-03-03T13:15:56.684Z</time>
      </trkpt>
      <trkpt lat="47.79774" lon="2.13433">
        <ele>122</ele>
        <time>2018-03-03T13:15:57.679Z</time>
      </trkpt>
      <trkpt lat="47.79787" lon="2.13438">
        <ele>121</ele>
        <time>2018-03-03T13:15:58.680Z</time>
      </trkpt>
      <trkpt lat="47.79787" lon="2.13438">
        <ele>121</ele>
        <time>2018-03-03T13:15:59.680Z</time>
      </trkpt>
      <trkpt lat="47.79801" lon="2.13445">
        <ele>120</ele>
        <time>2018-03-03T13:16:00.682Z</time>
      </trkpt>
      <trkpt lat="47.79801" lon="2.13445">
        <ele>120</ele>
        <time>2018-03-03T13:16:01.679Z</time>
      </trkpt>
      <trkpt lat="47.79816" lon="2.13453">
        <ele>119</ele>
        <time>2018-03-03T13:16:02.684Z</time>
      </trkpt>
      <trkpt lat="47.79816" lon="2.13453">
        <ele>119</ele>
        <time>2018-03-03T13:16:03.679Z</time>
      </trkpt>
      <trkpt lat="47.79833" lon="2.13464">
        <ele>117</ele>
        <time>2018-03-03T13:16:04.680Z</time>
      </trkpt>
      <trkpt lat="47.79833" lon="2.13464">
        <ele>117</ele>
        <time>2018-03-03T13:16:05.680Z</time>
      </trkpt>
      <trkpt lat="47.79851" lon="2.13478">
        <ele>115</ele>
        <time>2018-03-03T13:16:06.682Z</time>
      </trkpt>
      <trkpt lat="47.79859" lon="2.13485">
        <ele>114</ele>
        <time>2018-03-03T13:16:07.683Z</time>
      </trkpt>
      <trkpt lat="47.79866" lon="2.13492">
        <ele>113</ele>
        <time>2018-03-03T13:16:08.683Z</time>
      </trkpt>
      <trkpt lat="47.79866" lon="2.13492">
        <ele>113</ele>
        <time>2018-03-03T13:16:09.680Z</time>
      </trkpt>
      <trkpt lat="47.79879" lon="2.13504">
        <ele>112</ele>
        <time>2018-03-03T13:16:10.683Z</time>
      </trkpt>
      <trkpt lat="47.79879" lon="2.13504">
        <ele>112</ele>
        <time>2018-03-03T13:16:11.674Z</time>
      </trkpt>
      <trkpt lat="47.79888" lon="2.13512">
        <ele>110</ele>
        <time>2018-03-03T13:16:12.691Z</time>
      </trkpt>
      <trkpt lat="47.79888" lon="2.13512">
        <ele>110</ele>
        <time>2018-03-03T13:16:13.683Z</time>
      </trkpt>
      <trkpt lat="47.79893" lon="2.13519">
        <ele>109</ele>
        <time>2018-03-03T13:16:14.681Z</time>
      </trkpt>
      <trkpt lat="47.79893" lon="2.13519">
        <ele>109</ele>
        <time>2018-03-03T13:16:15.674Z</time>
      </trkpt>
      <trkpt lat="47.79894" lon="2.13528">
        <ele>110</ele>
        <time>2018-03-03T13:16:16.685Z</time>
      </trkpt>
      <trkpt lat="47.79894" lon="2.13528">
        <ele>110</ele>
        <time>2018-03-03T13:16:17.680Z</time>
      </trkpt>
      <trkpt lat="47.79888" lon="2.13536">
        <ele>110</ele>
        <time>2018-03-03T13:16:18.683Z</time>
      </trkpt>
      <trkpt lat="47.79888" lon="2.13536">
        <ele>110</ele>
        <time>2018-03-03T13:16:19.677Z</time>
      </trkpt>
      <trkpt lat="47.79879" lon="2.13541">
        <ele>110</ele>
        <time>2018-03-03T13:16:20.665Z</time>
      </trkpt>
      <trkpt lat="47.79879" lon="2.13541">
        <ele>110</ele>
        <time>2018-03-03T13:16:21.694Z</time>
      </trkpt>
      <trkpt lat="47.79869" lon="2.13545">
        <ele>110</ele>
        <time>2018-03-03T13:16:22.683Z</time>
      </trkpt>
      <trkpt lat="47.79869" lon="2.13545">
        <ele>110</ele>
        <time>2018-03-03T13:16:23.679Z</time>
      </trkpt>
      <trkpt lat="47.79858" lon="2.13551">
        <ele>110</ele>
        <time>2018-03-03T13:16:24.683Z</time>
      </trkpt>
      <trkpt lat="47.79858" lon="2.13551">
        <ele>110</ele>
        <time>2018-03-03T13:16:25.681Z</time>
      </trkpt>
      <trkpt lat="47.79847" lon="2.13558">
        <ele>110</ele>
        <time>2018-03-03T13:16:26.684Z</time>
      </trkpt>
      <trkpt lat="47.79847" lon="2.13558">
        <ele>110</ele>
        <time>2018-03-03T13:16:27.677Z</time>
      </trkpt>
      <trkpt lat="47.79834" lon="2.13565">
        <ele>111</ele>
        <time>2018-03-03T13:16:28.683Z</time>
      </trkpt>
      <trkpt lat="47.79834" lon="2.13565">
        <ele>111</ele>
        <time>2018-03-03T13:16:29.680Z</time>
      </trkpt>
      <trkpt lat="47.79821" lon="2.13567">
        <ele>111</ele>
        <time>2018-03-03T13:16:30.682Z</time>
      </trkpt>
      <trkpt lat="47.79815" lon="2.13566">
        <ele>111</ele>
        <time>2018-03-03T13:16:31.683Z</time>
      </trkpt>
      <trkpt lat="47.79809" lon="2.13565">
        <ele>111</ele>
        <time>2018-03-03T13:16:32.683Z</time>
      </trkpt>
      <trkpt lat="47.79809" lon="2.13565">
        <ele>111</ele>
        <time>2018-03-03T13:16:33.680Z</time>
      </trkpt>
      <trkpt lat="47.79798" lon="2.13562">
        <ele>111</ele>
        <time>2018-03-03T13:16:34.683Z</time>
      </trkpt>
      <trkpt lat="47.79798" lon="2.13562">
        <ele>111</ele>
        <time>2018-03-03T13:16:35.678Z</time>
      </trkpt>
      <trkpt lat="47.79788" lon="2.13558">
        <ele>111</ele>
        <time>2018-03-03T13:16:36.683Z</time>
      </trkpt>
      <trkpt lat="47.79788" lon="2.13558">
        <ele>111</ele>
        <time>2018-03-03T13:16:37.680Z</time>
      </trkpt>
      <trkpt lat="47.79779" lon="2.13552">
        <ele>111</ele>
        <time>2018-03-03T13:16:38.685Z</time>
      </trkpt>
      <trkpt lat="47.79779" lon="2.13552">
        <ele>111</ele>
        <time>2018-03-03T13:16:39.677Z</time>
      </trkpt>
      <trkpt lat="47.79771" lon="2.13547">
        <ele>112</ele>
        <time>2018-03-03T13:16:40.683Z</time>
      </trkpt>
      <trkpt lat="47.79771" lon="2.13547">
        <ele>112</ele>
        <time>2018-03-03T13:16:41.680Z</time>
      </trkpt>
      <trkpt lat="47.79762" lon="2.13542">
        <ele>112</ele>
        <time>2018-03-03T13:16:42.683Z</time>
      </trkpt>
      <trkpt lat="47.79762" lon="2.13542">
        <ele>112</ele>
        <time>2018-03-03T13:16:43.680Z</time>
      </trkpt>
      <trkpt lat="47.79753" lon="2.13536">
        <ele>114</ele>
        <time>2018-03-03T13:16:44.685Z</time>
      </trkpt>
      <trkpt lat="47.79753" lon="2.13536">
        <ele>114</ele>
        <time>2018-03-03T13:16:45.681Z</time>
      </trkpt>
      <trkpt lat="47.79743" lon="2.13531">
        <ele>114</ele>
        <time>2018-03-03T13:16:46.684Z</time>
      </trkpt>
      <trkpt lat="47.79743" lon="2.13531">
        <ele>114</ele>
        <time>2018-03-03T13:16:47.680Z</time>
      </trkpt>
      <trkpt lat="47.79734" lon="2.13525">
        <ele>114</ele>
        <time>2018-03-03T13:16:48.683Z</time>
      </trkpt>
      <trkpt lat="47.79734" lon="2.13525">
        <ele>114</ele>
        <time>2018-03-03T13:16:49.680Z</time>
      </trkpt>
      <trkpt lat="47.79724" lon="2.1352">
        <ele>115</ele>
        <time>2018-03-03T13:16:50.684Z</time>
      </trkpt>
      <trkpt lat="47.79724" lon="2.1352">
        <ele>115</ele>
        <time>2018-03-03T13:16:51.679Z</time>
      </trkpt>
      <trkpt lat="47.79716" lon="2.13516">
        <ele>116</ele>
        <time>2018-03-03T13:16:52.684Z</time>
      </trkpt>
      <trkpt lat="47.79716" lon="2.13516">
        <ele>116</ele>
        <time>2018-03-03T13:16:53.673Z</time>
      </trkpt>
      <trkpt lat="47.79708" lon="2.13511">
        <ele>116</ele>
        <time>2018-03-03T13:16:54.683Z</time>
      </trkpt>
      <trkpt lat="47.79708" lon="2.13511">
        <ele>116</ele>
        <time>2018-03-03T13:16:55.689Z</time>
      </trkpt>
      <trkpt lat="47.797" lon="2.13506">
        <ele>116</ele>
        <time>2018-03-03T13:16:56.683Z</time>
      </trkpt>
      <trkpt lat="47.797" lon="2.13506">
        <ele>116</ele>
        <time>2018-03-03T13:16:57.678Z</time>
      </trkpt>
      <trkpt lat="47.79691" lon="2.13501">
        <ele>116</ele>
        <time>2018-03-03T13:16:58.683Z</time>
      </trkpt>
      <trkpt lat="47.79691" lon="2.13501">
        <ele>116</ele>
        <time>2018-03-03T13:16:59.680Z</time>
      </trkpt>
      <trkpt lat="47.79683" lon="2.13497">
        <ele>117</ele>
        <time>2018-03-03T13:17:00.683Z</time>
      </trkpt>
      <trkpt lat="47.79683" lon="2.13497">
        <ele>117</ele>
        <time>2018-03-03T13:17:01.677Z</time>
      </trkpt>
      <trkpt lat="47.79676" lon="2.13493">
        <ele>117</ele>
        <time>2018-03-03T13:17:02.684Z</time>
      </trkpt>
      <trkpt lat="47.79676" lon="2.13493">
        <ele>117</ele>
        <time>2018-03-03T13:17:03.685Z</time>
      </trkpt>
      <trkpt lat="47.7967" lon="2.1349">
        <ele>116</ele>
        <time>2018-03-03T13:17:04.683Z</time>
      </trkpt>
      <trkpt lat="47.7967" lon="2.1349">
        <ele>116</ele>
        <time>2018-03-03T13:17:05.680Z</time>
      </trkpt>
      <trkpt lat="47.79665" lon="2.13486">
        <ele>116</ele>
        <time>2018-03-03T13:17:06.682Z</time>
      </trkpt>
      <trkpt lat="47.79665" lon="2.13486">
        <ele>116</ele>
        <time>2018-03-03T13:17:07.677Z</time>
      </trkpt>
      <trkpt lat="47.79659" lon="2.13484">
        <ele>117</ele>
        <time>2018-03-03T13:17:08.683Z</time>
      </trkpt>
      <trkpt lat="47.79659" lon="2.13484">
        <ele>117</ele>
        <time>2018-03-03T13:17:09.680Z</time>
      </trkpt>
      <trkpt lat="47.79652" lon="2.13481">
        <ele>118</ele>
        <time>2018-03-03T13:17:10.683Z</time>
      </trkpt>
      <trkpt lat="47.79652" lon="2.13481">
        <ele>118</ele>
        <time>2018-03-03T13:17:11.677Z</time>
      </trkpt>
      <trkpt lat="47.79646" lon="2.13477">
        <ele>119</ele>
        <time>2018-03-03T13:17:12.685Z</time>
      </trkpt>
      <trkpt lat="47.79646" lon="2.13477">
        <ele>119</ele>
        <time>2018-03-03T13:17:13.681Z</time>
      </trkpt>
      <trkpt lat="47.79639" lon="2.13474">
        <ele>119</ele>
        <time>2018-03-03T13:17:14.683Z</time>
      </trkpt>
      <trkpt lat="47.79639" lon="2.13474">
        <ele>119</ele>
        <time>2018-03-03T13:17:15.681Z</time>
      </trkpt>
      <trkpt lat="47.79632" lon="2.1347">
        <ele>120</ele>
        <time>2018-03-03T13:17:16.684Z</time>
      </trkpt>
      <trkpt lat="47.79632" lon="2.1347">
        <ele>120</ele>
        <time>2018-03-03T13:17:17.681Z</time>
      </trkpt>
      <trkpt lat="47.79626" lon="2.13467">
        <ele>121</ele>
        <time>2018-03-03T13:17:18.682Z</time>
      </trkpt>
      <trkpt lat="47.79626" lon="2.13467">
        <ele>121</ele>
        <time>2018-03-03T13:17:19.680Z</time>
      </trkpt>
      <trkpt lat="47.79619" lon="2.13464">
        <ele>121</ele>
        <time>2018-03-03T13:17:20.683Z</time>
      </trkpt>
      <trkpt lat="47.79619" lon="2.13464">
        <ele>121</ele>
        <time>2018-03-03T13:17:21.680Z</time>
      </trkpt>
      <trkpt lat="47.79612" lon="2.1346">
        <ele>121</ele>
        <time>2018-03-03T13:17:22.683Z</time>
      </trkpt>
      <trkpt lat="47.79612" lon="2.1346">
        <ele>121</ele>
        <time>2018-03-03T13:17:23.680Z</time>
      </trkpt>
      <trkpt lat="47.79604" lon="2.13456">
        <ele>121</ele>
        <time>2018-03-03T13:17:24.683Z</time>
      </trkpt>
      <trkpt lat="47.79601" lon="2.13454">
        <ele>121</ele>
        <time>2018-03-03T13:17:25.683Z</time>
      </trkpt>
      <trkpt lat="47.79597" lon="2.13452">
        <ele>122</ele>
        <time>2018-03-03T13:17:26.685Z</time>
      </trkpt>
      <trkpt lat="47.79597" lon="2.13452">
        <ele>122</ele>
        <time>2018-03-03T13:17:27.680Z</time>
      </trkpt>
      <trkpt lat="47.7959" lon="2.13448">
        <ele>121</ele>
        <time>2018-03-03T13:17:28.685Z</time>
      </trkpt>
      <trkpt lat="47.7959" lon="2.13448">
        <ele>121</ele>
        <time>2018-03-03T13:17:29.677Z</time>
      </trkpt>
      <trkpt lat="47.79583" lon="2.13445">
        <ele>121</ele>
        <time>2018-03-03T13:17:30.683Z</time>
      </trkpt>
      <trkpt lat="47.79583" lon="2.13445">
        <ele>121</ele>
        <time>2018-03-03T13:17:31.681Z</time>
      </trkpt>
      <trkpt lat="47.79576" lon="2.13443">
        <ele>122</ele>
        <time>2018-03-03T13:17:32.685Z</time>
      </trkpt>
      <trkpt lat="47.79576" lon="2.13443">
        <ele>122</ele>
        <time>2018-03-03T13:17:33.675Z</time>
      </trkpt>
      <trkpt lat="47.7957" lon="2.13439">
        <ele>122</ele>
        <time>2018-03-03T13:17:34.684Z</time>
      </trkpt>
      <trkpt lat="47.7957" lon="2.13439">
        <ele>122</ele>
        <time>2018-03-03T13:17:35.680Z</time>
      </trkpt>
      <trkpt lat="47.79564" lon="2.13435">
        <ele>122</ele>
        <time>2018-03-03T13:17:36.683Z</time>
      </trkpt>
      <trkpt lat="47.79564" lon="2.13435">
        <ele>122</ele>
        <time>2018-03-03T13:17:37.677Z</time>
      </trkpt>
      <trkpt lat="47.79557" lon="2.13431">
        <ele>121</ele>
        <time>2018-03-03T13:17:38.685Z</time>
      </trkpt>
      <trkpt lat="47.79557" lon="2.13431">
        <ele>121</ele>
        <time>2018-03-03T13:17:39.680Z</time>
      </trkpt>
      <trkpt lat="47.7955" lon="2.13428">
        <ele>121</ele>
        <time>2018-03-03T13:17:40.684Z</time>
      </trkpt>
      <trkpt lat="47.7955" lon="2.13428">
        <ele>121</ele>
        <time>2018-03-03T13:17:41.677Z</time>
      </trkpt>
      <trkpt lat="47.79542" lon="2.13424">
        <ele>121</ele>
        <time>2018-03-03T13:17:42.683Z</time>
      </trkpt>
      <trkpt lat="47.79542" lon="2.13424">
        <ele>121</ele>
        <time>2018-03-03T13:17:43.681Z</time>
      </trkpt>
      <trkpt lat="47.79535" lon="2.1342">
        <ele>121</ele>
        <time>2018-03-03T13:17:44.684Z</time>
      </trkpt>
      <trkpt lat="47.79535" lon="2.1342">
        <ele>121</ele>
        <time>2018-03-03T13:17:45.677Z</time>
      </trkpt>
      <trkpt lat="47.79527" lon="2.13416">
        <ele>121</ele>
        <time>2018-03-03T13:17:46.684Z</time>
      </trkpt>
      <trkpt lat="47.79527" lon="2.13416">
        <ele>121</ele>
        <time>2018-03-03T13:17:47.680Z</time>
      </trkpt>
      <trkpt lat="47.7952" lon="2.13412">
        <ele>121</ele>
        <time>2018-03-03T13:17:48.683Z</time>
      </trkpt>
      <trkpt lat="47.7952" lon="2.13412">
        <ele>121</ele>
        <time>2018-03-03T13:17:49.680Z</time>
      </trkpt>
      <trkpt lat="47.79512" lon="2.13408">
        <ele>121</ele>
        <time>2018-03-03T13:17:50.681Z</time>
      </trkpt>
      <trkpt lat="47.79512" lon="2.13408">
        <ele>121</ele>
        <time>2018-03-03T13:17:51.680Z</time>
      </trkpt>
      <trkpt lat="47.79505" lon="2.13404">
        <ele>121</ele>
        <time>2018-03-03T13:17:52.684Z</time>
      </trkpt>
      <trkpt lat="47.79505" lon="2.13404">
        <ele>121</ele>
        <time>2018-03-03T13:17:53.680Z</time>
      </trkpt>
      <trkpt lat="47.79498" lon="2.13401">
        <ele>121</ele>
        <time>2018-03-03T13:17:54.687Z</time>
      </trkpt>
      <trkpt lat="47.79498" lon="2.13401">
        <ele>121</ele>
        <time>2018-03-03T13:17:55.681Z</time>
      </trkpt>
      <trkpt lat="47.79491" lon="2.13398">
        <ele>121</ele>
        <time>2018-03-03T13:17:56.685Z</time>
      </trkpt>
      <trkpt lat="47.79491" lon="2.13398">
        <ele>121</ele>
        <time>2018-03-03T13:17:57.680Z</time>
      </trkpt>
      <trkpt lat="47.79484" lon="2.13394">
        <ele>121</ele>
        <time>2018-03-03T13:17:58.684Z</time>
      </trkpt>
      <trkpt lat="47.79484" lon="2.13394">
        <ele>121</ele>
        <time>2018-03-03T13:17:59.678Z</time>
      </trkpt>
      <trkpt lat="47.79477" lon="2.13391">
        <ele>121</ele>
        <time>2018-03-03T13:18:00.683Z</time>
      </trkpt>
      <trkpt lat="47.79477" lon="2.13391">
        <ele>121</ele>
        <time>2018-03-03T13:18:01.680Z</time>
      </trkpt>
      <trkpt lat="47.7947" lon="2.13387">
        <ele>121</ele>
        <time>2018-03-03T13:18:02.685Z</time>
      </trkpt>
      <trkpt lat="47.7947" lon="2.13387">
        <ele>121</ele>
        <time>2018-03-03T13:18:03.678Z</time>
      </trkpt>
      <trkpt lat="47.79463" lon="2.13383">
        <ele>121</ele>
        <time>2018-03-03T13:18:04.683Z</time>
      </trkpt>
      <trkpt lat="47.79463" lon="2.13383">
        <ele>121</ele>
        <time>2018-03-03T13:18:05.682Z</time>
      </trkpt>
      <trkpt lat="47.79456" lon="2.13379">
        <ele>121</ele>
        <time>2018-03-03T13:18:06.683Z</time>
      </trkpt>
      <trkpt lat="47.79456" lon="2.13379">
        <ele>121</ele>
        <time>2018-03-03T13:18:07.677Z</time>
      </trkpt>
      <trkpt lat="47.79449" lon="2.13376">
        <ele>121</ele>
        <time>2018-03-03T13:18:08.684Z</time>
      </trkpt>
      <trkpt lat="47.79449" lon="2.13376">
        <ele>121</ele>
        <time>2018-03-03T13:18:09.680Z</time>
      </trkpt>
      <trkpt lat="47.79441" lon="2.13373">
        <ele>122</ele>
        <time>2018-03-03T13:18:10.684Z</time>
      </trkpt>
      <trkpt lat="47.79441" lon="2.13373">
        <ele>122</ele>
        <time>2018-03-03T13:18:11.679Z</time>
      </trkpt>
      <trkpt lat="47.79435" lon="2.1337">
        <ele>122</ele>
        <time>2018-03-03T13:18:12.683Z</time>
      </trkpt>
      <trkpt lat="47.79435" lon="2.1337">
        <ele>122</ele>
        <time>2018-03-03T13:18:13.680Z</time>
      </trkpt>
      <trkpt lat="47.79429" lon="2.13367">
        <ele>121</ele>
        <time>2018-03-03T13:18:14.685Z</time>
      </trkpt>
      <trkpt lat="47.79429" lon="2.13367">
        <ele>121</ele>
        <time>2018-03-03T13:18:15.675Z</time>
      </trkpt>
      <trkpt lat="47.79423" lon="2.13364">
        <ele>122</ele>
        <time>2018-03-03T13:18:16.684Z</time>
      </trkpt>
      <trkpt lat="47.79423" lon="2.13364">
        <ele>122</ele>
        <time>2018-03-03T13:18:17.703Z</time>
      </trkpt>
      <trkpt lat="47.79417" lon="2.1336">
        <ele>121</ele>
        <time>2018-03-03T13:18:18.693Z</time>
      </trkpt>
      <trkpt lat="47.79417" lon="2.1336">
        <ele>121</ele>
        <time>2018-03-03T13:18:19.683Z</time>
      </trkpt>
      <trkpt lat="47.7941" lon="2.13356">
        <ele>122</ele>
        <time>2018-03-03T13:18:20.685Z</time>
      </trkpt>
      <trkpt lat="47.7941" lon="2.13356">
        <ele>122</ele>
        <time>2018-03-03T13:18:21.680Z</time>
      </trkpt>
      <trkpt lat="47.79403" lon="2.13353">
        <ele>122</ele>
        <time>2018-03-03T13:18:22.693Z</time>
      </trkpt>
      <trkpt lat="47.79403" lon="2.13353">
        <ele>122</ele>
        <time>2018-03-03T13:18:23.684Z</time>
      </trkpt>
      <trkpt lat="47.79396" lon="2.13351">
        <ele>122</ele>
        <time>2018-03-03T13:18:24.689Z</time>
      </trkpt>
      <trkpt lat="47.79391" lon="2.13349">
        <ele>122</ele>
        <time>2018-03-03T13:18:25.688Z</time>
      </trkpt>
      <trkpt lat="47.79388" lon="2.13347">
        <ele>122</ele>
        <time>2018-03-03T13:18:26.698Z</time>
      </trkpt>
      <trkpt lat="47.79388" lon="2.13347">
        <ele>122</ele>
        <time>2018-03-03T13:18:27.687Z</time>
      </trkpt>
      <trkpt lat="47.79382" lon="2.13345">
        <ele>123</ele>
        <time>2018-03-03T13:18:28.685Z</time>
      </trkpt>
      <trkpt lat="47.79382" lon="2.13345">
        <ele>123</ele>
        <time>2018-03-03T13:18:29.681Z</time>
      </trkpt>
      <trkpt lat="47.79375" lon="2.13341">
        <ele>123</ele>
        <time>2018-03-03T13:18:30.683Z</time>
      </trkpt>
      <trkpt lat="47.79372" lon="2.1334">
        <ele>123</ele>
        <time>2018-03-03T13:18:31.683Z</time>
      </trkpt>
      <trkpt lat="47.79369" lon="2.13338">
        <ele>124</ele>
        <time>2018-03-03T13:18:32.684Z</time>
      </trkpt>
      <trkpt lat="47.79369" lon="2.13338">
        <ele>124</ele>
        <time>2018-03-03T13:18:33.677Z</time>
      </trkpt>
      <trkpt lat="47.79362" lon="2.13334">
        <ele>124</ele>
        <time>2018-03-03T13:18:34.685Z</time>
      </trkpt>
      <trkpt lat="47.79362" lon="2.13334">
        <ele>124</ele>
        <time>2018-03-03T13:18:35.690Z</time>
      </trkpt>
      <trkpt lat="47.79355" lon="2.1333">
        <ele>124</ele>
        <time>2018-03-03T13:18:36.683Z</time>
      </trkpt>
      <trkpt lat="47.79355" lon="2.1333">
        <ele>124</ele>
        <time>2018-03-03T13:18:37.678Z</time>
      </trkpt>
      <trkpt lat="47.79348" lon="2.13327">
        <ele>125</ele>
        <time>2018-03-03T13:18:38.684Z</time>
      </trkpt>
      <trkpt lat="47.79348" lon="2.13327">
        <ele>125</ele>
        <time>2018-03-03T13:18:39.680Z</time>
      </trkpt>
      <trkpt lat="47.7934" lon="2.13324">
        <ele>125</ele>
        <time>2018-03-03T13:18:40.685Z</time>
      </trkpt>
      <trkpt lat="47.7934" lon="2.13324">
        <ele>125</ele>
        <time>2018-03-03T13:18:41.680Z</time>
      </trkpt>
      <trkpt lat="47.79333" lon="2.13321">
        <ele>126</ele>
        <time>2018-03-03T13:18:42.684Z</time>
      </trkpt>
      <trkpt lat="47.79333" lon="2.13321">
        <ele>126</ele>
        <time>2018-03-03T13:18:43.680Z</time>
      </trkpt>
      <trkpt lat="47.79325" lon="2.13317">
        <ele>126</ele>
        <time>2018-03-03T13:18:44.679Z</time>
      </trkpt>
      <trkpt lat="47.79321" lon="2.13315">
        <ele>126</ele>
        <time>2018-03-03T13:18:45.682Z</time>
      </trkpt>
      <trkpt lat="47.79318" lon="2.13314">
        <ele>126</ele>
        <time>2018-03-03T13:18:46.685Z</time>
      </trkpt>
      <trkpt lat="47.79318" lon="2.13314">
        <ele>126</ele>
        <time>2018-03-03T13:18:47.680Z</time>
      </trkpt>
      <trkpt lat="47.7931" lon="2.1331">
        <ele>127</ele>
        <time>2018-03-03T13:18:48.683Z</time>
      </trkpt>
      <trkpt lat="47.7931" lon="2.1331">
        <ele>127</ele>
        <time>2018-03-03T13:18:49.702Z</time>
      </trkpt>
      <trkpt lat="47.79303" lon="2.13306">
        <ele>127</ele>
        <time>2018-03-03T13:18:50.685Z</time>
      </trkpt>
      <trkpt lat="47.793" lon="2.13304">
        <ele>127</ele>
        <time>2018-03-03T13:18:51.684Z</time>
      </trkpt>
      <trkpt lat="47.793" lon="2.13304">
        <ele>127</ele>
        <time>2018-03-03T13:18:52.679Z</time>
      </trkpt>
      <trkpt lat="47.79293" lon="2.13301">
        <ele>127</ele>
        <time>2018-03-03T13:18:53.684Z</time>
      </trkpt>
      <trkpt lat="47.79293" lon="2.13301">
        <ele>127</ele>
        <time>2018-03-03T13:18:54.687Z</time>
      </trkpt>
      <trkpt lat="47.79286" lon="2.13297">
        <ele>127</ele>
        <time>2018-03-03T13:18:55.686Z</time>
      </trkpt>
      <trkpt lat="47.79285" lon="2.13295">
        <ele>127</ele>
        <time>2018-03-03T13:18:56.686Z</time>
      </trkpt>
      <trkpt lat="47.79285" lon="2.13295">
        <ele>127</ele>
        <time>2018-03-03T13:18:57.680Z</time>
      </trkpt>
      <trkpt lat="47.79277" lon="2.13292">
        <ele>127</ele>
        <time>2018-03-03T13:18:58.686Z</time>
      </trkpt>
      <trkpt lat="47.79277" lon="2.13292">
        <ele>127</ele>
        <time>2018-03-03T13:18:59.678Z</time>
      </trkpt>
      <trkpt lat="47.7927" lon="2.13288">
        <ele>127</ele>
        <time>2018-03-03T13:19:00.684Z</time>
      </trkpt>
      <trkpt lat="47.79267" lon="2.13287">
        <ele>127</ele>
        <time>2018-03-03T13:19:01.684Z</time>
      </trkpt>
      <trkpt lat="47.79263" lon="2.13286">
        <ele>127</ele>
        <time>2018-03-03T13:19:02.685Z</time>
      </trkpt>
      <trkpt lat="47.79263" lon="2.13286">
        <ele>127</ele>
        <time>2018-03-03T13:19:03.680Z</time>
      </trkpt>
      <trkpt lat="47.79256" lon="2.13283">
        <ele>127</ele>
        <time>2018-03-03T13:19:04.684Z</time>
      </trkpt>
      <trkpt lat="47.79256" lon="2.13283">
        <ele>127</ele>
        <time>2018-03-03T13:19:05.681Z</time>
      </trkpt>
      <trkpt lat="47.79249" lon="2.13281">
        <ele>127</ele>
        <time>2018-03-03T13:19:06.682Z</time>
      </trkpt>
      <trkpt lat="47.79249" lon="2.13281">
        <ele>127</ele>
        <time>2018-03-03T13:19:07.681Z</time>
      </trkpt>
      <trkpt lat="47.79243" lon="2.13278">
        <ele>127</ele>
        <time>2018-03-03T13:19:08.685Z</time>
      </trkpt>
      <trkpt lat="47.79243" lon="2.13278">
        <ele>127</ele>
        <time>2018-03-03T13:19:09.680Z</time>
      </trkpt>
      <trkpt lat="47.79237" lon="2.13275">
        <ele>127</ele>
        <time>2018-03-03T13:19:10.684Z</time>
      </trkpt>
      <trkpt lat="47.79237" lon="2.13275">
        <ele>127</ele>
        <time>2018-03-03T13:19:11.681Z</time>
      </trkpt>
      <trkpt lat="47.79229" lon="2.13273">
        <ele>127</ele>
        <time>2018-03-03T13:19:12.683Z</time>
      </trkpt>
      <trkpt lat="47.79229" lon="2.13273">
        <ele>127</ele>
        <time>2018-03-03T13:19:13.681Z</time>
      </trkpt>
      <trkpt lat="47.79222" lon="2.13271">
        <ele>127</ele>
        <time>2018-03-03T13:19:14.683Z</time>
      </trkpt>
      <trkpt lat="47.79222" lon="2.13271">
        <ele>127</ele>
        <time>2018-03-03T13:19:15.683Z</time>
      </trkpt>
      <trkpt lat="47.79215" lon="2.13268">
        <ele>127</ele>
        <time>2018-03-03T13:19:16.685Z</time>
      </trkpt>
      <trkpt lat="47.79215" lon="2.13268">
        <ele>127</ele>
        <time>2018-03-03T13:19:17.678Z</time>
      </trkpt>
      <trkpt lat="47.79207" lon="2.13266">
        <ele>127</ele>
        <time>2018-03-03T13:19:18.689Z</time>
      </trkpt>
      <trkpt lat="47.79207" lon="2.13266">
        <ele>127</ele>
        <time>2018-03-03T13:19:19.681Z</time>
      </trkpt>
      <trkpt lat="47.79199" lon="2.13264">
        <ele>126</ele>
        <time>2018-03-03T13:19:20.684Z</time>
      </trkpt>
      <trkpt lat="47.79199" lon="2.13264">
        <ele>126</ele>
        <time>2018-03-03T13:19:21.678Z</time>
      </trkpt>
      <trkpt lat="47.79192" lon="2.13263">
        <ele>126</ele>
        <time>2018-03-03T13:19:22.685Z</time>
      </trkpt>
      <trkpt lat="47.79192" lon="2.13263">
        <ele>126</ele>
        <time>2018-03-03T13:19:23.681Z</time>
      </trkpt>
      <trkpt lat="47.79185" lon="2.13261">
        <ele>126</ele>
        <time>2018-03-03T13:19:24.684Z</time>
      </trkpt>
      <trkpt lat="47.79185" lon="2.13261">
        <ele>126</ele>
        <time>2018-03-03T13:19:25.678Z</time>
      </trkpt>
      <trkpt lat="47.79177" lon="2.1326">
        <ele>126</ele>
        <time>2018-03-03T13:19:26.684Z</time>
      </trkpt>
      <trkpt lat="47.79177" lon="2.1326">
        <ele>126</ele>
        <time>2018-03-03T13:19:27.681Z</time>
      </trkpt>
      <trkpt lat="47.79171" lon="2.13258">
        <ele>125</ele>
        <time>2018-03-03T13:19:28.684Z</time>
      </trkpt>
      <trkpt lat="47.79171" lon="2.13258">
        <ele>125</ele>
        <time>2018-03-03T13:19:29.679Z</time>
      </trkpt>
      <trkpt lat="47.79164" lon="2.13257">
        <ele>125</ele>
        <time>2018-03-03T13:19:30.685Z</time>
      </trkpt>
      <trkpt lat="47.79164" lon="2.13257">
        <ele>125</ele>
        <time>2018-03-03T13:19:31.681Z</time>
      </trkpt>
      <trkpt lat="47.79157" lon="2.13256">
        <ele>125</ele>
        <time>2018-03-03T13:19:32.685Z</time>
      </trkpt>
      <trkpt lat="47.79157" lon="2.13256">
        <ele>125</ele>
        <time>2018-03-03T13:19:33.678Z</time>
      </trkpt>
      <trkpt lat="47.7915" lon="2.13256">
        <ele>125</ele>
        <time>2018-03-03T13:19:34.686Z</time>
      </trkpt>
      <trkpt lat="47.7915" lon="2.13256">
        <ele>125</ele>
        <time>2018-03-03T13:19:35.680Z</time>
      </trkpt>
      <trkpt lat="47.79143" lon="2.13255">
        <ele>125</ele>
        <time>2018-03-03T13:19:36.683Z</time>
      </trkpt>
      <trkpt lat="47.79143" lon="2.13255">
        <ele>125</ele>
        <time>2018-03-03T13:19:37.681Z</time>
      </trkpt>
      <trkpt lat="47.79135" lon="2.13254">
        <ele>125</ele>
        <time>2018-03-03T13:19:38.685Z</time>
      </trkpt>
      <trkpt lat="47.79135" lon="2.13254">
        <ele>125</ele>
        <time>2018-03-03T13:19:39.681Z</time>
      </trkpt>
      <trkpt lat="47.79128" lon="2.13254">
        <ele>125</ele>
        <time>2018-03-03T13:19:40.669Z</time>
      </trkpt>
      <trkpt lat="47.79128" lon="2.13254">
        <ele>125</ele>
        <time>2018-03-03T13:19:41.702Z</time>
      </trkpt>
      <trkpt lat="47.7912" lon="2.13253">
        <ele>125</ele>
        <time>2018-03-03T13:19:42.693Z</time>
      </trkpt>
      <trkpt lat="47.7912" lon="2.13253">
        <ele>125</ele>
        <time>2018-03-03T13:19:43.684Z</time>
      </trkpt>
      <trkpt lat="47.79112" lon="2.13253">
        <ele>125</ele>
        <time>2018-03-03T13:19:44.683Z</time>
      </trkpt>
      <trkpt lat="47.79112" lon="2.13253">
        <ele>125</ele>
        <time>2018-03-03T13:19:45.693Z</time>
      </trkpt>
      <trkpt lat="47.79104" lon="2.13252">
        <ele>125</ele>
        <time>2018-03-03T13:19:46.684Z</time>
      </trkpt>
      <trkpt lat="47.79104" lon="2.13252">
        <ele>125</ele>
        <time>2018-03-03T13:19:47.681Z</time>
      </trkpt>
      <trkpt lat="47.79096" lon="2.13252">
        <ele>125</ele>
        <time>2018-03-03T13:19:48.683Z</time>
      </trkpt>
      <trkpt lat="47.79096" lon="2.13252">
        <ele>125</ele>
        <time>2018-03-03T13:19:49.681Z</time>
      </trkpt>
      <trkpt lat="47.79088" lon="2.13252">
        <ele>125</ele>
        <time>2018-03-03T13:19:50.686Z</time>
      </trkpt>
      <trkpt lat="47.79084" lon="2.13252">
        <ele>125</ele>
        <time>2018-03-03T13:19:51.684Z</time>
      </trkpt>
      <trkpt lat="47.79084" lon="2.13252">
        <ele>125</ele>
        <time>2018-03-03T13:19:52.679Z</time>
      </trkpt>
      <trkpt lat="47.79075" lon="2.13253">
        <ele>125</ele>
        <time>2018-03-03T13:19:53.684Z</time>
      </trkpt>
      <trkpt lat="47.79075" lon="2.13253">
        <ele>125</ele>
        <time>2018-03-03T13:19:54.680Z</time>
      </trkpt>
      <trkpt lat="47.79066" lon="2.13253">
        <ele>124</ele>
        <time>2018-03-03T13:19:55.687Z</time>
      </trkpt>
      <trkpt lat="47.79062" lon="2.13254">
        <ele>124</ele>
        <time>2018-03-03T13:19:56.685Z</time>
      </trkpt>
      <trkpt lat="47.79062" lon="2.13254">
        <ele>124</ele>
        <time>2018-03-03T13:19:57.681Z</time>
      </trkpt>
      <trkpt lat="47.79053" lon="2.13252">
        <ele>123</ele>
        <time>2018-03-03T13:19:58.684Z</time>
      </trkpt>
      <trkpt lat="47.79053" lon="2.13252">
        <ele>123</ele>
        <time>2018-03-03T13:19:59.681Z</time>
      </trkpt>
      <trkpt lat="47.79045" lon="2.13246">
        <ele>123</ele>
        <time>2018-03-03T13:20:00.683Z</time>
      </trkpt>
      <trkpt lat="47.79045" lon="2.13246">
        <ele>123</ele>
        <time>2018-03-03T13:20:01.678Z</time>
      </trkpt>
      <trkpt lat="47.79038" lon="2.13238">
        <ele>123</ele>
        <time>2018-03-03T13:20:02.685Z</time>
      </trkpt>
      <trkpt lat="47.79038" lon="2.13238">
        <ele>123</ele>
        <time>2018-03-03T13:20:03.681Z</time>
      </trkpt>
      <trkpt lat="47.79032" lon="2.13228">
        <ele>123</ele>
        <time>2018-03-03T13:20:04.684Z</time>
      </trkpt>
      <trkpt lat="47.79032" lon="2.13228">
        <ele>123</ele>
        <time>2018-03-03T13:20:05.698Z</time>
      </trkpt>
      <trkpt lat="47.79026" lon="2.13217">
        <ele>123</ele>
        <time>2018-03-03T13:20:06.689Z</time>
      </trkpt>
      <trkpt lat="47.79026" lon="2.13217">
        <ele>123</ele>
        <time>2018-03-03T13:20:07.681Z</time>
      </trkpt>
      <trkpt lat="47.7902" lon="2.13207">
        <ele>123</ele>
        <time>2018-03-03T13:20:08.683Z</time>
      </trkpt>
      <trkpt lat="47.7902" lon="2.13207">
        <ele>123</ele>
        <time>2018-03-03T13:20:09.679Z</time>
      </trkpt>
      <trkpt lat="47.79014" lon="2.13196">
        <ele>122</ele>
        <time>2018-03-03T13:20:10.685Z</time>
      </trkpt>
      <trkpt lat="47.79014" lon="2.13196">
        <ele>122</ele>
        <time>2018-03-03T13:20:11.680Z</time>
      </trkpt>
      <trkpt lat="47.79008" lon="2.13185">
        <ele>122</ele>
        <time>2018-03-03T13:20:12.683Z</time>
      </trkpt>
      <trkpt lat="47.79008" lon="2.13185">
        <ele>122</ele>
        <time>2018-03-03T13:20:13.678Z</time>
      </trkpt>
      <trkpt lat="47.79002" lon="2.13173">
        <ele>122</ele>
        <time>2018-03-03T13:20:14.685Z</time>
      </trkpt>
      <trkpt lat="47.79002" lon="2.13173">
        <ele>122</ele>
        <time>2018-03-03T13:20:15.681Z</time>
      </trkpt>
      <trkpt lat="47.78996" lon="2.13162">
        <ele>122</ele>
        <time>2018-03-03T13:20:16.685Z</time>
      </trkpt>
      <trkpt lat="47.78996" lon="2.13162">
        <ele>122</ele>
        <time>2018-03-03T13:20:17.680Z</time>
      </trkpt>
      <trkpt lat="47.7899" lon="2.13151">
        <ele>122</ele>
        <time>2018-03-03T13:20:18.695Z</time>
      </trkpt>
      <trkpt lat="47.7899" lon="2.13151">
        <ele>122</ele>
        <time>2018-03-03T13:20:19.684Z</time>
      </trkpt>
      <trkpt lat="47.78984" lon="2.13139">
        <ele>122</ele>
        <time>2018-03-03T13:20:20.685Z</time>
      </trkpt>
      <trkpt lat="47.78984" lon="2.13139">
        <ele>122</ele>
        <time>2018-03-03T13:20:21.681Z</time>
      </trkpt>
      <trkpt lat="47.78978" lon="2.13128">
        <ele>122</ele>
        <time>2018-03-03T13:20:22.685Z</time>
      </trkpt>
      <trkpt lat="47.78978" lon="2.13128">
        <ele>122</ele>
        <time>2018-03-03T13:20:23.681Z</time>
      </trkpt>
      <trkpt lat="47.78972" lon="2.13117">
        <ele>122</ele>
        <time>2018-03-03T13:20:24.683Z</time>
      </trkpt>
      <trkpt lat="47.78972" lon="2.13117">
        <ele>122</ele>
        <time>2018-03-03T13:20:25.678Z</time>
      </trkpt>
      <trkpt lat="47.78966" lon="2.13105">
        <ele>122</ele>
        <time>2018-03-03T13:20:26.685Z</time>
      </trkpt>
      <trkpt lat="47.78966" lon="2.13105">
        <ele>122</ele>
        <time>2018-03-03T13:20:27.681Z</time>
      </trkpt>
      <trkpt lat="47.7896" lon="2.13094">
        <ele>122</ele>
        <time>2018-03-03T13:20:28.685Z</time>
      </trkpt>
      <trkpt lat="47.7896" lon="2.13094">
        <ele>122</ele>
        <time>2018-03-03T13:20:29.678Z</time>
      </trkpt>
      <trkpt lat="47.78954" lon="2.13084">
        <ele>121</ele>
        <time>2018-03-03T13:20:30.683Z</time>
      </trkpt>
      <trkpt lat="47.78954" lon="2.13084">
        <ele>121</ele>
        <time>2018-03-03T13:20:31.681Z</time>
      </trkpt>
      <trkpt lat="47.78948" lon="2.13073">
        <ele>121</ele>
        <time>2018-03-03T13:20:32.693Z</time>
      </trkpt>
      <trkpt lat="47.78948" lon="2.13073">
        <ele>121</ele>
        <time>2018-03-03T13:20:33.684Z</time>
      </trkpt>
      <trkpt lat="47.78941" lon="2.13063">
        <ele>121</ele>
        <time>2018-03-03T13:20:34.685Z</time>
      </trkpt>
      <trkpt lat="47.78941" lon="2.13063">
        <ele>121</ele>
        <time>2018-03-03T13:20:35.674Z</time>
      </trkpt>
      <trkpt lat="47.78935" lon="2.13052">
        <ele>121</ele>
        <time>2018-03-03T13:20:36.684Z</time>
      </trkpt>
      <trkpt lat="47.78935" lon="2.13052">
        <ele>121</ele>
        <time>2018-03-03T13:20:37.680Z</time>
      </trkpt>
      <trkpt lat="47.78929" lon="2.13042">
        <ele>121</ele>
        <time>2018-03-03T13:20:38.685Z</time>
      </trkpt>
      <trkpt lat="47.78929" lon="2.13042">
        <ele>121</ele>
        <time>2018-03-03T13:20:39.681Z</time>
      </trkpt>
      <trkpt lat="47.78923" lon="2.13032">
        <ele>121</ele>
        <time>2018-03-03T13:20:40.685Z</time>
      </trkpt>
      <trkpt lat="47.78923" lon="2.13032">
        <ele>121</ele>
        <time>2018-03-03T13:20:41.680Z</time>
      </trkpt>
      <trkpt lat="47.78917" lon="2.13022">
        <ele>121</ele>
        <time>2018-03-03T13:20:42.684Z</time>
      </trkpt>
      <trkpt lat="47.78917" lon="2.13022">
        <ele>121</ele>
        <time>2018-03-03T13:20:43.681Z</time>
      </trkpt>
      <trkpt lat="47.78911" lon="2.13013">
        <ele>120</ele>
        <time>2018-03-03T13:20:44.684Z</time>
      </trkpt>
      <trkpt lat="47.78911" lon="2.13013">
        <ele>120</ele>
        <time>2018-03-03T13:20:45.684Z</time>
      </trkpt>
      <trkpt lat="47.78905" lon="2.13004">
        <ele>120</ele>
        <time>2018-03-03T13:20:46.684Z</time>
      </trkpt>
      <trkpt lat="47.78905" lon="2.13004">
        <ele>120</ele>
        <time>2018-03-03T13:20:47.681Z</time>
      </trkpt>
      <trkpt lat="47.78899" lon="2.12995">
        <ele>120</ele>
        <time>2018-03-03T13:20:48.683Z</time>
      </trkpt>
      <trkpt lat="47.78899" lon="2.12995">
        <ele>120</ele>
        <time>2018-03-03T13:20:49.681Z</time>
      </trkpt>
      <trkpt lat="47.78894" lon="2.12986">
        <ele>120</ele>
        <time>2018-03-03T13:20:50.685Z</time>
      </trkpt>
      <trkpt lat="47.78894" lon="2.12986">
        <ele>120</ele>
        <time>2018-03-03T13:20:51.681Z</time>
      </trkpt>
      <trkpt lat="47.78888" lon="2.12977">
        <ele>120</ele>
        <time>2018-03-03T13:20:52.685Z</time>
      </trkpt>
      <trkpt lat="47.78888" lon="2.12977">
        <ele>120</ele>
        <time>2018-03-03T13:20:53.681Z</time>
      </trkpt>
      <trkpt lat="47.78881" lon="2.12968">
        <ele>120</ele>
        <time>2018-03-03T13:20:54.684Z</time>
      </trkpt>
      <trkpt lat="47.78881" lon="2.12968">
        <ele>120</ele>
        <time>2018-03-03T13:20:55.695Z</time>
      </trkpt>
      <trkpt lat="47.78875" lon="2.12958">
        <ele>120</ele>
        <time>2018-03-03T13:20:56.686Z</time>
      </trkpt>
      <trkpt lat="47.78875" lon="2.12958">
        <ele>120</ele>
        <time>2018-03-03T13:20:57.681Z</time>
      </trkpt>
      <trkpt lat="47.78869" lon="2.12948">
        <ele>120</ele>
        <time>2018-03-03T13:20:58.686Z</time>
      </trkpt>
      <trkpt lat="47.78869" lon="2.12948">
        <ele>120</ele>
        <time>2018-03-03T13:20:59.681Z</time>
      </trkpt>
      <trkpt lat="47.78863" lon="2.12939">
        <ele>120</ele>
        <time>2018-03-03T13:21:00.684Z</time>
      </trkpt>
      <trkpt lat="47.7886" lon="2.12934">
        <ele>120</ele>
        <time>2018-03-03T13:21:01.684Z</time>
      </trkpt>
      <trkpt lat="47.7886" lon="2.12934">
        <ele>120</ele>
        <time>2018-03-03T13:21:02.680Z</time>
      </trkpt>
      <trkpt lat="47.78854" lon="2.12925">
        <ele>120</ele>
        <time>2018-03-03T13:21:03.684Z</time>
      </trkpt>
      <trkpt lat="47.78851" lon="2.12921">
        <ele>120</ele>
        <time>2018-03-03T13:21:04.690Z</time>
      </trkpt>
      <trkpt lat="47.78851" lon="2.12921">
        <ele>120</ele>
        <time>2018-03-03T13:21:05.684Z</time>
      </trkpt>
      <trkpt lat="47.78845" lon="2.12912">
        <ele>120</ele>
        <time>2018-03-03T13:21:06.684Z</time>
      </trkpt>
      <trkpt lat="47.78845" lon="2.12912">
        <ele>120</ele>
        <time>2018-03-03T13:21:07.681Z</time>
      </trkpt>
      <trkpt lat="47.78838" lon="2.12903">
        <ele>120</ele>
        <time>2018-03-03T13:21:08.684Z</time>
      </trkpt>
      <trkpt lat="47.78838" lon="2.12903">
        <ele>120</ele>
        <time>2018-03-03T13:21:09.679Z</time>
      </trkpt>
      <trkpt lat="47.78832" lon="2.12895">
        <ele>120</ele>
        <time>2018-03-03T13:21:10.683Z</time>
      </trkpt>
      <trkpt lat="47.78832" lon="2.12895">
        <ele>120</ele>
        <time>2018-03-03T13:21:11.681Z</time>
      </trkpt>
      <trkpt lat="47.78825" lon="2.12887">
        <ele>120</ele>
        <time>2018-03-03T13:21:12.684Z</time>
      </trkpt>
      <trkpt lat="47.78825" lon="2.12887">
        <ele>120</ele>
        <time>2018-03-03T13:21:13.678Z</time>
      </trkpt>
      <trkpt lat="47.78818" lon="2.12878">
        <ele>119</ele>
        <time>2018-03-03T13:21:14.687Z</time>
      </trkpt>
      <trkpt lat="47.78818" lon="2.12878">
        <ele>119</ele>
        <time>2018-03-03T13:21:15.690Z</time>
      </trkpt>
      <trkpt lat="47.78811" lon="2.1287">
        <ele>119</ele>
        <time>2018-03-03T13:21:16.684Z</time>
      </trkpt>
      <trkpt lat="47.78811" lon="2.1287">
        <ele>119</ele>
        <time>2018-03-03T13:21:17.679Z</time>
      </trkpt>
      <trkpt lat="47.78805" lon="2.12862">
        <ele>119</ele>
        <time>2018-03-03T13:21:18.695Z</time>
      </trkpt>
      <trkpt lat="47.78805" lon="2.12862">
        <ele>119</ele>
        <time>2018-03-03T13:21:19.685Z</time>
      </trkpt>
      <trkpt lat="47.78798" lon="2.12855">
        <ele>119</ele>
        <time>2018-03-03T13:21:20.685Z</time>
      </trkpt>
      <trkpt lat="47.78798" lon="2.12855">
        <ele>119</ele>
        <time>2018-03-03T13:21:21.679Z</time>
      </trkpt>
      <trkpt lat="47.78792" lon="2.12847">
        <ele>119</ele>
        <time>2018-03-03T13:21:22.686Z</time>
      </trkpt>
      <trkpt lat="47.78792" lon="2.12847">
        <ele>119</ele>
        <time>2018-03-03T13:21:23.681Z</time>
      </trkpt>
      <trkpt lat="47.78786" lon="2.1284">
        <ele>119</ele>
        <time>2018-03-03T13:21:24.685Z</time>
      </trkpt>
      <trkpt lat="47.78782" lon="2.12836">
        <ele>120</ele>
        <time>2018-03-03T13:21:25.681Z</time>
      </trkpt>
      <trkpt lat="47.78782" lon="2.12836">
        <ele>120</ele>
        <time>2018-03-03T13:21:26.680Z</time>
      </trkpt>
      <trkpt lat="47.78776" lon="2.12828">
        <ele>120</ele>
        <time>2018-03-03T13:21:27.683Z</time>
      </trkpt>
      <trkpt lat="47.78773" lon="2.12824">
        <ele>120</ele>
        <time>2018-03-03T13:21:28.685Z</time>
      </trkpt>
      <trkpt lat="47.78773" lon="2.12824">
        <ele>120</ele>
        <time>2018-03-03T13:21:29.679Z</time>
      </trkpt>
      <trkpt lat="47.78766" lon="2.12816">
        <ele>120</ele>
        <time>2018-03-03T13:21:30.685Z</time>
      </trkpt>
      <trkpt lat="47.78766" lon="2.12816">
        <ele>120</ele>
        <time>2018-03-03T13:21:31.681Z</time>
      </trkpt>
      <trkpt lat="47.7876" lon="2.12808">
        <ele>120</ele>
        <time>2018-03-03T13:21:32.685Z</time>
      </trkpt>
      <trkpt lat="47.7876" lon="2.12808">
        <ele>120</ele>
        <time>2018-03-03T13:21:33.679Z</time>
      </trkpt>
      <trkpt lat="47.78753" lon="2.128">
        <ele>121</ele>
        <time>2018-03-03T13:21:34.686Z</time>
      </trkpt>
      <trkpt lat="47.78753" lon="2.128">
        <ele>121</ele>
        <time>2018-03-03T13:21:35.681Z</time>
      </trkpt>
      <trkpt lat="47.78747" lon="2.12792">
        <ele>121</ele>
        <time>2018-03-03T13:21:36.684Z</time>
      </trkpt>
      <trkpt lat="47.78747" lon="2.12792">
        <ele>121</ele>
        <time>2018-03-03T13:21:37.678Z</time>
      </trkpt>
      <trkpt lat="47.7874" lon="2.12785">
        <ele>121</ele>
        <time>2018-03-03T13:21:38.686Z</time>
      </trkpt>
      <trkpt lat="47.7874" lon="2.12785">
        <ele>121</ele>
        <time>2018-03-03T13:21:39.679Z</time>
      </trkpt>
      <trkpt lat="47.78734" lon="2.12777">
        <ele>121</ele>
        <time>2018-03-03T13:21:40.683Z</time>
      </trkpt>
      <trkpt lat="47.78734" lon="2.12777">
        <ele>121</ele>
        <time>2018-03-03T13:21:41.678Z</time>
      </trkpt>
      <trkpt lat="47.78727" lon="2.12769">
        <ele>120</ele>
        <time>2018-03-03T13:21:42.686Z</time>
      </trkpt>
      <trkpt lat="47.78727" lon="2.12769">
        <ele>120</ele>
        <time>2018-03-03T13:21:43.681Z</time>
      </trkpt>
      <trkpt lat="47.78721" lon="2.12761">
        <ele>120</ele>
        <time>2018-03-03T13:21:44.683Z</time>
      </trkpt>
      <trkpt lat="47.78721" lon="2.12761">
        <ele>120</ele>
        <time>2018-03-03T13:21:45.680Z</time>
      </trkpt>
      <trkpt lat="47.78714" lon="2.12753">
        <ele>121</ele>
        <time>2018-03-03T13:21:46.683Z</time>
      </trkpt>
      <trkpt lat="47.78714" lon="2.12753">
        <ele>121</ele>
        <time>2018-03-03T13:21:47.681Z</time>
      </trkpt>
      <trkpt lat="47.78708" lon="2.12746">
        <ele>121</ele>
        <time>2018-03-03T13:21:48.685Z</time>
      </trkpt>
      <trkpt lat="47.78708" lon="2.12746">
        <ele>121</ele>
        <time>2018-03-03T13:21:49.680Z</time>
      </trkpt>
      <trkpt lat="47.78701" lon="2.12738">
        <ele>122</ele>
        <time>2018-03-03T13:21:50.687Z</time>
      </trkpt>
      <trkpt lat="47.78701" lon="2.12738">
        <ele>122</ele>
        <time>2018-03-03T13:21:51.681Z</time>
      </trkpt>
      <trkpt lat="47.78694" lon="2.12731">
        <ele>122</ele>
        <time>2018-03-03T13:21:52.682Z</time>
      </trkpt>
      <trkpt lat="47.78694" lon="2.12731">
        <ele>122</ele>
        <time>2018-03-03T13:21:53.681Z</time>
      </trkpt>
      <trkpt lat="47.78687" lon="2.12724">
        <ele>123</ele>
        <time>2018-03-03T13:21:54.683Z</time>
      </trkpt>
      <trkpt lat="47.78687" lon="2.12724">
        <ele>123</ele>
        <time>2018-03-03T13:21:55.685Z</time>
      </trkpt>
      <trkpt lat="47.7868" lon="2.12718">
        <ele>123</ele>
        <time>2018-03-03T13:21:56.685Z</time>
      </trkpt>
      <trkpt lat="47.78676" lon="2.12715">
        <ele>123</ele>
        <time>2018-03-03T13:21:57.686Z</time>
      </trkpt>
      <trkpt lat="47.78672" lon="2.12712">
        <ele>123</ele>
        <time>2018-03-03T13:21:58.687Z</time>
      </trkpt>
      <trkpt lat="47.78672" lon="2.12712">
        <ele>123</ele>
        <time>2018-03-03T13:21:59.680Z</time>
      </trkpt>
      <trkpt lat="47.78665" lon="2.12707">
        <ele>123</ele>
        <time>2018-03-03T13:22:00.682Z</time>
      </trkpt>
      <trkpt lat="47.78665" lon="2.12707">
        <ele>123</ele>
        <time>2018-03-03T13:22:01.681Z</time>
      </trkpt>
      <trkpt lat="47.78657" lon="2.12702">
        <ele>123</ele>
        <time>2018-03-03T13:22:02.695Z</time>
      </trkpt>
      <trkpt lat="47.78657" lon="2.12702">
        <ele>123</ele>
        <time>2018-03-03T13:22:03.685Z</time>
      </trkpt>
      <trkpt lat="47.78649" lon="2.12697">
        <ele>123</ele>
        <time>2018-03-03T13:22:04.682Z</time>
      </trkpt>
      <trkpt lat="47.78649" lon="2.12697">
        <ele>123</ele>
        <time>2018-03-03T13:22:05.681Z</time>
      </trkpt>
      <trkpt lat="47.78642" lon="2.12692">
        <ele>123</ele>
        <time>2018-03-03T13:22:06.684Z</time>
      </trkpt>
      <trkpt lat="47.78642" lon="2.12692">
        <ele>123</ele>
        <time>2018-03-03T13:22:07.681Z</time>
      </trkpt>
      <trkpt lat="47.78634" lon="2.12688">
        <ele>123</ele>
        <time>2018-03-03T13:22:08.682Z</time>
      </trkpt>
      <trkpt lat="47.78634" lon="2.12688">
        <ele>123</ele>
        <time>2018-03-03T13:22:09.681Z</time>
      </trkpt>
      <trkpt lat="47.78626" lon="2.12683">
        <ele>123</ele>
        <time>2018-03-03T13:22:10.685Z</time>
      </trkpt>
      <trkpt lat="47.78626" lon="2.12683">
        <ele>123</ele>
        <time>2018-03-03T13:22:11.681Z</time>
      </trkpt>
      <trkpt lat="47.78619" lon="2.12678">
        <ele>123</ele>
        <time>2018-03-03T13:22:12.684Z</time>
      </trkpt>
      <trkpt lat="47.78619" lon="2.12678">
        <ele>123</ele>
        <time>2018-03-03T13:22:13.681Z</time>
      </trkpt>
      <trkpt lat="47.78611" lon="2.12674">
        <ele>123</ele>
        <time>2018-03-03T13:22:14.687Z</time>
      </trkpt>
      <trkpt lat="47.78611" lon="2.12674">
        <ele>123</ele>
        <time>2018-03-03T13:22:15.681Z</time>
      </trkpt>
      <trkpt lat="47.78603" lon="2.12669">
        <ele>123</ele>
        <time>2018-03-03T13:22:16.684Z</time>
      </trkpt>
      <trkpt lat="47.78603" lon="2.12669">
        <ele>123</ele>
        <time>2018-03-03T13:22:17.681Z</time>
      </trkpt>
      <trkpt lat="47.78596" lon="2.12665">
        <ele>124</ele>
        <time>2018-03-03T13:22:18.681Z</time>
      </trkpt>
      <trkpt lat="47.78596" lon="2.12665">
        <ele>124</ele>
        <time>2018-03-03T13:22:19.679Z</time>
      </trkpt>
      <trkpt lat="47.78588" lon="2.1266">
        <ele>124</ele>
        <time>2018-03-03T13:22:20.683Z</time>
      </trkpt>
      <trkpt lat="47.78588" lon="2.1266">
        <ele>124</ele>
        <time>2018-03-03T13:22:21.681Z</time>
      </trkpt>
      <trkpt lat="47.78581" lon="2.12656">
        <ele>124</ele>
        <time>2018-03-03T13:22:22.685Z</time>
      </trkpt>
      <trkpt lat="47.78581" lon="2.12656">
        <ele>124</ele>
        <time>2018-03-03T13:22:23.679Z</time>
      </trkpt>
      <trkpt lat="47.78573" lon="2.12652">
        <ele>124</ele>
        <time>2018-03-03T13:22:24.683Z</time>
      </trkpt>
      <trkpt lat="47.78569" lon="2.12649">
        <ele>124</ele>
        <time>2018-03-03T13:22:25.686Z</time>
      </trkpt>
      <trkpt lat="47.78569" lon="2.12649">
        <ele>124</ele>
        <time>2018-03-03T13:22:26.683Z</time>
      </trkpt>
      <trkpt lat="47.78561" lon="2.12644">
        <ele>124</ele>
        <time>2018-03-03T13:22:27.685Z</time>
      </trkpt>
      <trkpt lat="47.78557" lon="2.12642">
        <ele>124</ele>
        <time>2018-03-03T13:22:28.685Z</time>
      </trkpt>
      <trkpt lat="47.78557" lon="2.12642">
        <ele>124</ele>
        <time>2018-03-03T13:22:29.679Z</time>
      </trkpt>
      <trkpt lat="47.78549" lon="2.12637">
        <ele>123</ele>
        <time>2018-03-03T13:22:30.684Z</time>
      </trkpt>
      <trkpt lat="47.78549" lon="2.12637">
        <ele>123</ele>
        <time>2018-03-03T13:22:31.678Z</time>
      </trkpt>
      <trkpt lat="47.78541" lon="2.12632">
        <ele>123</ele>
        <time>2018-03-03T13:22:32.687Z</time>
      </trkpt>
      <trkpt lat="47.78541" lon="2.12632">
        <ele>123</ele>
        <time>2018-03-03T13:22:33.681Z</time>
      </trkpt>
      <trkpt lat="47.78533" lon="2.12628">
        <ele>123</ele>
        <time>2018-03-03T13:22:34.685Z</time>
      </trkpt>
      <trkpt lat="47.78533" lon="2.12628">
        <ele>123</ele>
        <time>2018-03-03T13:22:35.678Z</time>
      </trkpt>
      <trkpt lat="47.78526" lon="2.12623">
        <ele>123</ele>
        <time>2018-03-03T13:22:36.677Z</time>
      </trkpt>
      <trkpt lat="47.78522" lon="2.1262">
        <ele>123</ele>
        <time>2018-03-03T13:22:37.683Z</time>
      </trkpt>
      <trkpt lat="47.78518" lon="2.12618">
        <ele>123</ele>
        <time>2018-03-03T13:22:38.686Z</time>
      </trkpt>
      <trkpt lat="47.78518" lon="2.12618">
        <ele>123</ele>
        <time>2018-03-03T13:22:39.680Z</time>
      </trkpt>
      <trkpt lat="47.7851" lon="2.12614">
        <ele>123</ele>
        <time>2018-03-03T13:22:40.685Z</time>
      </trkpt>
      <trkpt lat="47.7851" lon="2.12614">
        <ele>123</ele>
        <time>2018-03-03T13:22:41.681Z</time>
      </trkpt>
      <trkpt lat="47.78502" lon="2.12609">
        <ele>123</ele>
        <time>2018-03-03T13:22:42.690Z</time>
      </trkpt>
      <trkpt lat="47.78502" lon="2.12609">
        <ele>123</ele>
        <time>2018-03-03T13:22:43.682Z</time>
      </trkpt>
      <trkpt lat="47.78494" lon="2.12605">
        <ele>124</ele>
        <time>2018-03-03T13:22:44.687Z</time>
      </trkpt>
      <trkpt lat="47.78494" lon="2.12605">
        <ele>124</ele>
        <time>2018-03-03T13:22:45.681Z</time>
      </trkpt>
      <trkpt lat="47.78486" lon="2.126">
        <ele>123</ele>
        <time>2018-03-03T13:22:46.687Z</time>
      </trkpt>
      <trkpt lat="47.78482" lon="2.12598">
        <ele>123</ele>
        <time>2018-03-03T13:22:47.684Z</time>
      </trkpt>
      <trkpt lat="47.78482" lon="2.12598">
        <ele>123</ele>
        <time>2018-03-03T13:22:48.679Z</time>
      </trkpt>
      <trkpt lat="47.78475" lon="2.12594">
        <ele>123</ele>
        <time>2018-03-03T13:22:49.684Z</time>
      </trkpt>
      <trkpt lat="47.78471" lon="2.12591">
        <ele>123</ele>
        <time>2018-03-03T13:22:50.682Z</time>
      </trkpt>
      <trkpt lat="47.78471" lon="2.12591">
        <ele>123</ele>
        <time>2018-03-03T13:22:51.682Z</time>
      </trkpt>
      <trkpt lat="47.78463" lon="2.12587">
        <ele>123</ele>
        <time>2018-03-03T13:22:52.685Z</time>
      </trkpt>
      <trkpt lat="47.78463" lon="2.12587">
        <ele>123</ele>
        <time>2018-03-03T13:22:53.681Z</time>
      </trkpt>
      <trkpt lat="47.78456" lon="2.12583">
        <ele>123</ele>
        <time>2018-03-03T13:22:54.684Z</time>
      </trkpt>
      <trkpt lat="47.78456" lon="2.12583">
        <ele>123</ele>
        <time>2018-03-03T13:22:55.682Z</time>
      </trkpt>
      <trkpt lat="47.78448" lon="2.12578">
        <ele>123</ele>
        <time>2018-03-03T13:22:56.683Z</time>
      </trkpt>
      <trkpt lat="47.78448" lon="2.12578">
        <ele>123</ele>
        <time>2018-03-03T13:22:57.682Z</time>
      </trkpt>
      <trkpt lat="47.7844" lon="2.12574">
        <ele>123</ele>
        <time>2018-03-03T13:22:58.685Z</time>
      </trkpt>
      <trkpt lat="47.7844" lon="2.12574">
        <ele>123</ele>
        <time>2018-03-03T13:22:59.683Z</time>
      </trkpt>
      <trkpt lat="47.78433" lon="2.12569">
        <ele>124</ele>
        <time>2018-03-03T13:23:00.684Z</time>
      </trkpt>
      <trkpt lat="47.78429" lon="2.12567">
        <ele>124</ele>
        <time>2018-03-03T13:23:01.684Z</time>
      </trkpt>
      <trkpt lat="47.78425" lon="2.12565">
        <ele>124</ele>
        <time>2018-03-03T13:23:02.686Z</time>
      </trkpt>
      <trkpt lat="47.78425" lon="2.12565">
        <ele>124</ele>
        <time>2018-03-03T13:23:03.697Z</time>
      </trkpt>
      <trkpt lat="47.78418" lon="2.12561">
        <ele>124</ele>
        <time>2018-03-03T13:23:04.695Z</time>
      </trkpt>
      <trkpt lat="47.78418" lon="2.12561">
        <ele>124</ele>
        <time>2018-03-03T13:23:05.687Z</time>
      </trkpt>
      <trkpt lat="47.78411" lon="2.12556">
        <ele>125</ele>
        <time>2018-03-03T13:23:06.685Z</time>
      </trkpt>
      <trkpt lat="47.78408" lon="2.12553">
        <ele>125</ele>
        <time>2018-03-03T13:23:07.685Z</time>
      </trkpt>
      <trkpt lat="47.78408" lon="2.12553">
        <ele>125</ele>
        <time>2018-03-03T13:23:08.680Z</time>
      </trkpt>
      <trkpt lat="47.78406" lon="2.12545">
        <ele>125</ele>
        <time>2018-03-03T13:23:09.684Z</time>
      </trkpt>
      <trkpt lat="47.78407" lon="2.12541">
        <ele>126</ele>
        <time>2018-03-03T13:23:10.685Z</time>
      </trkpt>
      <trkpt lat="47.78407" lon="2.12541">
        <ele>126</ele>
        <time>2018-03-03T13:23:11.679Z</time>
      </trkpt>
      <trkpt lat="47.78408" lon="2.12534">
        <ele>126</ele>
        <time>2018-03-03T13:23:12.686Z</time>
      </trkpt>
      <trkpt lat="47.78408" lon="2.12534">
        <ele>126</ele>
        <time>2018-03-03T13:23:13.681Z</time>
      </trkpt>
      <trkpt lat="47.7841" lon="2.12528">
        <ele>126</ele>
        <time>2018-03-03T13:23:14.683Z</time>
      </trkpt>
      <trkpt lat="47.7841" lon="2.12528">
        <ele>126</ele>
        <time>2018-03-03T13:23:15.679Z</time>
      </trkpt>
      <trkpt lat="47.78411" lon="2.12523">
        <ele>125</ele>
        <time>2018-03-03T13:23:16.686Z</time>
      </trkpt>
      <trkpt lat="47.78411" lon="2.12523">
        <ele>125</ele>
        <time>2018-03-03T13:23:17.681Z</time>
      </trkpt>
      <trkpt lat="47.78413" lon="2.12518">
        <ele>126</ele>
        <time>2018-03-03T13:23:18.698Z</time>
      </trkpt>
      <trkpt lat="47.78413" lon="2.12518">
        <ele>126</ele>
        <time>2018-03-03T13:23:19.688Z</time>
      </trkpt>
      <trkpt lat="47.78414" lon="2.12513">
        <ele>126</ele>
        <time>2018-03-03T13:23:20.687Z</time>
      </trkpt>
      <trkpt lat="47.78414" lon="2.12513">
        <ele>126</ele>
        <time>2018-03-03T13:23:21.682Z</time>
      </trkpt>
      <trkpt lat="47.78415" lon="2.12508">
        <ele>126</ele>
        <time>2018-03-03T13:23:22.684Z</time>
      </trkpt>
      <trkpt lat="47.78415" lon="2.12508">
        <ele>126</ele>
        <time>2018-03-03T13:23:23.682Z</time>
      </trkpt>
      <trkpt lat="47.78417" lon="2.12504">
        <ele>126</ele>
        <time>2018-03-03T13:23:24.685Z</time>
      </trkpt>
      <trkpt lat="47.78417" lon="2.12504">
        <ele>126</ele>
        <time>2018-03-03T13:23:25.682Z</time>
      </trkpt>
      <trkpt lat="47.78419" lon="2.12499">
        <ele>126</ele>
        <time>2018-03-03T13:23:26.684Z</time>
      </trkpt>
      <trkpt lat="47.78419" lon="2.12499">
        <ele>126</ele>
        <time>2018-03-03T13:23:27.681Z</time>
      </trkpt>
      <trkpt lat="47.7842" lon="2.12493">
        <ele>126</ele>
        <time>2018-03-03T13:23:28.685Z</time>
      </trkpt>
      <trkpt lat="47.7842" lon="2.12493">
        <ele>126</ele>
        <time>2018-03-03T13:23:29.682Z</time>
      </trkpt>
      <trkpt lat="47.78422" lon="2.12486">
        <ele>126</ele>
        <time>2018-03-03T13:23:30.683Z</time>
      </trkpt>
      <trkpt lat="47.78422" lon="2.12486">
        <ele>126</ele>
        <time>2018-03-03T13:23:31.681Z</time>
      </trkpt>
      <trkpt lat="47.78423" lon="2.1248">
        <ele>126</ele>
        <time>2018-03-03T13:23:32.687Z</time>
      </trkpt>
      <trkpt lat="47.78423" lon="2.1248">
        <ele>126</ele>
        <time>2018-03-03T13:23:33.682Z</time>
      </trkpt>
      <trkpt lat="47.78425" lon="2.12475">
        <ele>126</ele>
        <time>2018-03-03T13:23:34.686Z</time>
      </trkpt>
      <trkpt lat="47.78425" lon="2.12475">
        <ele>126</ele>
        <time>2018-03-03T13:23:35.682Z</time>
      </trkpt>
      <trkpt lat="47.78426" lon="2.12469">
        <ele>126</ele>
        <time>2018-03-03T13:23:36.683Z</time>
      </trkpt>
      <trkpt lat="47.78427" lon="2.12466">
        <ele>126</ele>
        <time>2018-03-03T13:23:37.686Z</time>
      </trkpt>
      <trkpt lat="47.78427" lon="2.12466">
        <ele>126</ele>
        <time>2018-03-03T13:23:38.681Z</time>
      </trkpt>
      <trkpt lat="47.78428" lon="2.12461">
        <ele>127</ele>
        <time>2018-03-03T13:23:39.684Z</time>
      </trkpt>
      <trkpt lat="47.78428" lon="2.12459">
        <ele>127</ele>
        <time>2018-03-03T13:23:40.685Z</time>
      </trkpt>
      <trkpt lat="47.78428" lon="2.12459">
        <ele>127</ele>
        <time>2018-03-03T13:23:41.679Z</time>
      </trkpt>
      <trkpt lat="47.78429" lon="2.12453">
        <ele>127</ele>
        <time>2018-03-03T13:23:42.684Z</time>
      </trkpt>
      <trkpt lat="47.78429" lon="2.12453">
        <ele>127</ele>
        <time>2018-03-03T13:23:43.692Z</time>
      </trkpt>
      <trkpt lat="47.78431" lon="2.12447">
        <ele>127</ele>
        <time>2018-03-03T13:23:44.687Z</time>
      </trkpt>
      <trkpt lat="47.78431" lon="2.12447">
        <ele>127</ele>
        <time>2018-03-03T13:23:45.682Z</time>
      </trkpt>
      <trkpt lat="47.78432" lon="2.12442">
        <ele>127</ele>
        <time>2018-03-03T13:23:46.685Z</time>
      </trkpt>
      <trkpt lat="47.78432" lon="2.12442">
        <ele>127</ele>
        <time>2018-03-03T13:23:47.680Z</time>
      </trkpt>
      <trkpt lat="47.78433" lon="2.12436">
        <ele>126</ele>
        <time>2018-03-03T13:23:48.684Z</time>
      </trkpt>
      <trkpt lat="47.78433" lon="2.12436">
        <ele>126</ele>
        <time>2018-03-03T13:23:49.679Z</time>
      </trkpt>
      <trkpt lat="47.78435" lon="2.1243">
        <ele>127</ele>
        <time>2018-03-03T13:23:50.686Z</time>
      </trkpt>
      <trkpt lat="47.78435" lon="2.1243">
        <ele>127</ele>
        <time>2018-03-03T13:23:51.681Z</time>
      </trkpt>
      <trkpt lat="47.78437" lon="2.12423">
        <ele>127</ele>
        <time>2018-03-03T13:23:52.685Z</time>
      </trkpt>
      <trkpt lat="47.78437" lon="2.12423">
        <ele>127</ele>
        <time>2018-03-03T13:23:53.679Z</time>
      </trkpt>
      <trkpt lat="47.78439" lon="2.12416">
        <ele>127</ele>
        <time>2018-03-03T13:23:54.681Z</time>
      </trkpt>
      <trkpt lat="47.78439" lon="2.12416">
        <ele>127</ele>
        <time>2018-03-03T13:23:55.687Z</time>
      </trkpt>
      <trkpt lat="47.78441" lon="2.12408">
        <ele>126</ele>
        <time>2018-03-03T13:23:56.687Z</time>
      </trkpt>
      <trkpt lat="47.78441" lon="2.12408">
        <ele>126</ele>
        <time>2018-03-03T13:23:57.681Z</time>
      </trkpt>
      <trkpt lat="47.78442" lon="2.124">
        <ele>126</ele>
        <time>2018-03-03T13:23:58.685Z</time>
      </trkpt>
      <trkpt lat="47.78442" lon="2.124">
        <ele>126</ele>
        <time>2018-03-03T13:23:59.679Z</time>
      </trkpt>
      <trkpt lat="47.78444" lon="2.12393">
        <ele>127</ele>
        <time>2018-03-03T13:24:00.684Z</time>
      </trkpt>
      <trkpt lat="47.78444" lon="2.12393">
        <ele>127</ele>
        <time>2018-03-03T13:24:01.681Z</time>
      </trkpt>
      <trkpt lat="47.78447" lon="2.12385">
        <ele>127</ele>
        <time>2018-03-03T13:24:02.683Z</time>
      </trkpt>
      <trkpt lat="47.78447" lon="2.12385">
        <ele>127</ele>
        <time>2018-03-03T13:24:03.678Z</time>
      </trkpt>
      <trkpt lat="47.78449" lon="2.12377">
        <ele>127</ele>
        <time>2018-03-03T13:24:04.688Z</time>
      </trkpt>
      <trkpt lat="47.78449" lon="2.12377">
        <ele>127</ele>
        <time>2018-03-03T13:24:05.681Z</time>
      </trkpt>
      <trkpt lat="47.7845" lon="2.1237">
        <ele>128</ele>
        <time>2018-03-03T13:24:06.683Z</time>
      </trkpt>
      <trkpt lat="47.7845" lon="2.1237">
        <ele>128</ele>
        <time>2018-03-03T13:24:07.682Z</time>
      </trkpt>
      <trkpt lat="47.78453" lon="2.12362">
        <ele>128</ele>
        <time>2018-03-03T13:24:08.686Z</time>
      </trkpt>
      <trkpt lat="47.78453" lon="2.12362">
        <ele>128</ele>
        <time>2018-03-03T13:24:09.681Z</time>
      </trkpt>
      <trkpt lat="47.78455" lon="2.12355">
        <ele>129</ele>
        <time>2018-03-03T13:24:10.685Z</time>
      </trkpt>
      <trkpt lat="47.78455" lon="2.12355">
        <ele>129</ele>
        <time>2018-03-03T13:24:11.682Z</time>
      </trkpt>
      <trkpt lat="47.78458" lon="2.12346">
        <ele>129</ele>
        <time>2018-03-03T13:24:12.684Z</time>
      </trkpt>
      <trkpt lat="47.78458" lon="2.12346">
        <ele>129</ele>
        <time>2018-03-03T13:24:13.681Z</time>
      </trkpt>
      <trkpt lat="47.78459" lon="2.12338">
        <ele>130</ele>
        <time>2018-03-03T13:24:14.683Z</time>
      </trkpt>
      <trkpt lat="47.78459" lon="2.12338">
        <ele>130</ele>
        <time>2018-03-03T13:24:15.682Z</time>
      </trkpt>
      <trkpt lat="47.78461" lon="2.12329">
        <ele>130</ele>
        <time>2018-03-03T13:24:16.685Z</time>
      </trkpt>
      <trkpt lat="47.78461" lon="2.12329">
        <ele>130</ele>
        <time>2018-03-03T13:24:17.683Z</time>
      </trkpt>
      <trkpt lat="47.78463" lon="2.12321">
        <ele>130</ele>
        <time>2018-03-03T13:24:18.684Z</time>
      </trkpt>
      <trkpt lat="47.78463" lon="2.12321">
        <ele>130</ele>
        <time>2018-03-03T13:24:19.682Z</time>
      </trkpt>
      <trkpt lat="47.78466" lon="2.12312">
        <ele>131</ele>
        <time>2018-03-03T13:24:20.687Z</time>
      </trkpt>
      <trkpt lat="47.78466" lon="2.12312">
        <ele>131</ele>
        <time>2018-03-03T13:24:21.682Z</time>
      </trkpt>
      <trkpt lat="47.78469" lon="2.12303">
        <ele>131</ele>
        <time>2018-03-03T13:24:22.685Z</time>
      </trkpt>
      <trkpt lat="47.78469" lon="2.12303">
        <ele>131</ele>
        <time>2018-03-03T13:24:23.681Z</time>
      </trkpt>
      <trkpt lat="47.78472" lon="2.12295">
        <ele>131</ele>
        <time>2018-03-03T13:24:24.682Z</time>
      </trkpt>
      <trkpt lat="47.78474" lon="2.1229">
        <ele>132</ele>
        <time>2018-03-03T13:24:25.686Z</time>
      </trkpt>
      <trkpt lat="47.78476" lon="2.12286">
        <ele>132</ele>
        <time>2018-03-03T13:24:26.682Z</time>
      </trkpt>
      <trkpt lat="47.78476" lon="2.12286">
        <ele>132</ele>
        <time>2018-03-03T13:24:27.675Z</time>
      </trkpt>
      <trkpt lat="47.78479" lon="2.12279">
        <ele>132</ele>
        <time>2018-03-03T13:24:28.684Z</time>
      </trkpt>
      <trkpt lat="47.78479" lon="2.12279">
        <ele>132</ele>
        <time>2018-03-03T13:24:29.681Z</time>
      </trkpt>
      <trkpt lat="47.78483" lon="2.1227">
        <ele>133</ele>
        <time>2018-03-03T13:24:30.683Z</time>
      </trkpt>
      <trkpt lat="47.78483" lon="2.1227">
        <ele>133</ele>
        <time>2018-03-03T13:24:31.682Z</time>
      </trkpt>
      <trkpt lat="47.78486" lon="2.12261">
        <ele>133</ele>
        <time>2018-03-03T13:24:32.687Z</time>
      </trkpt>
      <trkpt lat="47.78486" lon="2.12261">
        <ele>133</ele>
        <time>2018-03-03T13:24:33.682Z</time>
      </trkpt>
      <trkpt lat="47.78488" lon="2.12253">
        <ele>133</ele>
        <time>2018-03-03T13:24:34.685Z</time>
      </trkpt>
      <trkpt lat="47.78488" lon="2.12253">
        <ele>133</ele>
        <time>2018-03-03T13:24:35.682Z</time>
      </trkpt>
      <trkpt lat="47.78491" lon="2.12244">
        <ele>134</ele>
        <time>2018-03-03T13:24:36.684Z</time>
      </trkpt>
      <trkpt lat="47.78493" lon="2.1224">
        <ele>134</ele>
        <time>2018-03-03T13:24:37.689Z</time>
      </trkpt>
      <trkpt lat="47.78493" lon="2.1224">
        <ele>134</ele>
        <time>2018-03-03T13:24:38.698Z</time>
      </trkpt>
      <trkpt lat="47.78496" lon="2.12229">
        <ele>134</ele>
        <time>2018-03-03T13:24:39.689Z</time>
      </trkpt>
      <trkpt lat="47.78497" lon="2.12224">
        <ele>134</ele>
        <time>2018-03-03T13:24:40.686Z</time>
      </trkpt>
      <trkpt lat="47.78497" lon="2.12224">
        <ele>134</ele>
        <time>2018-03-03T13:24:41.683Z</time>
      </trkpt>
      <trkpt lat="47.78499" lon="2.12213">
        <ele>134</ele>
        <time>2018-03-03T13:24:42.684Z</time>
      </trkpt>
      <trkpt lat="47.78499" lon="2.12213">
        <ele>134</ele>
        <time>2018-03-03T13:24:43.685Z</time>
      </trkpt>
      <trkpt lat="47.78503" lon="2.12202">
        <ele>134</ele>
        <time>2018-03-03T13:24:44.685Z</time>
      </trkpt>
      <trkpt lat="47.78503" lon="2.12202">
        <ele>134</ele>
        <time>2018-03-03T13:24:45.679Z</time>
      </trkpt>
      <trkpt lat="47.78506" lon="2.12191">
        <ele>134</ele>
        <time>2018-03-03T13:24:46.686Z</time>
      </trkpt>
      <trkpt lat="47.78506" lon="2.12191">
        <ele>134</ele>
        <time>2018-03-03T13:24:47.680Z</time>
      </trkpt>
      <trkpt lat="47.78508" lon="2.12181">
        <ele>133</ele>
        <time>2018-03-03T13:24:48.685Z</time>
      </trkpt>
      <trkpt lat="47.78508" lon="2.12181">
        <ele>133</ele>
        <time>2018-03-03T13:24:49.679Z</time>
      </trkpt>
      <trkpt lat="47.78511" lon="2.12172">
        <ele>133</ele>
        <time>2018-03-03T13:24:50.693Z</time>
      </trkpt>
      <trkpt lat="47.78511" lon="2.12172">
        <ele>133</ele>
        <time>2018-03-03T13:24:51.685Z</time>
      </trkpt>
      <trkpt lat="47.78513" lon="2.12162">
        <ele>133</ele>
        <time>2018-03-03T13:24:52.685Z</time>
      </trkpt>
      <trkpt lat="47.78513" lon="2.12162">
        <ele>133</ele>
        <time>2018-03-03T13:24:53.679Z</time>
      </trkpt>
      <trkpt lat="47.78515" lon="2.12154">
        <ele>133</ele>
        <time>2018-03-03T13:24:54.685Z</time>
      </trkpt>
      <trkpt lat="47.78515" lon="2.12154">
        <ele>133</ele>
        <time>2018-03-03T13:24:55.692Z</time>
      </trkpt>
      <trkpt lat="47.78517" lon="2.12146">
        <ele>133</ele>
        <time>2018-03-03T13:24:56.688Z</time>
      </trkpt>
      <trkpt lat="47.78517" lon="2.12146">
        <ele>133</ele>
        <time>2018-03-03T13:24:57.681Z</time>
      </trkpt>
      <trkpt lat="47.78519" lon="2.12139">
        <ele>133</ele>
        <time>2018-03-03T13:24:58.682Z</time>
      </trkpt>
      <trkpt lat="47.78519" lon="2.12139">
        <ele>133</ele>
        <time>2018-03-03T13:24:59.679Z</time>
      </trkpt>
      <trkpt lat="47.78521" lon="2.12132">
        <ele>132</ele>
        <time>2018-03-03T13:25:00.683Z</time>
      </trkpt>
      <trkpt lat="47.78521" lon="2.12132">
        <ele>132</ele>
        <time>2018-03-03T13:25:01.681Z</time>
      </trkpt>
      <trkpt lat="47.78524" lon="2.12125">
        <ele>132</ele>
        <time>2018-03-03T13:25:02.687Z</time>
      </trkpt>
      <trkpt lat="47.78524" lon="2.12125">
        <ele>132</ele>
        <time>2018-03-03T13:25:03.684Z</time>
      </trkpt>
      <trkpt lat="47.78526" lon="2.12117">
        <ele>132</ele>
        <time>2018-03-03T13:25:04.685Z</time>
      </trkpt>
      <trkpt lat="47.78526" lon="2.12117">
        <ele>132</ele>
        <time>2018-03-03T13:25:05.682Z</time>
      </trkpt>
      <trkpt lat="47.78528" lon="2.12108">
        <ele>132</ele>
        <time>2018-03-03T13:25:06.685Z</time>
      </trkpt>
      <trkpt lat="47.78528" lon="2.12108">
        <ele>132</ele>
        <time>2018-03-03T13:25:07.682Z</time>
      </trkpt>
      <trkpt lat="47.78532" lon="2.12099">
        <ele>132</ele>
        <time>2018-03-03T13:25:08.687Z</time>
      </trkpt>
      <trkpt lat="47.78533" lon="2.12094">
        <ele>132</ele>
        <time>2018-03-03T13:25:09.687Z</time>
      </trkpt>
      <trkpt lat="47.78533" lon="2.12094">
        <ele>132</ele>
        <time>2018-03-03T13:25:10.680Z</time>
      </trkpt>
      <trkpt lat="47.78536" lon="2.12085">
        <ele>132</ele>
        <time>2018-03-03T13:25:11.684Z</time>
      </trkpt>
      <trkpt lat="47.78536" lon="2.12085">
        <ele>132</ele>
        <time>2018-03-03T13:25:12.681Z</time>
      </trkpt>
      <trkpt lat="47.78539" lon="2.12075">
        <ele>132</ele>
        <time>2018-03-03T13:25:13.687Z</time>
      </trkpt>
      <trkpt lat="47.78539" lon="2.12075">
        <ele>132</ele>
        <time>2018-03-03T13:25:14.695Z</time>
      </trkpt>
      <trkpt lat="47.78542" lon="2.12066">
        <ele>132</ele>
        <time>2018-03-03T13:25:15.685Z</time>
      </trkpt>
      <trkpt lat="47.78544" lon="2.12062">
        <ele>132</ele>
        <time>2018-03-03T13:25:16.684Z</time>
      </trkpt>
      <trkpt lat="47.78544" lon="2.12062">
        <ele>132</ele>
        <time>2018-03-03T13:25:17.682Z</time>
      </trkpt>
      <trkpt lat="47.78546" lon="2.12052">
        <ele>131</ele>
        <time>2018-03-03T13:25:18.685Z</time>
      </trkpt>
      <trkpt lat="47.78548" lon="2.12046">
        <ele>131</ele>
        <time>2018-03-03T13:25:19.685Z</time>
      </trkpt>
      <trkpt lat="47.78548" lon="2.12046">
        <ele>131</ele>
        <time>2018-03-03T13:25:20.681Z</time>
      </trkpt>
      <trkpt lat="47.78551" lon="2.12035">
        <ele>131</ele>
        <time>2018-03-03T13:25:21.684Z</time>
      </trkpt>
      <trkpt lat="47.78553" lon="2.1203">
        <ele>131</ele>
        <time>2018-03-03T13:25:22.686Z</time>
      </trkpt>
      <trkpt lat="47.78553" lon="2.1203">
        <ele>131</ele>
        <time>2018-03-03T13:25:23.682Z</time>
      </trkpt>
      <trkpt lat="47.78556" lon="2.12018">
        <ele>131</ele>
        <time>2018-03-03T13:25:24.685Z</time>
      </trkpt>
      <trkpt lat="47.78556" lon="2.12018">
        <ele>131</ele>
        <time>2018-03-03T13:25:25.679Z</time>
      </trkpt>
      <trkpt lat="47.7856" lon="2.12007">
        <ele>130</ele>
        <time>2018-03-03T13:25:26.685Z</time>
      </trkpt>
      <trkpt lat="47.7856" lon="2.12007">
        <ele>130</ele>
        <time>2018-03-03T13:25:27.682Z</time>
      </trkpt>
      <trkpt lat="47.78563" lon="2.11995">
        <ele>130</ele>
        <time>2018-03-03T13:25:28.691Z</time>
      </trkpt>
      <trkpt lat="47.78563" lon="2.11995">
        <ele>130</ele>
        <time>2018-03-03T13:25:29.683Z</time>
      </trkpt>
      <trkpt lat="47.78567" lon="2.11984">
        <ele>130</ele>
        <time>2018-03-03T13:25:30.684Z</time>
      </trkpt>
      <trkpt lat="47.78569" lon="2.11978">
        <ele>130</ele>
        <time>2018-03-03T13:25:31.685Z</time>
      </trkpt>
      <trkpt lat="47.78569" lon="2.11978">
        <ele>130</ele>
        <time>2018-03-03T13:25:32.681Z</time>
      </trkpt>
      <trkpt lat="47.78573" lon="2.11965">
        <ele>130</ele>
        <time>2018-03-03T13:25:33.685Z</time>
      </trkpt>
      <trkpt lat="47.78575" lon="2.11959">
        <ele>130</ele>
        <time>2018-03-03T13:25:34.686Z</time>
      </trkpt>
      <trkpt lat="47.78575" lon="2.11959">
        <ele>130</ele>
        <time>2018-03-03T13:25:35.682Z</time>
      </trkpt>
      <trkpt lat="47.78579" lon="2.11946">
        <ele>130</ele>
        <time>2018-03-03T13:25:36.682Z</time>
      </trkpt>
      <trkpt lat="47.78579" lon="2.11946">
        <ele>130</ele>
        <time>2018-03-03T13:25:37.677Z</time>
      </trkpt>
      <trkpt lat="47.78583" lon="2.11934">
        <ele>130</ele>
        <time>2018-03-03T13:25:38.685Z</time>
      </trkpt>
      <trkpt lat="47.78583" lon="2.11934">
        <ele>130</ele>
        <time>2018-03-03T13:25:39.682Z</time>
      </trkpt>
      <trkpt lat="47.78587" lon="2.11921">
        <ele>130</ele>
        <time>2018-03-03T13:25:40.685Z</time>
      </trkpt>
      <trkpt lat="47.78589" lon="2.11915">
        <ele>130</ele>
        <time>2018-03-03T13:25:41.699Z</time>
      </trkpt>
      <trkpt lat="47.78589" lon="2.11915">
        <ele>130</ele>
        <time>2018-03-03T13:25:42.688Z</time>
      </trkpt>
      <trkpt lat="47.78594" lon="2.11903">
        <ele>130</ele>
        <time>2018-03-03T13:25:43.686Z</time>
      </trkpt>
      <trkpt lat="47.78596" lon="2.11896">
        <ele>130</ele>
        <time>2018-03-03T13:25:44.686Z</time>
      </trkpt>
      <trkpt lat="47.78596" lon="2.11896">
        <ele>130</ele>
        <time>2018-03-03T13:25:45.679Z</time>
      </trkpt>
      <trkpt lat="47.78601" lon="2.11883">
        <ele>129</ele>
        <time>2018-03-03T13:25:46.686Z</time>
      </trkpt>
      <trkpt lat="47.78601" lon="2.11883">
        <ele>129</ele>
        <time>2018-03-03T13:25:47.682Z</time>
      </trkpt>
      <trkpt lat="47.78606" lon="2.1187">
        <ele>129</ele>
        <time>2018-03-03T13:25:48.684Z</time>
      </trkpt>
      <trkpt lat="47.78609" lon="2.11864">
        <ele>129</ele>
        <time>2018-03-03T13:25:49.682Z</time>
      </trkpt>
      <trkpt lat="47.78612" lon="2.11857">
        <ele>128</ele>
        <time>2018-03-03T13:25:50.687Z</time>
      </trkpt>
      <trkpt lat="47.78612" lon="2.11857">
        <ele>128</ele>
        <time>2018-03-03T13:25:51.682Z</time>
      </trkpt>
      <trkpt lat="47.78617" lon="2.11843">
        <ele>128</ele>
        <time>2018-03-03T13:25:52.683Z</time>
      </trkpt>
      <trkpt lat="47.78617" lon="2.11843">
        <ele>128</ele>
        <time>2018-03-03T13:25:53.683Z</time>
      </trkpt>
      <trkpt lat="47.78622" lon="2.1183">
        <ele>129</ele>
        <time>2018-03-03T13:25:54.685Z</time>
      </trkpt>
      <trkpt lat="47.78622" lon="2.1183">
        <ele>129</ele>
        <time>2018-03-03T13:25:55.686Z</time>
      </trkpt>
      <trkpt lat="47.78629" lon="2.11818">
        <ele>129</ele>
        <time>2018-03-03T13:25:56.687Z</time>
      </trkpt>
      <trkpt lat="47.78629" lon="2.11818">
        <ele>129</ele>
        <time>2018-03-03T13:25:57.682Z</time>
      </trkpt>
      <trkpt lat="47.78634" lon="2.11805">
        <ele>129</ele>
        <time>2018-03-03T13:25:58.685Z</time>
      </trkpt>
      <trkpt lat="47.78637" lon="2.11799">
        <ele>129</ele>
        <time>2018-03-03T13:25:59.682Z</time>
      </trkpt>
      <trkpt lat="47.78637" lon="2.11799">
        <ele>129</ele>
        <time>2018-03-03T13:26:00.682Z</time>
      </trkpt>
      <trkpt lat="47.78643" lon="2.11786">
        <ele>129</ele>
        <time>2018-03-03T13:26:01.681Z</time>
      </trkpt>
      <trkpt lat="47.78646" lon="2.11779">
        <ele>129</ele>
        <time>2018-03-03T13:26:02.687Z</time>
      </trkpt>
      <trkpt lat="47.78646" lon="2.11779">
        <ele>129</ele>
        <time>2018-03-03T13:26:03.681Z</time>
      </trkpt>
      <trkpt lat="47.78651" lon="2.11766">
        <ele>129</ele>
        <time>2018-03-03T13:26:04.685Z</time>
      </trkpt>
      <trkpt lat="47.78651" lon="2.11766">
        <ele>129</ele>
        <time>2018-03-03T13:26:05.683Z</time>
      </trkpt>
      <trkpt lat="47.78657" lon="2.11753">
        <ele>128</ele>
        <time>2018-03-03T13:26:06.685Z</time>
      </trkpt>
      <trkpt lat="47.78657" lon="2.11753">
        <ele>128</ele>
        <time>2018-03-03T13:26:07.682Z</time>
      </trkpt>
      <trkpt lat="47.78663" lon="2.1174">
        <ele>128</ele>
        <time>2018-03-03T13:26:08.699Z</time>
      </trkpt>
      <trkpt lat="47.78663" lon="2.1174">
        <ele>128</ele>
        <time>2018-03-03T13:26:09.688Z</time>
      </trkpt>
      <trkpt lat="47.78668" lon="2.11727">
        <ele>127</ele>
        <time>2018-03-03T13:26:10.688Z</time>
      </trkpt>
      <trkpt lat="47.78668" lon="2.11727">
        <ele>127</ele>
        <time>2018-03-03T13:26:11.680Z</time>
      </trkpt>
      <trkpt lat="47.78674" lon="2.11714">
        <ele>127</ele>
        <time>2018-03-03T13:26:12.672Z</time>
      </trkpt>
      <trkpt lat="47.78674" lon="2.11714">
        <ele>127</ele>
        <time>2018-03-03T13:26:13.678Z</time>
      </trkpt>
      <trkpt lat="47.78681" lon="2.117">
        <ele>127</ele>
        <time>2018-03-03T13:26:14.684Z</time>
      </trkpt>
      <trkpt lat="47.78681" lon="2.117">
        <ele>127</ele>
        <time>2018-03-03T13:26:15.690Z</time>
      </trkpt>
      <trkpt lat="47.78687" lon="2.11687">
        <ele>127</ele>
        <time>2018-03-03T13:26:16.687Z</time>
      </trkpt>
      <trkpt lat="47.78687" lon="2.11687">
        <ele>127</ele>
        <time>2018-03-03T13:26:17.679Z</time>
      </trkpt>
      <trkpt lat="47.78693" lon="2.11674">
        <ele>126</ele>
        <time>2018-03-03T13:26:18.681Z</time>
      </trkpt>
      <trkpt lat="47.78696" lon="2.11668">
        <ele>126</ele>
        <time>2018-03-03T13:26:19.682Z</time>
      </trkpt>
      <trkpt lat="47.78699" lon="2.11661">
        <ele>126</ele>
        <time>2018-03-03T13:26:20.687Z</time>
      </trkpt>
      <trkpt lat="47.78699" lon="2.11661">
        <ele>126</ele>
        <time>2018-03-03T13:26:21.679Z</time>
      </trkpt>
      <trkpt lat="47.78704" lon="2.11648">
        <ele>126</ele>
        <time>2018-03-03T13:26:22.686Z</time>
      </trkpt>
      <trkpt lat="47.78704" lon="2.11648">
        <ele>126</ele>
        <time>2018-03-03T13:26:23.682Z</time>
      </trkpt>
      <trkpt lat="47.7871" lon="2.11636">
        <ele>126</ele>
        <time>2018-03-03T13:26:24.682Z</time>
      </trkpt>
      <trkpt lat="47.7871" lon="2.11636">
        <ele>126</ele>
        <time>2018-03-03T13:26:25.682Z</time>
      </trkpt>
      <trkpt lat="47.78716" lon="2.11623">
        <ele>126</ele>
        <time>2018-03-03T13:26:26.687Z</time>
      </trkpt>
      <trkpt lat="47.78716" lon="2.11623">
        <ele>126</ele>
        <time>2018-03-03T13:26:27.682Z</time>
      </trkpt>
      <trkpt lat="47.78722" lon="2.11611">
        <ele>125</ele>
        <time>2018-03-03T13:26:28.693Z</time>
      </trkpt>
      <trkpt lat="47.78725" lon="2.11606">
        <ele>125</ele>
        <time>2018-03-03T13:26:29.686Z</time>
      </trkpt>
      <trkpt lat="47.78725" lon="2.11606">
        <ele>125</ele>
        <time>2018-03-03T13:26:30.680Z</time>
      </trkpt>
      <trkpt lat="47.78731" lon="2.11594">
        <ele>125</ele>
        <time>2018-03-03T13:26:31.687Z</time>
      </trkpt>
      <trkpt lat="47.78731" lon="2.11594">
        <ele>125</ele>
        <time>2018-03-03T13:26:32.681Z</time>
      </trkpt>
      <trkpt lat="47.78736" lon="2.11582">
        <ele>125</ele>
        <time>2018-03-03T13:26:33.683Z</time>
      </trkpt>
      <trkpt lat="47.78739" lon="2.11576">
        <ele>125</ele>
        <time>2018-03-03T13:26:34.686Z</time>
      </trkpt>
      <trkpt lat="47.78739" lon="2.11576">
        <ele>125</ele>
        <time>2018-03-03T13:26:35.683Z</time>
      </trkpt>
      <trkpt lat="47.78744" lon="2.11565">
        <ele>125</ele>
        <time>2018-03-03T13:26:36.685Z</time>
      </trkpt>
      <trkpt lat="47.78747" lon="2.11559">
        <ele>124</ele>
        <time>2018-03-03T13:26:37.685Z</time>
      </trkpt>
      <trkpt lat="47.78747" lon="2.11559">
        <ele>124</ele>
        <time>2018-03-03T13:26:38.682Z</time>
      </trkpt>
      <trkpt lat="47.78753" lon="2.11547">
        <ele>124</ele>
        <time>2018-03-03T13:26:39.685Z</time>
      </trkpt>
      <trkpt lat="47.78756" lon="2.11541">
        <ele>124</ele>
        <time>2018-03-03T13:26:40.687Z</time>
      </trkpt>
      <trkpt lat="47.78756" lon="2.11541">
        <ele>124</ele>
        <time>2018-03-03T13:26:41.678Z</time>
      </trkpt>
      <trkpt lat="47.78762" lon="2.1153">
        <ele>124</ele>
        <time>2018-03-03T13:26:42.682Z</time>
      </trkpt>
      <trkpt lat="47.78762" lon="2.1153">
        <ele>124</ele>
        <time>2018-03-03T13:26:43.680Z</time>
      </trkpt>
      <trkpt lat="47.78769" lon="2.1152">
        <ele>124</ele>
        <time>2018-03-03T13:26:44.687Z</time>
      </trkpt>
      <trkpt lat="47.78769" lon="2.1152">
        <ele>124</ele>
        <time>2018-03-03T13:26:45.682Z</time>
      </trkpt>
      <trkpt lat="47.78777" lon="2.11512">
        <ele>124</ele>
        <time>2018-03-03T13:26:46.683Z</time>
      </trkpt>
      <trkpt lat="47.78777" lon="2.11512">
        <ele>124</ele>
        <time>2018-03-03T13:26:47.680Z</time>
      </trkpt>
      <trkpt lat="47.78786" lon="2.11504">
        <ele>123</ele>
        <time>2018-03-03T13:26:48.689Z</time>
      </trkpt>
      <trkpt lat="47.78786" lon="2.11504">
        <ele>123</ele>
        <time>2018-03-03T13:26:49.682Z</time>
      </trkpt>
      <trkpt lat="47.78795" lon="2.115">
        <ele>123</ele>
        <time>2018-03-03T13:26:50.687Z</time>
      </trkpt>
      <trkpt lat="47.78795" lon="2.115">
        <ele>123</ele>
        <time>2018-03-03T13:26:51.683Z</time>
      </trkpt>
      <trkpt lat="47.78805" lon="2.11496">
        <ele>123</ele>
        <time>2018-03-03T13:26:52.687Z</time>
      </trkpt>
      <trkpt lat="47.78805" lon="2.11496">
        <ele>123</ele>
        <time>2018-03-03T13:26:53.680Z</time>
      </trkpt>
      <trkpt lat="47.78815" lon="2.11493">
        <ele>123</ele>
        <time>2018-03-03T13:26:54.682Z</time>
      </trkpt>
      <trkpt lat="47.78815" lon="2.11493">
        <ele>123</ele>
        <time>2018-03-03T13:26:55.686Z</time>
      </trkpt>
      <trkpt lat="47.78825" lon="2.1149">
        <ele>123</ele>
        <time>2018-03-03T13:26:56.687Z</time>
      </trkpt>
      <trkpt lat="47.78825" lon="2.1149">
        <ele>123</ele>
        <time>2018-03-03T13:26:57.681Z</time>
      </trkpt>
      <trkpt lat="47.78835" lon="2.11487">
        <ele>123</ele>
        <time>2018-03-03T13:26:58.688Z</time>
      </trkpt>
      <trkpt lat="47.78835" lon="2.11487">
        <ele>123</ele>
        <time>2018-03-03T13:26:59.681Z</time>
      </trkpt>
      <trkpt lat="47.78845" lon="2.11483">
        <ele>123</ele>
        <time>2018-03-03T13:27:00.685Z</time>
      </trkpt>
      <trkpt lat="47.7885" lon="2.11481">
        <ele>123</ele>
        <time>2018-03-03T13:27:01.685Z</time>
      </trkpt>
      <trkpt lat="47.78855" lon="2.11479">
        <ele>123</ele>
        <time>2018-03-03T13:27:02.695Z</time>
      </trkpt>
      <trkpt lat="47.7886" lon="2.11477">
        <ele>123</ele>
        <time>2018-03-03T13:27:03.687Z</time>
      </trkpt>
      <trkpt lat="47.7886" lon="2.11477">
        <ele>123</ele>
        <time>2018-03-03T13:27:04.696Z</time>
      </trkpt>
      <trkpt lat="47.78871" lon="2.11473">
        <ele>123</ele>
        <time>2018-03-03T13:27:05.689Z</time>
      </trkpt>
      <trkpt lat="47.78876" lon="2.11471">
        <ele>123</ele>
        <time>2018-03-03T13:27:06.687Z</time>
      </trkpt>
      <trkpt lat="47.78876" lon="2.11471">
        <ele>123</ele>
        <time>2018-03-03T13:27:07.682Z</time>
      </trkpt>
      <trkpt lat="47.78888" lon="2.11468">
        <ele>123</ele>
        <time>2018-03-03T13:27:08.696Z</time>
      </trkpt>
      <trkpt lat="47.78888" lon="2.11468">
        <ele>123</ele>
        <time>2018-03-03T13:27:09.681Z</time>
      </trkpt>
      <trkpt lat="47.78899" lon="2.11466">
        <ele>123</ele>
        <time>2018-03-03T13:27:10.686Z</time>
      </trkpt>
      <trkpt lat="47.78899" lon="2.11466">
        <ele>123</ele>
        <time>2018-03-03T13:27:11.682Z</time>
      </trkpt>
      <trkpt lat="47.78911" lon="2.11463">
        <ele>123</ele>
        <time>2018-03-03T13:27:12.682Z</time>
      </trkpt>
      <trkpt lat="47.78917" lon="2.11461">
        <ele>123</ele>
        <time>2018-03-03T13:27:13.687Z</time>
      </trkpt>
      <trkpt lat="47.78923" lon="2.11459">
        <ele>123</ele>
        <time>2018-03-03T13:27:14.687Z</time>
      </trkpt>
      <trkpt lat="47.78923" lon="2.11459">
        <ele>123</ele>
        <time>2018-03-03T13:27:15.680Z</time>
      </trkpt>
      <trkpt lat="47.78934" lon="2.11456">
        <ele>123</ele>
        <time>2018-03-03T13:27:16.686Z</time>
      </trkpt>
      <trkpt lat="47.78934" lon="2.11456">
        <ele>123</ele>
        <time>2018-03-03T13:27:17.703Z</time>
      </trkpt>
      <trkpt lat="47.78946" lon="2.11453">
        <ele>122</ele>
        <time>2018-03-03T13:27:18.686Z</time>
      </trkpt>
      <trkpt lat="47.78952" lon="2.11451">
        <ele>122</ele>
        <time>2018-03-03T13:27:19.686Z</time>
      </trkpt>
      <trkpt lat="47.78952" lon="2.11451">
        <ele>122</ele>
        <time>2018-03-03T13:27:20.681Z</time>
      </trkpt>
      <trkpt lat="47.78963" lon="2.11448">
        <ele>123</ele>
        <time>2018-03-03T13:27:21.682Z</time>
      </trkpt>
      <trkpt lat="47.78968" lon="2.11447">
        <ele>123</ele>
        <time>2018-03-03T13:27:22.687Z</time>
      </trkpt>
      <trkpt lat="47.78974" lon="2.11445">
        <ele>123</ele>
        <time>2018-03-03T13:27:23.686Z</time>
      </trkpt>
      <trkpt lat="47.78974" lon="2.11445">
        <ele>123</ele>
        <time>2018-03-03T13:27:24.682Z</time>
      </trkpt>
      <trkpt lat="47.78984" lon="2.11441">
        <ele>124</ele>
        <time>2018-03-03T13:27:25.683Z</time>
      </trkpt>
      <trkpt lat="47.7899" lon="2.11438">
        <ele>124</ele>
        <time>2018-03-03T13:27:26.687Z</time>
      </trkpt>
      <trkpt lat="47.7899" lon="2.11438">
        <ele>124</ele>
        <time>2018-03-03T13:27:27.680Z</time>
      </trkpt>
      <trkpt lat="47.79" lon="2.11431">
        <ele>125</ele>
        <time>2018-03-03T13:27:28.687Z</time>
      </trkpt>
      <trkpt lat="47.79" lon="2.11431">
        <ele>125</ele>
        <time>2018-03-03T13:27:29.683Z</time>
      </trkpt>
      <trkpt lat="47.79011" lon="2.11422">
        <ele>125</ele>
        <time>2018-03-03T13:27:30.685Z</time>
      </trkpt>
      <trkpt lat="47.79011" lon="2.11422">
        <ele>125</ele>
        <time>2018-03-03T13:27:31.680Z</time>
      </trkpt>
      <trkpt lat="47.79021" lon="2.11412">
        <ele>125</ele>
        <time>2018-03-03T13:27:32.687Z</time>
      </trkpt>
      <trkpt lat="47.79021" lon="2.11412">
        <ele>125</ele>
        <time>2018-03-03T13:27:33.680Z</time>
      </trkpt>
      <trkpt lat="47.79031" lon="2.11402">
        <ele>125</ele>
        <time>2018-03-03T13:27:34.685Z</time>
      </trkpt>
      <trkpt lat="47.79031" lon="2.11402">
        <ele>125</ele>
        <time>2018-03-03T13:27:35.681Z</time>
      </trkpt>
      <trkpt lat="47.79041" lon="2.11394">
        <ele>126</ele>
        <time>2018-03-03T13:27:36.682Z</time>
      </trkpt>
      <trkpt lat="47.79041" lon="2.11394">
        <ele>126</ele>
        <time>2018-03-03T13:27:37.682Z</time>
      </trkpt>
      <trkpt lat="47.79051" lon="2.11385">
        <ele>126</ele>
        <time>2018-03-03T13:27:38.688Z</time>
      </trkpt>
      <trkpt lat="47.79051" lon="2.11385">
        <ele>126</ele>
        <time>2018-03-03T13:27:39.690Z</time>
      </trkpt>
      <trkpt lat="47.79062" lon="2.11376">
        <ele>126</ele>
        <time>2018-03-03T13:27:40.686Z</time>
      </trkpt>
      <trkpt lat="47.79062" lon="2.11376">
        <ele>126</ele>
        <time>2018-03-03T13:27:41.682Z</time>
      </trkpt>
      <trkpt lat="47.79072" lon="2.11367">
        <ele>126</ele>
        <time>2018-03-03T13:27:42.696Z</time>
      </trkpt>
      <trkpt lat="47.79078" lon="2.11362">
        <ele>126</ele>
        <time>2018-03-03T13:27:43.687Z</time>
      </trkpt>
      <trkpt lat="47.79078" lon="2.11362">
        <ele>126</ele>
        <time>2018-03-03T13:27:44.682Z</time>
      </trkpt>
      <trkpt lat="47.79089" lon="2.11354">
        <ele>125</ele>
        <time>2018-03-03T13:27:45.682Z</time>
      </trkpt>
      <trkpt lat="47.79094" lon="2.1135">
        <ele>125</ele>
        <time>2018-03-03T13:27:46.687Z</time>
      </trkpt>
      <trkpt lat="47.79094" lon="2.1135">
        <ele>125</ele>
        <time>2018-03-03T13:27:47.687Z</time>
      </trkpt>
      <trkpt lat="47.79105" lon="2.11341">
        <ele>125</ele>
        <time>2018-03-03T13:27:48.688Z</time>
      </trkpt>
      <trkpt lat="47.79105" lon="2.11341">
        <ele>125</ele>
        <time>2018-03-03T13:27:49.683Z</time>
      </trkpt>
      <trkpt lat="47.79115" lon="2.11333">
        <ele>125</ele>
        <time>2018-03-03T13:27:50.687Z</time>
      </trkpt>
      <trkpt lat="47.7912" lon="2.11329">
        <ele>125</ele>
        <time>2018-03-03T13:27:51.691Z</time>
      </trkpt>
      <trkpt lat="47.79125" lon="2.11326">
        <ele>125</ele>
        <time>2018-03-03T13:27:52.686Z</time>
      </trkpt>
      <trkpt lat="47.79125" lon="2.11326">
        <ele>125</ele>
        <time>2018-03-03T13:27:53.682Z</time>
      </trkpt>
      <trkpt lat="47.79134" lon="2.11319">
        <ele>125</ele>
        <time>2018-03-03T13:27:54.687Z</time>
      </trkpt>
      <trkpt lat="47.79134" lon="2.11319">
        <ele>125</ele>
        <time>2018-03-03T13:27:55.682Z</time>
      </trkpt>
      <trkpt lat="47.79144" lon="2.11311">
        <ele>124</ele>
        <time>2018-03-03T13:27:56.688Z</time>
      </trkpt>
      <trkpt lat="47.79144" lon="2.11311">
        <ele>124</ele>
        <time>2018-03-03T13:27:57.681Z</time>
      </trkpt>
      <trkpt lat="47.79153" lon="2.11305">
        <ele>124</ele>
        <time>2018-03-03T13:27:58.687Z</time>
      </trkpt>
      <trkpt lat="47.79153" lon="2.11305">
        <ele>124</ele>
        <time>2018-03-03T13:27:59.685Z</time>
      </trkpt>
      <trkpt lat="47.79163" lon="2.11302">
        <ele>124</ele>
        <time>2018-03-03T13:28:00.688Z</time>
      </trkpt>
      <trkpt lat="47.79163" lon="2.11302">
        <ele>124</ele>
        <time>2018-03-03T13:28:01.680Z</time>
      </trkpt>
      <trkpt lat="47.79172" lon="2.11309">
        <ele>124</ele>
        <time>2018-03-03T13:28:02.688Z</time>
      </trkpt>
      <trkpt lat="47.79172" lon="2.11309">
        <ele>124</ele>
        <time>2018-03-03T13:28:03.682Z</time>
      </trkpt>
      <trkpt lat="47.79176" lon="2.11322">
        <ele>124</ele>
        <time>2018-03-03T13:28:04.687Z</time>
      </trkpt>
      <trkpt lat="47.79176" lon="2.11322">
        <ele>124</ele>
        <time>2018-03-03T13:28:05.681Z</time>
      </trkpt>
      <trkpt lat="47.79181" lon="2.11337">
        <ele>124</ele>
        <time>2018-03-03T13:28:06.692Z</time>
      </trkpt>
      <trkpt lat="47.79181" lon="2.11337">
        <ele>124</ele>
        <time>2018-03-03T13:28:07.686Z</time>
      </trkpt>
      <trkpt lat="47.79186" lon="2.11353">
        <ele>124</ele>
        <time>2018-03-03T13:28:08.688Z</time>
      </trkpt>
      <trkpt lat="47.79186" lon="2.11353">
        <ele>124</ele>
        <time>2018-03-03T13:28:09.689Z</time>
      </trkpt>
      <trkpt lat="47.79191" lon="2.1137">
        <ele>124</ele>
        <time>2018-03-03T13:28:10.687Z</time>
      </trkpt>
      <trkpt lat="47.79191" lon="2.1137">
        <ele>124</ele>
        <time>2018-03-03T13:28:11.681Z</time>
      </trkpt>
      <trkpt lat="47.79198" lon="2.11387">
        <ele>124</ele>
        <time>2018-03-03T13:28:12.683Z</time>
      </trkpt>
      <trkpt lat="47.79201" lon="2.11396">
        <ele>124</ele>
        <time>2018-03-03T13:28:13.687Z</time>
      </trkpt>
      <trkpt lat="47.79204" lon="2.11405">
        <ele>124</ele>
        <time>2018-03-03T13:28:14.689Z</time>
      </trkpt>
      <trkpt lat="47.79204" lon="2.11405">
        <ele>124</ele>
        <time>2018-03-03T13:28:15.683Z</time>
      </trkpt>
      <trkpt lat="47.79211" lon="2.11423">
        <ele>123</ele>
        <time>2018-03-03T13:28:16.687Z</time>
      </trkpt>
      <trkpt lat="47.79211" lon="2.11423">
        <ele>123</ele>
        <time>2018-03-03T13:28:17.685Z</time>
      </trkpt>
      <trkpt lat="47.79219" lon="2.11443">
        <ele>123</ele>
        <time>2018-03-03T13:28:18.687Z</time>
      </trkpt>
      <trkpt lat="47.79219" lon="2.11443">
        <ele>123</ele>
        <time>2018-03-03T13:28:19.689Z</time>
      </trkpt>
      <trkpt lat="47.79227" lon="2.11465">
        <ele>121</ele>
        <time>2018-03-03T13:28:20.698Z</time>
      </trkpt>
      <trkpt lat="47.79227" lon="2.11465">
        <ele>121</ele>
        <time>2018-03-03T13:28:21.687Z</time>
      </trkpt>
      <trkpt lat="47.79235" lon="2.11486">
        <ele>120</ele>
        <time>2018-03-03T13:28:22.687Z</time>
      </trkpt>
      <trkpt lat="47.79235" lon="2.11486">
        <ele>120</ele>
        <time>2018-03-03T13:28:23.678Z</time>
      </trkpt>
      <trkpt lat="47.79244" lon="2.11508">
        <ele>120</ele>
        <time>2018-03-03T13:28:24.685Z</time>
      </trkpt>
      <trkpt lat="47.79248" lon="2.11518">
        <ele>120</ele>
        <time>2018-03-03T13:28:25.687Z</time>
      </trkpt>
      <trkpt lat="47.79252" lon="2.11529">
        <ele>119</ele>
        <time>2018-03-03T13:28:26.688Z</time>
      </trkpt>
      <trkpt lat="47.79252" lon="2.11529">
        <ele>119</ele>
        <time>2018-03-03T13:28:27.680Z</time>
      </trkpt>
      <trkpt lat="47.79259" lon="2.1155">
        <ele>118</ele>
        <time>2018-03-03T13:28:28.687Z</time>
      </trkpt>
      <trkpt lat="47.79259" lon="2.1155">
        <ele>118</ele>
        <time>2018-03-03T13:28:29.683Z</time>
      </trkpt>
      <trkpt lat="47.79267" lon="2.1157">
        <ele>117</ele>
        <time>2018-03-03T13:28:30.687Z</time>
      </trkpt>
      <trkpt lat="47.79271" lon="2.1158">
        <ele>117</ele>
        <time>2018-03-03T13:28:31.685Z</time>
      </trkpt>
      <trkpt lat="47.79274" lon="2.11591">
        <ele>117</ele>
        <time>2018-03-03T13:28:32.687Z</time>
      </trkpt>
      <trkpt lat="47.79274" lon="2.11591">
        <ele>117</ele>
        <time>2018-03-03T13:28:33.681Z</time>
      </trkpt>
      <trkpt lat="47.79282" lon="2.11612">
        <ele>116</ele>
        <time>2018-03-03T13:28:34.679Z</time>
      </trkpt>
      <trkpt lat="47.79282" lon="2.11612">
        <ele>116</ele>
        <time>2018-03-03T13:28:35.682Z</time>
      </trkpt>
      <trkpt lat="47.7929" lon="2.11631">
        <ele>115</ele>
        <time>2018-03-03T13:28:36.687Z</time>
      </trkpt>
      <trkpt lat="47.7929" lon="2.11631">
        <ele>115</ele>
        <time>2018-03-03T13:28:37.681Z</time>
      </trkpt>
      <trkpt lat="47.79298" lon="2.11651">
        <ele>115</ele>
        <time>2018-03-03T13:28:38.688Z</time>
      </trkpt>
      <trkpt lat="47.79298" lon="2.11651">
        <ele>115</ele>
        <time>2018-03-03T13:28:39.691Z</time>
      </trkpt>
      <trkpt lat="47.79306" lon="2.1167">
        <ele>114</ele>
        <time>2018-03-03T13:28:40.690Z</time>
      </trkpt>
      <trkpt lat="47.79306" lon="2.1167">
        <ele>114</ele>
        <time>2018-03-03T13:28:41.682Z</time>
      </trkpt>
      <trkpt lat="47.79313" lon="2.11688">
        <ele>114</ele>
        <time>2018-03-03T13:28:42.689Z</time>
      </trkpt>
      <trkpt lat="47.79313" lon="2.11688">
        <ele>114</ele>
        <time>2018-03-03T13:28:43.682Z</time>
      </trkpt>
      <trkpt lat="47.7932" lon="2.11707">
        <ele>113</ele>
        <time>2018-03-03T13:28:44.702Z</time>
      </trkpt>
      <trkpt lat="47.7932" lon="2.11707">
        <ele>113</ele>
        <time>2018-03-03T13:28:45.669Z</time>
      </trkpt>
      <trkpt lat="47.79328" lon="2.11726">
        <ele>113</ele>
        <time>2018-03-03T13:28:46.677Z</time>
      </trkpt>
      <trkpt lat="47.79331" lon="2.11737">
        <ele>112</ele>
        <time>2018-03-03T13:28:47.687Z</time>
      </trkpt>
      <trkpt lat="47.79331" lon="2.11737">
        <ele>112</ele>
        <time>2018-03-03T13:28:48.681Z</time>
      </trkpt>
      <trkpt lat="47.79338" lon="2.11758">
        <ele>112</ele>
        <time>2018-03-03T13:28:49.688Z</time>
      </trkpt>
      <trkpt lat="47.79342" lon="2.11767">
        <ele>112</ele>
        <time>2018-03-03T13:28:50.689Z</time>
      </trkpt>
      <trkpt lat="47.79342" lon="2.11767">
        <ele>112</ele>
        <time>2018-03-03T13:28:51.681Z</time>
      </trkpt>
      <trkpt lat="47.79349" lon="2.11788">
        <ele>112</ele>
        <time>2018-03-03T13:28:52.687Z</time>
      </trkpt>
      <trkpt lat="47.79349" lon="2.11788">
        <ele>112</ele>
        <time>2018-03-03T13:28:53.681Z</time>
      </trkpt>
      <trkpt lat="47.79358" lon="2.1181">
        <ele>112</ele>
        <time>2018-03-03T13:28:54.687Z</time>
      </trkpt>
      <trkpt lat="47.79358" lon="2.1181">
        <ele>112</ele>
        <time>2018-03-03T13:28:55.683Z</time>
      </trkpt>
      <trkpt lat="47.79366" lon="2.11832">
        <ele>112</ele>
        <time>2018-03-03T13:28:56.688Z</time>
      </trkpt>
      <trkpt lat="47.79366" lon="2.11832">
        <ele>112</ele>
        <time>2018-03-03T13:28:57.682Z</time>
      </trkpt>
      <trkpt lat="47.79376" lon="2.11856">
        <ele>111</ele>
        <time>2018-03-03T13:28:58.687Z</time>
      </trkpt>
      <trkpt lat="47.79376" lon="2.11856">
        <ele>111</ele>
        <time>2018-03-03T13:28:59.682Z</time>
      </trkpt>
      <trkpt lat="47.79386" lon="2.1188">
        <ele>111</ele>
        <time>2018-03-03T13:29:00.667Z</time>
      </trkpt>
      <trkpt lat="47.79391" lon="2.11891">
        <ele>111</ele>
        <time>2018-03-03T13:29:01.697Z</time>
      </trkpt>
      <trkpt lat="47.79395" lon="2.11903">
        <ele>111</ele>
        <time>2018-03-03T13:29:02.688Z</time>
      </trkpt>
      <trkpt lat="47.79395" lon="2.11903">
        <ele>111</ele>
        <time>2018-03-03T13:29:03.682Z</time>
      </trkpt>
      <trkpt lat="47.79408" lon="2.11929">
        <ele>111</ele>
        <time>2018-03-03T13:29:04.687Z</time>
      </trkpt>
      <trkpt lat="47.79408" lon="2.11929">
        <ele>111</ele>
        <time>2018-03-03T13:29:05.682Z</time>
      </trkpt>
      <trkpt lat="47.79416" lon="2.11951">
        <ele>111</ele>
        <time>2018-03-03T13:29:06.687Z</time>
      </trkpt>
      <trkpt lat="47.79416" lon="2.11951">
        <ele>111</ele>
        <time>2018-03-03T13:29:07.682Z</time>
      </trkpt>
      <trkpt lat="47.79424" lon="2.11974">
        <ele>110</ele>
        <time>2018-03-03T13:29:08.687Z</time>
      </trkpt>
      <trkpt lat="47.79424" lon="2.11974">
        <ele>110</ele>
        <time>2018-03-03T13:29:09.689Z</time>
      </trkpt>
      <trkpt lat="47.79432" lon="2.11996">
        <ele>111</ele>
        <time>2018-03-03T13:29:10.687Z</time>
      </trkpt>
      <trkpt lat="47.79432" lon="2.11996">
        <ele>111</ele>
        <time>2018-03-03T13:29:11.682Z</time>
      </trkpt>
      <trkpt lat="47.79439" lon="2.12017">
        <ele>111</ele>
        <time>2018-03-03T13:29:12.687Z</time>
      </trkpt>
      <trkpt lat="47.79442" lon="2.12027">
        <ele>111</ele>
        <time>2018-03-03T13:29:13.688Z</time>
      </trkpt>
      <trkpt lat="47.79442" lon="2.12027">
        <ele>111</ele>
        <time>2018-03-03T13:29:14.685Z</time>
      </trkpt>
      <trkpt lat="47.79448" lon="2.12047">
        <ele>111</ele>
        <time>2018-03-03T13:29:15.687Z</time>
      </trkpt>
      <trkpt lat="47.7945" lon="2.12056">
        <ele>111</ele>
        <time>2018-03-03T13:29:16.687Z</time>
      </trkpt>
      <trkpt lat="47.7945" lon="2.12056">
        <ele>111</ele>
        <time>2018-03-03T13:29:17.679Z</time>
      </trkpt>
      <trkpt lat="47.79456" lon="2.12075">
        <ele>111</ele>
        <time>2018-03-03T13:29:18.686Z</time>
      </trkpt>
      <trkpt lat="47.79456" lon="2.12075">
        <ele>111</ele>
        <time>2018-03-03T13:29:19.681Z</time>
      </trkpt>
      <trkpt lat="47.79462" lon="2.12093">
        <ele>111</ele>
        <time>2018-03-03T13:29:20.687Z</time>
      </trkpt>
      <trkpt lat="47.79462" lon="2.12093">
        <ele>111</ele>
        <time>2018-03-03T13:29:21.682Z</time>
      </trkpt>
      <trkpt lat="47.79467" lon="2.12111">
        <ele>112</ele>
        <time>2018-03-03T13:29:22.687Z</time>
      </trkpt>
      <trkpt lat="47.79467" lon="2.12111">
        <ele>112</ele>
        <time>2018-03-03T13:29:23.680Z</time>
      </trkpt>
      <trkpt lat="47.79473" lon="2.12129">
        <ele>112</ele>
        <time>2018-03-03T13:29:24.687Z</time>
      </trkpt>
      <trkpt lat="47.79473" lon="2.12129">
        <ele>112</ele>
        <time>2018-03-03T13:29:25.684Z</time>
      </trkpt>
      <trkpt lat="47.79478" lon="2.12148">
        <ele>113</ele>
        <time>2018-03-03T13:29:26.680Z</time>
      </trkpt>
      <trkpt lat="47.79478" lon="2.12148">
        <ele>113</ele>
        <time>2018-03-03T13:29:27.682Z</time>
      </trkpt>
      <trkpt lat="47.79484" lon="2.12168">
        <ele>113</ele>
        <time>2018-03-03T13:29:28.687Z</time>
      </trkpt>
      <trkpt lat="47.79487" lon="2.12177">
        <ele>113</ele>
        <time>2018-03-03T13:29:29.687Z</time>
      </trkpt>
      <trkpt lat="47.79487" lon="2.12177">
        <ele>113</ele>
        <time>2018-03-03T13:29:30.687Z</time>
      </trkpt>
      <trkpt lat="47.79492" lon="2.12195">
        <ele>114</ele>
        <time>2018-03-03T13:29:31.688Z</time>
      </trkpt>
      <trkpt lat="47.79492" lon="2.12195">
        <ele>114</ele>
        <time>2018-03-03T13:29:32.682Z</time>
      </trkpt>
      <trkpt lat="47.79498" lon="2.12214">
        <ele>114</ele>
        <time>2018-03-03T13:29:33.687Z</time>
      </trkpt>
      <trkpt lat="47.79501" lon="2.12225">
        <ele>114</ele>
        <time>2018-03-03T13:29:34.687Z</time>
      </trkpt>
      <trkpt lat="47.79501" lon="2.12225">
        <ele>114</ele>
        <time>2018-03-03T13:29:35.682Z</time>
      </trkpt>
      <trkpt lat="47.79506" lon="2.12243">
        <ele>115</ele>
        <time>2018-03-03T13:29:36.683Z</time>
      </trkpt>
      <trkpt lat="47.79508" lon="2.12251">
        <ele>115</ele>
        <time>2018-03-03T13:29:37.687Z</time>
      </trkpt>
      <trkpt lat="47.79511" lon="2.12261">
        <ele>115</ele>
        <time>2018-03-03T13:29:38.688Z</time>
      </trkpt>
      <trkpt lat="47.79514" lon="2.12271">
        <ele>116</ele>
        <time>2018-03-03T13:29:39.689Z</time>
      </trkpt>
      <trkpt lat="47.79514" lon="2.12271">
        <ele>116</ele>
        <time>2018-03-03T13:29:40.685Z</time>
      </trkpt>
      <trkpt lat="47.79518" lon="2.12288">
        <ele>116</ele>
        <time>2018-03-03T13:29:41.687Z</time>
      </trkpt>
      <trkpt lat="47.79518" lon="2.12288">
        <ele>116</ele>
        <time>2018-03-03T13:29:42.681Z</time>
      </trkpt>
      <trkpt lat="47.79522" lon="2.12306">
        <ele>117</ele>
        <time>2018-03-03T13:29:43.687Z</time>
      </trkpt>
      <trkpt lat="47.79522" lon="2.12306">
        <ele>117</ele>
        <time>2018-03-03T13:29:44.684Z</time>
      </trkpt>
      <trkpt lat="47.79527" lon="2.12324">
        <ele>117</ele>
        <time>2018-03-03T13:29:45.686Z</time>
      </trkpt>
      <trkpt lat="47.7953" lon="2.12333">
        <ele>117</ele>
        <time>2018-03-03T13:29:46.686Z</time>
      </trkpt>
      <trkpt lat="47.7953" lon="2.12333">
        <ele>117</ele>
        <time>2018-03-03T13:29:47.681Z</time>
      </trkpt>
      <trkpt lat="47.79536" lon="2.12351">
        <ele>118</ele>
        <time>2018-03-03T13:29:48.686Z</time>
      </trkpt>
      <trkpt lat="47.79536" lon="2.12351">
        <ele>118</ele>
        <time>2018-03-03T13:29:49.682Z</time>
      </trkpt>
      <trkpt lat="47.79541" lon="2.12369">
        <ele>118</ele>
        <time>2018-03-03T13:29:50.687Z</time>
      </trkpt>
      <trkpt lat="47.79541" lon="2.12369">
        <ele>118</ele>
        <time>2018-03-03T13:29:51.692Z</time>
      </trkpt>
      <trkpt lat="47.79547" lon="2.12388">
        <ele>119</ele>
        <time>2018-03-03T13:29:52.687Z</time>
      </trkpt>
      <trkpt lat="47.79547" lon="2.12388">
        <ele>119</ele>
        <time>2018-03-03T13:29:53.679Z</time>
      </trkpt>
      <trkpt lat="47.79552" lon="2.12406">
        <ele>119</ele>
        <time>2018-03-03T13:29:54.693Z</time>
      </trkpt>
      <trkpt lat="47.79552" lon="2.12406">
        <ele>119</ele>
        <time>2018-03-03T13:29:55.688Z</time>
      </trkpt>
      <trkpt lat="47.79557" lon="2.12425">
        <ele>119</ele>
        <time>2018-03-03T13:29:56.688Z</time>
      </trkpt>
      <trkpt lat="47.79557" lon="2.12425">
        <ele>119</ele>
        <time>2018-03-03T13:29:57.682Z</time>
      </trkpt>
      <trkpt lat="47.79563" lon="2.12442">
        <ele>120</ele>
        <time>2018-03-03T13:29:58.688Z</time>
      </trkpt>
      <trkpt lat="47.79563" lon="2.12442">
        <ele>120</ele>
        <time>2018-03-03T13:29:59.683Z</time>
      </trkpt>
      <trkpt lat="47.79568" lon="2.12461">
        <ele>120</ele>
        <time>2018-03-03T13:30:00.682Z</time>
      </trkpt>
      <trkpt lat="47.79571" lon="2.1247">
        <ele>120</ele>
        <time>2018-03-03T13:30:01.688Z</time>
      </trkpt>
      <trkpt lat="47.79571" lon="2.1247">
        <ele>120</ele>
        <time>2018-03-03T13:30:02.685Z</time>
      </trkpt>
      <trkpt lat="47.79576" lon="2.12488">
        <ele>120</ele>
        <time>2018-03-03T13:30:03.686Z</time>
      </trkpt>
      <trkpt lat="47.79579" lon="2.12497">
        <ele>120</ele>
        <time>2018-03-03T13:30:04.702Z</time>
      </trkpt>
      <trkpt lat="47.79579" lon="2.12497">
        <ele>120</ele>
        <time>2018-03-03T13:30:05.692Z</time>
      </trkpt>
      <trkpt lat="47.79585" lon="2.12515">
        <ele>119</ele>
        <time>2018-03-03T13:30:06.685Z</time>
      </trkpt>
      <trkpt lat="47.79588" lon="2.12523">
        <ele>119</ele>
        <time>2018-03-03T13:30:07.687Z</time>
      </trkpt>
      <trkpt lat="47.79591" lon="2.12532">
        <ele>119</ele>
        <time>2018-03-03T13:30:08.689Z</time>
      </trkpt>
      <trkpt lat="47.79591" lon="2.12532">
        <ele>119</ele>
        <time>2018-03-03T13:30:09.681Z</time>
      </trkpt>
      <trkpt lat="47.79598" lon="2.12547">
        <ele>119</ele>
        <time>2018-03-03T13:30:10.692Z</time>
      </trkpt>
      <trkpt lat="47.79602" lon="2.12555">
        <ele>119</ele>
        <time>2018-03-03T13:30:11.686Z</time>
      </trkpt>
      <trkpt lat="47.79602" lon="2.12555">
        <ele>119</ele>
        <time>2018-03-03T13:30:12.681Z</time>
      </trkpt>
      <trkpt lat="47.79609" lon="2.1257">
        <ele>119</ele>
        <time>2018-03-03T13:30:13.687Z</time>
      </trkpt>
      <trkpt lat="47.79612" lon="2.12578">
        <ele>119</ele>
        <time>2018-03-03T13:30:14.688Z</time>
      </trkpt>
      <trkpt lat="47.79612" lon="2.12578">
        <ele>119</ele>
        <time>2018-03-03T13:30:15.671Z</time>
      </trkpt>
      <trkpt lat="47.7962" lon="2.12592">
        <ele>119</ele>
        <time>2018-03-03T13:30:16.700Z</time>
      </trkpt>
      <trkpt lat="47.7962" lon="2.12592">
        <ele>119</ele>
        <time>2018-03-03T13:30:17.686Z</time>
      </trkpt>
      <trkpt lat="47.79627" lon="2.12607">
        <ele>119</ele>
        <time>2018-03-03T13:30:18.703Z</time>
      </trkpt>
      <trkpt lat="47.79627" lon="2.12607">
        <ele>119</ele>
        <time>2018-03-03T13:30:19.693Z</time>
      </trkpt>
      <trkpt lat="47.79633" lon="2.12622">
        <ele>119</ele>
        <time>2018-03-03T13:30:20.699Z</time>
      </trkpt>
      <trkpt lat="47.79633" lon="2.12622">
        <ele>119</ele>
        <time>2018-03-03T13:30:21.688Z</time>
      </trkpt>
      <trkpt lat="47.7964" lon="2.12637">
        <ele>119</ele>
        <time>2018-03-03T13:30:22.687Z</time>
      </trkpt>
      <trkpt lat="47.7964" lon="2.12637">
        <ele>119</ele>
        <time>2018-03-03T13:30:23.683Z</time>
      </trkpt>
      <trkpt lat="47.79648" lon="2.1265">
        <ele>118</ele>
        <time>2018-03-03T13:30:24.687Z</time>
      </trkpt>
      <trkpt lat="47.79651" lon="2.12658">
        <ele>118</ele>
        <time>2018-03-03T13:30:25.689Z</time>
      </trkpt>
      <trkpt lat="47.79651" lon="2.12658">
        <ele>118</ele>
        <time>2018-03-03T13:30:26.682Z</time>
      </trkpt>
      <trkpt lat="47.79659" lon="2.12674">
        <ele>118</ele>
        <time>2018-03-03T13:30:27.687Z</time>
      </trkpt>
      <trkpt lat="47.79663" lon="2.12682">
        <ele>118</ele>
        <time>2018-03-03T13:30:28.687Z</time>
      </trkpt>
      <trkpt lat="47.79663" lon="2.12682">
        <ele>118</ele>
        <time>2018-03-03T13:30:29.679Z</time>
      </trkpt>
      <trkpt lat="47.79671" lon="2.12699">
        <ele>118</ele>
        <time>2018-03-03T13:30:30.688Z</time>
      </trkpt>
      <trkpt lat="47.79671" lon="2.12699">
        <ele>118</ele>
        <time>2018-03-03T13:30:31.685Z</time>
      </trkpt>
      <trkpt lat="47.79678" lon="2.12715">
        <ele>118</ele>
        <time>2018-03-03T13:30:32.688Z</time>
      </trkpt>
      <trkpt lat="47.79678" lon="2.12715">
        <ele>118</ele>
        <time>2018-03-03T13:30:33.683Z</time>
      </trkpt>
      <trkpt lat="47.79686" lon="2.12731">
        <ele>118</ele>
        <time>2018-03-03T13:30:34.687Z</time>
      </trkpt>
      <trkpt lat="47.79686" lon="2.12731">
        <ele>118</ele>
        <time>2018-03-03T13:30:35.684Z</time>
      </trkpt>
      <trkpt lat="47.79694" lon="2.12748">
        <ele>118</ele>
        <time>2018-03-03T13:30:36.687Z</time>
      </trkpt>
      <trkpt lat="47.79698" lon="2.12757">
        <ele>118</ele>
        <time>2018-03-03T13:30:37.687Z</time>
      </trkpt>
      <trkpt lat="47.79702" lon="2.12765">
        <ele>119</ele>
        <time>2018-03-03T13:30:38.689Z</time>
      </trkpt>
      <trkpt lat="47.79702" lon="2.12765">
        <ele>119</ele>
        <time>2018-03-03T13:30:39.681Z</time>
      </trkpt>
      <trkpt lat="47.7971" lon="2.12782">
        <ele>118</ele>
        <time>2018-03-03T13:30:40.687Z</time>
      </trkpt>
      <trkpt lat="47.7971" lon="2.12782">
        <ele>118</ele>
        <time>2018-03-03T13:30:41.703Z</time>
      </trkpt>
      <trkpt lat="47.79718" lon="2.12798">
        <ele>118</ele>
        <time>2018-03-03T13:30:42.694Z</time>
      </trkpt>
      <trkpt lat="47.79718" lon="2.12798">
        <ele>118</ele>
        <time>2018-03-03T13:30:43.686Z</time>
      </trkpt>
      <trkpt lat="47.79726" lon="2.12814">
        <ele>118</ele>
        <time>2018-03-03T13:30:44.688Z</time>
      </trkpt>
      <trkpt lat="47.79726" lon="2.12814">
        <ele>118</ele>
        <time>2018-03-03T13:30:45.681Z</time>
      </trkpt>
      <trkpt lat="47.79734" lon="2.1283">
        <ele>119</ele>
        <time>2018-03-03T13:30:46.704Z</time>
      </trkpt>
      <trkpt lat="47.79734" lon="2.1283">
        <ele>119</ele>
        <time>2018-03-03T13:30:47.703Z</time>
      </trkpt>
      <trkpt lat="47.79742" lon="2.12846">
        <ele>120</ele>
        <time>2018-03-03T13:30:48.694Z</time>
      </trkpt>
      <trkpt lat="47.79742" lon="2.12846">
        <ele>120</ele>
        <time>2018-03-03T13:30:49.687Z</time>
      </trkpt>
      <trkpt lat="47.79749" lon="2.12862">
        <ele>119</ele>
        <time>2018-03-03T13:30:50.671Z</time>
      </trkpt>
      <trkpt lat="47.79749" lon="2.12862">
        <ele>119</ele>
        <time>2018-03-03T13:30:51.683Z</time>
      </trkpt>
      <trkpt lat="47.79757" lon="2.12879">
        <ele>119</ele>
        <time>2018-03-03T13:30:52.688Z</time>
      </trkpt>
      <trkpt lat="47.79757" lon="2.12879">
        <ele>119</ele>
        <time>2018-03-03T13:30:53.682Z</time>
      </trkpt>
      <trkpt lat="47.79766" lon="2.12897">
        <ele>120</ele>
        <time>2018-03-03T13:30:54.689Z</time>
      </trkpt>
      <trkpt lat="47.79766" lon="2.12897">
        <ele>120</ele>
        <time>2018-03-03T13:30:55.693Z</time>
      </trkpt>
      <trkpt lat="47.79776" lon="2.12916">
        <ele>119</ele>
        <time>2018-03-03T13:30:56.688Z</time>
      </trkpt>
      <trkpt lat="47.79776" lon="2.12916">
        <ele>119</ele>
        <time>2018-03-03T13:30:57.684Z</time>
      </trkpt>
      <trkpt lat="47.79785" lon="2.12936">
        <ele>119</ele>
        <time>2018-03-03T13:30:58.687Z</time>
      </trkpt>
      <trkpt lat="47.79785" lon="2.12936">
        <ele>119</ele>
        <time>2018-03-03T13:30:59.683Z</time>
      </trkpt>
      <trkpt lat="47.79795" lon="2.12956">
        <ele>120</ele>
        <time>2018-03-03T13:31:00.687Z</time>
      </trkpt>
      <trkpt lat="47.798" lon="2.12966">
        <ele>120</ele>
        <time>2018-03-03T13:31:01.687Z</time>
      </trkpt>
      <trkpt lat="47.79805" lon="2.12975">
        <ele>120</ele>
        <time>2018-03-03T13:31:02.688Z</time>
      </trkpt>
      <trkpt lat="47.79805" lon="2.12975">
        <ele>120</ele>
        <time>2018-03-03T13:31:03.681Z</time>
      </trkpt>
      <trkpt lat="47.79814" lon="2.12993">
        <ele>120</ele>
        <time>2018-03-03T13:31:04.688Z</time>
      </trkpt>
      <trkpt lat="47.79814" lon="2.12993">
        <ele>120</ele>
        <time>2018-03-03T13:31:05.681Z</time>
      </trkpt>
      <trkpt lat="47.79821" lon="2.13009">
        <ele>121</ele>
        <time>2018-03-03T13:31:06.684Z</time>
      </trkpt>
      <trkpt lat="47.79823" lon="2.13017">
        <ele>121</ele>
        <time>2018-03-03T13:31:07.688Z</time>
      </trkpt>
      <trkpt lat="47.79823" lon="2.13017">
        <ele>121</ele>
        <time>2018-03-03T13:31:08.685Z</time>
      </trkpt>
      <trkpt lat="47.79825" lon="2.13033">
        <ele>121</ele>
        <time>2018-03-03T13:31:09.687Z</time>
      </trkpt>
      <trkpt lat="47.79825" lon="2.13033">
        <ele>121</ele>
        <time>2018-03-03T13:31:10.682Z</time>
      </trkpt>
      <trkpt lat="47.79824" lon="2.13049">
        <ele>120</ele>
        <time>2018-03-03T13:31:11.687Z</time>
      </trkpt>
      <trkpt lat="47.79824" lon="2.13049">
        <ele>120</ele>
        <time>2018-03-03T13:31:12.681Z</time>
      </trkpt>
      <trkpt lat="47.79822" lon="2.13065">
        <ele>119</ele>
        <time>2018-03-03T13:31:13.687Z</time>
      </trkpt>
      <trkpt lat="47.79822" lon="2.13065">
        <ele>119</ele>
        <time>2018-03-03T13:31:14.685Z</time>
      </trkpt>
      <trkpt lat="47.7982" lon="2.13081">
        <ele>118</ele>
        <time>2018-03-03T13:31:15.700Z</time>
      </trkpt>
      <trkpt lat="47.79819" lon="2.13089">
        <ele>118</ele>
        <time>2018-03-03T13:31:16.692Z</time>
      </trkpt>
      <trkpt lat="47.79819" lon="2.13089">
        <ele>118</ele>
        <time>2018-03-03T13:31:17.686Z</time>
      </trkpt>
      <trkpt lat="47.79816" lon="2.13105">
        <ele>119</ele>
        <time>2018-03-03T13:31:18.688Z</time>
      </trkpt>
      <trkpt lat="47.79816" lon="2.13105">
        <ele>119</ele>
        <time>2018-03-03T13:31:19.682Z</time>
      </trkpt>
      <trkpt lat="47.79813" lon="2.13121">
        <ele>119</ele>
        <time>2018-03-03T13:31:20.688Z</time>
      </trkpt>
      <trkpt lat="47.79813" lon="2.13121">
        <ele>119</ele>
        <time>2018-03-03T13:31:21.682Z</time>
      </trkpt>
      <trkpt lat="47.79809" lon="2.13137">
        <ele>119</ele>
        <time>2018-03-03T13:31:22.688Z</time>
      </trkpt>
      <trkpt lat="47.79809" lon="2.13137">
        <ele>119</ele>
        <time>2018-03-03T13:31:23.684Z</time>
      </trkpt>
      <trkpt lat="47.79805" lon="2.13153">
        <ele>118</ele>
        <time>2018-03-03T13:31:24.686Z</time>
      </trkpt>
      <trkpt lat="47.79805" lon="2.13153">
        <ele>118</ele>
        <time>2018-03-03T13:31:25.681Z</time>
      </trkpt>
      <trkpt lat="47.798" lon="2.1317">
        <ele>118</ele>
        <time>2018-03-03T13:31:26.687Z</time>
      </trkpt>
      <trkpt lat="47.798" lon="2.1317">
        <ele>118</ele>
        <time>2018-03-03T13:31:27.685Z</time>
      </trkpt>
      <trkpt lat="47.79794" lon="2.13186">
        <ele>118</ele>
        <time>2018-03-03T13:31:28.687Z</time>
      </trkpt>
      <trkpt lat="47.79794" lon="2.13186">
        <ele>118</ele>
        <time>2018-03-03T13:31:29.685Z</time>
      </trkpt>
      <trkpt lat="47.79788" lon="2.13202">
        <ele>118</ele>
        <time>2018-03-03T13:31:30.687Z</time>
      </trkpt>
      <trkpt lat="47.79784" lon="2.13209">
        <ele>118</ele>
        <time>2018-03-03T13:31:31.687Z</time>
      </trkpt>
      <trkpt lat="47.79784" lon="2.13209">
        <ele>118</ele>
        <time>2018-03-03T13:31:32.682Z</time>
      </trkpt>
      <trkpt lat="47.79777" lon="2.13223">
        <ele>118</ele>
        <time>2018-03-03T13:31:33.690Z</time>
      </trkpt>
      <trkpt lat="47.79773" lon="2.1323">
        <ele>118</ele>
        <time>2018-03-03T13:31:34.698Z</time>
      </trkpt>
      <trkpt lat="47.79773" lon="2.1323">
        <ele>118</ele>
        <time>2018-03-03T13:31:35.688Z</time>
      </trkpt>
      <trkpt lat="47.79766" lon="2.13242">
        <ele>118</ele>
        <time>2018-03-03T13:31:36.686Z</time>
      </trkpt>
      <trkpt lat="47.79766" lon="2.13242">
        <ele>118</ele>
        <time>2018-03-03T13:31:37.685Z</time>
      </trkpt>
      <trkpt lat="47.7976" lon="2.13254">
        <ele>119</ele>
        <time>2018-03-03T13:31:38.688Z</time>
      </trkpt>
      <trkpt lat="47.7976" lon="2.13254">
        <ele>119</ele>
        <time>2018-03-03T13:31:39.684Z</time>
      </trkpt>
      <trkpt lat="47.79753" lon="2.13265">
        <ele>120</ele>
        <time>2018-03-03T13:31:40.687Z</time>
      </trkpt>
      <trkpt lat="47.7975" lon="2.13271">
        <ele>120</ele>
        <time>2018-03-03T13:31:41.687Z</time>
      </trkpt>
      <trkpt lat="47.7975" lon="2.13271">
        <ele>120</ele>
        <time>2018-03-03T13:31:42.681Z</time>
      </trkpt>
      <trkpt lat="47.79744" lon="2.13283">
        <ele>121</ele>
        <time>2018-03-03T13:31:43.688Z</time>
      </trkpt>
      <trkpt lat="47.79741" lon="2.13289">
        <ele>121</ele>
        <time>2018-03-03T13:31:44.688Z</time>
      </trkpt>
      <trkpt lat="47.79741" lon="2.13289">
        <ele>121</ele>
        <time>2018-03-03T13:31:45.685Z</time>
      </trkpt>
      <trkpt lat="47.79736" lon="2.13301">
        <ele>121</ele>
        <time>2018-03-03T13:31:46.689Z</time>
      </trkpt>
      <trkpt lat="47.79736" lon="2.13301">
        <ele>121</ele>
        <time>2018-03-03T13:31:47.685Z</time>
      </trkpt>
      <trkpt lat="47.79731" lon="2.13313">
        <ele>121</ele>
        <time>2018-03-03T13:31:48.686Z</time>
      </trkpt>
      <trkpt lat="47.79729" lon="2.13318">
        <ele>121</ele>
        <time>2018-03-03T13:31:49.689Z</time>
      </trkpt>
      <trkpt lat="47.79729" lon="2.13318">
        <ele>121</ele>
        <time>2018-03-03T13:31:50.683Z</time>
      </trkpt>
      <trkpt lat="47.79724" lon="2.13328">
        <ele>121</ele>
        <time>2018-03-03T13:31:51.679Z</time>
      </trkpt>
      <trkpt lat="47.79722" lon="2.13333">
        <ele>121</ele>
        <time>2018-03-03T13:31:52.687Z</time>
      </trkpt>
      <trkpt lat="47.79722" lon="2.13333">
        <ele>121</ele>
        <time>2018-03-03T13:31:53.683Z</time>
      </trkpt>
      <trkpt lat="47.79718" lon="2.13343">
        <ele>122</ele>
        <time>2018-03-03T13:31:54.691Z</time>
      </trkpt>
      <trkpt lat="47.79718" lon="2.13343">
        <ele>122</ele>
        <time>2018-03-03T13:31:55.685Z</time>
      </trkpt>
      <trkpt lat="47.79714" lon="2.13353">
        <ele>121</ele>
        <time>2018-03-03T13:31:56.689Z</time>
      </trkpt>
      <trkpt lat="47.79714" lon="2.13353">
        <ele>121</ele>
        <time>2018-03-03T13:31:57.682Z</time>
      </trkpt>
      <trkpt lat="47.7971" lon="2.13363">
        <ele>121</ele>
        <time>2018-03-03T13:31:58.688Z</time>
      </trkpt>
      <trkpt lat="47.7971" lon="2.13363">
        <ele>121</ele>
        <time>2018-03-03T13:31:59.681Z</time>
      </trkpt>
      <trkpt lat="47.79706" lon="2.13374">
        <ele>121</ele>
        <time>2018-03-03T13:32:00.687Z</time>
      </trkpt>
      <trkpt lat="47.79706" lon="2.13374">
        <ele>121</ele>
        <time>2018-03-03T13:32:01.679Z</time>
      </trkpt>
      <trkpt lat="47.79702" lon="2.13384">
        <ele>121</ele>
        <time>2018-03-03T13:32:02.688Z</time>
      </trkpt>
      <trkpt lat="47.79702" lon="2.13384">
        <ele>121</ele>
        <time>2018-03-03T13:32:03.683Z</time>
      </trkpt>
      <trkpt lat="47.79697" lon="2.13394">
        <ele>121</ele>
        <time>2018-03-03T13:32:04.688Z</time>
      </trkpt>
      <trkpt lat="47.79697" lon="2.13394">
        <ele>121</ele>
        <time>2018-03-03T13:32:05.681Z</time>
      </trkpt>
      <trkpt lat="47.79693" lon="2.13405">
        <ele>121</ele>
        <time>2018-03-03T13:32:06.689Z</time>
      </trkpt>
      <trkpt lat="47.79693" lon="2.13405">
        <ele>121</ele>
        <time>2018-03-03T13:32:07.682Z</time>
      </trkpt>
      <trkpt lat="47.79688" lon="2.13415">
        <ele>121</ele>
        <time>2018-03-03T13:32:08.688Z</time>
      </trkpt>
      <trkpt lat="47.79688" lon="2.13415">
        <ele>121</ele>
        <time>2018-03-03T13:32:09.682Z</time>
      </trkpt>
      <trkpt lat="47.79682" lon="2.13424">
        <ele>120</ele>
        <time>2018-03-03T13:32:10.688Z</time>
      </trkpt>
      <trkpt lat="47.79679" lon="2.13428">
        <ele>120</ele>
        <time>2018-03-03T13:32:11.688Z</time>
      </trkpt>
      <trkpt lat="47.79679" lon="2.13428">
        <ele>120</ele>
        <time>2018-03-03T13:32:12.681Z</time>
      </trkpt>
      <trkpt lat="47.79673" lon="2.13434">
        <ele>120</ele>
        <time>2018-03-03T13:32:13.688Z</time>
      </trkpt>
      <trkpt lat="47.7967" lon="2.13438">
        <ele>120</ele>
        <time>2018-03-03T13:32:14.689Z</time>
      </trkpt>
      <trkpt lat="47.7967" lon="2.13438">
        <ele>120</ele>
        <time>2018-03-03T13:32:15.683Z</time>
      </trkpt>
      <trkpt lat="47.79664" lon="2.13445">
        <ele>120</ele>
        <time>2018-03-03T13:32:16.689Z</time>
      </trkpt>
      <trkpt lat="47.79664" lon="2.13445">
        <ele>120</ele>
        <time>2018-03-03T13:32:17.687Z</time>
      </trkpt>
      <trkpt lat="47.79657" lon="2.13453">
        <ele>121</ele>
        <time>2018-03-03T13:32:18.688Z</time>
      </trkpt>
      <trkpt lat="47.79657" lon="2.13453">
        <ele>121</ele>
        <time>2018-03-03T13:32:19.682Z</time>
      </trkpt>
      <trkpt lat="47.79651" lon="2.1346">
        <ele>120</ele>
        <time>2018-03-03T13:32:20.690Z</time>
      </trkpt>
      <trkpt lat="47.79651" lon="2.1346">
        <ele>120</ele>
        <time>2018-03-03T13:32:21.683Z</time>
      </trkpt>
      <trkpt lat="47.79646" lon="2.13466">
        <ele>120</ele>
        <time>2018-03-03T13:32:22.688Z</time>
      </trkpt>
      <trkpt lat="47.79646" lon="2.13466">
        <ele>120</ele>
        <time>2018-03-03T13:32:23.683Z</time>
      </trkpt>
      <trkpt lat="47.79643" lon="2.1347">
        <ele>121</ele>
        <time>2018-03-03T13:32:24.689Z</time>
      </trkpt>
      <trkpt lat="47.79643" lon="2.1347">
        <ele>121</ele>
        <time>2018-03-03T13:32:25.682Z</time>
      </trkpt>
      <trkpt lat="47.79642" lon="2.13472">
        <ele>121</ele>
        <time>2018-03-03T13:32:26.686Z</time>
      </trkpt>
      <trkpt lat="47.79642" lon="2.13472">
        <ele>121</ele>
        <time>2018-03-03T13:32:27.683Z</time>
      </trkpt>
      <trkpt lat="47.79642" lon="2.13472">
        <ele>121</ele>
        <time>2018-03-03T13:32:28.687Z</time>
      </trkpt>
      <trkpt lat="47.79642" lon="2.13472">
        <ele>121</ele>
        <time>2018-03-03T13:32:29.685Z</time>
      </trkpt>
      <trkpt lat="47.79644" lon="2.13484">
        <ele>120</ele>
        <time>2018-03-03T13:32:30.679Z</time>
      </trkpt>
      <trkpt lat="47.79647" lon="2.13486">
        <ele>120</ele>
        <time>2018-03-03T13:32:31.674Z</time>
      </trkpt>
      <trkpt lat="47.79651" lon="2.13488">
        <ele>120</ele>
        <time>2018-03-03T13:32:32.676Z</time>
      </trkpt>
      <trkpt lat="47.79651" lon="2.13488">
        <ele>120</ele>
        <time>2018-03-03T13:32:33.669Z</time>
      </trkpt>
      <trkpt lat="47.79659" lon="2.13491">
        <ele>120</ele>
        <time>2018-03-03T13:32:34.673Z</time>
      </trkpt>
      <trkpt lat="47.79659" lon="2.13491">
        <ele>120</ele>
        <time>2018-03-03T13:32:35.669Z</time>
      </trkpt>
      <trkpt lat="47.79667" lon="2.13495">
        <ele>120</ele>
        <time>2018-03-03T13:32:36.673Z</time>
      </trkpt>
      <trkpt lat="47.79667" lon="2.13495">
        <ele>120</ele>
        <time>2018-03-03T13:32:37.668Z</time>
      </trkpt>
      <trkpt lat="47.79677" lon="2.135">
        <ele>120</ele>
        <time>2018-03-03T13:32:38.676Z</time>
      </trkpt>
      <trkpt lat="47.79677" lon="2.135">
        <ele>120</ele>
        <time>2018-03-03T13:32:39.669Z</time>
      </trkpt>
      <trkpt lat="47.79688" lon="2.13505">
        <ele>119</ele>
        <time>2018-03-03T13:32:40.675Z</time>
      </trkpt>
      <trkpt lat="47.79688" lon="2.13505">
        <ele>119</ele>
        <time>2018-03-03T13:32:41.668Z</time>
      </trkpt>
      <trkpt lat="47.797" lon="2.13511">
        <ele>118</ele>
        <time>2018-03-03T13:32:42.672Z</time>
      </trkpt>
      <trkpt lat="47.79706" lon="2.13515">
        <ele>118</ele>
        <time>2018-03-03T13:32:43.674Z</time>
      </trkpt>
      <trkpt lat="47.79713" lon="2.13519">
        <ele>117</ele>
        <time>2018-03-03T13:32:44.685Z</time>
      </trkpt>
      <trkpt lat="47.79713" lon="2.13519">
        <ele>117</ele>
        <time>2018-03-03T13:32:45.674Z</time>
      </trkpt>
      <trkpt lat="47.79726" lon="2.13526">
        <ele>116</ele>
        <time>2018-03-03T13:32:46.674Z</time>
      </trkpt>
      <trkpt lat="47.79726" lon="2.13526">
        <ele>116</ele>
        <time>2018-03-03T13:32:47.669Z</time>
      </trkpt>
      <trkpt lat="47.79739" lon="2.13534">
        <ele>115</ele>
        <time>2018-03-03T13:32:48.675Z</time>
      </trkpt>
      <trkpt lat="47.79739" lon="2.13534">
        <ele>115</ele>
        <time>2018-03-03T13:32:49.671Z</time>
      </trkpt>
      <trkpt lat="47.79751" lon="2.13541">
        <ele>114</ele>
        <time>2018-03-03T13:32:50.674Z</time>
      </trkpt>
      <trkpt lat="47.79751" lon="2.13541">
        <ele>114</ele>
        <time>2018-03-03T13:32:51.668Z</time>
      </trkpt>
      <trkpt lat="47.79761" lon="2.13547">
        <ele>113</ele>
        <time>2018-03-03T13:32:52.674Z</time>
      </trkpt>
      <trkpt lat="47.79765" lon="2.13551">
        <ele>113</ele>
        <time>2018-03-03T13:32:53.673Z</time>
      </trkpt>
      <trkpt lat="47.79765" lon="2.13551">
        <ele>113</ele>
        <time>2018-03-03T13:32:54.672Z</time>
      </trkpt>
      <trkpt lat="47.79766" lon="2.13565">
        <ele>114</ele>
        <time>2018-03-03T13:32:55.673Z</time>
      </trkpt>
      <trkpt lat="47.79765" lon="2.13573">
        <ele>114</ele>
        <time>2018-03-03T13:32:56.674Z</time>
      </trkpt>
      <trkpt lat="47.79763" lon="2.13582">
        <ele>114</ele>
        <time>2018-03-03T13:32:57.675Z</time>
      </trkpt>
      <trkpt lat="47.79763" lon="2.13582">
        <ele>114</ele>
        <time>2018-03-03T13:32:58.671Z</time>
      </trkpt>
      <trkpt lat="47.79758" lon="2.13601">
        <ele>113</ele>
        <time>2018-03-03T13:32:59.673Z</time>
      </trkpt>
      <trkpt lat="47.79758" lon="2.13601">
        <ele>113</ele>
        <time>2018-03-03T13:33:00.668Z</time>
      </trkpt>
      <trkpt lat="47.79756" lon="2.13622">
        <ele>113</ele>
        <time>2018-03-03T13:33:01.673Z</time>
      </trkpt>
      <trkpt lat="47.79756" lon="2.13622">
        <ele>113</ele>
        <time>2018-03-03T13:33:02.670Z</time>
      </trkpt>
      <trkpt lat="47.79761" lon="2.13641">
        <ele>113</ele>
        <time>2018-03-03T13:33:03.674Z</time>
      </trkpt>
      <trkpt lat="47.79766" lon="2.13649">
        <ele>112</ele>
        <time>2018-03-03T13:33:04.674Z</time>
      </trkpt>
      <trkpt lat="47.79766" lon="2.13649">
        <ele>112</ele>
        <time>2018-03-03T13:33:05.669Z</time>
      </trkpt>
      <trkpt lat="47.79777" lon="2.13662">
        <ele>112</ele>
        <time>2018-03-03T13:33:06.673Z</time>
      </trkpt>
      <trkpt lat="47.79783" lon="2.13668">
        <ele>111</ele>
        <time>2018-03-03T13:33:07.674Z</time>
      </trkpt>
      <trkpt lat="47.7979" lon="2.13674">
        <ele>111</ele>
        <time>2018-03-03T13:33:08.676Z</time>
      </trkpt>
      <trkpt lat="47.7979" lon="2.13674">
        <ele>111</ele>
        <time>2018-03-03T13:33:09.670Z</time>
      </trkpt>
      <trkpt lat="47.79804" lon="2.13689">
        <ele>111</ele>
        <time>2018-03-03T13:33:10.674Z</time>
      </trkpt>
      <trkpt lat="47.79804" lon="2.13689">
        <ele>111</ele>
        <time>2018-03-03T13:33:11.668Z</time>
      </trkpt>
      <trkpt lat="47.79818" lon="2.13703">
        <ele>110</ele>
        <time>2018-03-03T13:33:12.673Z</time>
      </trkpt>
      <trkpt lat="47.79825" lon="2.13711">
        <ele>109</ele>
        <time>2018-03-03T13:33:13.679Z</time>
      </trkpt>
      <trkpt lat="47.79825" lon="2.13711">
        <ele>109</ele>
        <time>2018-03-03T13:33:14.674Z</time>
      </trkpt>
      <trkpt lat="47.7984" lon="2.13726">
        <ele>108</ele>
        <time>2018-03-03T13:33:15.674Z</time>
      </trkpt>
      <trkpt lat="47.79847" lon="2.13735">
        <ele>108</ele>
        <time>2018-03-03T13:33:16.675Z</time>
      </trkpt>
      <trkpt lat="47.79847" lon="2.13735">
        <ele>108</ele>
        <time>2018-03-03T13:33:17.669Z</time>
      </trkpt>
      <trkpt lat="47.79862" lon="2.13751">
        <ele>107</ele>
        <time>2018-03-03T13:33:18.684Z</time>
      </trkpt>
      <trkpt lat="47.79862" lon="2.13751">
        <ele>107</ele>
        <time>2018-03-03T13:33:19.673Z</time>
      </trkpt>
      <trkpt lat="47.79877" lon="2.13767">
        <ele>107</ele>
        <time>2018-03-03T13:33:20.676Z</time>
      </trkpt>
      <trkpt lat="47.79877" lon="2.13767">
        <ele>107</ele>
        <time>2018-03-03T13:33:21.669Z</time>
      </trkpt>
      <trkpt lat="47.79892" lon="2.13782">
        <ele>106</ele>
        <time>2018-03-03T13:33:22.673Z</time>
      </trkpt>
      <trkpt lat="47.799" lon="2.13789">
        <ele>106</ele>
        <time>2018-03-03T13:33:23.675Z</time>
      </trkpt>
      <trkpt lat="47.79908" lon="2.13796">
        <ele>106</ele>
        <time>2018-03-03T13:33:24.681Z</time>
      </trkpt>
      <trkpt lat="47.79908" lon="2.13796">
        <ele>106</ele>
        <time>2018-03-03T13:33:25.688Z</time>
      </trkpt>
      <trkpt lat="47.79923" lon="2.13812">
        <ele>106</ele>
        <time>2018-03-03T13:33:26.676Z</time>
      </trkpt>
      <trkpt lat="47.79923" lon="2.13812">
        <ele>106</ele>
        <time>2018-03-03T13:33:27.669Z</time>
      </trkpt>
      <trkpt lat="47.79938" lon="2.13826">
        <ele>105</ele>
        <time>2018-03-03T13:33:28.689Z</time>
      </trkpt>
      <trkpt lat="47.79938" lon="2.13826">
        <ele>105</ele>
        <time>2018-03-03T13:33:29.701Z</time>
      </trkpt>
      <trkpt lat="47.79953" lon="2.1384">
        <ele>105</ele>
        <time>2018-03-03T13:33:30.668Z</time>
      </trkpt>
      <trkpt lat="47.79953" lon="2.1384">
        <ele>105</ele>
        <time>2018-03-03T13:33:31.671Z</time>
      </trkpt>
      <trkpt lat="47.79968" lon="2.13853">
        <ele>105</ele>
        <time>2018-03-03T13:33:32.676Z</time>
      </trkpt>
      <trkpt lat="47.79968" lon="2.13853">
        <ele>105</ele>
        <time>2018-03-03T13:33:33.669Z</time>
      </trkpt>
      <trkpt lat="47.79983" lon="2.13864">
        <ele>105</ele>
        <time>2018-03-03T13:33:34.674Z</time>
      </trkpt>
      <trkpt lat="47.79983" lon="2.13864">
        <ele>105</ele>
        <time>2018-03-03T13:33:35.675Z</time>
      </trkpt>
      <trkpt lat="47.79999" lon="2.13874">
        <ele>104</ele>
        <time>2018-03-03T13:33:36.673Z</time>
      </trkpt>
      <trkpt lat="47.80006" lon="2.13878">
        <ele>104</ele>
        <time>2018-03-03T13:33:37.673Z</time>
      </trkpt>
      <trkpt lat="47.80014" lon="2.13883">
        <ele>103</ele>
        <time>2018-03-03T13:33:38.675Z</time>
      </trkpt>
      <trkpt lat="47.80014" lon="2.13883">
        <ele>103</ele>
        <time>2018-03-03T13:33:39.670Z</time>
      </trkpt>
      <trkpt lat="47.80027" lon="2.13891">
        <ele>103</ele>
        <time>2018-03-03T13:33:40.675Z</time>
      </trkpt>
      <trkpt lat="47.80027" lon="2.13891">
        <ele>103</ele>
        <time>2018-03-03T13:33:41.669Z</time>
      </trkpt>
      <trkpt lat="47.80038" lon="2.13901">
        <ele>102</ele>
        <time>2018-03-03T13:33:42.674Z</time>
      </trkpt>
      <trkpt lat="47.80039" lon="2.1391">
        <ele>102</ele>
        <time>2018-03-03T13:33:43.673Z</time>
      </trkpt>
      <trkpt lat="47.8004" lon="2.13918">
        <ele>102</ele>
        <time>2018-03-03T13:33:44.676Z</time>
      </trkpt>
      <trkpt lat="47.8004" lon="2.13918">
        <ele>102</ele>
        <time>2018-03-03T13:33:45.669Z</time>
      </trkpt>
      <trkpt lat="47.80042" lon="2.13929">
        <ele>102</ele>
        <time>2018-03-03T13:33:46.675Z</time>
      </trkpt>
      <trkpt lat="47.80042" lon="2.13929">
        <ele>102</ele>
        <time>2018-03-03T13:33:47.671Z</time>
      </trkpt>
      <trkpt lat="47.80044" lon="2.13936">
        <ele>101</ele>
        <time>2018-03-03T13:33:48.675Z</time>
      </trkpt>
      <trkpt lat="47.80044" lon="2.13936">
        <ele>101</ele>
        <time>2018-03-03T13:33:49.672Z</time>
      </trkpt>
      <trkpt lat="47.80046" lon="2.1394">
        <ele>101</ele>
        <time>2018-03-03T13:33:50.685Z</time>
      </trkpt>
      <trkpt lat="47.80046" lon="2.1394">
        <ele>101</ele>
        <time>2018-03-03T13:33:51.674Z</time>
      </trkpt>
      <trkpt lat="47.80048" lon="2.13942">
        <ele>100</ele>
        <time>2018-03-03T13:33:52.671Z</time>
      </trkpt>
      <trkpt lat="47.80048" lon="2.13942">
        <ele>100</ele>
        <time>2018-03-03T13:33:53.687Z</time>
      </trkpt>
      <trkpt lat="47.80049" lon="2.13942">
        <ele>100</ele>
        <time>2018-03-03T13:33:54.681Z</time>
      </trkpt>
      <trkpt lat="47.80049" lon="2.13942">
        <ele>100</ele>
        <time>2018-03-03T13:33:55.675Z</time>
      </trkpt>
      <trkpt lat="47.80049" lon="2.13942">
        <ele>100</ele>
        <time>2018-03-03T13:33:56.666Z</time>
      </trkpt>
      <trkpt lat="47.80049" lon="2.13942">
        <ele>100</ele>
        <time>2018-03-03T13:33:57.698Z</time>
      </trkpt>
      <trkpt lat="47.80057" lon="2.13932">
        <ele>102</ele>
        <time>2018-03-03T13:33:58.666Z</time>
      </trkpt>
      <trkpt lat="47.80058" lon="2.13928">
        <ele>102</ele>
        <time>2018-03-03T13:33:59.667Z</time>
      </trkpt>
      <trkpt lat="47.80059" lon="2.13924">
        <ele>102</ele>
        <time>2018-03-03T13:34:00.666Z</time>
      </trkpt>
      <trkpt lat="47.80059" lon="2.13924">
        <ele>102</ele>
        <time>2018-03-03T13:34:01.701Z</time>
      </trkpt>
      <trkpt lat="47.80062" lon="2.13916">
        <ele>103</ele>
        <time>2018-03-03T13:34:02.667Z</time>
      </trkpt>
      <trkpt lat="47.80062" lon="2.13916">
        <ele>103</ele>
        <time>2018-03-03T13:34:03.704Z</time>
      </trkpt>
      <trkpt lat="47.80067" lon="2.13916">
        <ele>103</ele>
        <time>2018-03-03T13:34:04.666Z</time>
      </trkpt>
      <trkpt lat="47.80067" lon="2.13916">
        <ele>103</ele>
        <time>2018-03-03T13:34:05.674Z</time>
      </trkpt>
      <trkpt lat="47.80072" lon="2.13923">
        <ele>103</ele>
        <time>2018-03-03T13:34:06.666Z</time>
      </trkpt>
      <trkpt lat="47.80075" lon="2.13927">
        <ele>103</ele>
        <time>2018-03-03T13:34:07.666Z</time>
      </trkpt>
      <trkpt lat="47.80075" lon="2.13927">
        <ele>103</ele>
        <time>2018-03-03T13:34:08.700Z</time>
      </trkpt>
      <trkpt lat="47.80082" lon="2.13936">
        <ele>104</ele>
        <time>2018-03-03T13:34:09.665Z</time>
      </trkpt>
      <trkpt lat="47.80086" lon="2.1394">
        <ele>104</ele>
        <time>2018-03-03T13:34:10.665Z</time>
      </trkpt>
      <trkpt lat="47.80086" lon="2.1394">
        <ele>104</ele>
        <time>2018-03-03T13:34:11.704Z</time>
      </trkpt>
      <trkpt lat="47.80095" lon="2.1395">
        <ele>103</ele>
        <time>2018-03-03T13:34:12.666Z</time>
      </trkpt>
      <trkpt lat="47.801" lon="2.13955">
        <ele>104</ele>
        <time>2018-03-03T13:34:13.677Z</time>
      </trkpt>
      <trkpt lat="47.801" lon="2.13955">
        <ele>104</ele>
        <time>2018-03-03T13:34:14.668Z</time>
      </trkpt>
      <trkpt lat="47.80109" lon="2.13965">
        <ele>103</ele>
        <time>2018-03-03T13:34:15.674Z</time>
      </trkpt>
      <trkpt lat="47.80109" lon="2.13965">
        <ele>103</ele>
        <time>2018-03-03T13:34:16.666Z</time>
      </trkpt>
      <trkpt lat="47.80118" lon="2.13977">
        <ele>103</ele>
        <time>2018-03-03T13:34:17.688Z</time>
      </trkpt>
      <trkpt lat="47.80118" lon="2.13977">
        <ele>103</ele>
        <time>2018-03-03T13:34:18.680Z</time>
      </trkpt>
      <trkpt lat="47.80126" lon="2.13989">
        <ele>103</ele>
        <time>2018-03-03T13:34:19.670Z</time>
      </trkpt>
      <trkpt lat="47.80126" lon="2.13989">
        <ele>103</ele>
        <time>2018-03-03T13:34:20.700Z</time>
      </trkpt>
      <trkpt lat="47.80134" lon="2.14002">
        <ele>103</ele>
        <time>2018-03-03T13:34:21.666Z</time>
      </trkpt>
      <trkpt lat="47.80134" lon="2.14002">
        <ele>103</ele>
        <time>2018-03-03T13:34:22.703Z</time>
      </trkpt>
      <trkpt lat="47.80142" lon="2.14015">
        <ele>103</ele>
        <time>2018-03-03T13:34:23.667Z</time>
      </trkpt>
      <trkpt lat="47.80142" lon="2.14015">
        <ele>103</ele>
        <time>2018-03-03T13:34:24.702Z</time>
      </trkpt>
      <trkpt lat="47.80148" lon="2.14029">
        <ele>103</ele>
        <time>2018-03-03T13:34:25.666Z</time>
      </trkpt>
      <trkpt lat="47.80151" lon="2.14037">
        <ele>103</ele>
        <time>2018-03-03T13:34:26.666Z</time>
      </trkpt>
      <trkpt lat="47.80151" lon="2.14037">
        <ele>103</ele>
        <time>2018-03-03T13:34:27.701Z</time>
      </trkpt>
      <trkpt lat="47.80156" lon="2.14051">
        <ele>103</ele>
        <time>2018-03-03T13:34:28.667Z</time>
      </trkpt>
      <trkpt lat="47.80156" lon="2.14051">
        <ele>103</ele>
        <time>2018-03-03T13:34:29.704Z</time>
      </trkpt>
      <trkpt lat="47.80161" lon="2.14066">
        <ele>104</ele>
        <time>2018-03-03T13:34:30.666Z</time>
      </trkpt>
      <trkpt lat="47.80161" lon="2.14066">
        <ele>104</ele>
        <time>2018-03-03T13:34:31.702Z</time>
      </trkpt>
      <trkpt lat="47.80166" lon="2.14083">
        <ele>104</ele>
        <time>2018-03-03T13:34:32.665Z</time>
      </trkpt>
      <trkpt lat="47.80166" lon="2.14083">
        <ele>104</ele>
        <time>2018-03-03T13:34:33.702Z</time>
      </trkpt>
      <trkpt lat="47.8017" lon="2.141">
        <ele>104</ele>
        <time>2018-03-03T13:34:34.665Z</time>
      </trkpt>
      <trkpt lat="47.80171" lon="2.14108">
        <ele>104</ele>
        <time>2018-03-03T13:34:35.667Z</time>
      </trkpt>
      <trkpt lat="47.80171" lon="2.14108">
        <ele>104</ele>
        <time>2018-03-03T13:34:36.701Z</time>
      </trkpt>
      <trkpt lat="47.80173" lon="2.14125">
        <ele>104</ele>
        <time>2018-03-03T13:34:37.667Z</time>
      </trkpt>
      <trkpt lat="47.80173" lon="2.14125">
        <ele>104</ele>
        <time>2018-03-03T13:34:38.701Z</time>
      </trkpt>
      <trkpt lat="47.80175" lon="2.14141">
        <ele>104</ele>
        <time>2018-03-03T13:34:39.666Z</time>
      </trkpt>
      <trkpt lat="47.80176" lon="2.14149">
        <ele>104</ele>
        <time>2018-03-03T13:34:40.682Z</time>
      </trkpt>
      <trkpt lat="47.80176" lon="2.14149">
        <ele>104</ele>
        <time>2018-03-03T13:34:41.672Z</time>
      </trkpt>
      <trkpt lat="47.80177" lon="2.14166">
        <ele>104</ele>
        <time>2018-03-03T13:34:42.667Z</time>
      </trkpt>
      <trkpt lat="47.80177" lon="2.14166">
        <ele>104</ele>
        <time>2018-03-03T13:34:43.701Z</time>
      </trkpt>
      <trkpt lat="47.80179" lon="2.14182">
        <ele>104</ele>
        <time>2018-03-03T13:34:44.665Z</time>
      </trkpt>
      <trkpt lat="47.8018" lon="2.14189">
        <ele>104</ele>
        <time>2018-03-03T13:34:45.704Z</time>
      </trkpt>
      <trkpt lat="47.8018" lon="2.14189">
        <ele>104</ele>
        <time>2018-03-03T13:34:46.704Z</time>
      </trkpt>
      <trkpt lat="47.80181" lon="2.14204">
        <ele>104</ele>
        <time>2018-03-03T13:34:47.667Z</time>
      </trkpt>
      <trkpt lat="47.80181" lon="2.14211">
        <ele>104</ele>
        <time>2018-03-03T13:34:48.667Z</time>
      </trkpt>
      <trkpt lat="47.80181" lon="2.14211">
        <ele>104</ele>
        <time>2018-03-03T13:34:49.705Z</time>
      </trkpt>
      <trkpt lat="47.80182" lon="2.14222">
        <ele>104</ele>
        <time>2018-03-03T13:34:50.666Z</time>
      </trkpt>
      <trkpt lat="47.80181" lon="2.14226">
        <ele>104</ele>
        <time>2018-03-03T13:34:51.666Z</time>
      </trkpt>
      <trkpt lat="47.80181" lon="2.14226">
        <ele>104</ele>
        <time>2018-03-03T13:34:52.702Z</time>
      </trkpt>
      <trkpt lat="47.80177" lon="2.14232">
        <ele>104</ele>
        <time>2018-03-03T13:34:53.667Z</time>
      </trkpt>
      <trkpt lat="47.80177" lon="2.14232">
        <ele>104</ele>
        <time>2018-03-03T13:34:54.701Z</time>
      </trkpt>
      <trkpt lat="47.80171" lon="2.14234">
        <ele>104</ele>
        <time>2018-03-03T13:34:55.665Z</time>
      </trkpt>
      <trkpt lat="47.80171" lon="2.14234">
        <ele>104</ele>
        <time>2018-03-03T13:34:56.700Z</time>
      </trkpt>
      <trkpt lat="47.80164" lon="2.14235">
        <ele>104</ele>
        <time>2018-03-03T13:34:57.703Z</time>
      </trkpt>
      <trkpt lat="47.80159" lon="2.14236">
        <ele>104</ele>
        <time>2018-03-03T13:34:58.666Z</time>
      </trkpt>
      <trkpt lat="47.80159" lon="2.14236">
        <ele>104</ele>
        <time>2018-03-03T13:34:59.702Z</time>
      </trkpt>
      <trkpt lat="47.80149" lon="2.14236">
        <ele>104</ele>
        <time>2018-03-03T13:35:00.667Z</time>
      </trkpt>
      <trkpt lat="47.80149" lon="2.14236">
        <ele>104</ele>
        <time>2018-03-03T13:35:01.704Z</time>
      </trkpt>
      <trkpt lat="47.80138" lon="2.14238">
        <ele>104</ele>
        <time>2018-03-03T13:35:02.666Z</time>
      </trkpt>
      <trkpt lat="47.80138" lon="2.14238">
        <ele>104</ele>
        <time>2018-03-03T13:35:03.702Z</time>
      </trkpt>
      <trkpt lat="47.80127" lon="2.1424">
        <ele>104</ele>
        <time>2018-03-03T13:35:04.699Z</time>
      </trkpt>
      <trkpt lat="47.80121" lon="2.14241">
        <ele>104</ele>
        <time>2018-03-03T13:35:05.672Z</time>
      </trkpt>
      <trkpt lat="47.80115" lon="2.14242">
        <ele>104</ele>
        <time>2018-03-03T13:35:06.667Z</time>
      </trkpt>
      <trkpt lat="47.80115" lon="2.14242">
        <ele>104</ele>
        <time>2018-03-03T13:35:07.701Z</time>
      </trkpt>
      <trkpt lat="47.80105" lon="2.14244">
        <ele>104</ele>
        <time>2018-03-03T13:35:08.667Z</time>
      </trkpt>
      <trkpt lat="47.80105" lon="2.14244">
        <ele>104</ele>
        <time>2018-03-03T13:35:09.665Z</time>
      </trkpt>
      <trkpt lat="47.80095" lon="2.14246">
        <ele>104</ele>
        <time>2018-03-03T13:35:10.667Z</time>
      </trkpt>
      <trkpt lat="47.80095" lon="2.14246">
        <ele>104</ele>
        <time>2018-03-03T13:35:11.704Z</time>
      </trkpt>
      <trkpt lat="47.80086" lon="2.14247">
        <ele>104</ele>
        <time>2018-03-03T13:35:12.666Z</time>
      </trkpt>
      <trkpt lat="47.80086" lon="2.14247">
        <ele>104</ele>
        <time>2018-03-03T13:35:13.701Z</time>
      </trkpt>
      <trkpt lat="47.80078" lon="2.14248">
        <ele>104</ele>
        <time>2018-03-03T13:35:14.684Z</time>
      </trkpt>
      <trkpt lat="47.80078" lon="2.14248">
        <ele>104</ele>
        <time>2018-03-03T13:35:15.674Z</time>
      </trkpt>
      <trkpt lat="47.80071" lon="2.14249">
        <ele>103</ele>
        <time>2018-03-03T13:35:16.669Z</time>
      </trkpt>
      <trkpt lat="47.80071" lon="2.14249">
        <ele>103</ele>
        <time>2018-03-03T13:35:17.702Z</time>
      </trkpt>
      <trkpt lat="47.80067" lon="2.14249">
        <ele>103</ele>
        <time>2018-03-03T13:35:18.667Z</time>
      </trkpt>
      <trkpt lat="47.80067" lon="2.14249">
        <ele>103</ele>
        <time>2018-03-03T13:35:19.701Z</time>
      </trkpt>
      <trkpt lat="47.80066" lon="2.14249">
        <ele>103</ele>
        <time>2018-03-03T13:35:20.670Z</time>
      </trkpt>
      <trkpt lat="47.80066" lon="2.14249">
        <ele>103</ele>
        <time>2018-03-03T13:35:21.700Z</time>
      </trkpt>
      <trkpt lat="47.80066" lon="2.14249">
        <ele>102</ele>
        <time>2018-03-03T13:35:22.673Z</time>
      </trkpt>
    </trkseg>
  </trk>
</gpx>